<?xml version="1.0" encoding="UTF-8" standalone="no" ?>
<gpx xmlns="http://www.topografix.com/GPX/1/1" xmlns:xsi="http://www.w3.org/2001/XMLSchema-instance" xsi:schemaLocation="http://www.topografix.com/GPX/1/1 http://www.topografix.com/GPX/1/1/gpx.xsd" version="1.1" creator="VisuGPX - https://www.visugpx.com">
  <metadata>
    <name>Tramole beau dimanche</name>
    <desc><![CDATA[Un beau dimanche organisé par Caval Isère]]></desc>
  </metadata>
  <trk>
    <name><![CDATA[SityTrail - vs Tramole]]></name>
    <trkseg>
      <trkpt lat="45.51385" lon="5.25803">
        <ele>489</ele>
        <time>2021-10-03T07:54:24.959Z</time>
      </trkpt>
      <trkpt lat="45.51386" lon="5.25805">
        <ele>489</ele>
        <time>2021-10-03T08:01:49.006Z</time>
      </trkpt>
      <trkpt lat="45.51386" lon="5.25806">
        <ele>489</ele>
        <time>2021-10-03T08:01:53.026Z</time>
      </trkpt>
      <trkpt lat="45.51386" lon="5.25813">
        <ele>489</ele>
        <time>2021-10-03T08:01:58.007Z</time>
      </trkpt>
      <trkpt lat="45.51385" lon="5.25818">
        <ele>489</ele>
        <time>2021-10-03T08:02:02.014Z</time>
      </trkpt>
      <trkpt lat="45.51384" lon="5.25824">
        <ele>489</ele>
        <time>2021-10-03T08:02:06.044Z</time>
      </trkpt>
      <trkpt lat="45.51382" lon="5.2583">
        <ele>489</ele>
        <time>2021-10-03T08:02:10.981Z</time>
      </trkpt>
      <trkpt lat="45.51381" lon="5.25835">
        <ele>489</ele>
        <time>2021-10-03T08:02:14.993Z</time>
      </trkpt>
      <trkpt lat="45.51379" lon="5.2584">
        <ele>489</ele>
        <time>2021-10-03T08:02:19.001Z</time>
      </trkpt>
      <trkpt lat="45.51377" lon="5.25846">
        <ele>489</ele>
        <time>2021-10-03T08:02:23.010Z</time>
      </trkpt>
      <trkpt lat="45.51375" lon="5.25852">
        <ele>488</ele>
        <time>2021-10-03T08:02:27.036Z</time>
      </trkpt>
      <trkpt lat="45.5137" lon="5.25852">
        <ele>488</ele>
        <time>2021-10-03T08:02:32.009Z</time>
      </trkpt>
      <trkpt lat="45.51365" lon="5.25848">
        <ele>488</ele>
        <time>2021-10-03T08:02:37.011Z</time>
      </trkpt>
      <trkpt lat="45.51362" lon="5.25843">
        <ele>488</ele>
        <time>2021-10-03T08:02:42.010Z</time>
      </trkpt>
      <trkpt lat="45.51357" lon="5.25838">
        <ele>488</ele>
        <time>2021-10-03T08:02:46.971Z</time>
      </trkpt>
      <trkpt lat="45.51353" lon="5.25832">
        <ele>488</ele>
        <time>2021-10-03T08:02:51.969Z</time>
      </trkpt>
      <trkpt lat="45.51349" lon="5.25828">
        <ele>488</ele>
        <time>2021-10-03T08:02:55.984Z</time>
      </trkpt>
      <trkpt lat="45.51344" lon="5.25823">
        <ele>487</ele>
        <time>2021-10-03T08:03:00.985Z</time>
      </trkpt>
      <trkpt lat="45.51338" lon="5.25817">
        <ele>486</ele>
        <time>2021-10-03T08:03:05.986Z</time>
      </trkpt>
      <trkpt lat="45.51334" lon="5.25811">
        <ele>486</ele>
        <time>2021-10-03T08:03:10.984Z</time>
      </trkpt>
      <trkpt lat="45.5133" lon="5.25806">
        <ele>486</ele>
        <time>2021-10-03T08:03:14.983Z</time>
      </trkpt>
      <trkpt lat="45.51325" lon="5.25801">
        <ele>486</ele>
        <time>2021-10-03T08:03:19.984Z</time>
      </trkpt>
      <trkpt lat="45.5132" lon="5.25795">
        <ele>486</ele>
        <time>2021-10-03T08:03:24.978Z</time>
      </trkpt>
      <trkpt lat="45.51317" lon="5.25787">
        <ele>485</ele>
        <time>2021-10-03T08:03:29.985Z</time>
      </trkpt>
      <trkpt lat="45.51314" lon="5.25783">
        <ele>485</ele>
        <time>2021-10-03T08:03:34.983Z</time>
      </trkpt>
      <trkpt lat="45.51311" lon="5.25777">
        <ele>485</ele>
        <time>2021-10-03T08:03:39.985Z</time>
      </trkpt>
      <trkpt lat="45.51309" lon="5.25774">
        <ele>485</ele>
        <time>2021-10-03T08:03:44.001Z</time>
      </trkpt>
      <trkpt lat="45.51306" lon="5.25768">
        <ele>485</ele>
        <time>2021-10-03T08:03:48.982Z</time>
      </trkpt>
      <trkpt lat="45.51306" lon="5.25761">
        <ele>485</ele>
        <time>2021-10-03T08:03:53.984Z</time>
      </trkpt>
      <trkpt lat="45.51306" lon="5.25757">
        <ele>485</ele>
        <time>2021-10-03T08:03:58.984Z</time>
      </trkpt>
      <trkpt lat="45.513" lon="5.25753">
        <ele>485</ele>
        <time>2021-10-03T08:04:03.983Z</time>
      </trkpt>
      <trkpt lat="45.51296" lon="5.25747">
        <ele>485</ele>
        <time>2021-10-03T08:04:08.987Z</time>
      </trkpt>
      <trkpt lat="45.51292" lon="5.25742">
        <ele>485</ele>
        <time>2021-10-03T08:04:12.984Z</time>
      </trkpt>
      <trkpt lat="45.51288" lon="5.25737">
        <ele>484</ele>
        <time>2021-10-03T08:04:17.984Z</time>
      </trkpt>
      <trkpt lat="45.51284" lon="5.25731">
        <ele>484</ele>
        <time>2021-10-03T08:04:21.985Z</time>
      </trkpt>
      <trkpt lat="45.51279" lon="5.25726">
        <ele>484</ele>
        <time>2021-10-03T08:04:26.983Z</time>
      </trkpt>
      <trkpt lat="45.51277" lon="5.25721">
        <ele>484</ele>
        <time>2021-10-03T08:04:31.988Z</time>
      </trkpt>
      <trkpt lat="45.51274" lon="5.25719">
        <ele>484</ele>
        <time>2021-10-03T08:04:35.984Z</time>
      </trkpt>
      <trkpt lat="45.51269" lon="5.25713">
        <ele>484</ele>
        <time>2021-10-03T08:05:08.984Z</time>
      </trkpt>
      <trkpt lat="45.51269" lon="5.25713">
        <ele>484</ele>
        <time>2021-10-03T08:05:13.984Z</time>
      </trkpt>
      <trkpt lat="45.51267" lon="5.2571">
        <ele>484</ele>
        <time>2021-10-03T08:05:18.983Z</time>
      </trkpt>
      <trkpt lat="45.51265" lon="5.25707">
        <ele>484</ele>
        <time>2021-10-03T08:05:22.980Z</time>
      </trkpt>
      <trkpt lat="45.51265" lon="5.25701">
        <ele>484</ele>
        <time>2021-10-03T08:05:27.987Z</time>
      </trkpt>
      <trkpt lat="45.51261" lon="5.25703">
        <ele>482</ele>
        <time>2021-10-03T08:06:46.981Z</time>
      </trkpt>
      <trkpt lat="45.51261" lon="5.25703">
        <ele>482</ele>
        <time>2021-10-03T08:06:51.982Z</time>
      </trkpt>
      <trkpt lat="45.51261" lon="5.25703">
        <ele>482</ele>
        <time>2021-10-03T08:06:56.979Z</time>
      </trkpt>
      <trkpt lat="45.51266" lon="5.25701">
        <ele>484</ele>
        <time>2021-10-03T08:07:01.984Z</time>
      </trkpt>
      <trkpt lat="45.51269" lon="5.25704">
        <ele>484</ele>
        <time>2021-10-03T08:07:06.980Z</time>
      </trkpt>
      <trkpt lat="45.51265" lon="5.25703">
        <ele>484</ele>
        <time>2021-10-03T08:07:48.984Z</time>
      </trkpt>
      <trkpt lat="45.51264" lon="5.25704">
        <ele>484</ele>
        <time>2021-10-03T08:07:53.997Z</time>
      </trkpt>
      <trkpt lat="45.51264" lon="5.25704">
        <ele>482</ele>
        <time>2021-10-03T08:07:58.978Z</time>
      </trkpt>
      <trkpt lat="45.51263" lon="5.25704">
        <ele>482</ele>
        <time>2021-10-03T08:08:02.994Z</time>
      </trkpt>
      <trkpt lat="45.51257" lon="5.25697">
        <ele>482</ele>
        <time>2021-10-03T08:08:08.008Z</time>
      </trkpt>
      <trkpt lat="45.51252" lon="5.2569">
        <ele>482</ele>
        <time>2021-10-03T08:08:13.012Z</time>
      </trkpt>
      <trkpt lat="45.51247" lon="5.25684">
        <ele>482</ele>
        <time>2021-10-03T08:08:18.004Z</time>
      </trkpt>
      <trkpt lat="45.51243" lon="5.25677">
        <ele>483</ele>
        <time>2021-10-03T08:08:22.960Z</time>
      </trkpt>
      <trkpt lat="45.51239" lon="5.25671">
        <ele>483</ele>
        <time>2021-10-03T08:08:27.001Z</time>
      </trkpt>
      <trkpt lat="45.51236" lon="5.25665">
        <ele>482</ele>
        <time>2021-10-03T08:08:31.024Z</time>
      </trkpt>
      <trkpt lat="45.51231" lon="5.25658">
        <ele>482</ele>
        <time>2021-10-03T08:08:36.015Z</time>
      </trkpt>
      <trkpt lat="45.51226" lon="5.25652">
        <ele>483</ele>
        <time>2021-10-03T08:08:40.041Z</time>
      </trkpt>
      <trkpt lat="45.51221" lon="5.25643">
        <ele>483</ele>
        <time>2021-10-03T08:08:45.035Z</time>
      </trkpt>
      <trkpt lat="45.51214" lon="5.25635">
        <ele>483</ele>
        <time>2021-10-03T08:08:49.969Z</time>
      </trkpt>
      <trkpt lat="45.51211" lon="5.2563">
        <ele>483</ele>
        <time>2021-10-03T08:08:54.006Z</time>
      </trkpt>
      <trkpt lat="45.51208" lon="5.25625">
        <ele>484</ele>
        <time>2021-10-03T08:08:58.038Z</time>
      </trkpt>
      <trkpt lat="45.51204" lon="5.25617">
        <ele>484</ele>
        <time>2021-10-03T08:09:03.013Z</time>
      </trkpt>
      <trkpt lat="45.51201" lon="5.25611">
        <ele>484</ele>
        <time>2021-10-03T08:09:07.016Z</time>
      </trkpt>
      <trkpt lat="45.51197" lon="5.25604">
        <ele>484</ele>
        <time>2021-10-03T08:09:12.009Z</time>
      </trkpt>
      <trkpt lat="45.51194" lon="5.25597">
        <ele>485</ele>
        <time>2021-10-03T08:09:16.033Z</time>
      </trkpt>
      <trkpt lat="45.5119" lon="5.25588">
        <ele>485</ele>
        <time>2021-10-03T08:09:21.010Z</time>
      </trkpt>
      <trkpt lat="45.51188" lon="5.2558">
        <ele>485</ele>
        <time>2021-10-03T08:09:25.049Z</time>
      </trkpt>
      <trkpt lat="45.51186" lon="5.2557">
        <ele>485</ele>
        <time>2021-10-03T08:09:30.010Z</time>
      </trkpt>
      <trkpt lat="45.51184" lon="5.2556">
        <ele>485</ele>
        <time>2021-10-03T08:09:34.996Z</time>
      </trkpt>
      <trkpt lat="45.51183" lon="5.25554">
        <ele>485</ele>
        <time>2021-10-03T08:09:39.017Z</time>
      </trkpt>
      <trkpt lat="45.51181" lon="5.25545">
        <ele>485</ele>
        <time>2021-10-03T08:09:44.012Z</time>
      </trkpt>
      <trkpt lat="45.51181" lon="5.25536">
        <ele>485</ele>
        <time>2021-10-03T08:09:49.026Z</time>
      </trkpt>
      <trkpt lat="45.5118" lon="5.25525">
        <ele>485</ele>
        <time>2021-10-03T08:09:54.004Z</time>
      </trkpt>
      <trkpt lat="45.5118" lon="5.25518">
        <ele>485</ele>
        <time>2021-10-03T08:09:58.037Z</time>
      </trkpt>
      <trkpt lat="45.51178" lon="5.25508">
        <ele>485</ele>
        <time>2021-10-03T08:10:03.023Z</time>
      </trkpt>
      <trkpt lat="45.51178" lon="5.25499">
        <ele>485</ele>
        <time>2021-10-03T08:10:08.003Z</time>
      </trkpt>
      <trkpt lat="45.51178" lon="5.25491">
        <ele>485</ele>
        <time>2021-10-03T08:10:12.996Z</time>
      </trkpt>
      <trkpt lat="45.51177" lon="5.25485">
        <ele>485</ele>
        <time>2021-10-03T08:10:17.005Z</time>
      </trkpt>
      <trkpt lat="45.51176" lon="5.25476">
        <ele>485</ele>
        <time>2021-10-03T08:10:21.017Z</time>
      </trkpt>
      <trkpt lat="45.51176" lon="5.25464">
        <ele>485</ele>
        <time>2021-10-03T08:10:25.967Z</time>
      </trkpt>
      <trkpt lat="45.51175" lon="5.25455">
        <ele>485</ele>
        <time>2021-10-03T08:10:30.009Z</time>
      </trkpt>
      <trkpt lat="45.51174" lon="5.25443">
        <ele>485</ele>
        <time>2021-10-03T08:10:35.006Z</time>
      </trkpt>
      <trkpt lat="45.51173" lon="5.25433">
        <ele>485</ele>
        <time>2021-10-03T08:10:40.017Z</time>
      </trkpt>
      <trkpt lat="45.51173" lon="5.2542">
        <ele>485</ele>
        <time>2021-10-03T08:10:45.003Z</time>
      </trkpt>
      <trkpt lat="45.51175" lon="5.25412">
        <ele>485</ele>
        <time>2021-10-03T08:10:49.977Z</time>
      </trkpt>
      <trkpt lat="45.51173" lon="5.25406">
        <ele>485</ele>
        <time>2021-10-03T08:10:54.004Z</time>
      </trkpt>
      <trkpt lat="45.51173" lon="5.25397">
        <ele>485</ele>
        <time>2021-10-03T08:10:59.012Z</time>
      </trkpt>
      <trkpt lat="45.51172" lon="5.25389">
        <ele>485</ele>
        <time>2021-10-03T08:11:04.010Z</time>
      </trkpt>
      <trkpt lat="45.5117" lon="5.25382">
        <ele>485</ele>
        <time>2021-10-03T08:11:08.013Z</time>
      </trkpt>
      <trkpt lat="45.51168" lon="5.25373">
        <ele>484</ele>
        <time>2021-10-03T08:11:12.996Z</time>
      </trkpt>
      <trkpt lat="45.51166" lon="5.25369">
        <ele>484</ele>
        <time>2021-10-03T08:11:17.002Z</time>
      </trkpt>
      <trkpt lat="45.51161" lon="5.25366">
        <ele>484</ele>
        <time>2021-10-03T08:11:21.040Z</time>
      </trkpt>
      <trkpt lat="45.51156" lon="5.25363">
        <ele>484</ele>
        <time>2021-10-03T08:11:26.006Z</time>
      </trkpt>
      <trkpt lat="45.51151" lon="5.2536">
        <ele>483</ele>
        <time>2021-10-03T08:11:30.018Z</time>
      </trkpt>
      <trkpt lat="45.51145" lon="5.25357">
        <ele>483</ele>
        <time>2021-10-03T08:11:35.011Z</time>
      </trkpt>
      <trkpt lat="45.51138" lon="5.25354">
        <ele>483</ele>
        <time>2021-10-03T08:11:40.005Z</time>
      </trkpt>
      <trkpt lat="45.51133" lon="5.25352">
        <ele>483</ele>
        <time>2021-10-03T08:11:44.015Z</time>
      </trkpt>
      <trkpt lat="45.51125" lon="5.25349">
        <ele>484</ele>
        <time>2021-10-03T08:11:49.004Z</time>
      </trkpt>
      <trkpt lat="45.5112" lon="5.25345">
        <ele>484</ele>
        <time>2021-10-03T08:11:53.026Z</time>
      </trkpt>
      <trkpt lat="45.51113" lon="5.25342">
        <ele>484</ele>
        <time>2021-10-03T08:11:58.005Z</time>
      </trkpt>
      <trkpt lat="45.51107" lon="5.2534">
        <ele>484</ele>
        <time>2021-10-03T08:12:02.021Z</time>
      </trkpt>
      <trkpt lat="45.511" lon="5.25337">
        <ele>484</ele>
        <time>2021-10-03T08:12:07.010Z</time>
      </trkpt>
      <trkpt lat="45.51093" lon="5.25335">
        <ele>484</ele>
        <time>2021-10-03T08:12:12.002Z</time>
      </trkpt>
      <trkpt lat="45.51085" lon="5.25334">
        <ele>484</ele>
        <time>2021-10-03T08:12:17.014Z</time>
      </trkpt>
      <trkpt lat="45.51077" lon="5.25331">
        <ele>484</ele>
        <time>2021-10-03T08:12:22Z</time>
      </trkpt>
      <trkpt lat="45.51069" lon="5.2533">
        <ele>483</ele>
        <time>2021-10-03T08:12:27.021Z</time>
      </trkpt>
      <trkpt lat="45.5106" lon="5.25329">
        <ele>483</ele>
        <time>2021-10-03T08:12:31.988Z</time>
      </trkpt>
      <trkpt lat="45.51053" lon="5.25327">
        <ele>483</ele>
        <time>2021-10-03T08:12:35.991Z</time>
      </trkpt>
      <trkpt lat="45.51045" lon="5.25326">
        <ele>483</ele>
        <time>2021-10-03T08:12:40.013Z</time>
      </trkpt>
      <trkpt lat="45.51038" lon="5.25327">
        <ele>483</ele>
        <time>2021-10-03T08:12:44.056Z</time>
      </trkpt>
      <trkpt lat="45.5103" lon="5.25326">
        <ele>483</ele>
        <time>2021-10-03T08:12:48.976Z</time>
      </trkpt>
      <trkpt lat="45.51024" lon="5.25325">
        <ele>483</ele>
        <time>2021-10-03T08:12:53.001Z</time>
      </trkpt>
      <trkpt lat="45.51016" lon="5.25326">
        <ele>483</ele>
        <time>2021-10-03T08:12:58.011Z</time>
      </trkpt>
      <trkpt lat="45.51007" lon="5.25326">
        <ele>482</ele>
        <time>2021-10-03T08:13:03.018Z</time>
      </trkpt>
      <trkpt lat="45.51" lon="5.25327">
        <ele>482</ele>
        <time>2021-10-03T08:13:08.013Z</time>
      </trkpt>
      <trkpt lat="45.50992" lon="5.25327">
        <ele>482</ele>
        <time>2021-10-03T08:13:13.006Z</time>
      </trkpt>
      <trkpt lat="45.50986" lon="5.25327">
        <ele>482</ele>
        <time>2021-10-03T08:13:17.039Z</time>
      </trkpt>
      <trkpt lat="45.50978" lon="5.25327">
        <ele>482</ele>
        <time>2021-10-03T08:13:22.015Z</time>
      </trkpt>
      <trkpt lat="45.50971" lon="5.25328">
        <ele>482</ele>
        <time>2021-10-03T08:13:27.013Z</time>
      </trkpt>
      <trkpt lat="45.50964" lon="5.2533">
        <ele>482</ele>
        <time>2021-10-03T08:13:32.030Z</time>
      </trkpt>
      <trkpt lat="45.50957" lon="5.25332">
        <ele>484</ele>
        <time>2021-10-03T08:13:37.002Z</time>
      </trkpt>
      <trkpt lat="45.50949" lon="5.25335">
        <ele>484</ele>
        <time>2021-10-03T08:13:42.011Z</time>
      </trkpt>
      <trkpt lat="45.50941" lon="5.2534">
        <ele>484</ele>
        <time>2021-10-03T08:13:47.004Z</time>
      </trkpt>
      <trkpt lat="45.50936" lon="5.25343">
        <ele>484</ele>
        <time>2021-10-03T08:13:51.046Z</time>
      </trkpt>
      <trkpt lat="45.5093" lon="5.25347">
        <ele>485</ele>
        <time>2021-10-03T08:13:56.011Z</time>
      </trkpt>
      <trkpt lat="45.50924" lon="5.25351">
        <ele>483</ele>
        <time>2021-10-03T08:14:01.013Z</time>
      </trkpt>
      <trkpt lat="45.50917" lon="5.25356">
        <ele>483</ele>
        <time>2021-10-03T08:14:06.003Z</time>
      </trkpt>
      <trkpt lat="45.50912" lon="5.2536">
        <ele>483</ele>
        <time>2021-10-03T08:14:10.018Z</time>
      </trkpt>
      <trkpt lat="45.50905" lon="5.25364">
        <ele>483</ele>
        <time>2021-10-03T08:14:15.012Z</time>
      </trkpt>
      <trkpt lat="45.50898" lon="5.25368">
        <ele>484</ele>
        <time>2021-10-03T08:14:20.009Z</time>
      </trkpt>
      <trkpt lat="45.50891" lon="5.25373">
        <ele>484</ele>
        <time>2021-10-03T08:14:25.011Z</time>
      </trkpt>
      <trkpt lat="45.50884" lon="5.25377">
        <ele>482</ele>
        <time>2021-10-03T08:14:30.008Z</time>
      </trkpt>
      <trkpt lat="45.50878" lon="5.2538">
        <ele>482</ele>
        <time>2021-10-03T08:14:34.062Z</time>
      </trkpt>
      <trkpt lat="45.50871" lon="5.25384">
        <ele>483</ele>
        <time>2021-10-03T08:14:39.015Z</time>
      </trkpt>
      <trkpt lat="45.50865" lon="5.25388">
        <ele>483</ele>
        <time>2021-10-03T08:14:44.007Z</time>
      </trkpt>
      <trkpt lat="45.50859" lon="5.2539">
        <ele>483</ele>
        <time>2021-10-03T08:14:49.035Z</time>
      </trkpt>
      <trkpt lat="45.50853" lon="5.25393">
        <ele>483</ele>
        <time>2021-10-03T08:14:53.962Z</time>
      </trkpt>
      <trkpt lat="45.50848" lon="5.25394">
        <ele>483</ele>
        <time>2021-10-03T08:14:57.967Z</time>
      </trkpt>
      <trkpt lat="45.50842" lon="5.25395">
        <ele>483</ele>
        <time>2021-10-03T08:15:02.967Z</time>
      </trkpt>
      <trkpt lat="45.50837" lon="5.25397">
        <ele>483</ele>
        <time>2021-10-03T08:15:06.972Z</time>
      </trkpt>
      <trkpt lat="45.50832" lon="5.25399">
        <ele>483</ele>
        <time>2021-10-03T08:15:11.005Z</time>
      </trkpt>
      <trkpt lat="45.50823" lon="5.25402">
        <ele>483</ele>
        <time>2021-10-03T08:15:16.016Z</time>
      </trkpt>
      <trkpt lat="45.50816" lon="5.25403">
        <ele>481</ele>
        <time>2021-10-03T08:15:21.011Z</time>
      </trkpt>
      <trkpt lat="45.50811" lon="5.25404">
        <ele>481</ele>
        <time>2021-10-03T08:15:25.022Z</time>
      </trkpt>
      <trkpt lat="45.50804" lon="5.25405">
        <ele>481</ele>
        <time>2021-10-03T08:15:30.005Z</time>
      </trkpt>
      <trkpt lat="45.50797" lon="5.25406">
        <ele>481</ele>
        <time>2021-10-03T08:15:34.973Z</time>
      </trkpt>
      <trkpt lat="45.50791" lon="5.25407">
        <ele>482</ele>
        <time>2021-10-03T08:15:38.995Z</time>
      </trkpt>
      <trkpt lat="45.50784" lon="5.25409">
        <ele>482</ele>
        <time>2021-10-03T08:15:44.016Z</time>
      </trkpt>
      <trkpt lat="45.50779" lon="5.2541">
        <ele>482</ele>
        <time>2021-10-03T08:15:48.023Z</time>
      </trkpt>
      <trkpt lat="45.50772" lon="5.25413">
        <ele>482</ele>
        <time>2021-10-03T08:15:53.008Z</time>
      </trkpt>
      <trkpt lat="45.50766" lon="5.25415">
        <ele>482</ele>
        <time>2021-10-03T08:15:57.045Z</time>
      </trkpt>
      <trkpt lat="45.5076" lon="5.25418">
        <ele>482</ele>
        <time>2021-10-03T08:16:02.016Z</time>
      </trkpt>
      <trkpt lat="45.50754" lon="5.25421">
        <ele>482</ele>
        <time>2021-10-03T08:16:06.042Z</time>
      </trkpt>
      <trkpt lat="45.50747" lon="5.25425">
        <ele>482</ele>
        <time>2021-10-03T08:16:11.010Z</time>
      </trkpt>
      <trkpt lat="45.50741" lon="5.25429">
        <ele>482</ele>
        <time>2021-10-03T08:16:15.032Z</time>
      </trkpt>
      <trkpt lat="45.50737" lon="5.25431">
        <ele>480</ele>
        <time>2021-10-03T08:16:19.045Z</time>
      </trkpt>
      <trkpt lat="45.50731" lon="5.25436">
        <ele>479</ele>
        <time>2021-10-03T08:16:24.004Z</time>
      </trkpt>
      <trkpt lat="45.50723" lon="5.25442">
        <ele>479</ele>
        <time>2021-10-03T08:16:29.016Z</time>
      </trkpt>
      <trkpt lat="45.50716" lon="5.25446">
        <ele>479</ele>
        <time>2021-10-03T08:16:33.999Z</time>
      </trkpt>
      <trkpt lat="45.50711" lon="5.25449">
        <ele>479</ele>
        <time>2021-10-03T08:16:38.006Z</time>
      </trkpt>
      <trkpt lat="45.50706" lon="5.25452">
        <ele>478</ele>
        <time>2021-10-03T08:16:42.034Z</time>
      </trkpt>
      <trkpt lat="45.507" lon="5.25457">
        <ele>478</ele>
        <time>2021-10-03T08:16:47.040Z</time>
      </trkpt>
      <trkpt lat="45.50696" lon="5.25463">
        <ele>476</ele>
        <time>2021-10-03T08:16:51.968Z</time>
      </trkpt>
      <trkpt lat="45.50691" lon="5.25467">
        <ele>476</ele>
        <time>2021-10-03T08:16:55.997Z</time>
      </trkpt>
      <trkpt lat="45.50686" lon="5.25468">
        <ele>476</ele>
        <time>2021-10-03T08:17:00.006Z</time>
      </trkpt>
      <trkpt lat="45.50679" lon="5.25471">
        <ele>476</ele>
        <time>2021-10-03T08:17:04.019Z</time>
      </trkpt>
      <trkpt lat="45.50671" lon="5.25473">
        <ele>476</ele>
        <time>2021-10-03T08:17:09.007Z</time>
      </trkpt>
      <trkpt lat="45.50666" lon="5.25473">
        <ele>476</ele>
        <time>2021-10-03T08:17:13.014Z</time>
      </trkpt>
      <trkpt lat="45.50658" lon="5.25473">
        <ele>476</ele>
        <time>2021-10-03T08:17:18.043Z</time>
      </trkpt>
      <trkpt lat="45.50651" lon="5.25475">
        <ele>477</ele>
        <time>2021-10-03T08:17:23.012Z</time>
      </trkpt>
      <trkpt lat="45.50646" lon="5.25477">
        <ele>477</ele>
        <time>2021-10-03T08:17:28.008Z</time>
      </trkpt>
      <trkpt lat="45.50641" lon="5.25479">
        <ele>477</ele>
        <time>2021-10-03T08:17:32.036Z</time>
      </trkpt>
      <trkpt lat="45.50634" lon="5.25481">
        <ele>477</ele>
        <time>2021-10-03T08:17:36.971Z</time>
      </trkpt>
      <trkpt lat="45.50629" lon="5.25483">
        <ele>477</ele>
        <time>2021-10-03T08:17:41.022Z</time>
      </trkpt>
      <trkpt lat="45.50624" lon="5.25485">
        <ele>477</ele>
        <time>2021-10-03T08:17:46.004Z</time>
      </trkpt>
      <trkpt lat="45.50619" lon="5.25485">
        <ele>477</ele>
        <time>2021-10-03T08:17:50.014Z</time>
      </trkpt>
      <trkpt lat="45.50611" lon="5.25488">
        <ele>477</ele>
        <time>2021-10-03T08:17:54.967Z</time>
      </trkpt>
      <trkpt lat="45.50604" lon="5.25491">
        <ele>477</ele>
        <time>2021-10-03T08:17:59.018Z</time>
      </trkpt>
      <trkpt lat="45.50599" lon="5.25494">
        <ele>477</ele>
        <time>2021-10-03T08:18:04.018Z</time>
      </trkpt>
      <trkpt lat="45.50593" lon="5.25496">
        <ele>476</ele>
        <time>2021-10-03T08:18:09.003Z</time>
      </trkpt>
      <trkpt lat="45.50588" lon="5.25499">
        <ele>476</ele>
        <time>2021-10-03T08:18:13.022Z</time>
      </trkpt>
      <trkpt lat="45.50583" lon="5.25502">
        <ele>476</ele>
        <time>2021-10-03T08:18:18.009Z</time>
      </trkpt>
      <trkpt lat="45.50578" lon="5.25505">
        <ele>476</ele>
        <time>2021-10-03T08:18:23.001Z</time>
      </trkpt>
      <trkpt lat="45.50573" lon="5.25508">
        <ele>476</ele>
        <time>2021-10-03T08:18:27.042Z</time>
      </trkpt>
      <trkpt lat="45.50568" lon="5.2551">
        <ele>472</ele>
        <time>2021-10-03T08:18:32.002Z</time>
      </trkpt>
      <trkpt lat="45.50564" lon="5.25513">
        <ele>472</ele>
        <time>2021-10-03T08:18:36.016Z</time>
      </trkpt>
      <trkpt lat="45.50561" lon="5.25518">
        <ele>470</ele>
        <time>2021-10-03T08:18:40.997Z</time>
      </trkpt>
      <trkpt lat="45.50555" lon="5.25521">
        <ele>470</ele>
        <time>2021-10-03T08:18:46.026Z</time>
      </trkpt>
      <trkpt lat="45.50549" lon="5.25523">
        <ele>470</ele>
        <time>2021-10-03T08:18:51.001Z</time>
      </trkpt>
      <trkpt lat="45.50542" lon="5.25524">
        <ele>470</ele>
        <time>2021-10-03T08:18:56.007Z</time>
      </trkpt>
      <trkpt lat="45.50536" lon="5.25526">
        <ele>468</ele>
        <time>2021-10-03T08:19:01.011Z</time>
      </trkpt>
      <trkpt lat="45.50528" lon="5.25527">
        <ele>468</ele>
        <time>2021-10-03T08:19:06.008Z</time>
      </trkpt>
      <trkpt lat="45.50521" lon="5.25528">
        <ele>468</ele>
        <time>2021-10-03T08:19:10.994Z</time>
      </trkpt>
      <trkpt lat="45.50517" lon="5.25528">
        <ele>468</ele>
        <time>2021-10-03T08:19:15.001Z</time>
      </trkpt>
      <trkpt lat="45.50511" lon="5.25526">
        <ele>468</ele>
        <time>2021-10-03T08:19:20.015Z</time>
      </trkpt>
      <trkpt lat="45.50504" lon="5.25524">
        <ele>468</ele>
        <time>2021-10-03T08:19:25.012Z</time>
      </trkpt>
      <trkpt lat="45.505" lon="5.25522">
        <ele>468</ele>
        <time>2021-10-03T08:19:29.040Z</time>
      </trkpt>
      <trkpt lat="45.50495" lon="5.25522">
        <ele>468</ele>
        <time>2021-10-03T08:19:33.048Z</time>
      </trkpt>
      <trkpt lat="45.50488" lon="5.25524">
        <ele>468</ele>
        <time>2021-10-03T08:19:38.017Z</time>
      </trkpt>
      <trkpt lat="45.50482" lon="5.25527">
        <ele>471</ele>
        <time>2021-10-03T08:19:42.969Z</time>
      </trkpt>
      <trkpt lat="45.50476" lon="5.25531">
        <ele>471</ele>
        <time>2021-10-03T08:19:47.959Z</time>
      </trkpt>
      <trkpt lat="45.50472" lon="5.25535">
        <ele>471</ele>
        <time>2021-10-03T08:19:52.008Z</time>
      </trkpt>
      <trkpt lat="45.50466" lon="5.25541">
        <ele>471</ele>
        <time>2021-10-03T08:19:57.008Z</time>
      </trkpt>
      <trkpt lat="45.5046" lon="5.25547">
        <ele>469</ele>
        <time>2021-10-03T08:20:02.032Z</time>
      </trkpt>
      <trkpt lat="45.50455" lon="5.25555">
        <ele>471</ele>
        <time>2021-10-03T08:20:06.998Z</time>
      </trkpt>
      <trkpt lat="45.50453" lon="5.25561">
        <ele>471</ele>
        <time>2021-10-03T08:20:11.034Z</time>
      </trkpt>
      <trkpt lat="45.50448" lon="5.25569">
        <ele>471</ele>
        <time>2021-10-03T08:20:16.008Z</time>
      </trkpt>
      <trkpt lat="45.50443" lon="5.25576">
        <ele>470</ele>
        <time>2021-10-03T08:20:20.036Z</time>
      </trkpt>
      <trkpt lat="45.50439" lon="5.25585">
        <ele>470</ele>
        <time>2021-10-03T08:20:25.034Z</time>
      </trkpt>
      <trkpt lat="45.50433" lon="5.25592">
        <ele>470</ele>
        <time>2021-10-03T08:20:30.003Z</time>
      </trkpt>
      <trkpt lat="45.50429" lon="5.25599">
        <ele>470</ele>
        <time>2021-10-03T08:20:35.010Z</time>
      </trkpt>
      <trkpt lat="45.50425" lon="5.25604">
        <ele>470</ele>
        <time>2021-10-03T08:20:39.012Z</time>
      </trkpt>
      <trkpt lat="45.50421" lon="5.25609">
        <ele>470</ele>
        <time>2021-10-03T08:20:43.033Z</time>
      </trkpt>
      <trkpt lat="45.50416" lon="5.25617">
        <ele>470</ele>
        <time>2021-10-03T08:20:48.007Z</time>
      </trkpt>
      <trkpt lat="45.50413" lon="5.25624">
        <ele>470</ele>
        <time>2021-10-03T08:20:53.003Z</time>
      </trkpt>
      <trkpt lat="45.50409" lon="5.25628">
        <ele>468</ele>
        <time>2021-10-03T08:20:57.038Z</time>
      </trkpt>
      <trkpt lat="45.50404" lon="5.25634">
        <ele>468</ele>
        <time>2021-10-03T08:21:01.963Z</time>
      </trkpt>
      <trkpt lat="45.504" lon="5.25638">
        <ele>469</ele>
        <time>2021-10-03T08:21:05.995Z</time>
      </trkpt>
      <trkpt lat="45.50394" lon="5.25645">
        <ele>469</ele>
        <time>2021-10-03T08:21:10.973Z</time>
      </trkpt>
      <trkpt lat="45.5039" lon="5.25648">
        <ele>469</ele>
        <time>2021-10-03T08:21:15.014Z</time>
      </trkpt>
      <trkpt lat="45.50382" lon="5.2565">
        <ele>469</ele>
        <time>2021-10-03T08:21:20.003Z</time>
      </trkpt>
      <trkpt lat="45.50376" lon="5.25653">
        <ele>469</ele>
        <time>2021-10-03T08:21:24.998Z</time>
      </trkpt>
      <trkpt lat="45.50372" lon="5.25655">
        <ele>467</ele>
        <time>2021-10-03T08:21:29.021Z</time>
      </trkpt>
      <trkpt lat="45.50365" lon="5.25658">
        <ele>467</ele>
        <time>2021-10-03T08:21:34.006Z</time>
      </trkpt>
      <trkpt lat="45.50359" lon="5.25661">
        <ele>467</ele>
        <time>2021-10-03T08:21:39Z</time>
      </trkpt>
      <trkpt lat="45.50354" lon="5.25662">
        <ele>467</ele>
        <time>2021-10-03T08:21:43.006Z</time>
      </trkpt>
      <trkpt lat="45.50349" lon="5.25665">
        <ele>467</ele>
        <time>2021-10-03T08:21:47.976Z</time>
      </trkpt>
      <trkpt lat="45.50342" lon="5.25668">
        <ele>471</ele>
        <time>2021-10-03T08:21:52.014Z</time>
      </trkpt>
      <trkpt lat="45.50334" lon="5.25672">
        <ele>471</ele>
        <time>2021-10-03T08:21:57.019Z</time>
      </trkpt>
      <trkpt lat="45.50329" lon="5.25673">
        <ele>471</ele>
        <time>2021-10-03T08:22:01.975Z</time>
      </trkpt>
      <trkpt lat="45.50324" lon="5.25674">
        <ele>471</ele>
        <time>2021-10-03T08:22:05.994Z</time>
      </trkpt>
      <trkpt lat="45.5032" lon="5.25676">
        <ele>471</ele>
        <time>2021-10-03T08:22:10.004Z</time>
      </trkpt>
      <trkpt lat="45.50313" lon="5.25679">
        <ele>474</ele>
        <time>2021-10-03T08:22:14.016Z</time>
      </trkpt>
      <trkpt lat="45.50307" lon="5.25682">
        <ele>474</ele>
        <time>2021-10-03T08:22:19.004Z</time>
      </trkpt>
      <trkpt lat="45.50301" lon="5.25684">
        <ele>474</ele>
        <time>2021-10-03T08:22:23.998Z</time>
      </trkpt>
      <trkpt lat="45.50296" lon="5.25686">
        <ele>474</ele>
        <time>2021-10-03T08:22:28.010Z</time>
      </trkpt>
      <trkpt lat="45.5029" lon="5.25689">
        <ele>477</ele>
        <time>2021-10-03T08:22:33.072Z</time>
      </trkpt>
      <trkpt lat="45.50282" lon="5.25689">
        <ele>477</ele>
        <time>2021-10-03T08:22:38.013Z</time>
      </trkpt>
      <trkpt lat="45.50274" lon="5.25689">
        <ele>477</ele>
        <time>2021-10-03T08:22:43.020Z</time>
      </trkpt>
      <trkpt lat="45.50267" lon="5.25689">
        <ele>477</ele>
        <time>2021-10-03T08:22:48.010Z</time>
      </trkpt>
      <trkpt lat="45.5026" lon="5.25687">
        <ele>479</ele>
        <time>2021-10-03T08:22:53.035Z</time>
      </trkpt>
      <trkpt lat="45.50252" lon="5.25684">
        <ele>479</ele>
        <time>2021-10-03T08:22:57.977Z</time>
      </trkpt>
      <trkpt lat="45.50245" lon="5.25681">
        <ele>479</ele>
        <time>2021-10-03T08:23:02.967Z</time>
      </trkpt>
      <trkpt lat="45.5024" lon="5.25678">
        <ele>476</ele>
        <time>2021-10-03T08:23:06.994Z</time>
      </trkpt>
      <trkpt lat="45.50233" lon="5.25673">
        <ele>481</ele>
        <time>2021-10-03T08:23:12.009Z</time>
      </trkpt>
      <trkpt lat="45.50227" lon="5.25667">
        <ele>481</ele>
        <time>2021-10-03T08:23:17.006Z</time>
      </trkpt>
      <trkpt lat="45.50221" lon="5.25663">
        <ele>481</ele>
        <time>2021-10-03T08:23:22.008Z</time>
      </trkpt>
      <trkpt lat="45.50216" lon="5.25658">
        <ele>481</ele>
        <time>2021-10-03T08:23:26.998Z</time>
      </trkpt>
      <trkpt lat="45.50211" lon="5.25654">
        <ele>481</ele>
        <time>2021-10-03T08:23:31.063Z</time>
      </trkpt>
      <trkpt lat="45.50205" lon="5.25649">
        <ele>484</ele>
        <time>2021-10-03T08:23:36.042Z</time>
      </trkpt>
      <trkpt lat="45.502" lon="5.25644">
        <ele>484</ele>
        <time>2021-10-03T08:23:41.014Z</time>
      </trkpt>
      <trkpt lat="45.50193" lon="5.25639">
        <ele>484</ele>
        <time>2021-10-03T08:23:46.011Z</time>
      </trkpt>
      <trkpt lat="45.50187" lon="5.25635">
        <ele>484</ele>
        <time>2021-10-03T08:23:50.039Z</time>
      </trkpt>
      <trkpt lat="45.50181" lon="5.2563">
        <ele>484</ele>
        <time>2021-10-03T08:23:55.009Z</time>
      </trkpt>
      <trkpt lat="45.50175" lon="5.25626">
        <ele>485</ele>
        <time>2021-10-03T08:23:59.992Z</time>
      </trkpt>
      <trkpt lat="45.50169" lon="5.25625">
        <ele>485</ele>
        <time>2021-10-03T08:24:05.008Z</time>
      </trkpt>
      <trkpt lat="45.50162" lon="5.25626">
        <ele>485</ele>
        <time>2021-10-03T08:24:10.012Z</time>
      </trkpt>
      <trkpt lat="45.50156" lon="5.25629">
        <ele>485</ele>
        <time>2021-10-03T08:24:15.002Z</time>
      </trkpt>
      <trkpt lat="45.50145" lon="5.25638">
        <ele>485</ele>
        <time>2021-10-03T08:25:22.993Z</time>
      </trkpt>
      <trkpt lat="45.50145" lon="5.25638">
        <ele>485</ele>
        <time>2021-10-03T08:25:27.009Z</time>
      </trkpt>
      <trkpt lat="45.50144" lon="5.25638">
        <ele>485</ele>
        <time>2021-10-03T08:25:32.013Z</time>
      </trkpt>
      <trkpt lat="45.50144" lon="5.25638">
        <ele>485</ele>
        <time>2021-10-03T08:25:36.989Z</time>
      </trkpt>
      <trkpt lat="45.50144" lon="5.25639">
        <ele>485</ele>
        <time>2021-10-03T08:25:41.007Z</time>
      </trkpt>
      <trkpt lat="45.50144" lon="5.25637">
        <ele>485</ele>
        <time>2021-10-03T08:26:05Z</time>
      </trkpt>
      <trkpt lat="45.50144" lon="5.25637">
        <ele>485</ele>
        <time>2021-10-03T08:26:09.040Z</time>
      </trkpt>
      <trkpt lat="45.50141" lon="5.25639">
        <ele>485</ele>
        <time>2021-10-03T08:26:14.006Z</time>
      </trkpt>
      <trkpt lat="45.50135" lon="5.25642">
        <ele>485</ele>
        <time>2021-10-03T08:26:18.991Z</time>
      </trkpt>
      <trkpt lat="45.5013" lon="5.25642">
        <ele>485</ele>
        <time>2021-10-03T08:26:23.007Z</time>
      </trkpt>
      <trkpt lat="45.50125" lon="5.25643">
        <ele>485</ele>
        <time>2021-10-03T08:26:27.035Z</time>
      </trkpt>
      <trkpt lat="45.50118" lon="5.25642">
        <ele>487</ele>
        <time>2021-10-03T08:26:32.011Z</time>
      </trkpt>
      <trkpt lat="45.50111" lon="5.2564">
        <ele>487</ele>
        <time>2021-10-03T08:26:36.960Z</time>
      </trkpt>
      <trkpt lat="45.50104" lon="5.25639">
        <ele>487</ele>
        <time>2021-10-03T08:26:41Z</time>
      </trkpt>
      <trkpt lat="45.50097" lon="5.25638">
        <ele>492</ele>
        <time>2021-10-03T08:26:46.054Z</time>
      </trkpt>
      <trkpt lat="45.50089" lon="5.25636">
        <ele>492</ele>
        <time>2021-10-03T08:26:51.042Z</time>
      </trkpt>
      <trkpt lat="45.50082" lon="5.25635">
        <ele>492</ele>
        <time>2021-10-03T08:26:56.029Z</time>
      </trkpt>
      <trkpt lat="45.50075" lon="5.25634">
        <ele>492</ele>
        <time>2021-10-03T08:27:01.015Z</time>
      </trkpt>
      <trkpt lat="45.50067" lon="5.25634">
        <ele>498</ele>
        <time>2021-10-03T08:27:05.999Z</time>
      </trkpt>
      <trkpt lat="45.5006" lon="5.25634">
        <ele>498</ele>
        <time>2021-10-03T08:27:10.993Z</time>
      </trkpt>
      <trkpt lat="45.50053" lon="5.25635">
        <ele>498</ele>
        <time>2021-10-03T08:27:16.014Z</time>
      </trkpt>
      <trkpt lat="45.50047" lon="5.25635">
        <ele>498</ele>
        <time>2021-10-03T08:27:21.010Z</time>
      </trkpt>
      <trkpt lat="45.5004" lon="5.25633">
        <ele>504</ele>
        <time>2021-10-03T08:27:26.005Z</time>
      </trkpt>
      <trkpt lat="45.50036" lon="5.25629">
        <ele>504</ele>
        <time>2021-10-03T08:27:30.011Z</time>
      </trkpt>
      <trkpt lat="45.50031" lon="5.25623">
        <ele>503</ele>
        <time>2021-10-03T08:27:35.009Z</time>
      </trkpt>
      <trkpt lat="45.50026" lon="5.25617">
        <ele>503</ele>
        <time>2021-10-03T08:27:39.981Z</time>
      </trkpt>
      <trkpt lat="45.50021" lon="5.25611">
        <ele>503</ele>
        <time>2021-10-03T08:27:44.977Z</time>
      </trkpt>
      <trkpt lat="45.50016" lon="5.25606">
        <ele>503</ele>
        <time>2021-10-03T08:27:50.040Z</time>
      </trkpt>
      <trkpt lat="45.50011" lon="5.256">
        <ele>505</ele>
        <time>2021-10-03T08:27:55.043Z</time>
      </trkpt>
      <trkpt lat="45.50005" lon="5.25595">
        <ele>504</ele>
        <time>2021-10-03T08:28:00.026Z</time>
      </trkpt>
      <trkpt lat="45.5" lon="5.25588">
        <ele>504</ele>
        <time>2021-10-03T08:28:04.998Z</time>
      </trkpt>
      <trkpt lat="45.49996" lon="5.25582">
        <ele>504</ele>
        <time>2021-10-03T08:28:09.039Z</time>
      </trkpt>
      <trkpt lat="45.49992" lon="5.25576">
        <ele>504</ele>
        <time>2021-10-03T08:28:13.040Z</time>
      </trkpt>
      <trkpt lat="45.49989" lon="5.25567">
        <ele>503</ele>
        <time>2021-10-03T08:28:18.046Z</time>
      </trkpt>
      <trkpt lat="45.49984" lon="5.2556">
        <ele>506</ele>
        <time>2021-10-03T08:28:22.997Z</time>
      </trkpt>
      <trkpt lat="45.4998" lon="5.25554">
        <ele>506</ele>
        <time>2021-10-03T08:28:27.010Z</time>
      </trkpt>
      <trkpt lat="45.49976" lon="5.25546">
        <ele>506</ele>
        <time>2021-10-03T08:28:31.999Z</time>
      </trkpt>
      <trkpt lat="45.49972" lon="5.25541">
        <ele>503</ele>
        <time>2021-10-03T08:28:36.004Z</time>
      </trkpt>
      <trkpt lat="45.49966" lon="5.25533">
        <ele>503</ele>
        <time>2021-10-03T08:28:40.999Z</time>
      </trkpt>
      <trkpt lat="45.4996" lon="5.25525">
        <ele>503</ele>
        <time>2021-10-03T08:28:45.987Z</time>
      </trkpt>
      <trkpt lat="45.49957" lon="5.25519">
        <ele>506</ele>
        <time>2021-10-03T08:28:50.041Z</time>
      </trkpt>
      <trkpt lat="45.49952" lon="5.25512">
        <ele>501</ele>
        <time>2021-10-03T08:28:54.969Z</time>
      </trkpt>
      <trkpt lat="45.49948" lon="5.25506">
        <ele>501</ele>
        <time>2021-10-03T08:28:58.993Z</time>
      </trkpt>
      <trkpt lat="45.49942" lon="5.25497">
        <ele>501</ele>
        <time>2021-10-03T08:29:03.962Z</time>
      </trkpt>
      <trkpt lat="45.49937" lon="5.2549">
        <ele>501</ele>
        <time>2021-10-03T08:29:08.964Z</time>
      </trkpt>
      <trkpt lat="45.49932" lon="5.25483">
        <ele>500</ele>
        <time>2021-10-03T08:29:13.015Z</time>
      </trkpt>
      <trkpt lat="45.49927" lon="5.25476">
        <ele>501</ele>
        <time>2021-10-03T08:29:17.028Z</time>
      </trkpt>
      <trkpt lat="45.49923" lon="5.2547">
        <ele>501</ele>
        <time>2021-10-03T08:29:22.010Z</time>
      </trkpt>
      <trkpt lat="45.49919" lon="5.25463">
        <ele>501</ele>
        <time>2021-10-03T08:29:26.038Z</time>
      </trkpt>
      <trkpt lat="45.49914" lon="5.25456">
        <ele>500</ele>
        <time>2021-10-03T08:29:31.013Z</time>
      </trkpt>
      <trkpt lat="45.49909" lon="5.25449">
        <ele>500</ele>
        <time>2021-10-03T08:29:36.008Z</time>
      </trkpt>
      <trkpt lat="45.49906" lon="5.25443">
        <ele>500</ele>
        <time>2021-10-03T08:29:40.032Z</time>
      </trkpt>
      <trkpt lat="45.49901" lon="5.25436">
        <ele>502</ele>
        <time>2021-10-03T08:29:45.008Z</time>
      </trkpt>
      <trkpt lat="45.49897" lon="5.25429">
        <ele>500</ele>
        <time>2021-10-03T08:29:49.993Z</time>
      </trkpt>
      <trkpt lat="45.49893" lon="5.25422">
        <ele>500</ele>
        <time>2021-10-03T08:29:54.003Z</time>
      </trkpt>
      <trkpt lat="45.49889" lon="5.25414">
        <ele>500</ele>
        <time>2021-10-03T08:29:58.012Z</time>
      </trkpt>
      <trkpt lat="45.49885" lon="5.25407">
        <ele>500</ele>
        <time>2021-10-03T08:30:02.037Z</time>
      </trkpt>
      <trkpt lat="45.49883" lon="5.25401">
        <ele>498</ele>
        <time>2021-10-03T08:30:06.052Z</time>
      </trkpt>
      <trkpt lat="45.49878" lon="5.25394">
        <ele>498</ele>
        <time>2021-10-03T08:30:11.031Z</time>
      </trkpt>
      <trkpt lat="45.49874" lon="5.25386">
        <ele>501</ele>
        <time>2021-10-03T08:30:16.012Z</time>
      </trkpt>
      <trkpt lat="45.49869" lon="5.25379">
        <ele>501</ele>
        <time>2021-10-03T08:30:21.006Z</time>
      </trkpt>
      <trkpt lat="45.49864" lon="5.25372">
        <ele>500</ele>
        <time>2021-10-03T08:30:26.008Z</time>
      </trkpt>
      <trkpt lat="45.49858" lon="5.25365">
        <ele>500</ele>
        <time>2021-10-03T08:30:31.008Z</time>
      </trkpt>
      <trkpt lat="45.49852" lon="5.25359">
        <ele>500</ele>
        <time>2021-10-03T08:30:36.005Z</time>
      </trkpt>
      <trkpt lat="45.49846" lon="5.25354">
        <ele>503</ele>
        <time>2021-10-03T08:30:41.005Z</time>
      </trkpt>
      <trkpt lat="45.4984" lon="5.25349">
        <ele>503</ele>
        <time>2021-10-03T08:30:46.053Z</time>
      </trkpt>
      <trkpt lat="45.49834" lon="5.25345">
        <ele>501</ele>
        <time>2021-10-03T08:30:50.988Z</time>
      </trkpt>
      <trkpt lat="45.49828" lon="5.25342">
        <ele>501</ele>
        <time>2021-10-03T08:30:55.004Z</time>
      </trkpt>
      <trkpt lat="45.49823" lon="5.25338">
        <ele>501</ele>
        <time>2021-10-03T08:30:59.035Z</time>
      </trkpt>
      <trkpt lat="45.49815" lon="5.25334">
        <ele>502</ele>
        <time>2021-10-03T08:31:03.974Z</time>
      </trkpt>
      <trkpt lat="45.49809" lon="5.2533">
        <ele>502</ele>
        <time>2021-10-03T08:31:08Z</time>
      </trkpt>
      <trkpt lat="45.49803" lon="5.25327">
        <ele>502</ele>
        <time>2021-10-03T08:31:12.005Z</time>
      </trkpt>
      <trkpt lat="45.49798" lon="5.25324">
        <ele>502</ele>
        <time>2021-10-03T08:31:16.013Z</time>
      </trkpt>
      <trkpt lat="45.49791" lon="5.2532">
        <ele>504</ele>
        <time>2021-10-03T08:31:21.009Z</time>
      </trkpt>
      <trkpt lat="45.49785" lon="5.25317">
        <ele>502</ele>
        <time>2021-10-03T08:31:25.035Z</time>
      </trkpt>
      <trkpt lat="45.49778" lon="5.25313">
        <ele>502</ele>
        <time>2021-10-03T08:31:30.005Z</time>
      </trkpt>
      <trkpt lat="45.49771" lon="5.2531">
        <ele>502</ele>
        <time>2021-10-03T08:31:34.037Z</time>
      </trkpt>
      <trkpt lat="45.49765" lon="5.25306">
        <ele>502</ele>
        <time>2021-10-03T08:31:39.005Z</time>
      </trkpt>
      <trkpt lat="45.49757" lon="5.25304">
        <ele>505</ele>
        <time>2021-10-03T08:31:43.996Z</time>
      </trkpt>
      <trkpt lat="45.49749" lon="5.25302">
        <ele>505</ele>
        <time>2021-10-03T08:31:49.004Z</time>
      </trkpt>
      <trkpt lat="45.49742" lon="5.25301">
        <ele>505</ele>
        <time>2021-10-03T08:31:54.013Z</time>
      </trkpt>
      <trkpt lat="45.49735" lon="5.253">
        <ele>510</ele>
        <time>2021-10-03T08:31:59.048Z</time>
      </trkpt>
      <trkpt lat="45.49728" lon="5.25299">
        <ele>510</ele>
        <time>2021-10-03T08:32:04.034Z</time>
      </trkpt>
      <trkpt lat="45.49721" lon="5.25299">
        <ele>510</ele>
        <time>2021-10-03T08:32:09.009Z</time>
      </trkpt>
      <trkpt lat="45.49714" lon="5.25299">
        <ele>510</ele>
        <time>2021-10-03T08:32:14.006Z</time>
      </trkpt>
      <trkpt lat="45.49708" lon="5.25298">
        <ele>510</ele>
        <time>2021-10-03T08:32:18.030Z</time>
      </trkpt>
      <trkpt lat="45.49703" lon="5.25297">
        <ele>514</ele>
        <time>2021-10-03T08:32:22.030Z</time>
      </trkpt>
      <trkpt lat="45.49698" lon="5.25296">
        <ele>514</ele>
        <time>2021-10-03T08:32:26.042Z</time>
      </trkpt>
      <trkpt lat="45.49691" lon="5.25295">
        <ele>514</ele>
        <time>2021-10-03T08:32:31.009Z</time>
      </trkpt>
      <trkpt lat="45.49684" lon="5.25294">
        <ele>514</ele>
        <time>2021-10-03T08:32:36.009Z</time>
      </trkpt>
      <trkpt lat="45.49679" lon="5.25293">
        <ele>512</ele>
        <time>2021-10-03T08:32:40.012Z</time>
      </trkpt>
      <trkpt lat="45.49673" lon="5.25291">
        <ele>511</ele>
        <time>2021-10-03T08:32:44.032Z</time>
      </trkpt>
      <trkpt lat="45.49667" lon="5.25289">
        <ele>511</ele>
        <time>2021-10-03T08:32:49.037Z</time>
      </trkpt>
      <trkpt lat="45.49659" lon="5.25288">
        <ele>511</ele>
        <time>2021-10-03T08:32:54.002Z</time>
      </trkpt>
      <trkpt lat="45.49653" lon="5.25284">
        <ele>510</ele>
        <time>2021-10-03T08:32:58.997Z</time>
      </trkpt>
      <trkpt lat="45.49644" lon="5.25281">
        <ele>510</ele>
        <time>2021-10-03T08:33:03.974Z</time>
      </trkpt>
      <trkpt lat="45.49636" lon="5.25278">
        <ele>510</ele>
        <time>2021-10-03T08:33:08.970Z</time>
      </trkpt>
      <trkpt lat="45.49629" lon="5.25276">
        <ele>510</ele>
        <time>2021-10-03T08:33:13.972Z</time>
      </trkpt>
      <trkpt lat="45.49624" lon="5.25273">
        <ele>510</ele>
        <time>2021-10-03T08:33:18.047Z</time>
      </trkpt>
      <trkpt lat="45.49617" lon="5.25271">
        <ele>510</ele>
        <time>2021-10-03T08:33:23.008Z</time>
      </trkpt>
      <trkpt lat="45.4961" lon="5.25268">
        <ele>510</ele>
        <time>2021-10-03T08:33:28.007Z</time>
      </trkpt>
      <trkpt lat="45.49604" lon="5.25267">
        <ele>510</ele>
        <time>2021-10-03T08:33:32.064Z</time>
      </trkpt>
      <trkpt lat="45.49598" lon="5.25264">
        <ele>510</ele>
        <time>2021-10-03T08:33:36.984Z</time>
      </trkpt>
      <trkpt lat="45.49589" lon="5.25261">
        <ele>508</ele>
        <time>2021-10-03T08:33:41.984Z</time>
      </trkpt>
      <trkpt lat="45.49582" lon="5.25258">
        <ele>508</ele>
        <time>2021-10-03T08:33:46.987Z</time>
      </trkpt>
      <trkpt lat="45.49576" lon="5.25256">
        <ele>508</ele>
        <time>2021-10-03T08:33:51.997Z</time>
      </trkpt>
      <trkpt lat="45.4957" lon="5.25254">
        <ele>508</ele>
        <time>2021-10-03T08:33:56.987Z</time>
      </trkpt>
      <trkpt lat="45.49563" lon="5.25253">
        <ele>508</ele>
        <time>2021-10-03T08:34:01.991Z</time>
      </trkpt>
      <trkpt lat="45.49558" lon="5.25252">
        <ele>508</ele>
        <time>2021-10-03T08:34:06.002Z</time>
      </trkpt>
      <trkpt lat="45.49551" lon="5.2525">
        <ele>508</ele>
        <time>2021-10-03T08:34:10.996Z</time>
      </trkpt>
      <trkpt lat="45.49544" lon="5.25248">
        <ele>508</ele>
        <time>2021-10-03T08:34:15.982Z</time>
      </trkpt>
      <trkpt lat="45.49537" lon="5.25246">
        <ele>509</ele>
        <time>2021-10-03T08:34:21.004Z</time>
      </trkpt>
      <trkpt lat="45.49529" lon="5.25244">
        <ele>509</ele>
        <time>2021-10-03T08:34:26.010Z</time>
      </trkpt>
      <trkpt lat="45.49523" lon="5.25242">
        <ele>509</ele>
        <time>2021-10-03T08:34:30.034Z</time>
      </trkpt>
      <trkpt lat="45.49515" lon="5.25239">
        <ele>509</ele>
        <time>2021-10-03T08:34:34.983Z</time>
      </trkpt>
      <trkpt lat="45.4951" lon="5.25237">
        <ele>510</ele>
        <time>2021-10-03T08:34:38.995Z</time>
      </trkpt>
      <trkpt lat="45.49502" lon="5.25235">
        <ele>508</ele>
        <time>2021-10-03T08:34:43.019Z</time>
      </trkpt>
      <trkpt lat="45.49494" lon="5.25233">
        <ele>508</ele>
        <time>2021-10-03T08:34:48Z</time>
      </trkpt>
      <trkpt lat="45.49488" lon="5.25231">
        <ele>508</ele>
        <time>2021-10-03T08:34:52.006Z</time>
      </trkpt>
      <trkpt lat="45.49482" lon="5.2523">
        <ele>508</ele>
        <time>2021-10-03T08:34:56.041Z</time>
      </trkpt>
      <trkpt lat="45.49477" lon="5.2523">
        <ele>508</ele>
        <time>2021-10-03T08:35:01.029Z</time>
      </trkpt>
      <trkpt lat="45.49472" lon="5.25231">
        <ele>508</ele>
        <time>2021-10-03T08:35:05.968Z</time>
      </trkpt>
      <trkpt lat="45.49467" lon="5.25232">
        <ele>508</ele>
        <time>2021-10-03T08:35:09.985Z</time>
      </trkpt>
      <trkpt lat="45.49462" lon="5.25233">
        <ele>508</ele>
        <time>2021-10-03T08:35:13.995Z</time>
      </trkpt>
      <trkpt lat="45.49457" lon="5.25235">
        <ele>508</ele>
        <time>2021-10-03T08:35:18.970Z</time>
      </trkpt>
      <trkpt lat="45.49452" lon="5.25237">
        <ele>508</ele>
        <time>2021-10-03T08:35:22.993Z</time>
      </trkpt>
      <trkpt lat="45.49447" lon="5.25239">
        <ele>508</ele>
        <time>2021-10-03T08:35:27.006Z</time>
      </trkpt>
      <trkpt lat="45.49442" lon="5.2524">
        <ele>508</ele>
        <time>2021-10-03T08:35:31.042Z</time>
      </trkpt>
      <trkpt lat="45.49435" lon="5.25241">
        <ele>508</ele>
        <time>2021-10-03T08:35:36.010Z</time>
      </trkpt>
      <trkpt lat="45.49429" lon="5.25241">
        <ele>507</ele>
        <time>2021-10-03T08:35:40.028Z</time>
      </trkpt>
      <trkpt lat="45.49422" lon="5.25241">
        <ele>507</ele>
        <time>2021-10-03T08:35:45.008Z</time>
      </trkpt>
      <trkpt lat="45.49416" lon="5.25239">
        <ele>507</ele>
        <time>2021-10-03T08:35:49.029Z</time>
      </trkpt>
      <trkpt lat="45.49409" lon="5.25237">
        <ele>507</ele>
        <time>2021-10-03T08:35:54.035Z</time>
      </trkpt>
      <trkpt lat="45.49401" lon="5.25235">
        <ele>507</ele>
        <time>2021-10-03T08:35:58.975Z</time>
      </trkpt>
      <trkpt lat="45.49394" lon="5.25233">
        <ele>507</ele>
        <time>2021-10-03T08:36:03.999Z</time>
      </trkpt>
      <trkpt lat="45.49388" lon="5.25231">
        <ele>507</ele>
        <time>2021-10-03T08:36:08.008Z</time>
      </trkpt>
      <trkpt lat="45.49381" lon="5.2523">
        <ele>507</ele>
        <time>2021-10-03T08:36:12.992Z</time>
      </trkpt>
      <trkpt lat="45.49374" lon="5.25229">
        <ele>509</ele>
        <time>2021-10-03T08:36:18.003Z</time>
      </trkpt>
      <trkpt lat="45.49367" lon="5.25229">
        <ele>509</ele>
        <time>2021-10-03T08:36:22.994Z</time>
      </trkpt>
      <trkpt lat="45.49359" lon="5.25229">
        <ele>509</ele>
        <time>2021-10-03T08:36:27.981Z</time>
      </trkpt>
      <trkpt lat="45.49353" lon="5.25228">
        <ele>509</ele>
        <time>2021-10-03T08:36:32.012Z</time>
      </trkpt>
      <trkpt lat="45.49346" lon="5.25228">
        <ele>511</ele>
        <time>2021-10-03T08:36:37.002Z</time>
      </trkpt>
      <trkpt lat="45.4934" lon="5.25226">
        <ele>511</ele>
        <time>2021-10-03T08:36:41.999Z</time>
      </trkpt>
      <trkpt lat="45.49332" lon="5.25224">
        <ele>511</ele>
        <time>2021-10-03T08:36:46.982Z</time>
      </trkpt>
      <trkpt lat="45.49324" lon="5.25222">
        <ele>511</ele>
        <time>2021-10-03T08:36:52Z</time>
      </trkpt>
      <trkpt lat="45.49317" lon="5.25221">
        <ele>510</ele>
        <time>2021-10-03T08:36:56.991Z</time>
      </trkpt>
      <trkpt lat="45.4931" lon="5.25221">
        <ele>510</ele>
        <time>2021-10-03T08:37:01.981Z</time>
      </trkpt>
      <trkpt lat="45.49304" lon="5.25219">
        <ele>510</ele>
        <time>2021-10-03T08:37:06.970Z</time>
      </trkpt>
      <trkpt lat="45.49298" lon="5.25218">
        <ele>510</ele>
        <time>2021-10-03T08:37:10.990Z</time>
      </trkpt>
      <trkpt lat="45.49293" lon="5.25217">
        <ele>510</ele>
        <time>2021-10-03T08:37:15.053Z</time>
      </trkpt>
      <trkpt lat="45.49286" lon="5.25216">
        <ele>507</ele>
        <time>2021-10-03T08:37:20.006Z</time>
      </trkpt>
      <trkpt lat="45.49278" lon="5.25216">
        <ele>507</ele>
        <time>2021-10-03T08:37:25.013Z</time>
      </trkpt>
      <trkpt lat="45.49271" lon="5.25216">
        <ele>507</ele>
        <time>2021-10-03T08:37:30.012Z</time>
      </trkpt>
      <trkpt lat="45.49265" lon="5.25216">
        <ele>507</ele>
        <time>2021-10-03T08:37:34.023Z</time>
      </trkpt>
      <trkpt lat="45.49259" lon="5.25216">
        <ele>503</ele>
        <time>2021-10-03T08:37:39.035Z</time>
      </trkpt>
      <trkpt lat="45.49252" lon="5.25216">
        <ele>503</ele>
        <time>2021-10-03T08:37:44.011Z</time>
      </trkpt>
      <trkpt lat="45.49247" lon="5.25217">
        <ele>503</ele>
        <time>2021-10-03T08:37:48.030Z</time>
      </trkpt>
      <trkpt lat="45.49239" lon="5.25217">
        <ele>503</ele>
        <time>2021-10-03T08:37:53.005Z</time>
      </trkpt>
      <trkpt lat="45.49232" lon="5.25218">
        <ele>502</ele>
        <time>2021-10-03T08:37:57.034Z</time>
      </trkpt>
      <trkpt lat="45.49224" lon="5.25219">
        <ele>502</ele>
        <time>2021-10-03T08:38:02.005Z</time>
      </trkpt>
      <trkpt lat="45.49216" lon="5.25219">
        <ele>502</ele>
        <time>2021-10-03T08:38:07.011Z</time>
      </trkpt>
      <trkpt lat="45.4921" lon="5.25218">
        <ele>502</ele>
        <time>2021-10-03T08:38:12.001Z</time>
      </trkpt>
      <trkpt lat="45.49205" lon="5.25218">
        <ele>501</ele>
        <time>2021-10-03T08:38:16.007Z</time>
      </trkpt>
      <trkpt lat="45.49199" lon="5.2522">
        <ele>501</ele>
        <time>2021-10-03T08:38:20.030Z</time>
      </trkpt>
      <trkpt lat="45.49193" lon="5.25221">
        <ele>501</ele>
        <time>2021-10-03T08:38:24.998Z</time>
      </trkpt>
      <trkpt lat="45.49187" lon="5.25221">
        <ele>501</ele>
        <time>2021-10-03T08:38:29.004Z</time>
      </trkpt>
      <trkpt lat="45.49181" lon="5.25222">
        <ele>501</ele>
        <time>2021-10-03T08:38:33.006Z</time>
      </trkpt>
      <trkpt lat="45.49175" lon="5.25221">
        <ele>500</ele>
        <time>2021-10-03T08:38:37.028Z</time>
      </trkpt>
      <trkpt lat="45.49167" lon="5.25221">
        <ele>500</ele>
        <time>2021-10-03T08:38:42.004Z</time>
      </trkpt>
      <trkpt lat="45.49161" lon="5.2522">
        <ele>500</ele>
        <time>2021-10-03T08:38:46.027Z</time>
      </trkpt>
      <trkpt lat="45.49153" lon="5.25219">
        <ele>500</ele>
        <time>2021-10-03T08:38:51.026Z</time>
      </trkpt>
      <trkpt lat="45.49146" lon="5.25218">
        <ele>500</ele>
        <time>2021-10-03T08:38:55.029Z</time>
      </trkpt>
      <trkpt lat="45.49139" lon="5.25217">
        <ele>500</ele>
        <time>2021-10-03T08:39:00.013Z</time>
      </trkpt>
      <trkpt lat="45.49131" lon="5.25216">
        <ele>500</ele>
        <time>2021-10-03T08:39:05.005Z</time>
      </trkpt>
      <trkpt lat="45.49123" lon="5.25215">
        <ele>501</ele>
        <time>2021-10-03T08:39:09.014Z</time>
      </trkpt>
      <trkpt lat="45.49113" lon="5.25214">
        <ele>501</ele>
        <time>2021-10-03T08:39:13.991Z</time>
      </trkpt>
      <trkpt lat="45.49106" lon="5.25212">
        <ele>501</ele>
        <time>2021-10-03T08:39:18.986Z</time>
      </trkpt>
      <trkpt lat="45.49101" lon="5.25211">
        <ele>501</ele>
        <time>2021-10-03T08:39:23.029Z</time>
      </trkpt>
      <trkpt lat="45.49093" lon="5.25208">
        <ele>501</ele>
        <time>2021-10-03T08:39:28.002Z</time>
      </trkpt>
      <trkpt lat="45.49086" lon="5.25205">
        <ele>501</ele>
        <time>2021-10-03T08:39:32.007Z</time>
      </trkpt>
      <trkpt lat="45.49078" lon="5.25202">
        <ele>501</ele>
        <time>2021-10-03T08:39:37.015Z</time>
      </trkpt>
      <trkpt lat="45.49071" lon="5.25198">
        <ele>501</ele>
        <time>2021-10-03T08:39:42.005Z</time>
      </trkpt>
      <trkpt lat="45.49065" lon="5.25195">
        <ele>501</ele>
        <time>2021-10-03T08:39:46.041Z</time>
      </trkpt>
      <trkpt lat="45.49057" lon="5.25191">
        <ele>501</ele>
        <time>2021-10-03T08:39:51.005Z</time>
      </trkpt>
      <trkpt lat="45.4905" lon="5.25188">
        <ele>501</ele>
        <time>2021-10-03T08:39:56.009Z</time>
      </trkpt>
      <trkpt lat="45.49044" lon="5.25186">
        <ele>501</ele>
        <time>2021-10-03T08:40:00.054Z</time>
      </trkpt>
      <trkpt lat="45.49037" lon="5.25183">
        <ele>501</ele>
        <time>2021-10-03T08:40:05.035Z</time>
      </trkpt>
      <trkpt lat="45.49029" lon="5.25181">
        <ele>501</ele>
        <time>2021-10-03T08:40:10.004Z</time>
      </trkpt>
      <trkpt lat="45.49022" lon="5.25179">
        <ele>500</ele>
        <time>2021-10-03T08:40:15.010Z</time>
      </trkpt>
      <trkpt lat="45.49015" lon="5.25178">
        <ele>500</ele>
        <time>2021-10-03T08:40:20.038Z</time>
      </trkpt>
      <trkpt lat="45.49008" lon="5.25177">
        <ele>501</ele>
        <time>2021-10-03T08:40:25.037Z</time>
      </trkpt>
      <trkpt lat="45.49001" lon="5.25176">
        <ele>501</ele>
        <time>2021-10-03T08:40:30.006Z</time>
      </trkpt>
      <trkpt lat="45.48994" lon="5.25175">
        <ele>501</ele>
        <time>2021-10-03T08:40:34.030Z</time>
      </trkpt>
      <trkpt lat="45.48987" lon="5.25174">
        <ele>501</ele>
        <time>2021-10-03T08:40:39.001Z</time>
      </trkpt>
      <trkpt lat="45.48977" lon="5.25174">
        <ele>502</ele>
        <time>2021-10-03T08:40:43.985Z</time>
      </trkpt>
      <trkpt lat="45.48971" lon="5.25174">
        <ele>502</ele>
        <time>2021-10-03T08:40:48Z</time>
      </trkpt>
      <trkpt lat="45.48965" lon="5.25173">
        <ele>502</ele>
        <time>2021-10-03T08:40:52.011Z</time>
      </trkpt>
      <trkpt lat="45.4896" lon="5.25173">
        <ele>502</ele>
        <time>2021-10-03T08:40:56.042Z</time>
      </trkpt>
      <trkpt lat="45.48953" lon="5.25173">
        <ele>503</ele>
        <time>2021-10-03T08:41:01.007Z</time>
      </trkpt>
      <trkpt lat="45.48947" lon="5.25172">
        <ele>503</ele>
        <time>2021-10-03T08:41:05.011Z</time>
      </trkpt>
      <trkpt lat="45.48939" lon="5.2517">
        <ele>503</ele>
        <time>2021-10-03T08:41:10.057Z</time>
      </trkpt>
      <trkpt lat="45.48931" lon="5.25167">
        <ele>503</ele>
        <time>2021-10-03T08:41:15.009Z</time>
      </trkpt>
      <trkpt lat="45.48925" lon="5.25161">
        <ele>505</ele>
        <time>2021-10-03T08:41:19.963Z</time>
      </trkpt>
      <trkpt lat="45.4892" lon="5.25156">
        <ele>505</ele>
        <time>2021-10-03T08:41:24.046Z</time>
      </trkpt>
      <trkpt lat="45.48915" lon="5.25148">
        <ele>505</ele>
        <time>2021-10-03T08:41:28.995Z</time>
      </trkpt>
      <trkpt lat="45.4891" lon="5.2514">
        <ele>505</ele>
        <time>2021-10-03T08:41:34.025Z</time>
      </trkpt>
      <trkpt lat="45.48908" lon="5.25132">
        <ele>505</ele>
        <time>2021-10-03T08:41:38.045Z</time>
      </trkpt>
      <trkpt lat="45.48904" lon="5.25121">
        <ele>503</ele>
        <time>2021-10-03T08:41:43.015Z</time>
      </trkpt>
      <trkpt lat="45.48901" lon="5.25111">
        <ele>507</ele>
        <time>2021-10-03T08:41:48.012Z</time>
      </trkpt>
      <trkpt lat="45.48898" lon="5.25104">
        <ele>507</ele>
        <time>2021-10-03T08:41:52.040Z</time>
      </trkpt>
      <trkpt lat="45.48894" lon="5.25095">
        <ele>505</ele>
        <time>2021-10-03T08:41:57.002Z</time>
      </trkpt>
      <trkpt lat="45.48892" lon="5.25088">
        <ele>505</ele>
        <time>2021-10-03T08:42:01.038Z</time>
      </trkpt>
      <trkpt lat="45.48888" lon="5.2508">
        <ele>505</ele>
        <time>2021-10-03T08:42:05.984Z</time>
      </trkpt>
      <trkpt lat="45.48883" lon="5.25073">
        <ele>505</ele>
        <time>2021-10-03T08:42:10.999Z</time>
      </trkpt>
      <trkpt lat="45.4888" lon="5.25068">
        <ele>503</ele>
        <time>2021-10-03T08:42:15.012Z</time>
      </trkpt>
      <trkpt lat="45.48876" lon="5.25063">
        <ele>503</ele>
        <time>2021-10-03T08:42:19.038Z</time>
      </trkpt>
      <trkpt lat="45.4887" lon="5.25056">
        <ele>505</ele>
        <time>2021-10-03T08:42:24.032Z</time>
      </trkpt>
      <trkpt lat="45.48865" lon="5.25049">
        <ele>505</ele>
        <time>2021-10-03T08:42:29.002Z</time>
      </trkpt>
      <trkpt lat="45.4886" lon="5.25044">
        <ele>505</ele>
        <time>2021-10-03T08:42:33.014Z</time>
      </trkpt>
      <trkpt lat="45.48855" lon="5.25038">
        <ele>505</ele>
        <time>2021-10-03T08:42:38.001Z</time>
      </trkpt>
      <trkpt lat="45.48849" lon="5.25032">
        <ele>505</ele>
        <time>2021-10-03T08:42:43.005Z</time>
      </trkpt>
      <trkpt lat="45.48844" lon="5.25026">
        <ele>506</ele>
        <time>2021-10-03T08:42:47.965Z</time>
      </trkpt>
      <trkpt lat="45.48839" lon="5.25021">
        <ele>506</ele>
        <time>2021-10-03T08:42:51.982Z</time>
      </trkpt>
      <trkpt lat="45.48835" lon="5.25016">
        <ele>506</ele>
        <time>2021-10-03T08:42:55.994Z</time>
      </trkpt>
      <trkpt lat="45.4883" lon="5.25009">
        <ele>504</ele>
        <time>2021-10-03T08:43:00.991Z</time>
      </trkpt>
      <trkpt lat="45.48826" lon="5.25003">
        <ele>504</ele>
        <time>2021-10-03T08:43:05.036Z</time>
      </trkpt>
      <trkpt lat="45.48821" lon="5.24997">
        <ele>504</ele>
        <time>2021-10-03T08:43:09.988Z</time>
      </trkpt>
      <trkpt lat="45.48817" lon="5.24989">
        <ele>506</ele>
        <time>2021-10-03T08:43:14.984Z</time>
      </trkpt>
      <trkpt lat="45.48813" lon="5.24982">
        <ele>504</ele>
        <time>2021-10-03T08:43:19.967Z</time>
      </trkpt>
      <trkpt lat="45.48812" lon="5.24975">
        <ele>504</ele>
        <time>2021-10-03T08:43:23.995Z</time>
      </trkpt>
      <trkpt lat="45.48812" lon="5.24965">
        <ele>504</ele>
        <time>2021-10-03T08:43:28.981Z</time>
      </trkpt>
      <trkpt lat="45.48813" lon="5.24956">
        <ele>504</ele>
        <time>2021-10-03T08:43:32.999Z</time>
      </trkpt>
      <trkpt lat="45.48814" lon="5.24943">
        <ele>504</ele>
        <time>2021-10-03T08:43:38.012Z</time>
      </trkpt>
      <trkpt lat="45.48814" lon="5.24932">
        <ele>504</ele>
        <time>2021-10-03T08:43:42.982Z</time>
      </trkpt>
      <trkpt lat="45.48814" lon="5.24921">
        <ele>505</ele>
        <time>2021-10-03T08:43:48.031Z</time>
      </trkpt>
      <trkpt lat="45.48813" lon="5.24909">
        <ele>505</ele>
        <time>2021-10-03T08:43:52.999Z</time>
      </trkpt>
      <trkpt lat="45.48812" lon="5.24898">
        <ele>505</ele>
        <time>2021-10-03T08:43:57.998Z</time>
      </trkpt>
      <trkpt lat="45.4881" lon="5.24887">
        <ele>505</ele>
        <time>2021-10-03T08:44:03.026Z</time>
      </trkpt>
      <trkpt lat="45.48809" lon="5.24878">
        <ele>505</ele>
        <time>2021-10-03T08:44:07.028Z</time>
      </trkpt>
      <trkpt lat="45.48809" lon="5.24868">
        <ele>504</ele>
        <time>2021-10-03T08:44:12.009Z</time>
      </trkpt>
      <trkpt lat="45.48808" lon="5.24858">
        <ele>504</ele>
        <time>2021-10-03T08:44:17.031Z</time>
      </trkpt>
      <trkpt lat="45.48806" lon="5.24847">
        <ele>503</ele>
        <time>2021-10-03T08:44:22Z</time>
      </trkpt>
      <trkpt lat="45.48805" lon="5.24836">
        <ele>503</ele>
        <time>2021-10-03T08:44:27.043Z</time>
      </trkpt>
      <trkpt lat="45.48804" lon="5.24823">
        <ele>503</ele>
        <time>2021-10-03T08:44:32.005Z</time>
      </trkpt>
      <trkpt lat="45.48803" lon="5.24813">
        <ele>503</ele>
        <time>2021-10-03T08:44:37.047Z</time>
      </trkpt>
      <trkpt lat="45.48802" lon="5.248">
        <ele>503</ele>
        <time>2021-10-03T08:44:42.064Z</time>
      </trkpt>
      <trkpt lat="45.48801" lon="5.24788">
        <ele>503</ele>
        <time>2021-10-03T08:44:47.007Z</time>
      </trkpt>
      <trkpt lat="45.48799" lon="5.24775">
        <ele>503</ele>
        <time>2021-10-03T08:44:51.994Z</time>
      </trkpt>
      <trkpt lat="45.48797" lon="5.24766">
        <ele>503</ele>
        <time>2021-10-03T08:44:56.034Z</time>
      </trkpt>
      <trkpt lat="45.48796" lon="5.24757">
        <ele>502</ele>
        <time>2021-10-03T08:45:01.007Z</time>
      </trkpt>
      <trkpt lat="45.48794" lon="5.24749">
        <ele>502</ele>
        <time>2021-10-03T08:45:05.017Z</time>
      </trkpt>
      <trkpt lat="45.48791" lon="5.24739">
        <ele>502</ele>
        <time>2021-10-03T08:45:10.005Z</time>
      </trkpt>
      <trkpt lat="45.48788" lon="5.2473">
        <ele>502</ele>
        <time>2021-10-03T08:45:14.990Z</time>
      </trkpt>
      <trkpt lat="45.48784" lon="5.24719">
        <ele>502</ele>
        <time>2021-10-03T08:45:19.969Z</time>
      </trkpt>
      <trkpt lat="45.48781" lon="5.24709">
        <ele>502</ele>
        <time>2021-10-03T08:45:24.956Z</time>
      </trkpt>
      <trkpt lat="45.48779" lon="5.24702">
        <ele>502</ele>
        <time>2021-10-03T08:45:28.982Z</time>
      </trkpt>
      <trkpt lat="45.48776" lon="5.24692">
        <ele>502</ele>
        <time>2021-10-03T08:45:33.960Z</time>
      </trkpt>
      <trkpt lat="45.48773" lon="5.24684">
        <ele>502</ele>
        <time>2021-10-03T08:45:37.988Z</time>
      </trkpt>
      <trkpt lat="45.4877" lon="5.24676">
        <ele>502</ele>
        <time>2021-10-03T08:45:41.993Z</time>
      </trkpt>
      <trkpt lat="45.48766" lon="5.24665">
        <ele>502</ele>
        <time>2021-10-03T08:45:47.061Z</time>
      </trkpt>
      <trkpt lat="45.48762" lon="5.24655">
        <ele>502</ele>
        <time>2021-10-03T08:45:52.030Z</time>
      </trkpt>
      <trkpt lat="45.48758" lon="5.24646">
        <ele>502</ele>
        <time>2021-10-03T08:45:57Z</time>
      </trkpt>
      <trkpt lat="45.48756" lon="5.2464">
        <ele>502</ele>
        <time>2021-10-03T08:46:01.049Z</time>
      </trkpt>
      <trkpt lat="45.48751" lon="5.2463">
        <ele>502</ele>
        <time>2021-10-03T08:46:05.988Z</time>
      </trkpt>
      <trkpt lat="45.48748" lon="5.24624">
        <ele>501</ele>
        <time>2021-10-03T08:46:10.003Z</time>
      </trkpt>
      <trkpt lat="45.48744" lon="5.24615">
        <ele>501</ele>
        <time>2021-10-03T08:46:15Z</time>
      </trkpt>
      <trkpt lat="45.4874" lon="5.24606">
        <ele>501</ele>
        <time>2021-10-03T08:46:20.009Z</time>
      </trkpt>
      <trkpt lat="45.48736" lon="5.24596">
        <ele>500</ele>
        <time>2021-10-03T08:46:24.999Z</time>
      </trkpt>
      <trkpt lat="45.48733" lon="5.24588">
        <ele>500</ele>
        <time>2021-10-03T08:46:29.994Z</time>
      </trkpt>
      <trkpt lat="45.4873" lon="5.24579">
        <ele>500</ele>
        <time>2021-10-03T08:46:34.989Z</time>
      </trkpt>
      <trkpt lat="45.48728" lon="5.24571">
        <ele>500</ele>
        <time>2021-10-03T08:46:38.997Z</time>
      </trkpt>
      <trkpt lat="45.48727" lon="5.24561">
        <ele>500</ele>
        <time>2021-10-03T08:46:44Z</time>
      </trkpt>
      <trkpt lat="45.48728" lon="5.24551">
        <ele>500</ele>
        <time>2021-10-03T08:46:49.008Z</time>
      </trkpt>
      <trkpt lat="45.48728" lon="5.24544">
        <ele>500</ele>
        <time>2021-10-03T08:46:52.961Z</time>
      </trkpt>
      <trkpt lat="45.4873" lon="5.24535">
        <ele>500</ele>
        <time>2021-10-03T08:46:58.007Z</time>
      </trkpt>
      <trkpt lat="45.48732" lon="5.24526">
        <ele>500</ele>
        <time>2021-10-03T08:47:02.027Z</time>
      </trkpt>
      <trkpt lat="45.48732" lon="5.24516">
        <ele>500</ele>
        <time>2021-10-03T08:47:06.998Z</time>
      </trkpt>
      <trkpt lat="45.48728" lon="5.24512">
        <ele>500</ele>
        <time>2021-10-03T08:47:11.007Z</time>
      </trkpt>
      <trkpt lat="45.48723" lon="5.24507">
        <ele>500</ele>
        <time>2021-10-03T08:47:15.017Z</time>
      </trkpt>
      <trkpt lat="45.48717" lon="5.24498">
        <ele>500</ele>
        <time>2021-10-03T08:47:19.967Z</time>
      </trkpt>
      <trkpt lat="45.48714" lon="5.24491">
        <ele>500</ele>
        <time>2021-10-03T08:47:24.002Z</time>
      </trkpt>
      <trkpt lat="45.48712" lon="5.24484">
        <ele>498</ele>
        <time>2021-10-03T08:47:28.013Z</time>
      </trkpt>
      <trkpt lat="45.48708" lon="5.24477">
        <ele>501</ele>
        <time>2021-10-03T08:47:33.011Z</time>
      </trkpt>
      <trkpt lat="45.48703" lon="5.24469">
        <ele>501</ele>
        <time>2021-10-03T08:47:37.038Z</time>
      </trkpt>
      <trkpt lat="45.48698" lon="5.24461">
        <ele>501</ele>
        <time>2021-10-03T08:47:42.043Z</time>
      </trkpt>
      <trkpt lat="45.48692" lon="5.24456">
        <ele>501</ele>
        <time>2021-10-03T08:47:46.991Z</time>
      </trkpt>
      <trkpt lat="45.48686" lon="5.2445">
        <ele>501</ele>
        <time>2021-10-03T08:47:51.968Z</time>
      </trkpt>
      <trkpt lat="45.48681" lon="5.24446">
        <ele>501</ele>
        <time>2021-10-03T08:47:56.011Z</time>
      </trkpt>
      <trkpt lat="45.48674" lon="5.24442">
        <ele>505</ele>
        <time>2021-10-03T08:48:01.029Z</time>
      </trkpt>
      <trkpt lat="45.48667" lon="5.24438">
        <ele>505</ele>
        <time>2021-10-03T08:48:06.006Z</time>
      </trkpt>
      <trkpt lat="45.48661" lon="5.24436">
        <ele>505</ele>
        <time>2021-10-03T08:48:10.007Z</time>
      </trkpt>
      <trkpt lat="45.48655" lon="5.24434">
        <ele>505</ele>
        <time>2021-10-03T08:48:14.031Z</time>
      </trkpt>
      <trkpt lat="45.48649" lon="5.24431">
        <ele>507</ele>
        <time>2021-10-03T08:48:18.043Z</time>
      </trkpt>
      <trkpt lat="45.48634" lon="5.24425">
        <ele>507</ele>
        <time>2021-10-03T08:48:23.032Z</time>
      </trkpt>
      <trkpt lat="45.48618" lon="5.24422">
        <ele>506</ele>
        <time>2021-10-03T08:48:27.038Z</time>
      </trkpt>
      <trkpt lat="45.48597" lon="5.24418">
        <ele>506</ele>
        <time>2021-10-03T08:48:32.003Z</time>
      </trkpt>
      <trkpt lat="45.4859" lon="5.24411">
        <ele>506</ele>
        <time>2021-10-03T08:48:37.046Z</time>
      </trkpt>
      <trkpt lat="45.48581" lon="5.24407">
        <ele>506</ele>
        <time>2021-10-03T08:48:41.998Z</time>
      </trkpt>
      <trkpt lat="45.48574" lon="5.24404">
        <ele>506</ele>
        <time>2021-10-03T08:48:46.992Z</time>
      </trkpt>
      <trkpt lat="45.48567" lon="5.24404">
        <ele>506</ele>
        <time>2021-10-03T08:48:51.002Z</time>
      </trkpt>
      <trkpt lat="45.48559" lon="5.24401">
        <ele>506</ele>
        <time>2021-10-03T08:48:56.004Z</time>
      </trkpt>
      <trkpt lat="45.48543" lon="5.24399">
        <ele>506</ele>
        <time>2021-10-03T08:49:00.997Z</time>
      </trkpt>
      <trkpt lat="45.48535" lon="5.24397">
        <ele>507</ele>
        <time>2021-10-03T08:49:06.006Z</time>
      </trkpt>
      <trkpt lat="45.48529" lon="5.24395">
        <ele>507</ele>
        <time>2021-10-03T08:49:10.996Z</time>
      </trkpt>
      <trkpt lat="45.48523" lon="5.24394">
        <ele>507</ele>
        <time>2021-10-03T08:49:15.012Z</time>
      </trkpt>
      <trkpt lat="45.48517" lon="5.24392">
        <ele>507</ele>
        <time>2021-10-03T08:49:19.032Z</time>
      </trkpt>
      <trkpt lat="45.48503" lon="5.2439">
        <ele>510</ele>
        <time>2021-10-03T08:49:27.013Z</time>
      </trkpt>
      <trkpt lat="45.48494" lon="5.24389">
        <ele>510</ele>
        <time>2021-10-03T08:49:32.003Z</time>
      </trkpt>
      <trkpt lat="45.48486" lon="5.24388">
        <ele>512</ele>
        <time>2021-10-03T08:49:37.002Z</time>
      </trkpt>
      <trkpt lat="45.48479" lon="5.24387">
        <ele>512</ele>
        <time>2021-10-03T08:49:41.010Z</time>
      </trkpt>
      <trkpt lat="45.48473" lon="5.24387">
        <ele>512</ele>
        <time>2021-10-03T08:49:45.012Z</time>
      </trkpt>
      <trkpt lat="45.48465" lon="5.24386">
        <ele>512</ele>
        <time>2021-10-03T08:49:49.987Z</time>
      </trkpt>
      <trkpt lat="45.48458" lon="5.24385">
        <ele>514</ele>
        <time>2021-10-03T08:49:54.966Z</time>
      </trkpt>
      <trkpt lat="45.48451" lon="5.24385">
        <ele>514</ele>
        <time>2021-10-03T08:49:58.998Z</time>
      </trkpt>
      <trkpt lat="45.48442" lon="5.24384">
        <ele>514</ele>
        <time>2021-10-03T08:50:04.003Z</time>
      </trkpt>
      <trkpt lat="45.48433" lon="5.24383">
        <ele>514</ele>
        <time>2021-10-03T08:50:08.994Z</time>
      </trkpt>
      <trkpt lat="45.48422" lon="5.24381">
        <ele>515</ele>
        <time>2021-10-03T08:50:14.028Z</time>
      </trkpt>
      <trkpt lat="45.48413" lon="5.24381">
        <ele>515</ele>
        <time>2021-10-03T08:50:19.031Z</time>
      </trkpt>
      <trkpt lat="45.48406" lon="5.24382">
        <ele>515</ele>
        <time>2021-10-03T08:50:23.037Z</time>
      </trkpt>
      <trkpt lat="45.48397" lon="5.24383">
        <ele>516</ele>
        <time>2021-10-03T08:50:28.011Z</time>
      </trkpt>
      <trkpt lat="45.48388" lon="5.24382">
        <ele>516</ele>
        <time>2021-10-03T08:50:32.999Z</time>
      </trkpt>
      <trkpt lat="45.48379" lon="5.24383">
        <ele>516</ele>
        <time>2021-10-03T08:50:37.010Z</time>
      </trkpt>
      <trkpt lat="45.48369" lon="5.24383">
        <ele>517</ele>
        <time>2021-10-03T08:50:41.031Z</time>
      </trkpt>
      <trkpt lat="45.4836" lon="5.24382">
        <ele>517</ele>
        <time>2021-10-03T08:50:46.029Z</time>
      </trkpt>
      <trkpt lat="45.48349" lon="5.24382">
        <ele>517</ele>
        <time>2021-10-03T08:50:50.994Z</time>
      </trkpt>
      <trkpt lat="45.48339" lon="5.2438">
        <ele>517</ele>
        <time>2021-10-03T08:50:55.996Z</time>
      </trkpt>
      <trkpt lat="45.48331" lon="5.24381">
        <ele>517</ele>
        <time>2021-10-03T08:51:00.017Z</time>
      </trkpt>
      <trkpt lat="45.48319" lon="5.24381">
        <ele>517</ele>
        <time>2021-10-03T08:51:05.013Z</time>
      </trkpt>
      <trkpt lat="45.48307" lon="5.24383">
        <ele>517</ele>
        <time>2021-10-03T08:51:10.028Z</time>
      </trkpt>
      <trkpt lat="45.48295" lon="5.24385">
        <ele>517</ele>
        <time>2021-10-03T08:51:14.995Z</time>
      </trkpt>
      <trkpt lat="45.48286" lon="5.24388">
        <ele>518</ele>
        <time>2021-10-03T08:51:19.004Z</time>
      </trkpt>
      <trkpt lat="45.48275" lon="5.24393">
        <ele>518</ele>
        <time>2021-10-03T08:51:23.973Z</time>
      </trkpt>
      <trkpt lat="45.48266" lon="5.24397">
        <ele>518</ele>
        <time>2021-10-03T08:51:28.001Z</time>
      </trkpt>
      <trkpt lat="45.48259" lon="5.244">
        <ele>518</ele>
        <time>2021-10-03T08:51:32.030Z</time>
      </trkpt>
      <trkpt lat="45.48249" lon="5.24405">
        <ele>519</ele>
        <time>2021-10-03T08:51:37.030Z</time>
      </trkpt>
      <trkpt lat="45.48238" lon="5.24411">
        <ele>519</ele>
        <time>2021-10-03T08:51:41.999Z</time>
      </trkpt>
      <trkpt lat="45.48229" lon="5.24416">
        <ele>518</ele>
        <time>2021-10-03T08:51:46.999Z</time>
      </trkpt>
      <trkpt lat="45.4822" lon="5.24421">
        <ele>518</ele>
        <time>2021-10-03T08:51:52.001Z</time>
      </trkpt>
      <trkpt lat="45.48211" lon="5.24427">
        <ele>518</ele>
        <time>2021-10-03T08:51:57.007Z</time>
      </trkpt>
      <trkpt lat="45.48202" lon="5.24432">
        <ele>519</ele>
        <time>2021-10-03T08:52:02.002Z</time>
      </trkpt>
      <trkpt lat="45.48193" lon="5.24438">
        <ele>519</ele>
        <time>2021-10-03T08:52:07.008Z</time>
      </trkpt>
      <trkpt lat="45.48183" lon="5.24443">
        <ele>519</ele>
        <time>2021-10-03T08:52:12.008Z</time>
      </trkpt>
      <trkpt lat="45.48175" lon="5.24446">
        <ele>518</ele>
        <time>2021-10-03T08:52:16.055Z</time>
      </trkpt>
      <trkpt lat="45.48165" lon="5.24451">
        <ele>518</ele>
        <time>2021-10-03T08:52:21Z</time>
      </trkpt>
      <trkpt lat="45.48155" lon="5.24456">
        <ele>518</ele>
        <time>2021-10-03T08:52:25.996Z</time>
      </trkpt>
      <trkpt lat="45.48145" lon="5.24459">
        <ele>518</ele>
        <time>2021-10-03T08:52:30.009Z</time>
      </trkpt>
      <trkpt lat="45.48136" lon="5.24462">
        <ele>518</ele>
        <time>2021-10-03T08:52:34.056Z</time>
      </trkpt>
      <trkpt lat="45.48127" lon="5.24466">
        <ele>518</ele>
        <time>2021-10-03T08:52:39.003Z</time>
      </trkpt>
      <trkpt lat="45.48118" lon="5.24469">
        <ele>518</ele>
        <time>2021-10-03T08:52:43Z</time>
      </trkpt>
      <trkpt lat="45.48108" lon="5.24473">
        <ele>518</ele>
        <time>2021-10-03T08:52:48.011Z</time>
      </trkpt>
      <trkpt lat="45.48099" lon="5.24476">
        <ele>518</ele>
        <time>2021-10-03T08:52:52.027Z</time>
      </trkpt>
      <trkpt lat="45.4809" lon="5.2448">
        <ele>518</ele>
        <time>2021-10-03T08:52:57.003Z</time>
      </trkpt>
      <trkpt lat="45.4808" lon="5.24484">
        <ele>518</ele>
        <time>2021-10-03T08:53:02.005Z</time>
      </trkpt>
      <trkpt lat="45.4807" lon="5.24488">
        <ele>519</ele>
        <time>2021-10-03T08:53:06.997Z</time>
      </trkpt>
      <trkpt lat="45.48059" lon="5.24491">
        <ele>519</ele>
        <time>2021-10-03T08:53:12.001Z</time>
      </trkpt>
      <trkpt lat="45.48052" lon="5.24494">
        <ele>519</ele>
        <time>2021-10-03T08:53:16.002Z</time>
      </trkpt>
      <trkpt lat="45.48045" lon="5.24497">
        <ele>519</ele>
        <time>2021-10-03T08:53:20.010Z</time>
      </trkpt>
      <trkpt lat="45.48036" lon="5.24499">
        <ele>520</ele>
        <time>2021-10-03T08:53:24.971Z</time>
      </trkpt>
      <trkpt lat="45.48028" lon="5.24501">
        <ele>520</ele>
        <time>2021-10-03T08:53:29.989Z</time>
      </trkpt>
      <trkpt lat="45.48019" lon="5.24503">
        <ele>520</ele>
        <time>2021-10-03T08:53:35.009Z</time>
      </trkpt>
      <trkpt lat="45.48011" lon="5.24505">
        <ele>522</ele>
        <time>2021-10-03T08:53:40.002Z</time>
      </trkpt>
      <trkpt lat="45.48004" lon="5.24506">
        <ele>522</ele>
        <time>2021-10-03T08:53:44.998Z</time>
      </trkpt>
      <trkpt lat="45.47998" lon="5.24509">
        <ele>522</ele>
        <time>2021-10-03T08:53:49.032Z</time>
      </trkpt>
      <trkpt lat="45.47993" lon="5.24511">
        <ele>522</ele>
        <time>2021-10-03T08:53:53.037Z</time>
      </trkpt>
      <trkpt lat="45.47985" lon="5.24512">
        <ele>522</ele>
        <time>2021-10-03T08:53:58.034Z</time>
      </trkpt>
      <trkpt lat="45.47978" lon="5.24513">
        <ele>522</ele>
        <time>2021-10-03T08:54:02.999Z</time>
      </trkpt>
      <trkpt lat="45.47972" lon="5.24513">
        <ele>522</ele>
        <time>2021-10-03T08:54:07.009Z</time>
      </trkpt>
      <trkpt lat="45.47967" lon="5.24513">
        <ele>522</ele>
        <time>2021-10-03T08:54:11.036Z</time>
      </trkpt>
      <trkpt lat="45.4796" lon="5.24516">
        <ele>522</ele>
        <time>2021-10-03T08:54:16.005Z</time>
      </trkpt>
      <trkpt lat="45.47955" lon="5.24519">
        <ele>522</ele>
        <time>2021-10-03T08:54:20.010Z</time>
      </trkpt>
      <trkpt lat="45.47951" lon="5.24523">
        <ele>522</ele>
        <time>2021-10-03T08:54:24.039Z</time>
      </trkpt>
      <trkpt lat="45.47946" lon="5.2453">
        <ele>522</ele>
        <time>2021-10-03T08:54:29.005Z</time>
      </trkpt>
      <trkpt lat="45.47941" lon="5.24535">
        <ele>522</ele>
        <time>2021-10-03T08:54:33.026Z</time>
      </trkpt>
      <trkpt lat="45.47936" lon="5.24543">
        <ele>522</ele>
        <time>2021-10-03T08:54:38.014Z</time>
      </trkpt>
      <trkpt lat="45.47931" lon="5.24552">
        <ele>522</ele>
        <time>2021-10-03T08:54:43.003Z</time>
      </trkpt>
      <trkpt lat="45.47927" lon="5.24563">
        <ele>523</ele>
        <time>2021-10-03T08:54:48.003Z</time>
      </trkpt>
      <trkpt lat="45.47923" lon="5.24569">
        <ele>523</ele>
        <time>2021-10-03T08:54:52.058Z</time>
      </trkpt>
      <trkpt lat="45.47918" lon="5.2458">
        <ele>523</ele>
        <time>2021-10-03T08:54:57.002Z</time>
      </trkpt>
      <trkpt lat="45.47915" lon="5.24587">
        <ele>523</ele>
        <time>2021-10-03T08:55:02.014Z</time>
      </trkpt>
      <trkpt lat="45.47911" lon="5.24595">
        <ele>523</ele>
        <time>2021-10-03T08:55:06.985Z</time>
      </trkpt>
      <trkpt lat="45.47907" lon="5.24603">
        <ele>523</ele>
        <time>2021-10-03T08:55:11.012Z</time>
      </trkpt>
      <trkpt lat="45.47904" lon="5.2461">
        <ele>523</ele>
        <time>2021-10-03T08:55:15.989Z</time>
      </trkpt>
      <trkpt lat="45.47901" lon="5.24611">
        <ele>523</ele>
        <time>2021-10-03T08:55:29.059Z</time>
      </trkpt>
      <trkpt lat="45.47901" lon="5.24611">
        <ele>523</ele>
        <time>2021-10-03T08:55:33.971Z</time>
      </trkpt>
      <trkpt lat="45.47897" lon="5.2461">
        <ele>523</ele>
        <time>2021-10-03T08:55:38.007Z</time>
      </trkpt>
      <trkpt lat="45.47892" lon="5.24607">
        <ele>523</ele>
        <time>2021-10-03T08:55:42.031Z</time>
      </trkpt>
      <trkpt lat="45.47885" lon="5.24607">
        <ele>523</ele>
        <time>2021-10-03T08:55:47.003Z</time>
      </trkpt>
      <trkpt lat="45.4788" lon="5.24605">
        <ele>523</ele>
        <time>2021-10-03T08:55:52.007Z</time>
      </trkpt>
      <trkpt lat="45.47875" lon="5.246">
        <ele>523</ele>
        <time>2021-10-03T08:55:56.063Z</time>
      </trkpt>
      <trkpt lat="45.47869" lon="5.24595">
        <ele>525</ele>
        <time>2021-10-03T08:56:01.045Z</time>
      </trkpt>
      <trkpt lat="45.47862" lon="5.2459">
        <ele>525</ele>
        <time>2021-10-03T08:56:06.033Z</time>
      </trkpt>
      <trkpt lat="45.47854" lon="5.24584">
        <ele>525</ele>
        <time>2021-10-03T08:56:11.010Z</time>
      </trkpt>
      <trkpt lat="45.47848" lon="5.24579">
        <ele>525</ele>
        <time>2021-10-03T08:56:15.968Z</time>
      </trkpt>
      <trkpt lat="45.47843" lon="5.24574">
        <ele>526</ele>
        <time>2021-10-03T08:56:20.035Z</time>
      </trkpt>
      <trkpt lat="45.47838" lon="5.24569">
        <ele>526</ele>
        <time>2021-10-03T08:56:25.008Z</time>
      </trkpt>
      <trkpt lat="45.47835" lon="5.24564">
        <ele>526</ele>
        <time>2021-10-03T08:56:29.037Z</time>
      </trkpt>
      <trkpt lat="45.4783" lon="5.24559">
        <ele>526</ele>
        <time>2021-10-03T08:56:34.970Z</time>
      </trkpt>
      <trkpt lat="45.47824" lon="5.24557">
        <ele>526</ele>
        <time>2021-10-03T08:56:39.018Z</time>
      </trkpt>
      <trkpt lat="45.47821" lon="5.24555">
        <ele>526</ele>
        <time>2021-10-03T08:56:44.003Z</time>
      </trkpt>
      <trkpt lat="45.47817" lon="5.24551">
        <ele>526</ele>
        <time>2021-10-03T08:56:48.014Z</time>
      </trkpt>
      <trkpt lat="45.47814" lon="5.24547">
        <ele>526</ele>
        <time>2021-10-03T08:56:52.032Z</time>
      </trkpt>
      <trkpt lat="45.47808" lon="5.24541">
        <ele>525</ele>
        <time>2021-10-03T08:56:57.001Z</time>
      </trkpt>
      <trkpt lat="45.47801" lon="5.24534">
        <ele>525</ele>
        <time>2021-10-03T08:57:02.001Z</time>
      </trkpt>
      <trkpt lat="45.47797" lon="5.24531">
        <ele>525</ele>
        <time>2021-10-03T08:57:06.008Z</time>
      </trkpt>
      <trkpt lat="45.47792" lon="5.24525">
        <ele>525</ele>
        <time>2021-10-03T08:57:10.968Z</time>
      </trkpt>
      <trkpt lat="45.47787" lon="5.2452">
        <ele>525</ele>
        <time>2021-10-03T08:57:15.965Z</time>
      </trkpt>
      <trkpt lat="45.47782" lon="5.24514">
        <ele>525</ele>
        <time>2021-10-03T08:57:20.971Z</time>
      </trkpt>
      <trkpt lat="45.47776" lon="5.24508">
        <ele>524</ele>
        <time>2021-10-03T08:57:25.964Z</time>
      </trkpt>
      <trkpt lat="45.47771" lon="5.24503">
        <ele>524</ele>
        <time>2021-10-03T08:57:30.976Z</time>
      </trkpt>
      <trkpt lat="45.47765" lon="5.24497">
        <ele>524</ele>
        <time>2021-10-03T08:57:35.965Z</time>
      </trkpt>
      <trkpt lat="45.47759" lon="5.24492">
        <ele>523</ele>
        <time>2021-10-03T08:57:40.963Z</time>
      </trkpt>
      <trkpt lat="45.47755" lon="5.24487">
        <ele>523</ele>
        <time>2021-10-03T08:57:44.994Z</time>
      </trkpt>
      <trkpt lat="45.47749" lon="5.24481">
        <ele>523</ele>
        <time>2021-10-03T08:57:49.969Z</time>
      </trkpt>
      <trkpt lat="45.47744" lon="5.24477">
        <ele>523</ele>
        <time>2021-10-03T08:57:53.972Z</time>
      </trkpt>
      <trkpt lat="45.47738" lon="5.24471">
        <ele>523</ele>
        <time>2021-10-03T08:57:58.973Z</time>
      </trkpt>
      <trkpt lat="45.47734" lon="5.24467">
        <ele>524</ele>
        <time>2021-10-03T08:58:02.995Z</time>
      </trkpt>
      <trkpt lat="45.47729" lon="5.24461">
        <ele>524</ele>
        <time>2021-10-03T08:58:07.969Z</time>
      </trkpt>
      <trkpt lat="45.47724" lon="5.24456">
        <ele>523</ele>
        <time>2021-10-03T08:58:12.970Z</time>
      </trkpt>
      <trkpt lat="45.47719" lon="5.24452">
        <ele>523</ele>
        <time>2021-10-03T08:58:16.974Z</time>
      </trkpt>
      <trkpt lat="45.47715" lon="5.24447">
        <ele>523</ele>
        <time>2021-10-03T08:58:20.994Z</time>
      </trkpt>
      <trkpt lat="45.4771" lon="5.24442">
        <ele>523</ele>
        <time>2021-10-03T08:58:25.965Z</time>
      </trkpt>
      <trkpt lat="45.47704" lon="5.24436">
        <ele>523</ele>
        <time>2021-10-03T08:58:30.969Z</time>
      </trkpt>
      <trkpt lat="45.47698" lon="5.24429">
        <ele>522</ele>
        <time>2021-10-03T08:58:35.964Z</time>
      </trkpt>
      <trkpt lat="45.47692" lon="5.24423">
        <ele>522</ele>
        <time>2021-10-03T08:58:40.971Z</time>
      </trkpt>
      <trkpt lat="45.47686" lon="5.24417">
        <ele>522</ele>
        <time>2021-10-03T08:58:44.967Z</time>
      </trkpt>
      <trkpt lat="45.47681" lon="5.24412">
        <ele>520</ele>
        <time>2021-10-03T08:58:49.973Z</time>
      </trkpt>
      <trkpt lat="45.47675" lon="5.24407">
        <ele>520</ele>
        <time>2021-10-03T08:58:54.969Z</time>
      </trkpt>
      <trkpt lat="45.4767" lon="5.24401">
        <ele>519</ele>
        <time>2021-10-03T08:58:59.971Z</time>
      </trkpt>
      <trkpt lat="45.47666" lon="5.24396">
        <ele>519</ele>
        <time>2021-10-03T08:59:04.967Z</time>
      </trkpt>
      <trkpt lat="45.47661" lon="5.24392">
        <ele>519</ele>
        <time>2021-10-03T08:59:08.973Z</time>
      </trkpt>
      <trkpt lat="45.47654" lon="5.24389">
        <ele>519</ele>
        <time>2021-10-03T08:59:13.972Z</time>
      </trkpt>
      <trkpt lat="45.47645" lon="5.24382">
        <ele>517</ele>
        <time>2021-10-03T08:59:18.969Z</time>
      </trkpt>
      <trkpt lat="45.47641" lon="5.24377">
        <ele>517</ele>
        <time>2021-10-03T08:59:22.980Z</time>
      </trkpt>
      <trkpt lat="45.47637" lon="5.24373">
        <ele>518</ele>
        <time>2021-10-03T08:59:26.966Z</time>
      </trkpt>
      <trkpt lat="45.47632" lon="5.24368">
        <ele>518</ele>
        <time>2021-10-03T08:59:31.972Z</time>
      </trkpt>
      <trkpt lat="45.47627" lon="5.24362">
        <ele>518</ele>
        <time>2021-10-03T08:59:36.968Z</time>
      </trkpt>
      <trkpt lat="45.47622" lon="5.2436">
        <ele>516</ele>
        <time>2021-10-03T08:59:41.968Z</time>
      </trkpt>
      <trkpt lat="45.47617" lon="5.2436">
        <ele>516</ele>
        <time>2021-10-03T08:59:46.966Z</time>
      </trkpt>
      <trkpt lat="45.47614" lon="5.24361">
        <ele>516</ele>
        <time>2021-10-03T08:59:50.967Z</time>
      </trkpt>
      <trkpt lat="45.47609" lon="5.24362">
        <ele>516</ele>
        <time>2021-10-03T08:59:55.974Z</time>
      </trkpt>
      <trkpt lat="45.47603" lon="5.24366">
        <ele>516</ele>
        <time>2021-10-03T09:00:00.981Z</time>
      </trkpt>
      <trkpt lat="45.47596" lon="5.2437">
        <ele>516</ele>
        <time>2021-10-03T09:00:05.966Z</time>
      </trkpt>
      <trkpt lat="45.4759" lon="5.24375">
        <ele>516</ele>
        <time>2021-10-03T09:00:10.965Z</time>
      </trkpt>
      <trkpt lat="45.47585" lon="5.24378">
        <ele>517</ele>
        <time>2021-10-03T09:00:14.972Z</time>
      </trkpt>
      <trkpt lat="45.47579" lon="5.24382">
        <ele>517</ele>
        <time>2021-10-03T09:00:19.966Z</time>
      </trkpt>
      <trkpt lat="45.47573" lon="5.24386">
        <ele>517</ele>
        <time>2021-10-03T09:00:23.975Z</time>
      </trkpt>
      <trkpt lat="45.47568" lon="5.24389">
        <ele>518</ele>
        <time>2021-10-03T09:00:27.991Z</time>
      </trkpt>
      <trkpt lat="45.47562" lon="5.24393">
        <ele>518</ele>
        <time>2021-10-03T09:00:32.980Z</time>
      </trkpt>
      <trkpt lat="45.47557" lon="5.24397">
        <ele>518</ele>
        <time>2021-10-03T09:00:36.979Z</time>
      </trkpt>
      <trkpt lat="45.47552" lon="5.24402">
        <ele>518</ele>
        <time>2021-10-03T09:00:41.967Z</time>
      </trkpt>
      <trkpt lat="45.47547" lon="5.24406">
        <ele>519</ele>
        <time>2021-10-03T09:00:45.967Z</time>
      </trkpt>
      <trkpt lat="45.47541" lon="5.24411">
        <ele>519</ele>
        <time>2021-10-03T09:00:50.972Z</time>
      </trkpt>
      <trkpt lat="45.47534" lon="5.24415">
        <ele>519</ele>
        <time>2021-10-03T09:00:55.977Z</time>
      </trkpt>
      <trkpt lat="45.47528" lon="5.24418">
        <ele>519</ele>
        <time>2021-10-03T09:01:00.972Z</time>
      </trkpt>
      <trkpt lat="45.47522" lon="5.24418">
        <ele>519</ele>
        <time>2021-10-03T09:01:05.966Z</time>
      </trkpt>
      <trkpt lat="45.47515" lon="5.24421">
        <ele>519</ele>
        <time>2021-10-03T09:01:10.970Z</time>
      </trkpt>
      <trkpt lat="45.4751" lon="5.24423">
        <ele>520</ele>
        <time>2021-10-03T09:01:14.965Z</time>
      </trkpt>
      <trkpt lat="45.47503" lon="5.24425">
        <ele>520</ele>
        <time>2021-10-03T09:01:19.971Z</time>
      </trkpt>
      <trkpt lat="45.47496" lon="5.24428">
        <ele>520</ele>
        <time>2021-10-03T09:01:24.967Z</time>
      </trkpt>
      <trkpt lat="45.47491" lon="5.24431">
        <ele>522</ele>
        <time>2021-10-03T09:01:28.973Z</time>
      </trkpt>
      <trkpt lat="45.47485" lon="5.24434">
        <ele>523</ele>
        <time>2021-10-03T09:01:32.996Z</time>
      </trkpt>
      <trkpt lat="45.47479" lon="5.24436">
        <ele>523</ele>
        <time>2021-10-03T09:01:37.967Z</time>
      </trkpt>
      <trkpt lat="45.47474" lon="5.24439">
        <ele>523</ele>
        <time>2021-10-03T09:01:41.972Z</time>
      </trkpt>
      <trkpt lat="45.47467" lon="5.24441">
        <ele>523</ele>
        <time>2021-10-03T09:01:46.974Z</time>
      </trkpt>
      <trkpt lat="45.47462" lon="5.24442">
        <ele>523</ele>
        <time>2021-10-03T09:01:50.968Z</time>
      </trkpt>
      <trkpt lat="45.47455" lon="5.24444">
        <ele>522</ele>
        <time>2021-10-03T09:01:55.971Z</time>
      </trkpt>
      <trkpt lat="45.47449" lon="5.24447">
        <ele>522</ele>
        <time>2021-10-03T09:02:00.965Z</time>
      </trkpt>
      <trkpt lat="45.47441" lon="5.2445">
        <ele>522</ele>
        <time>2021-10-03T09:02:05.965Z</time>
      </trkpt>
      <trkpt lat="45.47435" lon="5.24452">
        <ele>522</ele>
        <time>2021-10-03T09:02:10.971Z</time>
      </trkpt>
      <trkpt lat="45.47429" lon="5.24454">
        <ele>522</ele>
        <time>2021-10-03T09:02:14.965Z</time>
      </trkpt>
      <trkpt lat="45.47423" lon="5.24457">
        <ele>522</ele>
        <time>2021-10-03T09:02:19.966Z</time>
      </trkpt>
      <trkpt lat="45.47416" lon="5.24459">
        <ele>523</ele>
        <time>2021-10-03T09:02:24.971Z</time>
      </trkpt>
      <trkpt lat="45.47409" lon="5.24463">
        <ele>523</ele>
        <time>2021-10-03T09:02:29.969Z</time>
      </trkpt>
      <trkpt lat="45.47403" lon="5.24466">
        <ele>523</ele>
        <time>2021-10-03T09:02:34.970Z</time>
      </trkpt>
      <trkpt lat="45.47399" lon="5.24469">
        <ele>524</ele>
        <time>2021-10-03T09:02:38.996Z</time>
      </trkpt>
      <trkpt lat="45.47392" lon="5.24472">
        <ele>524</ele>
        <time>2021-10-03T09:02:43.971Z</time>
      </trkpt>
      <trkpt lat="45.47386" lon="5.24475">
        <ele>524</ele>
        <time>2021-10-03T09:02:48.971Z</time>
      </trkpt>
      <trkpt lat="45.47379" lon="5.24476">
        <ele>524</ele>
        <time>2021-10-03T09:02:53.975Z</time>
      </trkpt>
      <trkpt lat="45.47371" lon="5.24478">
        <ele>525</ele>
        <time>2021-10-03T09:02:58.969Z</time>
      </trkpt>
      <trkpt lat="45.47363" lon="5.24479">
        <ele>525</ele>
        <time>2021-10-03T09:03:03.968Z</time>
      </trkpt>
      <trkpt lat="45.47356" lon="5.2448">
        <ele>525</ele>
        <time>2021-10-03T09:03:07.991Z</time>
      </trkpt>
      <trkpt lat="45.47347" lon="5.24483">
        <ele>526</ele>
        <time>2021-10-03T09:03:12.968Z</time>
      </trkpt>
      <trkpt lat="45.47339" lon="5.24485">
        <ele>526</ele>
        <time>2021-10-03T09:03:17.968Z</time>
      </trkpt>
      <trkpt lat="45.4733" lon="5.24489">
        <ele>527</ele>
        <time>2021-10-03T09:03:22.970Z</time>
      </trkpt>
      <trkpt lat="45.47322" lon="5.2449">
        <ele>527</ele>
        <time>2021-10-03T09:03:27.978Z</time>
      </trkpt>
      <trkpt lat="45.47317" lon="5.24492">
        <ele>527</ele>
        <time>2021-10-03T09:03:31.965Z</time>
      </trkpt>
      <trkpt lat="45.47313" lon="5.24493">
        <ele>527</ele>
        <time>2021-10-03T09:03:36.971Z</time>
      </trkpt>
      <trkpt lat="45.47307" lon="5.24495">
        <ele>527</ele>
        <time>2021-10-03T09:03:41.961Z</time>
      </trkpt>
      <trkpt lat="45.47302" lon="5.24496">
        <ele>527</ele>
        <time>2021-10-03T09:03:45.966Z</time>
      </trkpt>
      <trkpt lat="45.47296" lon="5.24496">
        <ele>527</ele>
        <time>2021-10-03T09:03:49.962Z</time>
      </trkpt>
      <trkpt lat="45.47291" lon="5.24497">
        <ele>529</ele>
        <time>2021-10-03T09:03:54.971Z</time>
      </trkpt>
      <trkpt lat="45.47285" lon="5.24497">
        <ele>529</ele>
        <time>2021-10-03T09:03:59.959Z</time>
      </trkpt>
      <trkpt lat="45.47278" lon="5.24496">
        <ele>529</ele>
        <time>2021-10-03T09:04:04.965Z</time>
      </trkpt>
      <trkpt lat="45.47272" lon="5.24495">
        <ele>529</ele>
        <time>2021-10-03T09:04:09.972Z</time>
      </trkpt>
      <trkpt lat="45.47266" lon="5.24494">
        <ele>529</ele>
        <time>2021-10-03T09:04:13.972Z</time>
      </trkpt>
      <trkpt lat="45.47259" lon="5.24493">
        <ele>532</ele>
        <time>2021-10-03T09:04:18.972Z</time>
      </trkpt>
      <trkpt lat="45.47253" lon="5.24492">
        <ele>532</ele>
        <time>2021-10-03T09:04:22.971Z</time>
      </trkpt>
      <trkpt lat="45.47247" lon="5.2449">
        <ele>532</ele>
        <time>2021-10-03T09:04:27.969Z</time>
      </trkpt>
      <trkpt lat="45.47241" lon="5.24488">
        <ele>532</ele>
        <time>2021-10-03T09:04:32.966Z</time>
      </trkpt>
      <trkpt lat="45.47235" lon="5.24487">
        <ele>534</ele>
        <time>2021-10-03T09:04:36.970Z</time>
      </trkpt>
      <trkpt lat="45.47227" lon="5.24486">
        <ele>534</ele>
        <time>2021-10-03T09:04:41.966Z</time>
      </trkpt>
      <trkpt lat="45.47221" lon="5.24486">
        <ele>534</ele>
        <time>2021-10-03T09:04:45.970Z</time>
      </trkpt>
      <trkpt lat="45.47214" lon="5.24487">
        <ele>534</ele>
        <time>2021-10-03T09:04:50.968Z</time>
      </trkpt>
      <trkpt lat="45.47209" lon="5.24488">
        <ele>534</ele>
        <time>2021-10-03T09:04:54.973Z</time>
      </trkpt>
      <trkpt lat="45.47201" lon="5.24487">
        <ele>534</ele>
        <time>2021-10-03T09:04:59.968Z</time>
      </trkpt>
      <trkpt lat="45.47196" lon="5.24488">
        <ele>534</ele>
        <time>2021-10-03T09:05:03.971Z</time>
      </trkpt>
      <trkpt lat="45.47188" lon="5.24488">
        <ele>534</ele>
        <time>2021-10-03T09:05:08.967Z</time>
      </trkpt>
      <trkpt lat="45.47182" lon="5.24488">
        <ele>534</ele>
        <time>2021-10-03T09:05:12.969Z</time>
      </trkpt>
      <trkpt lat="45.47176" lon="5.2449">
        <ele>533</ele>
        <time>2021-10-03T09:05:17.970Z</time>
      </trkpt>
      <trkpt lat="45.47169" lon="5.24491">
        <ele>533</ele>
        <time>2021-10-03T09:05:22.969Z</time>
      </trkpt>
      <trkpt lat="45.47162" lon="5.24494">
        <ele>533</ele>
        <time>2021-10-03T09:05:27.971Z</time>
      </trkpt>
      <trkpt lat="45.47155" lon="5.24497">
        <ele>533</ele>
        <time>2021-10-03T09:05:32.965Z</time>
      </trkpt>
      <trkpt lat="45.47149" lon="5.245">
        <ele>530</ele>
        <time>2021-10-03T09:05:36.968Z</time>
      </trkpt>
      <trkpt lat="45.47142" lon="5.24504">
        <ele>530</ele>
        <time>2021-10-03T09:05:41.964Z</time>
      </trkpt>
      <trkpt lat="45.47137" lon="5.24506">
        <ele>530</ele>
        <time>2021-10-03T09:05:45.974Z</time>
      </trkpt>
      <trkpt lat="45.4713" lon="5.24509">
        <ele>530</ele>
        <time>2021-10-03T09:05:50.970Z</time>
      </trkpt>
      <trkpt lat="45.47123" lon="5.24512">
        <ele>529</ele>
        <time>2021-10-03T09:05:55.972Z</time>
      </trkpt>
      <trkpt lat="45.47116" lon="5.24514">
        <ele>530</ele>
        <time>2021-10-03T09:05:59.992Z</time>
      </trkpt>
      <trkpt lat="45.47109" lon="5.24518">
        <ele>530</ele>
        <time>2021-10-03T09:06:04.972Z</time>
      </trkpt>
      <trkpt lat="45.471" lon="5.24521">
        <ele>530</ele>
        <time>2021-10-03T09:06:09.969Z</time>
      </trkpt>
      <trkpt lat="45.47093" lon="5.24525">
        <ele>535</ele>
        <time>2021-10-03T09:06:14.962Z</time>
      </trkpt>
      <trkpt lat="45.47089" lon="5.24527">
        <ele>535</ele>
        <time>2021-10-03T09:06:18.971Z</time>
      </trkpt>
      <trkpt lat="45.47084" lon="5.24528">
        <ele>535</ele>
        <time>2021-10-03T09:06:23.968Z</time>
      </trkpt>
      <trkpt lat="45.47078" lon="5.2453">
        <ele>535</ele>
        <time>2021-10-03T09:06:28.963Z</time>
      </trkpt>
      <trkpt lat="45.47074" lon="5.24532">
        <ele>535</ele>
        <time>2021-10-03T09:06:32.971Z</time>
      </trkpt>
      <trkpt lat="45.47068" lon="5.24536">
        <ele>542</ele>
        <time>2021-10-03T09:06:37.977Z</time>
      </trkpt>
      <trkpt lat="45.47063" lon="5.24539">
        <ele>542</ele>
        <time>2021-10-03T09:06:42.967Z</time>
      </trkpt>
      <trkpt lat="45.47058" lon="5.24543">
        <ele>542</ele>
        <time>2021-10-03T09:06:47.969Z</time>
      </trkpt>
      <trkpt lat="45.47053" lon="5.24545">
        <ele>542</ele>
        <time>2021-10-03T09:06:52.972Z</time>
      </trkpt>
      <trkpt lat="45.47048" lon="5.24549">
        <ele>542</ele>
        <time>2021-10-03T09:06:57.968Z</time>
      </trkpt>
      <trkpt lat="45.47043" lon="5.24551">
        <ele>542</ele>
        <time>2021-10-03T09:07:02.967Z</time>
      </trkpt>
      <trkpt lat="45.47039" lon="5.24553">
        <ele>546</ele>
        <time>2021-10-03T09:07:07.003Z</time>
      </trkpt>
      <trkpt lat="45.47033" lon="5.24555">
        <ele>546</ele>
        <time>2021-10-03T09:07:11.035Z</time>
      </trkpt>
      <trkpt lat="45.47028" lon="5.24557">
        <ele>546</ele>
        <time>2021-10-03T09:07:16.038Z</time>
      </trkpt>
      <trkpt lat="45.47022" lon="5.24558">
        <ele>546</ele>
        <time>2021-10-03T09:07:21.028Z</time>
      </trkpt>
      <trkpt lat="45.47017" lon="5.24561">
        <ele>546</ele>
        <time>2021-10-03T09:07:26.001Z</time>
      </trkpt>
      <trkpt lat="45.47012" lon="5.24562">
        <ele>550</ele>
        <time>2021-10-03T09:07:30.011Z</time>
      </trkpt>
      <trkpt lat="45.47007" lon="5.24564">
        <ele>550</ele>
        <time>2021-10-03T09:07:34.034Z</time>
      </trkpt>
      <trkpt lat="45.47002" lon="5.24568">
        <ele>550</ele>
        <time>2021-10-03T09:07:38.031Z</time>
      </trkpt>
      <trkpt lat="45.46996" lon="5.24571">
        <ele>551</ele>
        <time>2021-10-03T09:07:42.981Z</time>
      </trkpt>
      <trkpt lat="45.46991" lon="5.24572">
        <ele>551</ele>
        <time>2021-10-03T09:07:47.016Z</time>
      </trkpt>
      <trkpt lat="45.46986" lon="5.24575">
        <ele>555</ele>
        <time>2021-10-03T09:07:51.995Z</time>
      </trkpt>
      <trkpt lat="45.46981" lon="5.24577">
        <ele>555</ele>
        <time>2021-10-03T09:07:56.003Z</time>
      </trkpt>
      <trkpt lat="45.46977" lon="5.24578">
        <ele>555</ele>
        <time>2021-10-03T09:08:00.031Z</time>
      </trkpt>
      <trkpt lat="45.46971" lon="5.2458">
        <ele>555</ele>
        <time>2021-10-03T09:08:05.009Z</time>
      </trkpt>
      <trkpt lat="45.46967" lon="5.24583">
        <ele>555</ele>
        <time>2021-10-03T09:08:09.057Z</time>
      </trkpt>
      <trkpt lat="45.46961" lon="5.24584">
        <ele>555</ele>
        <time>2021-10-03T09:08:14.002Z</time>
      </trkpt>
      <trkpt lat="45.46956" lon="5.24586">
        <ele>557</ele>
        <time>2021-10-03T09:08:18.010Z</time>
      </trkpt>
      <trkpt lat="45.46949" lon="5.24588">
        <ele>557</ele>
        <time>2021-10-03T09:08:22.988Z</time>
      </trkpt>
      <trkpt lat="45.46945" lon="5.24588">
        <ele>557</ele>
        <time>2021-10-03T09:08:26.995Z</time>
      </trkpt>
      <trkpt lat="45.46938" lon="5.2459">
        <ele>557</ele>
        <time>2021-10-03T09:08:31.989Z</time>
      </trkpt>
      <trkpt lat="45.46934" lon="5.2459">
        <ele>557</ele>
        <time>2021-10-03T09:08:36.008Z</time>
      </trkpt>
      <trkpt lat="45.46928" lon="5.24591">
        <ele>560</ele>
        <time>2021-10-03T09:08:41.003Z</time>
      </trkpt>
      <trkpt lat="45.46923" lon="5.24592">
        <ele>560</ele>
        <time>2021-10-03T09:08:45.007Z</time>
      </trkpt>
      <trkpt lat="45.46919" lon="5.24594">
        <ele>560</ele>
        <time>2021-10-03T09:08:49.054Z</time>
      </trkpt>
      <trkpt lat="45.46912" lon="5.24597">
        <ele>559</ele>
        <time>2021-10-03T09:08:53.997Z</time>
      </trkpt>
      <trkpt lat="45.46907" lon="5.24598">
        <ele>559</ele>
        <time>2021-10-03T09:08:58.010Z</time>
      </trkpt>
      <trkpt lat="45.46901" lon="5.24596">
        <ele>560</ele>
        <time>2021-10-03T09:09:03.025Z</time>
      </trkpt>
      <trkpt lat="45.46895" lon="5.24594">
        <ele>560</ele>
        <time>2021-10-03T09:09:07.993Z</time>
      </trkpt>
      <trkpt lat="45.4689" lon="5.24591">
        <ele>560</ele>
        <time>2021-10-03T09:09:13.004Z</time>
      </trkpt>
      <trkpt lat="45.46887" lon="5.24589">
        <ele>560</ele>
        <time>2021-10-03T09:09:18.003Z</time>
      </trkpt>
      <trkpt lat="45.46883" lon="5.24586">
        <ele>560</ele>
        <time>2021-10-03T09:09:22.067Z</time>
      </trkpt>
      <trkpt lat="45.46876" lon="5.24585">
        <ele>560</ele>
        <time>2021-10-03T09:09:27.003Z</time>
      </trkpt>
      <trkpt lat="45.46871" lon="5.24583">
        <ele>560</ele>
        <time>2021-10-03T09:09:31Z</time>
      </trkpt>
      <trkpt lat="45.46866" lon="5.24581">
        <ele>560</ele>
        <time>2021-10-03T09:09:36.001Z</time>
      </trkpt>
      <trkpt lat="45.4686" lon="5.24581">
        <ele>560</ele>
        <time>2021-10-03T09:09:41.008Z</time>
      </trkpt>
      <trkpt lat="45.46854" lon="5.24581">
        <ele>560</ele>
        <time>2021-10-03T09:09:45.983Z</time>
      </trkpt>
      <trkpt lat="45.46848" lon="5.24581">
        <ele>560</ele>
        <time>2021-10-03T09:09:50Z</time>
      </trkpt>
      <trkpt lat="45.46843" lon="5.24582">
        <ele>561</ele>
        <time>2021-10-03T09:09:54.007Z</time>
      </trkpt>
      <trkpt lat="45.46838" lon="5.24582">
        <ele>561</ele>
        <time>2021-10-03T09:09:58.999Z</time>
      </trkpt>
      <trkpt lat="45.46832" lon="5.24584">
        <ele>561</ele>
        <time>2021-10-03T09:10:04.001Z</time>
      </trkpt>
      <trkpt lat="45.46825" lon="5.24585">
        <ele>561</ele>
        <time>2021-10-03T09:10:08.992Z</time>
      </trkpt>
      <trkpt lat="45.46821" lon="5.24587">
        <ele>561</ele>
        <time>2021-10-03T09:10:13.008Z</time>
      </trkpt>
      <trkpt lat="45.46814" lon="5.24587">
        <ele>565</ele>
        <time>2021-10-03T09:10:18Z</time>
      </trkpt>
      <trkpt lat="45.46809" lon="5.24588">
        <ele>565</ele>
        <time>2021-10-03T09:10:22.007Z</time>
      </trkpt>
      <trkpt lat="45.46804" lon="5.2459">
        <ele>565</ele>
        <time>2021-10-03T09:10:27.055Z</time>
      </trkpt>
      <trkpt lat="45.46798" lon="5.24589">
        <ele>565</ele>
        <time>2021-10-03T09:10:32.016Z</time>
      </trkpt>
      <trkpt lat="45.46791" lon="5.24588">
        <ele>569</ele>
        <time>2021-10-03T09:10:37Z</time>
      </trkpt>
      <trkpt lat="45.46786" lon="5.24588">
        <ele>569</ele>
        <time>2021-10-03T09:10:42.002Z</time>
      </trkpt>
      <trkpt lat="45.46779" lon="5.24588">
        <ele>569</ele>
        <time>2021-10-03T09:10:47.002Z</time>
      </trkpt>
      <trkpt lat="45.46772" lon="5.24589">
        <ele>569</ele>
        <time>2021-10-03T09:10:52.030Z</time>
      </trkpt>
      <trkpt lat="45.46765" lon="5.2459">
        <ele>569</ele>
        <time>2021-10-03T09:10:57.009Z</time>
      </trkpt>
      <trkpt lat="45.46759" lon="5.24592">
        <ele>571</ele>
        <time>2021-10-03T09:11:01.989Z</time>
      </trkpt>
      <trkpt lat="45.46754" lon="5.24594">
        <ele>571</ele>
        <time>2021-10-03T09:11:05.999Z</time>
      </trkpt>
      <trkpt lat="45.46749" lon="5.24594">
        <ele>571</ele>
        <time>2021-10-03T09:11:09.981Z</time>
      </trkpt>
      <trkpt lat="45.46742" lon="5.24594">
        <ele>571</ele>
        <time>2021-10-03T09:11:15.001Z</time>
      </trkpt>
      <trkpt lat="45.46736" lon="5.24594">
        <ele>571</ele>
        <time>2021-10-03T09:11:19.988Z</time>
      </trkpt>
      <trkpt lat="45.46729" lon="5.24595">
        <ele>571</ele>
        <time>2021-10-03T09:11:24.996Z</time>
      </trkpt>
      <trkpt lat="45.46725" lon="5.24594">
        <ele>571</ele>
        <time>2021-10-03T09:11:29.002Z</time>
      </trkpt>
      <trkpt lat="45.46719" lon="5.24594">
        <ele>571</ele>
        <time>2021-10-03T09:11:33Z</time>
      </trkpt>
      <trkpt lat="45.46711" lon="5.24594">
        <ele>571</ele>
        <time>2021-10-03T09:11:38.005Z</time>
      </trkpt>
      <trkpt lat="45.46703" lon="5.24597">
        <ele>572</ele>
        <time>2021-10-03T09:11:42.968Z</time>
      </trkpt>
      <trkpt lat="45.46697" lon="5.24597">
        <ele>572</ele>
        <time>2021-10-03T09:11:47.992Z</time>
      </trkpt>
      <trkpt lat="45.46691" lon="5.24597">
        <ele>572</ele>
        <time>2021-10-03T09:11:52.989Z</time>
      </trkpt>
      <trkpt lat="45.46684" lon="5.24598">
        <ele>577</ele>
        <time>2021-10-03T09:11:58.002Z</time>
      </trkpt>
      <trkpt lat="45.46678" lon="5.24598">
        <ele>577</ele>
        <time>2021-10-03T09:12:03.002Z</time>
      </trkpt>
      <trkpt lat="45.46672" lon="5.24599">
        <ele>577</ele>
        <time>2021-10-03T09:12:08.011Z</time>
      </trkpt>
      <trkpt lat="45.46666" lon="5.246">
        <ele>577</ele>
        <time>2021-10-03T09:12:13.010Z</time>
      </trkpt>
      <trkpt lat="45.46658" lon="5.24599">
        <ele>577</ele>
        <time>2021-10-03T09:12:18.032Z</time>
      </trkpt>
      <trkpt lat="45.46651" lon="5.24596">
        <ele>573</ele>
        <time>2021-10-03T09:12:23.014Z</time>
      </trkpt>
      <trkpt lat="45.46642" lon="5.24594">
        <ele>573</ele>
        <time>2021-10-03T09:12:28.049Z</time>
      </trkpt>
      <trkpt lat="45.46634" lon="5.24591">
        <ele>573</ele>
        <time>2021-10-03T09:12:33.027Z</time>
      </trkpt>
      <trkpt lat="45.46627" lon="5.24588">
        <ele>573</ele>
        <time>2021-10-03T09:12:38.002Z</time>
      </trkpt>
      <trkpt lat="45.46621" lon="5.24583">
        <ele>575</ele>
        <time>2021-10-03T09:12:42.995Z</time>
      </trkpt>
      <trkpt lat="45.46614" lon="5.2458">
        <ele>575</ele>
        <time>2021-10-03T09:12:48.011Z</time>
      </trkpt>
      <trkpt lat="45.4661" lon="5.24577">
        <ele>575</ele>
        <time>2021-10-03T09:12:52.031Z</time>
      </trkpt>
      <trkpt lat="45.46604" lon="5.24573">
        <ele>575</ele>
        <time>2021-10-03T09:12:56.989Z</time>
      </trkpt>
      <trkpt lat="45.46598" lon="5.24572">
        <ele>575</ele>
        <time>2021-10-03T09:13:01.011Z</time>
      </trkpt>
      <trkpt lat="45.46591" lon="5.24572">
        <ele>577</ele>
        <time>2021-10-03T09:13:05.015Z</time>
      </trkpt>
      <trkpt lat="45.46584" lon="5.2457">
        <ele>577</ele>
        <time>2021-10-03T09:13:10.030Z</time>
      </trkpt>
      <trkpt lat="45.46578" lon="5.24567">
        <ele>573</ele>
        <time>2021-10-03T09:13:15.001Z</time>
      </trkpt>
      <trkpt lat="45.46569" lon="5.24566">
        <ele>575</ele>
        <time>2021-10-03T09:13:19.997Z</time>
      </trkpt>
      <trkpt lat="45.46564" lon="5.24563">
        <ele>575</ele>
        <time>2021-10-03T09:13:24.039Z</time>
      </trkpt>
      <trkpt lat="45.4656" lon="5.24558">
        <ele>575</ele>
        <time>2021-10-03T09:13:29.010Z</time>
      </trkpt>
      <trkpt lat="45.46555" lon="5.24555">
        <ele>575</ele>
        <time>2021-10-03T09:13:33.009Z</time>
      </trkpt>
      <trkpt lat="45.4655" lon="5.24552">
        <ele>575</ele>
        <time>2021-10-03T09:13:37.028Z</time>
      </trkpt>
      <trkpt lat="45.46544" lon="5.24545">
        <ele>575</ele>
        <time>2021-10-03T09:13:41.995Z</time>
      </trkpt>
      <trkpt lat="45.4654" lon="5.2454">
        <ele>576</ele>
        <time>2021-10-03T09:13:46.001Z</time>
      </trkpt>
      <trkpt lat="45.46537" lon="5.24536">
        <ele>576</ele>
        <time>2021-10-03T09:13:50.028Z</time>
      </trkpt>
      <trkpt lat="45.46531" lon="5.24529">
        <ele>576</ele>
        <time>2021-10-03T09:13:55.002Z</time>
      </trkpt>
      <trkpt lat="45.46526" lon="5.24529">
        <ele>576</ele>
        <time>2021-10-03T09:13:59.993Z</time>
      </trkpt>
      <trkpt lat="45.4652" lon="5.24524">
        <ele>576</ele>
        <time>2021-10-03T09:14:05.014Z</time>
      </trkpt>
      <trkpt lat="45.46515" lon="5.2452">
        <ele>576</ele>
        <time>2021-10-03T09:14:09.997Z</time>
      </trkpt>
      <trkpt lat="45.46509" lon="5.24515">
        <ele>579</ele>
        <time>2021-10-03T09:14:14.994Z</time>
      </trkpt>
      <trkpt lat="45.46504" lon="5.24512">
        <ele>580</ele>
        <time>2021-10-03T09:14:19.033Z</time>
      </trkpt>
      <trkpt lat="45.46498" lon="5.24508">
        <ele>580</ele>
        <time>2021-10-03T09:14:24.004Z</time>
      </trkpt>
      <trkpt lat="45.46492" lon="5.24505">
        <ele>580</ele>
        <time>2021-10-03T09:14:29.002Z</time>
      </trkpt>
      <trkpt lat="45.46485" lon="5.24502">
        <ele>583</ele>
        <time>2021-10-03T09:14:34.003Z</time>
      </trkpt>
      <trkpt lat="45.46478" lon="5.24499">
        <ele>583</ele>
        <time>2021-10-03T09:14:39.005Z</time>
      </trkpt>
      <trkpt lat="45.46471" lon="5.24495">
        <ele>583</ele>
        <time>2021-10-03T09:14:43.991Z</time>
      </trkpt>
      <trkpt lat="45.46465" lon="5.24491">
        <ele>583</ele>
        <time>2021-10-03T09:14:49.004Z</time>
      </trkpt>
      <trkpt lat="45.46457" lon="5.24488">
        <ele>587</ele>
        <time>2021-10-03T09:14:53.983Z</time>
      </trkpt>
      <trkpt lat="45.46451" lon="5.24489">
        <ele>587</ele>
        <time>2021-10-03T09:14:57.996Z</time>
      </trkpt>
      <trkpt lat="45.46445" lon="5.2449">
        <ele>587</ele>
        <time>2021-10-03T09:15:02.045Z</time>
      </trkpt>
      <trkpt lat="45.46438" lon="5.24492">
        <ele>587</ele>
        <time>2021-10-03T09:15:06.967Z</time>
      </trkpt>
      <trkpt lat="45.46431" lon="5.24495">
        <ele>587</ele>
        <time>2021-10-03T09:15:11.963Z</time>
      </trkpt>
      <trkpt lat="45.46423" lon="5.24496">
        <ele>589</ele>
        <time>2021-10-03T09:15:15.989Z</time>
      </trkpt>
      <trkpt lat="45.46416" lon="5.24493">
        <ele>589</ele>
        <time>2021-10-03T09:15:20.975Z</time>
      </trkpt>
      <trkpt lat="45.4641" lon="5.24494">
        <ele>589</ele>
        <time>2021-10-03T09:15:24.994Z</time>
      </trkpt>
      <trkpt lat="45.46404" lon="5.24496">
        <ele>589</ele>
        <time>2021-10-03T09:15:30.009Z</time>
      </trkpt>
      <trkpt lat="45.46396" lon="5.24497">
        <ele>588</ele>
        <time>2021-10-03T09:15:35.010Z</time>
      </trkpt>
      <trkpt lat="45.4639" lon="5.24498">
        <ele>588</ele>
        <time>2021-10-03T09:15:40.007Z</time>
      </trkpt>
      <trkpt lat="45.46385" lon="5.24498">
        <ele>588</ele>
        <time>2021-10-03T09:15:45.004Z</time>
      </trkpt>
      <trkpt lat="45.46383" lon="5.24498">
        <ele>588</ele>
        <time>2021-10-03T09:16:06.970Z</time>
      </trkpt>
      <trkpt lat="45.46383" lon="5.24498">
        <ele>588</ele>
        <time>2021-10-03T09:16:10.970Z</time>
      </trkpt>
      <trkpt lat="45.46383" lon="5.24498">
        <ele>588</ele>
        <time>2021-10-03T09:16:15.972Z</time>
      </trkpt>
      <trkpt lat="45.46379" lon="5.24498">
        <ele>588</ele>
        <time>2021-10-03T09:16:19.952Z</time>
      </trkpt>
      <trkpt lat="45.46372" lon="5.24498">
        <ele>588</ele>
        <time>2021-10-03T09:16:24.992Z</time>
      </trkpt>
      <trkpt lat="45.46367" lon="5.24497">
        <ele>588</ele>
        <time>2021-10-03T09:16:29.979Z</time>
      </trkpt>
      <trkpt lat="45.46361" lon="5.24496">
        <ele>588</ele>
        <time>2021-10-03T09:16:34.991Z</time>
      </trkpt>
      <trkpt lat="45.46355" lon="5.24495">
        <ele>588</ele>
        <time>2021-10-03T09:16:38.994Z</time>
      </trkpt>
      <trkpt lat="45.46349" lon="5.24495">
        <ele>588</ele>
        <time>2021-10-03T09:16:43.966Z</time>
      </trkpt>
      <trkpt lat="45.46344" lon="5.24497">
        <ele>589</ele>
        <time>2021-10-03T09:16:48.005Z</time>
      </trkpt>
      <trkpt lat="45.46338" lon="5.24498">
        <ele>589</ele>
        <time>2021-10-03T09:16:52.045Z</time>
      </trkpt>
      <trkpt lat="45.46329" lon="5.24499">
        <ele>589</ele>
        <time>2021-10-03T09:16:57.002Z</time>
      </trkpt>
      <trkpt lat="45.46323" lon="5.24499">
        <ele>589</ele>
        <time>2021-10-03T09:17:01.013Z</time>
      </trkpt>
      <trkpt lat="45.46316" lon="5.24498">
        <ele>588</ele>
        <time>2021-10-03T09:17:06.003Z</time>
      </trkpt>
      <trkpt lat="45.4631" lon="5.245">
        <ele>588</ele>
        <time>2021-10-03T09:17:10.036Z</time>
      </trkpt>
      <trkpt lat="45.46305" lon="5.24501">
        <ele>588</ele>
        <time>2021-10-03T09:17:15.004Z</time>
      </trkpt>
      <trkpt lat="45.463" lon="5.24501">
        <ele>588</ele>
        <time>2021-10-03T09:17:19.010Z</time>
      </trkpt>
      <trkpt lat="45.46293" lon="5.24497">
        <ele>588</ele>
        <time>2021-10-03T09:17:24.004Z</time>
      </trkpt>
      <trkpt lat="45.46289" lon="5.24492">
        <ele>588</ele>
        <time>2021-10-03T09:17:28.005Z</time>
      </trkpt>
      <trkpt lat="45.46281" lon="5.24485">
        <ele>587</ele>
        <time>2021-10-03T09:17:32.991Z</time>
      </trkpt>
      <trkpt lat="45.46276" lon="5.24476">
        <ele>587</ele>
        <time>2021-10-03T09:17:37.028Z</time>
      </trkpt>
      <trkpt lat="45.46272" lon="5.24467">
        <ele>587</ele>
        <time>2021-10-03T09:17:42.054Z</time>
      </trkpt>
      <trkpt lat="45.46267" lon="5.24459">
        <ele>587</ele>
        <time>2021-10-03T09:17:46.993Z</time>
      </trkpt>
      <trkpt lat="45.46264" lon="5.24453">
        <ele>588</ele>
        <time>2021-10-03T09:17:51.006Z</time>
      </trkpt>
      <trkpt lat="45.4626" lon="5.24445">
        <ele>588</ele>
        <time>2021-10-03T09:17:55.996Z</time>
      </trkpt>
      <trkpt lat="45.46256" lon="5.24433">
        <ele>588</ele>
        <time>2021-10-03T09:18:00.967Z</time>
      </trkpt>
      <trkpt lat="45.46254" lon="5.24422">
        <ele>589</ele>
        <time>2021-10-03T09:18:04.990Z</time>
      </trkpt>
      <trkpt lat="45.46253" lon="5.24411">
        <ele>589</ele>
        <time>2021-10-03T09:18:09.988Z</time>
      </trkpt>
      <trkpt lat="45.46253" lon="5.24403">
        <ele>589</ele>
        <time>2021-10-03T09:18:14.033Z</time>
      </trkpt>
      <trkpt lat="45.46255" lon="5.24395">
        <ele>590</ele>
        <time>2021-10-03T09:18:19.005Z</time>
      </trkpt>
      <trkpt lat="45.46256" lon="5.24386">
        <ele>590</ele>
        <time>2021-10-03T09:18:23.998Z</time>
      </trkpt>
      <trkpt lat="45.46256" lon="5.24376">
        <ele>590</ele>
        <time>2021-10-03T09:18:29.049Z</time>
      </trkpt>
      <trkpt lat="45.46255" lon="5.24368">
        <ele>592</ele>
        <time>2021-10-03T09:18:34.052Z</time>
      </trkpt>
      <trkpt lat="45.46253" lon="5.24359">
        <ele>592</ele>
        <time>2021-10-03T09:18:39.027Z</time>
      </trkpt>
      <trkpt lat="45.46252" lon="5.24349">
        <ele>592</ele>
        <time>2021-10-03T09:18:44.009Z</time>
      </trkpt>
      <trkpt lat="45.4625" lon="5.24342">
        <ele>594</ele>
        <time>2021-10-03T09:18:48.036Z</time>
      </trkpt>
      <trkpt lat="45.46248" lon="5.2433">
        <ele>594</ele>
        <time>2021-10-03T09:18:53.013Z</time>
      </trkpt>
      <trkpt lat="45.46248" lon="5.2432">
        <ele>594</ele>
        <time>2021-10-03T09:18:58.009Z</time>
      </trkpt>
      <trkpt lat="45.46248" lon="5.24309">
        <ele>594</ele>
        <time>2021-10-03T09:19:03.003Z</time>
      </trkpt>
      <trkpt lat="45.46247" lon="5.243">
        <ele>594</ele>
        <time>2021-10-03T09:19:07.040Z</time>
      </trkpt>
      <trkpt lat="45.46246" lon="5.24288">
        <ele>594</ele>
        <time>2021-10-03T09:19:11.999Z</time>
      </trkpt>
      <trkpt lat="45.46244" lon="5.24274">
        <ele>594</ele>
        <time>2021-10-03T09:19:16.990Z</time>
      </trkpt>
      <trkpt lat="45.46245" lon="5.24265">
        <ele>594</ele>
        <time>2021-10-03T09:19:21.029Z</time>
      </trkpt>
      <trkpt lat="45.46244" lon="5.24255">
        <ele>594</ele>
        <time>2021-10-03T09:19:25.998Z</time>
      </trkpt>
      <trkpt lat="45.46245" lon="5.24245">
        <ele>594</ele>
        <time>2021-10-03T09:19:31.026Z</time>
      </trkpt>
      <trkpt lat="45.46244" lon="5.24236">
        <ele>594</ele>
        <time>2021-10-03T09:19:36.033Z</time>
      </trkpt>
      <trkpt lat="45.46241" lon="5.24222">
        <ele>594</ele>
        <time>2021-10-03T09:19:41.013Z</time>
      </trkpt>
      <trkpt lat="45.46239" lon="5.2421">
        <ele>594</ele>
        <time>2021-10-03T09:19:45.995Z</time>
      </trkpt>
      <trkpt lat="45.46233" lon="5.24201">
        <ele>596</ele>
        <time>2021-10-03T09:19:51.002Z</time>
      </trkpt>
      <trkpt lat="45.46227" lon="5.24192">
        <ele>596</ele>
        <time>2021-10-03T09:19:56.003Z</time>
      </trkpt>
      <trkpt lat="45.4622" lon="5.24188">
        <ele>596</ele>
        <time>2021-10-03T09:20:01.041Z</time>
      </trkpt>
      <trkpt lat="45.46214" lon="5.24185">
        <ele>596</ele>
        <time>2021-10-03T09:20:05.991Z</time>
      </trkpt>
      <trkpt lat="45.46208" lon="5.24184">
        <ele>596</ele>
        <time>2021-10-03T09:20:09.999Z</time>
      </trkpt>
      <trkpt lat="45.46201" lon="5.24185">
        <ele>596</ele>
        <time>2021-10-03T09:20:14.979Z</time>
      </trkpt>
      <trkpt lat="45.46196" lon="5.24188">
        <ele>596</ele>
        <time>2021-10-03T09:20:19.001Z</time>
      </trkpt>
      <trkpt lat="45.46189" lon="5.24189">
        <ele>596</ele>
        <time>2021-10-03T09:20:23.981Z</time>
      </trkpt>
      <trkpt lat="45.46181" lon="5.24189">
        <ele>596</ele>
        <time>2021-10-03T09:20:29.004Z</time>
      </trkpt>
      <trkpt lat="45.46174" lon="5.2419">
        <ele>594</ele>
        <time>2021-10-03T09:20:33.960Z</time>
      </trkpt>
      <trkpt lat="45.46168" lon="5.2419">
        <ele>594</ele>
        <time>2021-10-03T09:20:38.009Z</time>
      </trkpt>
      <trkpt lat="45.46163" lon="5.24187">
        <ele>594</ele>
        <time>2021-10-03T09:20:42.034Z</time>
      </trkpt>
      <trkpt lat="45.46156" lon="5.24182">
        <ele>594</ele>
        <time>2021-10-03T09:20:47.040Z</time>
      </trkpt>
      <trkpt lat="45.46149" lon="5.24176">
        <ele>593</ele>
        <time>2021-10-03T09:20:52.007Z</time>
      </trkpt>
      <trkpt lat="45.46143" lon="5.24171">
        <ele>593</ele>
        <time>2021-10-03T09:20:56.025Z</time>
      </trkpt>
      <trkpt lat="45.46137" lon="5.24166">
        <ele>593</ele>
        <time>2021-10-03T09:21:01.047Z</time>
      </trkpt>
      <trkpt lat="45.46131" lon="5.2416">
        <ele>593</ele>
        <time>2021-10-03T09:21:06.003Z</time>
      </trkpt>
      <trkpt lat="45.46129" lon="5.24154">
        <ele>593</ele>
        <time>2021-10-03T09:21:10.038Z</time>
      </trkpt>
      <trkpt lat="45.46125" lon="5.24148">
        <ele>592</ele>
        <time>2021-10-03T09:21:14.041Z</time>
      </trkpt>
      <trkpt lat="45.46118" lon="5.24141">
        <ele>591</ele>
        <time>2021-10-03T09:21:18.971Z</time>
      </trkpt>
      <trkpt lat="45.46114" lon="5.24136">
        <ele>591</ele>
        <time>2021-10-03T09:21:22.998Z</time>
      </trkpt>
      <trkpt lat="45.46111" lon="5.2413">
        <ele>591</ele>
        <time>2021-10-03T09:21:27.007Z</time>
      </trkpt>
      <trkpt lat="45.46103" lon="5.24123">
        <ele>592</ele>
        <time>2021-10-03T09:21:32.002Z</time>
      </trkpt>
      <trkpt lat="45.46098" lon="5.24117">
        <ele>592</ele>
        <time>2021-10-03T09:21:37.008Z</time>
      </trkpt>
      <trkpt lat="45.4609" lon="5.2411">
        <ele>590</ele>
        <time>2021-10-03T09:21:41.961Z</time>
      </trkpt>
      <trkpt lat="45.46086" lon="5.24107">
        <ele>590</ele>
        <time>2021-10-03T09:21:45.962Z</time>
      </trkpt>
      <trkpt lat="45.4608" lon="5.24101">
        <ele>590</ele>
        <time>2021-10-03T09:21:50.991Z</time>
      </trkpt>
      <trkpt lat="45.46071" lon="5.24094">
        <ele>591</ele>
        <time>2021-10-03T09:21:55.033Z</time>
      </trkpt>
      <trkpt lat="45.46062" lon="5.24089">
        <ele>589</ele>
        <time>2021-10-03T09:22:00.017Z</time>
      </trkpt>
      <trkpt lat="45.46056" lon="5.24084">
        <ele>589</ele>
        <time>2021-10-03T09:22:04.966Z</time>
      </trkpt>
      <trkpt lat="45.4605" lon="5.24081">
        <ele>589</ele>
        <time>2021-10-03T09:22:09Z</time>
      </trkpt>
      <trkpt lat="45.46046" lon="5.24078">
        <ele>589</ele>
        <time>2021-10-03T09:22:13.044Z</time>
      </trkpt>
      <trkpt lat="45.46038" lon="5.24074">
        <ele>590</ele>
        <time>2021-10-03T09:22:17.961Z</time>
      </trkpt>
      <trkpt lat="45.46034" lon="5.2407">
        <ele>590</ele>
        <time>2021-10-03T09:22:22.012Z</time>
      </trkpt>
      <trkpt lat="45.46028" lon="5.24064">
        <ele>590</ele>
        <time>2021-10-03T09:22:27.007Z</time>
      </trkpt>
      <trkpt lat="45.4602" lon="5.24056">
        <ele>590</ele>
        <time>2021-10-03T09:22:32.003Z</time>
      </trkpt>
      <trkpt lat="45.46012" lon="5.24049">
        <ele>590</ele>
        <time>2021-10-03T09:22:37.031Z</time>
      </trkpt>
      <trkpt lat="45.46005" lon="5.24044">
        <ele>590</ele>
        <time>2021-10-03T09:22:41.999Z</time>
      </trkpt>
      <trkpt lat="45.46001" lon="5.24041">
        <ele>589</ele>
        <time>2021-10-03T09:22:46.008Z</time>
      </trkpt>
      <trkpt lat="45.45994" lon="5.24034">
        <ele>589</ele>
        <time>2021-10-03T09:22:51.007Z</time>
      </trkpt>
      <trkpt lat="45.4599" lon="5.24031">
        <ele>589</ele>
        <time>2021-10-03T09:22:55.037Z</time>
      </trkpt>
      <trkpt lat="45.45984" lon="5.24025">
        <ele>588</ele>
        <time>2021-10-03T09:23:00.008Z</time>
      </trkpt>
      <trkpt lat="45.45978" lon="5.24019">
        <ele>588</ele>
        <time>2021-10-03T09:23:04.018Z</time>
      </trkpt>
      <trkpt lat="45.45973" lon="5.24013">
        <ele>587</ele>
        <time>2021-10-03T09:23:08.053Z</time>
      </trkpt>
      <trkpt lat="45.45967" lon="5.24008">
        <ele>587</ele>
        <time>2021-10-03T09:23:12.965Z</time>
      </trkpt>
      <trkpt lat="45.45961" lon="5.24001">
        <ele>587</ele>
        <time>2021-10-03T09:23:17.970Z</time>
      </trkpt>
      <trkpt lat="45.45955" lon="5.23994">
        <ele>586</ele>
        <time>2021-10-03T09:23:23.016Z</time>
      </trkpt>
      <trkpt lat="45.45949" lon="5.23987">
        <ele>586</ele>
        <time>2021-10-03T09:23:28.005Z</time>
      </trkpt>
      <trkpt lat="45.45947" lon="5.23979">
        <ele>584</ele>
        <time>2021-10-03T09:23:32.990Z</time>
      </trkpt>
      <trkpt lat="45.4595" lon="5.23973">
        <ele>584</ele>
        <time>2021-10-03T09:23:37.003Z</time>
      </trkpt>
      <trkpt lat="45.45952" lon="5.23968">
        <ele>584</ele>
        <time>2021-10-03T09:23:41.041Z</time>
      </trkpt>
      <trkpt lat="45.45952" lon="5.23957">
        <ele>580</ele>
        <time>2021-10-03T09:23:45.960Z</time>
      </trkpt>
      <trkpt lat="45.45951" lon="5.23949">
        <ele>580</ele>
        <time>2021-10-03T09:23:50.031Z</time>
      </trkpt>
      <trkpt lat="45.4595" lon="5.23941">
        <ele>580</ele>
        <time>2021-10-03T09:23:55.003Z</time>
      </trkpt>
      <trkpt lat="45.4595" lon="5.2393">
        <ele>576</ele>
        <time>2021-10-03T09:24:00.007Z</time>
      </trkpt>
      <trkpt lat="45.4595" lon="5.23919">
        <ele>576</ele>
        <time>2021-10-03T09:24:04.963Z</time>
      </trkpt>
      <trkpt lat="45.45949" lon="5.23911">
        <ele>576</ele>
        <time>2021-10-03T09:24:08.997Z</time>
      </trkpt>
      <trkpt lat="45.45948" lon="5.23899">
        <ele>575</ele>
        <time>2021-10-03T09:24:13.963Z</time>
      </trkpt>
      <trkpt lat="45.45946" lon="5.23886">
        <ele>575</ele>
        <time>2021-10-03T09:24:17.967Z</time>
      </trkpt>
      <trkpt lat="45.4594" lon="5.23874">
        <ele>575</ele>
        <time>2021-10-03T09:24:23.013Z</time>
      </trkpt>
      <trkpt lat="45.45938" lon="5.23863">
        <ele>575</ele>
        <time>2021-10-03T09:24:27.967Z</time>
      </trkpt>
      <trkpt lat="45.45937" lon="5.23855">
        <ele>575</ele>
        <time>2021-10-03T09:24:31.999Z</time>
      </trkpt>
      <trkpt lat="45.45935" lon="5.23848">
        <ele>575</ele>
        <time>2021-10-03T09:24:36.005Z</time>
      </trkpt>
      <trkpt lat="45.45931" lon="5.23835">
        <ele>577</ele>
        <time>2021-10-03T09:24:41.015Z</time>
      </trkpt>
      <trkpt lat="45.45931" lon="5.23831">
        <ele>577</ele>
        <time>2021-10-03T09:24:45.967Z</time>
      </trkpt>
      <trkpt lat="45.45931" lon="5.23831">
        <ele>577</ele>
        <time>2021-10-03T09:25:14.981Z</time>
      </trkpt>
      <trkpt lat="45.45931" lon="5.23831">
        <ele>577</ele>
        <time>2021-10-03T09:25:19.505Z</time>
      </trkpt>
      <trkpt lat="45.45932" lon="5.23831">
        <ele>577</ele>
        <time>2021-10-03T09:25:24.003Z</time>
      </trkpt>
      <trkpt lat="45.45934" lon="5.23829">
        <ele>577</ele>
        <time>2021-10-03T09:25:28.993Z</time>
      </trkpt>
      <trkpt lat="45.45939" lon="5.23825">
        <ele>577</ele>
        <time>2021-10-03T09:25:33.990Z</time>
      </trkpt>
      <trkpt lat="45.45942" lon="5.23826">
        <ele>577</ele>
        <time>2021-10-03T09:25:37.995Z</time>
      </trkpt>
      <trkpt lat="45.45947" lon="5.23822">
        <ele>577</ele>
        <time>2021-10-03T09:25:42.999Z</time>
      </trkpt>
      <trkpt lat="45.45953" lon="5.23822">
        <ele>577</ele>
        <time>2021-10-03T09:25:48Z</time>
      </trkpt>
      <trkpt lat="45.45958" lon="5.23819">
        <ele>578</ele>
        <time>2021-10-03T09:25:52.004Z</time>
      </trkpt>
      <trkpt lat="45.45964" lon="5.23817">
        <ele>575</ele>
        <time>2021-10-03T09:25:56.996Z</time>
      </trkpt>
      <trkpt lat="45.45971" lon="5.23813">
        <ele>575</ele>
        <time>2021-10-03T09:26:01.975Z</time>
      </trkpt>
      <trkpt lat="45.45979" lon="5.23807">
        <ele>575</ele>
        <time>2021-10-03T09:26:06.967Z</time>
      </trkpt>
      <trkpt lat="45.45984" lon="5.23802">
        <ele>575</ele>
        <time>2021-10-03T09:26:10.992Z</time>
      </trkpt>
      <trkpt lat="45.45988" lon="5.23796">
        <ele>573</ele>
        <time>2021-10-03T09:26:15.996Z</time>
      </trkpt>
      <trkpt lat="45.45995" lon="5.23789">
        <ele>573</ele>
        <time>2021-10-03T09:26:20.965Z</time>
      </trkpt>
      <trkpt lat="45.46" lon="5.23785">
        <ele>573</ele>
        <time>2021-10-03T09:26:25.003Z</time>
      </trkpt>
      <trkpt lat="45.46004" lon="5.2378">
        <ele>573</ele>
        <time>2021-10-03T09:26:29.011Z</time>
      </trkpt>
      <trkpt lat="45.4601" lon="5.23774">
        <ele>573</ele>
        <time>2021-10-03T09:26:33.999Z</time>
      </trkpt>
      <trkpt lat="45.46016" lon="5.23771">
        <ele>572</ele>
        <time>2021-10-03T09:26:38.979Z</time>
      </trkpt>
      <trkpt lat="45.4602" lon="5.23769">
        <ele>572</ele>
        <time>2021-10-03T09:26:43.004Z</time>
      </trkpt>
      <trkpt lat="45.46025" lon="5.23768">
        <ele>572</ele>
        <time>2021-10-03T09:26:47.019Z</time>
      </trkpt>
      <trkpt lat="45.46032" lon="5.23764">
        <ele>572</ele>
        <time>2021-10-03T09:26:52.002Z</time>
      </trkpt>
      <trkpt lat="45.46037" lon="5.23761">
        <ele>572</ele>
        <time>2021-10-03T09:26:56.008Z</time>
      </trkpt>
      <trkpt lat="45.46044" lon="5.23757">
        <ele>570</ele>
        <time>2021-10-03T09:27:00.999Z</time>
      </trkpt>
      <trkpt lat="45.46048" lon="5.23754">
        <ele>570</ele>
        <time>2021-10-03T09:27:05.007Z</time>
      </trkpt>
      <trkpt lat="45.46056" lon="5.23751">
        <ele>570</ele>
        <time>2021-10-03T09:27:10.002Z</time>
      </trkpt>
      <trkpt lat="45.46063" lon="5.2375">
        <ele>570</ele>
        <time>2021-10-03T09:27:14.008Z</time>
      </trkpt>
      <trkpt lat="45.4607" lon="5.23752">
        <ele>568</ele>
        <time>2021-10-03T09:27:18.999Z</time>
      </trkpt>
      <trkpt lat="45.46074" lon="5.23753">
        <ele>568</ele>
        <time>2021-10-03T09:27:23.008Z</time>
      </trkpt>
      <trkpt lat="45.46082" lon="5.23753">
        <ele>568</ele>
        <time>2021-10-03T09:27:28.011Z</time>
      </trkpt>
      <trkpt lat="45.46088" lon="5.2375">
        <ele>568</ele>
        <time>2021-10-03T09:27:32.017Z</time>
      </trkpt>
      <trkpt lat="45.46095" lon="5.23741">
        <ele>568</ele>
        <time>2021-10-03T09:27:37.006Z</time>
      </trkpt>
      <trkpt lat="45.46099" lon="5.23729">
        <ele>568</ele>
        <time>2021-10-03T09:27:42.005Z</time>
      </trkpt>
      <trkpt lat="45.46101" lon="5.23717">
        <ele>568</ele>
        <time>2021-10-03T09:27:46.992Z</time>
      </trkpt>
      <trkpt lat="45.46102" lon="5.23708">
        <ele>568</ele>
        <time>2021-10-03T09:27:51.005Z</time>
      </trkpt>
      <trkpt lat="45.46104" lon="5.23697">
        <ele>568</ele>
        <time>2021-10-03T09:27:56.036Z</time>
      </trkpt>
      <trkpt lat="45.46106" lon="5.23686">
        <ele>568</ele>
        <time>2021-10-03T09:28:01.009Z</time>
      </trkpt>
      <trkpt lat="45.46108" lon="5.23675">
        <ele>569</ele>
        <time>2021-10-03T09:28:06.014Z</time>
      </trkpt>
      <trkpt lat="45.4611" lon="5.23664">
        <ele>569</ele>
        <time>2021-10-03T09:28:10.980Z</time>
      </trkpt>
      <trkpt lat="45.46111" lon="5.23655">
        <ele>569</ele>
        <time>2021-10-03T09:28:14.982Z</time>
      </trkpt>
      <trkpt lat="45.46111" lon="5.23644">
        <ele>569</ele>
        <time>2021-10-03T09:28:19.966Z</time>
      </trkpt>
      <trkpt lat="45.46112" lon="5.23635">
        <ele>569</ele>
        <time>2021-10-03T09:28:24.003Z</time>
      </trkpt>
      <trkpt lat="45.46113" lon="5.23628">
        <ele>569</ele>
        <time>2021-10-03T09:28:28.008Z</time>
      </trkpt>
      <trkpt lat="45.46115" lon="5.23618">
        <ele>569</ele>
        <time>2021-10-03T09:28:33.002Z</time>
      </trkpt>
      <trkpt lat="45.46118" lon="5.23607">
        <ele>569</ele>
        <time>2021-10-03T09:28:37.989Z</time>
      </trkpt>
      <trkpt lat="45.46118" lon="5.23596">
        <ele>568</ele>
        <time>2021-10-03T09:28:42Z</time>
      </trkpt>
      <trkpt lat="45.46119" lon="5.23585">
        <ele>568</ele>
        <time>2021-10-03T09:28:47.005Z</time>
      </trkpt>
      <trkpt lat="45.46118" lon="5.23574">
        <ele>568</ele>
        <time>2021-10-03T09:28:52.019Z</time>
      </trkpt>
      <trkpt lat="45.4612" lon="5.23562">
        <ele>567</ele>
        <time>2021-10-03T09:28:57.009Z</time>
      </trkpt>
      <trkpt lat="45.46119" lon="5.23548">
        <ele>567</ele>
        <time>2021-10-03T09:29:02.001Z</time>
      </trkpt>
      <trkpt lat="45.46118" lon="5.23539">
        <ele>566</ele>
        <time>2021-10-03T09:29:06.993Z</time>
      </trkpt>
      <trkpt lat="45.46114" lon="5.23531">
        <ele>566</ele>
        <time>2021-10-03T09:29:11.013Z</time>
      </trkpt>
      <trkpt lat="45.46109" lon="5.23525">
        <ele>566</ele>
        <time>2021-10-03T09:29:16.005Z</time>
      </trkpt>
      <trkpt lat="45.46105" lon="5.2352">
        <ele>566</ele>
        <time>2021-10-03T09:29:19.995Z</time>
      </trkpt>
      <trkpt lat="45.46101" lon="5.23513">
        <ele>565</ele>
        <time>2021-10-03T09:29:25.006Z</time>
      </trkpt>
      <trkpt lat="45.46095" lon="5.23507">
        <ele>567</ele>
        <time>2021-10-03T09:29:30.003Z</time>
      </trkpt>
      <trkpt lat="45.46089" lon="5.23501">
        <ele>567</ele>
        <time>2021-10-03T09:29:35.033Z</time>
      </trkpt>
      <trkpt lat="45.46083" lon="5.23494">
        <ele>567</ele>
        <time>2021-10-03T09:29:40.013Z</time>
      </trkpt>
      <trkpt lat="45.46078" lon="5.23488">
        <ele>567</ele>
        <time>2021-10-03T09:29:44.993Z</time>
      </trkpt>
      <trkpt lat="45.46072" lon="5.23483">
        <ele>566</ele>
        <time>2021-10-03T09:29:49.004Z</time>
      </trkpt>
      <trkpt lat="45.46069" lon="5.23475">
        <ele>568</ele>
        <time>2021-10-03T09:29:54.003Z</time>
      </trkpt>
      <trkpt lat="45.46066" lon="5.23469">
        <ele>568</ele>
        <time>2021-10-03T09:29:58.037Z</time>
      </trkpt>
      <trkpt lat="45.46064" lon="5.2346">
        <ele>568</ele>
        <time>2021-10-03T09:30:03.005Z</time>
      </trkpt>
      <trkpt lat="45.46064" lon="5.23451">
        <ele>569</ele>
        <time>2021-10-03T09:30:08Z</time>
      </trkpt>
      <trkpt lat="45.46064" lon="5.23442">
        <ele>569</ele>
        <time>2021-10-03T09:30:12.985Z</time>
      </trkpt>
      <trkpt lat="45.46064" lon="5.23435">
        <ele>569</ele>
        <time>2021-10-03T09:30:16.999Z</time>
      </trkpt>
      <trkpt lat="45.46063" lon="5.23424">
        <ele>570</ele>
        <time>2021-10-03T09:30:21.971Z</time>
      </trkpt>
      <trkpt lat="45.46062" lon="5.23416">
        <ele>570</ele>
        <time>2021-10-03T09:30:25.989Z</time>
      </trkpt>
      <trkpt lat="45.46063" lon="5.23405">
        <ele>570</ele>
        <time>2021-10-03T09:30:31.007Z</time>
      </trkpt>
      <trkpt lat="45.46062" lon="5.23396">
        <ele>570</ele>
        <time>2021-10-03T09:30:35.997Z</time>
      </trkpt>
      <trkpt lat="45.46061" lon="5.23387">
        <ele>570</ele>
        <time>2021-10-03T09:30:40.006Z</time>
      </trkpt>
      <trkpt lat="45.46061" lon="5.23377">
        <ele>570</ele>
        <time>2021-10-03T09:30:45.028Z</time>
      </trkpt>
      <trkpt lat="45.46061" lon="5.23367">
        <ele>571</ele>
        <time>2021-10-03T09:30:50.010Z</time>
      </trkpt>
      <trkpt lat="45.46061" lon="5.23359">
        <ele>571</ele>
        <time>2021-10-03T09:30:54.052Z</time>
      </trkpt>
      <trkpt lat="45.46061" lon="5.23349">
        <ele>571</ele>
        <time>2021-10-03T09:30:59.010Z</time>
      </trkpt>
      <trkpt lat="45.46062" lon="5.2334">
        <ele>572</ele>
        <time>2021-10-03T09:31:04.002Z</time>
      </trkpt>
      <trkpt lat="45.46062" lon="5.23332">
        <ele>572</ele>
        <time>2021-10-03T09:31:08.005Z</time>
      </trkpt>
      <trkpt lat="45.46062" lon="5.23325">
        <ele>572</ele>
        <time>2021-10-03T09:31:12.007Z</time>
      </trkpt>
      <trkpt lat="45.46062" lon="5.23317">
        <ele>571</ele>
        <time>2021-10-03T09:31:16.021Z</time>
      </trkpt>
      <trkpt lat="45.46062" lon="5.23307">
        <ele>571</ele>
        <time>2021-10-03T09:31:21.005Z</time>
      </trkpt>
      <trkpt lat="45.46063" lon="5.23297">
        <ele>571</ele>
        <time>2021-10-03T09:31:25.995Z</time>
      </trkpt>
      <trkpt lat="45.46062" lon="5.23288">
        <ele>571</ele>
        <time>2021-10-03T09:31:30.011Z</time>
      </trkpt>
      <trkpt lat="45.46061" lon="5.23278">
        <ele>571</ele>
        <time>2021-10-03T09:31:34.998Z</time>
      </trkpt>
      <trkpt lat="45.46061" lon="5.23271">
        <ele>571</ele>
        <time>2021-10-03T09:31:39.032Z</time>
      </trkpt>
      <trkpt lat="45.46061" lon="5.23262">
        <ele>570</ele>
        <time>2021-10-03T09:31:44.031Z</time>
      </trkpt>
      <trkpt lat="45.46062" lon="5.23252">
        <ele>570</ele>
        <time>2021-10-03T09:31:48.992Z</time>
      </trkpt>
      <trkpt lat="45.46063" lon="5.23242">
        <ele>570</ele>
        <time>2021-10-03T09:31:54.012Z</time>
      </trkpt>
      <trkpt lat="45.46063" lon="5.23234">
        <ele>569</ele>
        <time>2021-10-03T09:31:58.035Z</time>
      </trkpt>
      <trkpt lat="45.46063" lon="5.23225">
        <ele>569</ele>
        <time>2021-10-03T09:32:03.029Z</time>
      </trkpt>
      <trkpt lat="45.46063" lon="5.23215">
        <ele>569</ele>
        <time>2021-10-03T09:32:08.029Z</time>
      </trkpt>
      <trkpt lat="45.46063" lon="5.23203">
        <ele>568</ele>
        <time>2021-10-03T09:32:13.010Z</time>
      </trkpt>
      <trkpt lat="45.46063" lon="5.23194">
        <ele>568</ele>
        <time>2021-10-03T09:32:17.029Z</time>
      </trkpt>
      <trkpt lat="45.46064" lon="5.23179">
        <ele>567</ele>
        <time>2021-10-03T09:32:21.965Z</time>
      </trkpt>
      <trkpt lat="45.46062" lon="5.2317">
        <ele>567</ele>
        <time>2021-10-03T09:32:26.002Z</time>
      </trkpt>
      <trkpt lat="45.46059" lon="5.2316">
        <ele>567</ele>
        <time>2021-10-03T09:32:31.012Z</time>
      </trkpt>
      <trkpt lat="45.46059" lon="5.23152">
        <ele>566</ele>
        <time>2021-10-03T09:32:36.001Z</time>
      </trkpt>
      <trkpt lat="45.46057" lon="5.23143">
        <ele>566</ele>
        <time>2021-10-03T09:32:40.984Z</time>
      </trkpt>
      <trkpt lat="45.46058" lon="5.23143">
        <ele>566</ele>
        <time>2021-10-03T09:33:02.011Z</time>
      </trkpt>
      <trkpt lat="45.46058" lon="5.23141">
        <ele>566</ele>
        <time>2021-10-03T09:33:06.017Z</time>
      </trkpt>
      <trkpt lat="45.46057" lon="5.23135">
        <ele>566</ele>
        <time>2021-10-03T09:33:10.983Z</time>
      </trkpt>
      <trkpt lat="45.46057" lon="5.23127">
        <ele>566</ele>
        <time>2021-10-03T09:33:14.999Z</time>
      </trkpt>
      <trkpt lat="45.46057" lon="5.23119">
        <ele>565</ele>
        <time>2021-10-03T09:33:19.995Z</time>
      </trkpt>
      <trkpt lat="45.46057" lon="5.23111">
        <ele>565</ele>
        <time>2021-10-03T09:33:24.001Z</time>
      </trkpt>
      <trkpt lat="45.46057" lon="5.23098">
        <ele>565</ele>
        <time>2021-10-03T09:33:28.991Z</time>
      </trkpt>
      <trkpt lat="45.46057" lon="5.2309">
        <ele>564</ele>
        <time>2021-10-03T09:33:33.004Z</time>
      </trkpt>
      <trkpt lat="45.46057" lon="5.2308">
        <ele>564</ele>
        <time>2021-10-03T09:33:38.007Z</time>
      </trkpt>
      <trkpt lat="45.46055" lon="5.23072">
        <ele>564</ele>
        <time>2021-10-03T09:33:42.997Z</time>
      </trkpt>
      <trkpt lat="45.46055" lon="5.23066">
        <ele>562</ele>
        <time>2021-10-03T09:33:47.008Z</time>
      </trkpt>
      <trkpt lat="45.46052" lon="5.23058">
        <ele>562</ele>
        <time>2021-10-03T09:33:52.043Z</time>
      </trkpt>
      <trkpt lat="45.46048" lon="5.23052">
        <ele>562</ele>
        <time>2021-10-03T09:33:57.033Z</time>
      </trkpt>
      <trkpt lat="45.46048" lon="5.23043">
        <ele>562</ele>
        <time>2021-10-03T09:34:02.007Z</time>
      </trkpt>
      <trkpt lat="45.46049" lon="5.23034">
        <ele>562</ele>
        <time>2021-10-03T09:34:06.999Z</time>
      </trkpt>
      <trkpt lat="45.46048" lon="5.23026">
        <ele>562</ele>
        <time>2021-10-03T09:34:11.004Z</time>
      </trkpt>
      <trkpt lat="45.46047" lon="5.23017">
        <ele>562</ele>
        <time>2021-10-03T09:34:16.004Z</time>
      </trkpt>
      <trkpt lat="45.46046" lon="5.23008">
        <ele>563</ele>
        <time>2021-10-03T09:34:20.973Z</time>
      </trkpt>
      <trkpt lat="45.46046" lon="5.23">
        <ele>563</ele>
        <time>2021-10-03T09:34:26.002Z</time>
      </trkpt>
      <trkpt lat="45.46047" lon="5.22989">
        <ele>563</ele>
        <time>2021-10-03T09:34:31.747Z</time>
      </trkpt>
      <trkpt lat="45.46047" lon="5.22978">
        <ele>564</ele>
        <time>2021-10-03T09:34:35.969Z</time>
      </trkpt>
      <trkpt lat="45.46047" lon="5.22968">
        <ele>564</ele>
        <time>2021-10-03T09:34:40.975Z</time>
      </trkpt>
      <trkpt lat="45.46047" lon="5.22959">
        <ele>564</ele>
        <time>2021-10-03T09:34:44.997Z</time>
      </trkpt>
      <trkpt lat="45.4605" lon="5.22947">
        <ele>565</ele>
        <time>2021-10-03T09:34:49.965Z</time>
      </trkpt>
      <trkpt lat="45.46052" lon="5.22938">
        <ele>565</ele>
        <time>2021-10-03T09:34:54.968Z</time>
      </trkpt>
      <trkpt lat="45.46055" lon="5.22932">
        <ele>565</ele>
        <time>2021-10-03T09:34:59.966Z</time>
      </trkpt>
      <trkpt lat="45.46057" lon="5.22926">
        <ele>565</ele>
        <time>2021-10-03T09:35:03.995Z</time>
      </trkpt>
      <trkpt lat="45.46059" lon="5.22919">
        <ele>565</ele>
        <time>2021-10-03T09:35:08.008Z</time>
      </trkpt>
      <trkpt lat="45.46062" lon="5.22909">
        <ele>565</ele>
        <time>2021-10-03T09:35:12.969Z</time>
      </trkpt>
      <trkpt lat="45.46066" lon="5.22901">
        <ele>565</ele>
        <time>2021-10-03T09:35:17.970Z</time>
      </trkpt>
      <trkpt lat="45.4607" lon="5.22895">
        <ele>567</ele>
        <time>2021-10-03T09:35:21.985Z</time>
      </trkpt>
      <trkpt lat="45.46074" lon="5.22889">
        <ele>567</ele>
        <time>2021-10-03T09:35:26.008Z</time>
      </trkpt>
      <trkpt lat="45.46078" lon="5.22884">
        <ele>567</ele>
        <time>2021-10-03T09:35:30.995Z</time>
      </trkpt>
      <trkpt lat="45.46084" lon="5.2288">
        <ele>567</ele>
        <time>2021-10-03T09:35:35.953Z</time>
      </trkpt>
      <trkpt lat="45.46088" lon="5.22874">
        <ele>567</ele>
        <time>2021-10-03T09:35:40Z</time>
      </trkpt>
      <trkpt lat="45.46093" lon="5.22867">
        <ele>567</ele>
        <time>2021-10-03T09:35:44.984Z</time>
      </trkpt>
      <trkpt lat="45.46098" lon="5.22863">
        <ele>570</ele>
        <time>2021-10-03T09:35:49.003Z</time>
      </trkpt>
      <trkpt lat="45.46105" lon="5.22855">
        <ele>570</ele>
        <time>2021-10-03T09:35:53.995Z</time>
      </trkpt>
      <trkpt lat="45.46111" lon="5.22849">
        <ele>570</ele>
        <time>2021-10-03T09:35:58.979Z</time>
      </trkpt>
      <trkpt lat="45.46114" lon="5.22843">
        <ele>569</ele>
        <time>2021-10-03T09:36:03.014Z</time>
      </trkpt>
      <trkpt lat="45.4612" lon="5.22836">
        <ele>569</ele>
        <time>2021-10-03T09:36:07.991Z</time>
      </trkpt>
      <trkpt lat="45.46124" lon="5.2283">
        <ele>569</ele>
        <time>2021-10-03T09:36:12.007Z</time>
      </trkpt>
      <trkpt lat="45.46131" lon="5.22823">
        <ele>570</ele>
        <time>2021-10-03T09:36:16.971Z</time>
      </trkpt>
      <trkpt lat="45.46136" lon="5.22816">
        <ele>568</ele>
        <time>2021-10-03T09:36:21.971Z</time>
      </trkpt>
      <trkpt lat="45.46141" lon="5.2281">
        <ele>568</ele>
        <time>2021-10-03T09:36:26.008Z</time>
      </trkpt>
      <trkpt lat="45.46146" lon="5.22802">
        <ele>568</ele>
        <time>2021-10-03T09:36:30.985Z</time>
      </trkpt>
      <trkpt lat="45.4615" lon="5.22792">
        <ele>568</ele>
        <time>2021-10-03T09:36:36.007Z</time>
      </trkpt>
      <trkpt lat="45.46153" lon="5.22782">
        <ele>567</ele>
        <time>2021-10-03T09:36:40.998Z</time>
      </trkpt>
      <trkpt lat="45.46155" lon="5.22774">
        <ele>568</ele>
        <time>2021-10-03T09:36:45.014Z</time>
      </trkpt>
      <trkpt lat="45.46158" lon="5.22767">
        <ele>568</ele>
        <time>2021-10-03T09:36:49.034Z</time>
      </trkpt>
      <trkpt lat="45.46163" lon="5.2276">
        <ele>567</ele>
        <time>2021-10-03T09:36:54.001Z</time>
      </trkpt>
      <trkpt lat="45.46168" lon="5.22756">
        <ele>567</ele>
        <time>2021-10-03T09:36:58.987Z</time>
      </trkpt>
      <trkpt lat="45.46175" lon="5.22753">
        <ele>567</ele>
        <time>2021-10-03T09:37:02.999Z</time>
      </trkpt>
      <trkpt lat="45.46181" lon="5.22752">
        <ele>567</ele>
        <time>2021-10-03T09:37:07.004Z</time>
      </trkpt>
      <trkpt lat="45.46188" lon="5.22751">
        <ele>567</ele>
        <time>2021-10-03T09:37:11.985Z</time>
      </trkpt>
      <trkpt lat="45.46195" lon="5.22749">
        <ele>567</ele>
        <time>2021-10-03T09:37:16.005Z</time>
      </trkpt>
      <trkpt lat="45.46203" lon="5.22745">
        <ele>567</ele>
        <time>2021-10-03T09:37:20.993Z</time>
      </trkpt>
      <trkpt lat="45.46211" lon="5.22743">
        <ele>567</ele>
        <time>2021-10-03T09:37:25.988Z</time>
      </trkpt>
      <trkpt lat="45.46217" lon="5.22744">
        <ele>567</ele>
        <time>2021-10-03T09:37:30.999Z</time>
      </trkpt>
      <trkpt lat="45.46224" lon="5.22743">
        <ele>567</ele>
        <time>2021-10-03T09:37:36.008Z</time>
      </trkpt>
      <trkpt lat="45.46232" lon="5.22741">
        <ele>567</ele>
        <time>2021-10-03T09:37:41Z</time>
      </trkpt>
      <trkpt lat="45.46238" lon="5.22736">
        <ele>566</ele>
        <time>2021-10-03T09:37:45.010Z</time>
      </trkpt>
      <trkpt lat="45.46247" lon="5.22729">
        <ele>566</ele>
        <time>2021-10-03T09:37:49.996Z</time>
      </trkpt>
      <trkpt lat="45.46253" lon="5.22721">
        <ele>566</ele>
        <time>2021-10-03T09:37:55.031Z</time>
      </trkpt>
      <trkpt lat="45.46259" lon="5.22713">
        <ele>566</ele>
        <time>2021-10-03T09:37:59.036Z</time>
      </trkpt>
      <trkpt lat="45.46263" lon="5.22706">
        <ele>565</ele>
        <time>2021-10-03T09:38:04.030Z</time>
      </trkpt>
      <trkpt lat="45.46268" lon="5.22697">
        <ele>566</ele>
        <time>2021-10-03T09:38:09.010Z</time>
      </trkpt>
      <trkpt lat="45.46272" lon="5.22688">
        <ele>566</ele>
        <time>2021-10-03T09:38:14Z</time>
      </trkpt>
      <trkpt lat="45.46277" lon="5.22679">
        <ele>565</ele>
        <time>2021-10-03T09:38:19.023Z</time>
      </trkpt>
      <trkpt lat="45.46283" lon="5.22672">
        <ele>565</ele>
        <time>2021-10-03T09:38:23.966Z</time>
      </trkpt>
      <trkpt lat="45.46285" lon="5.22662">
        <ele>565</ele>
        <time>2021-10-03T09:38:27.995Z</time>
      </trkpt>
      <trkpt lat="45.46289" lon="5.22655">
        <ele>565</ele>
        <time>2021-10-03T09:38:32.011Z</time>
      </trkpt>
      <trkpt lat="45.46294" lon="5.22649">
        <ele>563</ele>
        <time>2021-10-03T09:38:36.990Z</time>
      </trkpt>
      <trkpt lat="45.46297" lon="5.22639">
        <ele>563</ele>
        <time>2021-10-03T09:38:41.013Z</time>
      </trkpt>
      <trkpt lat="45.46301" lon="5.22628">
        <ele>563</ele>
        <time>2021-10-03T09:38:46.001Z</time>
      </trkpt>
      <trkpt lat="45.46306" lon="5.22619">
        <ele>562</ele>
        <time>2021-10-03T09:38:50.996Z</time>
      </trkpt>
      <trkpt lat="45.46309" lon="5.2261">
        <ele>562</ele>
        <time>2021-10-03T09:38:55.971Z</time>
      </trkpt>
      <trkpt lat="45.46314" lon="5.22599">
        <ele>562</ele>
        <time>2021-10-03T09:39:00.966Z</time>
      </trkpt>
      <trkpt lat="45.46318" lon="5.2259">
        <ele>560</ele>
        <time>2021-10-03T09:39:05.972Z</time>
      </trkpt>
      <trkpt lat="45.46322" lon="5.22584">
        <ele>561</ele>
        <time>2021-10-03T09:39:09.999Z</time>
      </trkpt>
      <trkpt lat="45.46325" lon="5.22575">
        <ele>561</ele>
        <time>2021-10-03T09:39:14.998Z</time>
      </trkpt>
      <trkpt lat="45.46329" lon="5.22565">
        <ele>561</ele>
        <time>2021-10-03T09:39:19.989Z</time>
      </trkpt>
      <trkpt lat="45.46332" lon="5.22557">
        <ele>561</ele>
        <time>2021-10-03T09:39:24.007Z</time>
      </trkpt>
      <trkpt lat="45.46336" lon="5.22548">
        <ele>561</ele>
        <time>2021-10-03T09:39:28.019Z</time>
      </trkpt>
      <trkpt lat="45.4634" lon="5.22538">
        <ele>560</ele>
        <time>2021-10-03T09:39:32.968Z</time>
      </trkpt>
      <trkpt lat="45.46343" lon="5.22531">
        <ele>560</ele>
        <time>2021-10-03T09:39:36.992Z</time>
      </trkpt>
      <trkpt lat="45.46348" lon="5.22522">
        <ele>561</ele>
        <time>2021-10-03T09:39:41.989Z</time>
      </trkpt>
      <trkpt lat="45.46351" lon="5.22516">
        <ele>561</ele>
        <time>2021-10-03T09:39:45.996Z</time>
      </trkpt>
      <trkpt lat="45.46353" lon="5.22508">
        <ele>560</ele>
        <time>2021-10-03T09:39:50.004Z</time>
      </trkpt>
      <trkpt lat="45.46357" lon="5.225">
        <ele>560</ele>
        <time>2021-10-03T09:39:54.991Z</time>
      </trkpt>
      <trkpt lat="45.4636" lon="5.22492">
        <ele>560</ele>
        <time>2021-10-03T09:39:59.009Z</time>
      </trkpt>
      <trkpt lat="45.46363" lon="5.22481">
        <ele>559</ele>
        <time>2021-10-03T09:40:03.984Z</time>
      </trkpt>
      <trkpt lat="45.46366" lon="5.22475">
        <ele>559</ele>
        <time>2021-10-03T09:40:07.996Z</time>
      </trkpt>
      <trkpt lat="45.46372" lon="5.22468">
        <ele>559</ele>
        <time>2021-10-03T09:40:12.999Z</time>
      </trkpt>
      <trkpt lat="45.46375" lon="5.22458">
        <ele>558</ele>
        <time>2021-10-03T09:40:17.015Z</time>
      </trkpt>
      <trkpt lat="45.46376" lon="5.22445">
        <ele>557</ele>
        <time>2021-10-03T09:40:21.999Z</time>
      </trkpt>
      <trkpt lat="45.46378" lon="5.22435">
        <ele>557</ele>
        <time>2021-10-03T09:40:26.028Z</time>
      </trkpt>
      <trkpt lat="45.4638" lon="5.22426">
        <ele>557</ele>
        <time>2021-10-03T09:40:30.039Z</time>
      </trkpt>
      <trkpt lat="45.46381" lon="5.22416">
        <ele>557</ele>
        <time>2021-10-03T09:40:35.013Z</time>
      </trkpt>
      <trkpt lat="45.46383" lon="5.22407">
        <ele>557</ele>
        <time>2021-10-03T09:40:39.995Z</time>
      </trkpt>
      <trkpt lat="45.46387" lon="5.22397">
        <ele>556</ele>
        <time>2021-10-03T09:40:44.963Z</time>
      </trkpt>
      <trkpt lat="45.4639" lon="5.22389">
        <ele>556</ele>
        <time>2021-10-03T09:40:48.972Z</time>
      </trkpt>
      <trkpt lat="45.46393" lon="5.22378">
        <ele>556</ele>
        <time>2021-10-03T09:40:53.967Z</time>
      </trkpt>
      <trkpt lat="45.46395" lon="5.2237">
        <ele>554</ele>
        <time>2021-10-03T09:40:57.978Z</time>
      </trkpt>
      <trkpt lat="45.46396" lon="5.22363">
        <ele>554</ele>
        <time>2021-10-03T09:41:02.012Z</time>
      </trkpt>
      <trkpt lat="45.46396" lon="5.22351">
        <ele>554</ele>
        <time>2021-10-03T09:41:07.003Z</time>
      </trkpt>
      <trkpt lat="45.46396" lon="5.22339">
        <ele>553</ele>
        <time>2021-10-03T09:41:12.037Z</time>
      </trkpt>
      <trkpt lat="45.46396" lon="5.22328">
        <ele>553</ele>
        <time>2021-10-03T09:41:17.026Z</time>
      </trkpt>
      <trkpt lat="45.46397" lon="5.2232">
        <ele>553</ele>
        <time>2021-10-03T09:41:22.001Z</time>
      </trkpt>
      <trkpt lat="45.46399" lon="5.22313">
        <ele>554</ele>
        <time>2021-10-03T09:41:26.005Z</time>
      </trkpt>
      <trkpt lat="45.46398" lon="5.22305">
        <ele>554</ele>
        <time>2021-10-03T09:41:30.012Z</time>
      </trkpt>
      <trkpt lat="45.46396" lon="5.22292">
        <ele>554</ele>
        <time>2021-10-03T09:41:34.960Z</time>
      </trkpt>
      <trkpt lat="45.46399" lon="5.22285">
        <ele>555</ele>
        <time>2021-10-03T09:41:38.965Z</time>
      </trkpt>
      <trkpt lat="45.46401" lon="5.22276">
        <ele>555</ele>
        <time>2021-10-03T09:41:42.972Z</time>
      </trkpt>
      <trkpt lat="45.46402" lon="5.22267">
        <ele>555</ele>
        <time>2021-10-03T09:41:47.006Z</time>
      </trkpt>
      <trkpt lat="45.46404" lon="5.22254">
        <ele>556</ele>
        <time>2021-10-03T09:41:51.968Z</time>
      </trkpt>
      <trkpt lat="45.46405" lon="5.22245">
        <ele>556</ele>
        <time>2021-10-03T09:41:55.991Z</time>
      </trkpt>
      <trkpt lat="45.46408" lon="5.22236">
        <ele>557</ele>
        <time>2021-10-03T09:42:00.971Z</time>
      </trkpt>
      <trkpt lat="45.46409" lon="5.22225">
        <ele>557</ele>
        <time>2021-10-03T09:42:05.030Z</time>
      </trkpt>
      <trkpt lat="45.46413" lon="5.22213">
        <ele>557</ele>
        <time>2021-10-03T09:42:09.963Z</time>
      </trkpt>
      <trkpt lat="45.46415" lon="5.22206">
        <ele>558</ele>
        <time>2021-10-03T09:42:13.974Z</time>
      </trkpt>
      <trkpt lat="45.46418" lon="5.222">
        <ele>558</ele>
        <time>2021-10-03T09:42:17.999Z</time>
      </trkpt>
      <trkpt lat="45.4642" lon="5.22192">
        <ele>558</ele>
        <time>2021-10-03T09:42:22.969Z</time>
      </trkpt>
      <trkpt lat="45.46422" lon="5.22184">
        <ele>558</ele>
        <time>2021-10-03T09:42:27.026Z</time>
      </trkpt>
      <trkpt lat="45.46424" lon="5.22174">
        <ele>559</ele>
        <time>2021-10-03T09:42:31.992Z</time>
      </trkpt>
      <trkpt lat="45.46427" lon="5.22164">
        <ele>559</ele>
        <time>2021-10-03T09:42:37.003Z</time>
      </trkpt>
      <trkpt lat="45.46431" lon="5.22156">
        <ele>557</ele>
        <time>2021-10-03T09:42:41.995Z</time>
      </trkpt>
      <trkpt lat="45.46435" lon="5.22146">
        <ele>558</ele>
        <time>2021-10-03T09:42:46.006Z</time>
      </trkpt>
      <trkpt lat="45.46436" lon="5.22137">
        <ele>558</ele>
        <time>2021-10-03T09:42:51.031Z</time>
      </trkpt>
      <trkpt lat="45.46438" lon="5.2213">
        <ele>558</ele>
        <time>2021-10-03T09:42:55.040Z</time>
      </trkpt>
      <trkpt lat="45.46441" lon="5.22123">
        <ele>559</ele>
        <time>2021-10-03T09:42:59.051Z</time>
      </trkpt>
      <trkpt lat="45.46444" lon="5.22114">
        <ele>559</ele>
        <time>2021-10-03T09:43:04.006Z</time>
      </trkpt>
      <trkpt lat="45.46448" lon="5.22106">
        <ele>559</ele>
        <time>2021-10-03T09:43:08.992Z</time>
      </trkpt>
      <trkpt lat="45.46451" lon="5.22097">
        <ele>559</ele>
        <time>2021-10-03T09:43:13.001Z</time>
      </trkpt>
      <trkpt lat="45.46453" lon="5.22085">
        <ele>559</ele>
        <time>2021-10-03T09:43:18.039Z</time>
      </trkpt>
      <trkpt lat="45.46457" lon="5.22073">
        <ele>559</ele>
        <time>2021-10-03T09:43:23.004Z</time>
      </trkpt>
      <trkpt lat="45.46461" lon="5.22064">
        <ele>557</ele>
        <time>2021-10-03T09:43:27.967Z</time>
      </trkpt>
      <trkpt lat="45.46464" lon="5.22057">
        <ele>557</ele>
        <time>2021-10-03T09:43:31.971Z</time>
      </trkpt>
      <trkpt lat="45.46468" lon="5.22048">
        <ele>557</ele>
        <time>2021-10-03T09:43:36.987Z</time>
      </trkpt>
      <trkpt lat="45.46472" lon="5.22041">
        <ele>560</ele>
        <time>2021-10-03T09:43:41.006Z</time>
      </trkpt>
      <trkpt lat="45.46477" lon="5.22032">
        <ele>560</ele>
        <time>2021-10-03T09:43:46.003Z</time>
      </trkpt>
      <trkpt lat="45.46482" lon="5.22023">
        <ele>560</ele>
        <time>2021-10-03T09:43:51.003Z</time>
      </trkpt>
      <trkpt lat="45.46487" lon="5.22017">
        <ele>556</ele>
        <time>2021-10-03T09:43:55.059Z</time>
      </trkpt>
      <trkpt lat="45.46491" lon="5.22008">
        <ele>561</ele>
        <time>2021-10-03T09:44:00.001Z</time>
      </trkpt>
      <trkpt lat="45.46493" lon="5.21998">
        <ele>561</ele>
        <time>2021-10-03T09:44:05.012Z</time>
      </trkpt>
      <trkpt lat="45.46496" lon="5.21989">
        <ele>561</ele>
        <time>2021-10-03T09:44:10.008Z</time>
      </trkpt>
      <trkpt lat="45.46498" lon="5.21977">
        <ele>563</ele>
        <time>2021-10-03T09:44:15.007Z</time>
      </trkpt>
      <trkpt lat="45.46501" lon="5.21967">
        <ele>563</ele>
        <time>2021-10-03T09:44:19.030Z</time>
      </trkpt>
      <trkpt lat="45.46502" lon="5.21958">
        <ele>564</ele>
        <time>2021-10-03T09:44:23.994Z</time>
      </trkpt>
      <trkpt lat="45.46505" lon="5.21948">
        <ele>564</ele>
        <time>2021-10-03T09:44:28.009Z</time>
      </trkpt>
      <trkpt lat="45.46507" lon="5.21937">
        <ele>564</ele>
        <time>2021-10-03T09:44:32.955Z</time>
      </trkpt>
      <trkpt lat="45.46509" lon="5.21929">
        <ele>565</ele>
        <time>2021-10-03T09:44:37.007Z</time>
      </trkpt>
      <trkpt lat="45.46511" lon="5.21922">
        <ele>565</ele>
        <time>2021-10-03T09:44:41.006Z</time>
      </trkpt>
      <trkpt lat="45.46514" lon="5.21912">
        <ele>565</ele>
        <time>2021-10-03T09:44:45.971Z</time>
      </trkpt>
      <trkpt lat="45.46518" lon="5.21905">
        <ele>562</ele>
        <time>2021-10-03T09:44:50.004Z</time>
      </trkpt>
      <trkpt lat="45.46522" lon="5.219">
        <ele>564</ele>
        <time>2021-10-03T09:44:54.017Z</time>
      </trkpt>
      <trkpt lat="45.46523" lon="5.2189">
        <ele>564</ele>
        <time>2021-10-03T09:44:58.986Z</time>
      </trkpt>
      <trkpt lat="45.46516" lon="5.21888">
        <ele>564</ele>
        <time>2021-10-03T09:45:03.046Z</time>
      </trkpt>
      <trkpt lat="45.46508" lon="5.21885">
        <ele>565</ele>
        <time>2021-10-03T09:45:07.972Z</time>
      </trkpt>
      <trkpt lat="45.46502" lon="5.21885">
        <ele>565</ele>
        <time>2021-10-03T09:45:12.017Z</time>
      </trkpt>
      <trkpt lat="45.46496" lon="5.21884">
        <ele>565</ele>
        <time>2021-10-03T09:45:17.012Z</time>
      </trkpt>
      <trkpt lat="45.46489" lon="5.21883">
        <ele>565</ele>
        <time>2021-10-03T09:45:21.966Z</time>
      </trkpt>
      <trkpt lat="45.46483" lon="5.21883">
        <ele>563</ele>
        <time>2021-10-03T09:45:26Z</time>
      </trkpt>
      <trkpt lat="45.46476" lon="5.21883">
        <ele>563</ele>
        <time>2021-10-03T09:45:30.013Z</time>
      </trkpt>
      <trkpt lat="45.46468" lon="5.21885">
        <ele>563</ele>
        <time>2021-10-03T09:45:35.004Z</time>
      </trkpt>
      <trkpt lat="45.46462" lon="5.21886">
        <ele>563</ele>
        <time>2021-10-03T09:45:39.030Z</time>
      </trkpt>
      <trkpt lat="45.46454" lon="5.21886">
        <ele>561</ele>
        <time>2021-10-03T09:45:44Z</time>
      </trkpt>
      <trkpt lat="45.46447" lon="5.21888">
        <ele>561</ele>
        <time>2021-10-03T09:45:48.992Z</time>
      </trkpt>
      <trkpt lat="45.4644" lon="5.21889">
        <ele>561</ele>
        <time>2021-10-03T09:45:53.983Z</time>
      </trkpt>
      <trkpt lat="45.46431" lon="5.21888">
        <ele>561</ele>
        <time>2021-10-03T09:45:58.012Z</time>
      </trkpt>
      <trkpt lat="45.46424" lon="5.21889">
        <ele>556</ele>
        <time>2021-10-03T09:46:02.999Z</time>
      </trkpt>
      <trkpt lat="45.46417" lon="5.21892">
        <ele>556</ele>
        <time>2021-10-03T09:46:08.002Z</time>
      </trkpt>
      <trkpt lat="45.4641" lon="5.21894">
        <ele>556</ele>
        <time>2021-10-03T09:46:12.993Z</time>
      </trkpt>
      <trkpt lat="45.46404" lon="5.21895">
        <ele>556</ele>
        <time>2021-10-03T09:46:17.016Z</time>
      </trkpt>
      <trkpt lat="45.46398" lon="5.21897">
        <ele>555</ele>
        <time>2021-10-03T09:46:21.968Z</time>
      </trkpt>
      <trkpt lat="45.46393" lon="5.21898">
        <ele>555</ele>
        <time>2021-10-03T09:46:26.004Z</time>
      </trkpt>
      <trkpt lat="45.46387" lon="5.21899">
        <ele>555</ele>
        <time>2021-10-03T09:46:30.981Z</time>
      </trkpt>
      <trkpt lat="45.46379" lon="5.21903">
        <ele>555</ele>
        <time>2021-10-03T09:46:35.976Z</time>
      </trkpt>
      <trkpt lat="45.46373" lon="5.21904">
        <ele>558</ele>
        <time>2021-10-03T09:46:40.012Z</time>
      </trkpt>
      <trkpt lat="45.46365" lon="5.21905">
        <ele>558</ele>
        <time>2021-10-03T09:46:44.978Z</time>
      </trkpt>
      <trkpt lat="45.46357" lon="5.21905">
        <ele>558</ele>
        <time>2021-10-03T09:46:50.036Z</time>
      </trkpt>
      <trkpt lat="45.46349" lon="5.21906">
        <ele>558</ele>
        <time>2021-10-03T09:46:54.978Z</time>
      </trkpt>
      <trkpt lat="45.46341" lon="5.21905">
        <ele>557</ele>
        <time>2021-10-03T09:46:59.990Z</time>
      </trkpt>
      <trkpt lat="45.46333" lon="5.21903">
        <ele>557</ele>
        <time>2021-10-03T09:47:04.967Z</time>
      </trkpt>
      <trkpt lat="45.46322" lon="5.21903">
        <ele>557</ele>
        <time>2021-10-03T09:47:10.024Z</time>
      </trkpt>
      <trkpt lat="45.46314" lon="5.21902">
        <ele>554</ele>
        <time>2021-10-03T09:47:14.993Z</time>
      </trkpt>
      <trkpt lat="45.46308" lon="5.219">
        <ele>554</ele>
        <time>2021-10-03T09:47:20.008Z</time>
      </trkpt>
      <trkpt lat="45.46303" lon="5.21898">
        <ele>554</ele>
        <time>2021-10-03T09:47:24.014Z</time>
      </trkpt>
      <trkpt lat="45.46296" lon="5.21896">
        <ele>554</ele>
        <time>2021-10-03T09:47:29.042Z</time>
      </trkpt>
      <trkpt lat="45.46291" lon="5.21891">
        <ele>553</ele>
        <time>2021-10-03T09:47:33.990Z</time>
      </trkpt>
      <trkpt lat="45.46284" lon="5.21887">
        <ele>553</ele>
        <time>2021-10-03T09:47:38.992Z</time>
      </trkpt>
      <trkpt lat="45.46276" lon="5.21886">
        <ele>553</ele>
        <time>2021-10-03T09:47:43.996Z</time>
      </trkpt>
      <trkpt lat="45.4627" lon="5.21886">
        <ele>553</ele>
        <time>2021-10-03T09:47:48.024Z</time>
      </trkpt>
      <trkpt lat="45.46263" lon="5.2189">
        <ele>552</ele>
        <time>2021-10-03T09:47:53.013Z</time>
      </trkpt>
      <trkpt lat="45.46257" lon="5.21895">
        <ele>552</ele>
        <time>2021-10-03T09:47:58Z</time>
      </trkpt>
      <trkpt lat="45.46253" lon="5.21897">
        <ele>552</ele>
        <time>2021-10-03T09:48:02.996Z</time>
      </trkpt>
      <trkpt lat="45.46252" lon="5.21898">
        <ele>552</ele>
        <time>2021-10-03T09:48:08.024Z</time>
      </trkpt>
      <trkpt lat="45.46248" lon="5.21904">
        <ele>554</ele>
        <time>2021-10-03T09:48:13.001Z</time>
      </trkpt>
      <trkpt lat="45.46243" lon="5.21907">
        <ele>554</ele>
        <time>2021-10-03T09:48:17.013Z</time>
      </trkpt>
      <trkpt lat="45.46238" lon="5.21909">
        <ele>554</ele>
        <time>2021-10-03T09:48:21.983Z</time>
      </trkpt>
      <trkpt lat="45.46233" lon="5.21912">
        <ele>554</ele>
        <time>2021-10-03T09:48:26.010Z</time>
      </trkpt>
      <trkpt lat="45.46226" lon="5.21913">
        <ele>554</ele>
        <time>2021-10-03T09:48:30.972Z</time>
      </trkpt>
      <trkpt lat="45.46221" lon="5.21912">
        <ele>554</ele>
        <time>2021-10-03T09:48:35.004Z</time>
      </trkpt>
      <trkpt lat="45.46214" lon="5.21911">
        <ele>554</ele>
        <time>2021-10-03T09:48:39.989Z</time>
      </trkpt>
      <trkpt lat="45.46208" lon="5.2191">
        <ele>554</ele>
        <time>2021-10-03T09:48:44Z</time>
      </trkpt>
      <trkpt lat="45.46201" lon="5.21909">
        <ele>554</ele>
        <time>2021-10-03T09:48:48.979Z</time>
      </trkpt>
      <trkpt lat="45.46193" lon="5.21907">
        <ele>554</ele>
        <time>2021-10-03T09:48:53Z</time>
      </trkpt>
      <trkpt lat="45.46188" lon="5.2191">
        <ele>554</ele>
        <time>2021-10-03T09:48:57.001Z</time>
      </trkpt>
      <trkpt lat="45.46183" lon="5.21912">
        <ele>554</ele>
        <time>2021-10-03T09:49:01.029Z</time>
      </trkpt>
      <trkpt lat="45.46177" lon="5.21918">
        <ele>557</ele>
        <time>2021-10-03T09:49:06.007Z</time>
      </trkpt>
      <trkpt lat="45.4617" lon="5.21923">
        <ele>557</ele>
        <time>2021-10-03T09:49:10.034Z</time>
      </trkpt>
      <trkpt lat="45.46162" lon="5.21925">
        <ele>557</ele>
        <time>2021-10-03T09:49:15.007Z</time>
      </trkpt>
      <trkpt lat="45.46156" lon="5.21924">
        <ele>557</ele>
        <time>2021-10-03T09:49:19.968Z</time>
      </trkpt>
      <trkpt lat="45.46151" lon="5.21922">
        <ele>561</ele>
        <time>2021-10-03T09:49:24.005Z</time>
      </trkpt>
      <trkpt lat="45.46146" lon="5.2192">
        <ele>561</ele>
        <time>2021-10-03T09:49:28.032Z</time>
      </trkpt>
      <trkpt lat="45.46138" lon="5.21917">
        <ele>561</ele>
        <time>2021-10-03T09:49:33.032Z</time>
      </trkpt>
      <trkpt lat="45.4613" lon="5.21918">
        <ele>561</ele>
        <time>2021-10-03T09:49:38.003Z</time>
      </trkpt>
      <trkpt lat="45.46123" lon="5.21917">
        <ele>565</ele>
        <time>2021-10-03T09:49:43.001Z</time>
      </trkpt>
      <trkpt lat="45.46117" lon="5.21917">
        <ele>565</ele>
        <time>2021-10-03T09:49:47.004Z</time>
      </trkpt>
      <trkpt lat="45.46111" lon="5.21917">
        <ele>565</ele>
        <time>2021-10-03T09:49:51.956Z</time>
      </trkpt>
      <trkpt lat="45.46105" lon="5.21917">
        <ele>565</ele>
        <time>2021-10-03T09:49:55.968Z</time>
      </trkpt>
      <trkpt lat="45.46098" lon="5.21917">
        <ele>565</ele>
        <time>2021-10-03T09:50:00.955Z</time>
      </trkpt>
      <trkpt lat="45.46093" lon="5.21917">
        <ele>566</ele>
        <time>2021-10-03T09:50:05.006Z</time>
      </trkpt>
      <trkpt lat="45.46087" lon="5.21916">
        <ele>566</ele>
        <time>2021-10-03T09:50:10.008Z</time>
      </trkpt>
      <trkpt lat="45.46079" lon="5.21917">
        <ele>566</ele>
        <time>2021-10-03T09:50:14.982Z</time>
      </trkpt>
      <trkpt lat="45.46072" lon="5.21918">
        <ele>566</ele>
        <time>2021-10-03T09:50:18.995Z</time>
      </trkpt>
      <trkpt lat="45.46064" lon="5.21918">
        <ele>567</ele>
        <time>2021-10-03T09:50:23.970Z</time>
      </trkpt>
      <trkpt lat="45.46059" lon="5.21917">
        <ele>567</ele>
        <time>2021-10-03T09:50:27.995Z</time>
      </trkpt>
      <trkpt lat="45.46051" lon="5.21917">
        <ele>567</ele>
        <time>2021-10-03T09:50:32.973Z</time>
      </trkpt>
      <trkpt lat="45.46045" lon="5.21916">
        <ele>567</ele>
        <time>2021-10-03T09:50:37.033Z</time>
      </trkpt>
      <trkpt lat="45.46038" lon="5.21916">
        <ele>567</ele>
        <time>2021-10-03T09:50:41.048Z</time>
      </trkpt>
      <trkpt lat="45.46027" lon="5.21911">
        <ele>567</ele>
        <time>2021-10-03T09:50:46.002Z</time>
      </trkpt>
      <trkpt lat="45.46021" lon="5.21906">
        <ele>567</ele>
        <time>2021-10-03T09:50:51.026Z</time>
      </trkpt>
      <trkpt lat="45.46016" lon="5.21902">
        <ele>566</ele>
        <time>2021-10-03T09:50:55.042Z</time>
      </trkpt>
      <trkpt lat="45.4601" lon="5.21898">
        <ele>567</ele>
        <time>2021-10-03T09:51:00.009Z</time>
      </trkpt>
      <trkpt lat="45.46005" lon="5.21895">
        <ele>567</ele>
        <time>2021-10-03T09:51:04.044Z</time>
      </trkpt>
      <trkpt lat="45.45997" lon="5.21893">
        <ele>567</ele>
        <time>2021-10-03T09:51:09.014Z</time>
      </trkpt>
      <trkpt lat="45.45986" lon="5.21894">
        <ele>567</ele>
        <time>2021-10-03T09:51:13.966Z</time>
      </trkpt>
      <trkpt lat="45.45979" lon="5.21899">
        <ele>569</ele>
        <time>2021-10-03T09:51:17.994Z</time>
      </trkpt>
      <trkpt lat="45.45973" lon="5.21904">
        <ele>568</ele>
        <time>2021-10-03T09:51:22.003Z</time>
      </trkpt>
      <trkpt lat="45.45967" lon="5.21909">
        <ele>568</ele>
        <time>2021-10-03T09:51:26.008Z</time>
      </trkpt>
      <trkpt lat="45.45959" lon="5.21915">
        <ele>568</ele>
        <time>2021-10-03T09:51:30.997Z</time>
      </trkpt>
      <trkpt lat="45.4595" lon="5.21923">
        <ele>568</ele>
        <time>2021-10-03T09:51:35.988Z</time>
      </trkpt>
      <trkpt lat="45.45945" lon="5.2193">
        <ele>568</ele>
        <time>2021-10-03T09:51:40.005Z</time>
      </trkpt>
      <trkpt lat="45.45941" lon="5.21937">
        <ele>567</ele>
        <time>2021-10-03T09:51:45Z</time>
      </trkpt>
      <trkpt lat="45.45935" lon="5.2194">
        <ele>567</ele>
        <time>2021-10-03T09:51:50.036Z</time>
      </trkpt>
      <trkpt lat="45.45925" lon="5.21936">
        <ele>566</ele>
        <time>2021-10-03T09:51:54.998Z</time>
      </trkpt>
      <trkpt lat="45.45919" lon="5.21935">
        <ele>566</ele>
        <time>2021-10-03T09:51:59.038Z</time>
      </trkpt>
      <trkpt lat="45.45912" lon="5.21932">
        <ele>566</ele>
        <time>2021-10-03T09:52:04.002Z</time>
      </trkpt>
      <trkpt lat="45.45905" lon="5.2193">
        <ele>567</ele>
        <time>2021-10-03T09:52:09.002Z</time>
      </trkpt>
      <trkpt lat="45.45898" lon="5.21928">
        <ele>566</ele>
        <time>2021-10-03T09:52:13.983Z</time>
      </trkpt>
      <trkpt lat="45.45892" lon="5.21927">
        <ele>566</ele>
        <time>2021-10-03T09:52:18.006Z</time>
      </trkpt>
      <trkpt lat="45.45886" lon="5.21925">
        <ele>566</ele>
        <time>2021-10-03T09:52:22.036Z</time>
      </trkpt>
      <trkpt lat="45.45879" lon="5.21922">
        <ele>566</ele>
        <time>2021-10-03T09:52:26.973Z</time>
      </trkpt>
      <trkpt lat="45.45873" lon="5.21921">
        <ele>565</ele>
        <time>2021-10-03T09:52:31.001Z</time>
      </trkpt>
      <trkpt lat="45.45867" lon="5.2192">
        <ele>565</ele>
        <time>2021-10-03T09:52:35.993Z</time>
      </trkpt>
      <trkpt lat="45.45867" lon="5.21918">
        <ele>565</ele>
        <time>2021-10-03T09:52:41Z</time>
      </trkpt>
      <trkpt lat="45.45864" lon="5.21916">
        <ele>565</ele>
        <time>2021-10-03T09:52:44.997Z</time>
      </trkpt>
      <trkpt lat="45.45856" lon="5.21914">
        <ele>565</ele>
        <time>2021-10-03T09:52:50.005Z</time>
      </trkpt>
      <trkpt lat="45.4585" lon="5.21917">
        <ele>565</ele>
        <time>2021-10-03T09:52:54.989Z</time>
      </trkpt>
      <trkpt lat="45.45845" lon="5.2192">
        <ele>564</ele>
        <time>2021-10-03T09:52:59.035Z</time>
      </trkpt>
      <trkpt lat="45.45843" lon="5.21918">
        <ele>564</ele>
        <time>2021-10-03T09:53:03.999Z</time>
      </trkpt>
      <trkpt lat="45.45836" lon="5.21916">
        <ele>564</ele>
        <time>2021-10-03T09:53:08.987Z</time>
      </trkpt>
      <trkpt lat="45.4583" lon="5.21913">
        <ele>564</ele>
        <time>2021-10-03T09:53:13.997Z</time>
      </trkpt>
      <trkpt lat="45.45825" lon="5.21909">
        <ele>564</ele>
        <time>2021-10-03T09:53:19.025Z</time>
      </trkpt>
      <trkpt lat="45.4582" lon="5.21906">
        <ele>564</ele>
        <time>2021-10-03T09:53:24.005Z</time>
      </trkpt>
      <trkpt lat="45.45814" lon="5.21903">
        <ele>564</ele>
        <time>2021-10-03T09:53:28.985Z</time>
      </trkpt>
      <trkpt lat="45.45807" lon="5.21898">
        <ele>564</ele>
        <time>2021-10-03T09:53:33.001Z</time>
      </trkpt>
      <trkpt lat="45.45801" lon="5.21894">
        <ele>564</ele>
        <time>2021-10-03T09:53:37.989Z</time>
      </trkpt>
      <trkpt lat="45.45797" lon="5.2189">
        <ele>564</ele>
        <time>2021-10-03T09:53:42.003Z</time>
      </trkpt>
      <trkpt lat="45.4579" lon="5.21884">
        <ele>564</ele>
        <time>2021-10-03T09:53:46.962Z</time>
      </trkpt>
      <trkpt lat="45.45781" lon="5.21879">
        <ele>564</ele>
        <time>2021-10-03T09:53:51.979Z</time>
      </trkpt>
      <trkpt lat="45.45774" lon="5.21878">
        <ele>564</ele>
        <time>2021-10-03T09:53:55.993Z</time>
      </trkpt>
      <trkpt lat="45.45768" lon="5.21873">
        <ele>564</ele>
        <time>2021-10-03T09:53:59.999Z</time>
      </trkpt>
      <trkpt lat="45.45762" lon="5.21868">
        <ele>563</ele>
        <time>2021-10-03T09:54:04.006Z</time>
      </trkpt>
      <trkpt lat="45.45755" lon="5.21863">
        <ele>563</ele>
        <time>2021-10-03T09:54:08.973Z</time>
      </trkpt>
      <trkpt lat="45.45748" lon="5.21862">
        <ele>563</ele>
        <time>2021-10-03T09:54:13.010Z</time>
      </trkpt>
      <trkpt lat="45.45739" lon="5.2186">
        <ele>563</ele>
        <time>2021-10-03T09:54:17.998Z</time>
      </trkpt>
      <trkpt lat="45.45732" lon="5.21859">
        <ele>563</ele>
        <time>2021-10-03T09:54:22.007Z</time>
      </trkpt>
      <trkpt lat="45.45727" lon="5.21858">
        <ele>563</ele>
        <time>2021-10-03T09:54:26.960Z</time>
      </trkpt>
      <trkpt lat="45.45723" lon="5.21856">
        <ele>563</ele>
        <time>2021-10-03T09:54:30.966Z</time>
      </trkpt>
      <trkpt lat="45.45717" lon="5.21851">
        <ele>563</ele>
        <time>2021-10-03T09:54:35.997Z</time>
      </trkpt>
      <trkpt lat="45.4571" lon="5.21848">
        <ele>563</ele>
        <time>2021-10-03T09:54:40.969Z</time>
      </trkpt>
      <trkpt lat="45.45701" lon="5.21845">
        <ele>564</ele>
        <time>2021-10-03T09:54:44.983Z</time>
      </trkpt>
      <trkpt lat="45.45693" lon="5.21841">
        <ele>564</ele>
        <time>2021-10-03T09:54:49.966Z</time>
      </trkpt>
      <trkpt lat="45.45686" lon="5.21837">
        <ele>564</ele>
        <time>2021-10-03T09:54:53.989Z</time>
      </trkpt>
      <trkpt lat="45.45679" lon="5.21832">
        <ele>564</ele>
        <time>2021-10-03T09:54:58.994Z</time>
      </trkpt>
      <trkpt lat="45.45674" lon="5.21828">
        <ele>564</ele>
        <time>2021-10-03T09:55:02.992Z</time>
      </trkpt>
      <trkpt lat="45.45668" lon="5.21825">
        <ele>564</ele>
        <time>2021-10-03T09:55:07.999Z</time>
      </trkpt>
      <trkpt lat="45.45662" lon="5.2182">
        <ele>564</ele>
        <time>2021-10-03T09:55:12.968Z</time>
      </trkpt>
      <trkpt lat="45.45655" lon="5.21816">
        <ele>563</ele>
        <time>2021-10-03T09:55:17.002Z</time>
      </trkpt>
      <trkpt lat="45.45649" lon="5.21814">
        <ele>562</ele>
        <time>2021-10-03T09:55:21.037Z</time>
      </trkpt>
      <trkpt lat="45.45641" lon="5.21809">
        <ele>562</ele>
        <time>2021-10-03T09:55:25.990Z</time>
      </trkpt>
      <trkpt lat="45.45636" lon="5.21805">
        <ele>562</ele>
        <time>2021-10-03T09:55:30.032Z</time>
      </trkpt>
      <trkpt lat="45.4563" lon="5.21799">
        <ele>562</ele>
        <time>2021-10-03T09:55:34.999Z</time>
      </trkpt>
      <trkpt lat="45.45626" lon="5.21795">
        <ele>562</ele>
        <time>2021-10-03T09:55:39.001Z</time>
      </trkpt>
      <trkpt lat="45.45622" lon="5.21788">
        <ele>560</ele>
        <time>2021-10-03T09:55:44.020Z</time>
      </trkpt>
      <trkpt lat="45.45617" lon="5.21783">
        <ele>560</ele>
        <time>2021-10-03T09:55:48.984Z</time>
      </trkpt>
      <trkpt lat="45.45613" lon="5.21779">
        <ele>560</ele>
        <time>2021-10-03T09:55:53.002Z</time>
      </trkpt>
      <trkpt lat="45.45608" lon="5.21774">
        <ele>560</ele>
        <time>2021-10-03T09:55:58.009Z</time>
      </trkpt>
      <trkpt lat="45.45602" lon="5.21768">
        <ele>560</ele>
        <time>2021-10-03T09:56:02.996Z</time>
      </trkpt>
      <trkpt lat="45.45593" lon="5.21762">
        <ele>556</ele>
        <time>2021-10-03T09:56:08.008Z</time>
      </trkpt>
      <trkpt lat="45.45589" lon="5.21757">
        <ele>556</ele>
        <time>2021-10-03T09:56:12.029Z</time>
      </trkpt>
      <trkpt lat="45.45585" lon="5.21752">
        <ele>556</ele>
        <time>2021-10-03T09:56:16.042Z</time>
      </trkpt>
      <trkpt lat="45.45581" lon="5.21745">
        <ele>556</ele>
        <time>2021-10-03T09:56:21Z</time>
      </trkpt>
      <trkpt lat="45.45579" lon="5.21734">
        <ele>556</ele>
        <time>2021-10-03T09:56:25.999Z</time>
      </trkpt>
      <trkpt lat="45.45575" lon="5.21724">
        <ele>556</ele>
        <time>2021-10-03T09:56:31.015Z</time>
      </trkpt>
      <trkpt lat="45.45571" lon="5.21712">
        <ele>556</ele>
        <time>2021-10-03T09:56:36.004Z</time>
      </trkpt>
      <trkpt lat="45.45568" lon="5.21701">
        <ele>552</ele>
        <time>2021-10-03T09:56:40.965Z</time>
      </trkpt>
      <trkpt lat="45.45568" lon="5.21693">
        <ele>552</ele>
        <time>2021-10-03T09:56:44.989Z</time>
      </trkpt>
      <trkpt lat="45.45568" lon="5.21683">
        <ele>552</ele>
        <time>2021-10-03T09:56:49.963Z</time>
      </trkpt>
      <trkpt lat="45.45569" lon="5.21675">
        <ele>551</ele>
        <time>2021-10-03T09:56:54.002Z</time>
      </trkpt>
      <trkpt lat="45.45569" lon="5.21664">
        <ele>551</ele>
        <time>2021-10-03T09:56:59.024Z</time>
      </trkpt>
      <trkpt lat="45.45571" lon="5.21652">
        <ele>556</ele>
        <time>2021-10-03T09:57:03.994Z</time>
      </trkpt>
      <trkpt lat="45.45571" lon="5.2164">
        <ele>556</ele>
        <time>2021-10-03T09:57:08.002Z</time>
      </trkpt>
      <trkpt lat="45.45573" lon="5.21631">
        <ele>556</ele>
        <time>2021-10-03T09:57:12.989Z</time>
      </trkpt>
      <trkpt lat="45.45575" lon="5.21622">
        <ele>558</ele>
        <time>2021-10-03T09:57:16.996Z</time>
      </trkpt>
      <trkpt lat="45.45575" lon="5.21615">
        <ele>558</ele>
        <time>2021-10-03T09:57:21.052Z</time>
      </trkpt>
      <trkpt lat="45.45576" lon="5.21607">
        <ele>558</ele>
        <time>2021-10-03T09:57:25.976Z</time>
      </trkpt>
      <trkpt lat="45.45575" lon="5.21599">
        <ele>558</ele>
        <time>2021-10-03T09:57:30.002Z</time>
      </trkpt>
      <trkpt lat="45.45575" lon="5.2159">
        <ele>562</ele>
        <time>2021-10-03T09:57:34.999Z</time>
      </trkpt>
      <trkpt lat="45.45573" lon="5.21579">
        <ele>562</ele>
        <time>2021-10-03T09:57:40.003Z</time>
      </trkpt>
      <trkpt lat="45.45572" lon="5.21567">
        <ele>563</ele>
        <time>2021-10-03T09:57:44.993Z</time>
      </trkpt>
      <trkpt lat="45.45571" lon="5.21558">
        <ele>563</ele>
        <time>2021-10-03T09:57:49.042Z</time>
      </trkpt>
      <trkpt lat="45.45569" lon="5.21547">
        <ele>558</ele>
        <time>2021-10-03T09:57:54.003Z</time>
      </trkpt>
      <trkpt lat="45.45567" lon="5.2154">
        <ele>559</ele>
        <time>2021-10-03T09:57:58.006Z</time>
      </trkpt>
      <trkpt lat="45.45564" lon="5.21529">
        <ele>559</ele>
        <time>2021-10-03T09:58:02.996Z</time>
      </trkpt>
      <trkpt lat="45.45561" lon="5.21518">
        <ele>559</ele>
        <time>2021-10-03T09:58:07.965Z</time>
      </trkpt>
      <trkpt lat="45.45559" lon="5.21509">
        <ele>559</ele>
        <time>2021-10-03T09:58:11.988Z</time>
      </trkpt>
      <trkpt lat="45.45554" lon="5.215">
        <ele>559</ele>
        <time>2021-10-03T09:58:20.996Z</time>
      </trkpt>
      <trkpt lat="45.45554" lon="5.215">
        <ele>559</ele>
        <time>2021-10-03T09:58:26.029Z</time>
      </trkpt>
      <trkpt lat="45.45553" lon="5.21498">
        <ele>559</ele>
        <time>2021-10-03T09:58:31.002Z</time>
      </trkpt>
      <trkpt lat="45.4555" lon="5.2149">
        <ele>559</ele>
        <time>2021-10-03T09:58:35.028Z</time>
      </trkpt>
      <trkpt lat="45.45546" lon="5.2148">
        <ele>560</ele>
        <time>2021-10-03T09:58:39.999Z</time>
      </trkpt>
      <trkpt lat="45.45543" lon="5.21468">
        <ele>560</ele>
        <time>2021-10-03T09:58:44.987Z</time>
      </trkpt>
      <trkpt lat="45.45534" lon="5.21453">
        <ele>557</ele>
        <time>2021-10-03T09:58:49.965Z</time>
      </trkpt>
      <trkpt lat="45.45528" lon="5.21447">
        <ele>557</ele>
        <time>2021-10-03T09:58:53.993Z</time>
      </trkpt>
      <trkpt lat="45.45523" lon="5.21441">
        <ele>557</ele>
        <time>2021-10-03T09:58:58.027Z</time>
      </trkpt>
      <trkpt lat="45.45518" lon="5.21436">
        <ele>557</ele>
        <time>2021-10-03T09:59:02.999Z</time>
      </trkpt>
      <trkpt lat="45.45516" lon="5.2143">
        <ele>559</ele>
        <time>2021-10-03T09:59:07.025Z</time>
      </trkpt>
      <trkpt lat="45.4551" lon="5.21423">
        <ele>555</ele>
        <time>2021-10-03T09:59:12.002Z</time>
      </trkpt>
      <trkpt lat="45.45506" lon="5.21418">
        <ele>555</ele>
        <time>2021-10-03T09:59:16.029Z</time>
      </trkpt>
      <trkpt lat="45.45501" lon="5.21413">
        <ele>555</ele>
        <time>2021-10-03T09:59:20.994Z</time>
      </trkpt>
      <trkpt lat="45.45494" lon="5.21403">
        <ele>555</ele>
        <time>2021-10-03T09:59:25.969Z</time>
      </trkpt>
      <trkpt lat="45.4549" lon="5.21394">
        <ele>557</ele>
        <time>2021-10-03T09:59:29.965Z</time>
      </trkpt>
      <trkpt lat="45.45487" lon="5.21388">
        <ele>557</ele>
        <time>2021-10-03T09:59:34.042Z</time>
      </trkpt>
      <trkpt lat="45.45483" lon="5.21379">
        <ele>555</ele>
        <time>2021-10-03T09:59:38.997Z</time>
      </trkpt>
      <trkpt lat="45.4548" lon="5.21372">
        <ele>557</ele>
        <time>2021-10-03T09:59:43.007Z</time>
      </trkpt>
      <trkpt lat="45.45473" lon="5.21364">
        <ele>557</ele>
        <time>2021-10-03T09:59:47.989Z</time>
      </trkpt>
      <trkpt lat="45.45466" lon="5.2136">
        <ele>557</ele>
        <time>2021-10-03T09:59:52.054Z</time>
      </trkpt>
      <trkpt lat="45.45459" lon="5.21355">
        <ele>557</ele>
        <time>2021-10-03T09:59:56.964Z</time>
      </trkpt>
      <trkpt lat="45.45454" lon="5.21347">
        <ele>552</ele>
        <time>2021-10-03T10:00:01.965Z</time>
      </trkpt>
      <trkpt lat="45.45446" lon="5.21336">
        <ele>552</ele>
        <time>2021-10-03T10:00:06.993Z</time>
      </trkpt>
      <trkpt lat="45.45444" lon="5.21326">
        <ele>552</ele>
        <time>2021-10-03T10:00:12.004Z</time>
      </trkpt>
      <trkpt lat="45.4544" lon="5.21317">
        <ele>556</ele>
        <time>2021-10-03T10:00:16.966Z</time>
      </trkpt>
      <trkpt lat="45.4544" lon="5.21311">
        <ele>556</ele>
        <time>2021-10-03T10:00:21.006Z</time>
      </trkpt>
      <trkpt lat="45.45439" lon="5.21302">
        <ele>556</ele>
        <time>2021-10-03T10:00:25.995Z</time>
      </trkpt>
      <trkpt lat="45.4544" lon="5.21295">
        <ele>556</ele>
        <time>2021-10-03T10:00:30.009Z</time>
      </trkpt>
      <trkpt lat="45.45442" lon="5.21271">
        <ele>558</ele>
        <time>2021-10-03T10:00:48.006Z</time>
      </trkpt>
      <trkpt lat="45.45442" lon="5.21271">
        <ele>558</ele>
        <time>2021-10-03T10:00:53.053Z</time>
      </trkpt>
      <trkpt lat="45.45444" lon="5.21265">
        <ele>558</ele>
        <time>2021-10-03T10:00:58.001Z</time>
      </trkpt>
      <trkpt lat="45.45449" lon="5.21258">
        <ele>559</ele>
        <time>2021-10-03T10:01:02.971Z</time>
      </trkpt>
      <trkpt lat="45.45451" lon="5.21254">
        <ele>559</ele>
        <time>2021-10-03T10:01:07Z</time>
      </trkpt>
      <trkpt lat="45.45456" lon="5.21249">
        <ele>559</ele>
        <time>2021-10-03T10:01:12.005Z</time>
      </trkpt>
      <trkpt lat="45.45461" lon="5.21246">
        <ele>560</ele>
        <time>2021-10-03T10:01:16.024Z</time>
      </trkpt>
      <trkpt lat="45.45465" lon="5.21241">
        <ele>560</ele>
        <time>2021-10-03T10:01:20.998Z</time>
      </trkpt>
      <trkpt lat="45.4547" lon="5.21235">
        <ele>561</ele>
        <time>2021-10-03T10:01:25.963Z</time>
      </trkpt>
      <trkpt lat="45.45474" lon="5.21229">
        <ele>561</ele>
        <time>2021-10-03T10:01:30.007Z</time>
      </trkpt>
      <trkpt lat="45.45479" lon="5.2122">
        <ele>561</ele>
        <time>2021-10-03T10:01:35.001Z</time>
      </trkpt>
      <trkpt lat="45.45482" lon="5.21213">
        <ele>561</ele>
        <time>2021-10-03T10:01:39.030Z</time>
      </trkpt>
      <trkpt lat="45.45484" lon="5.21203">
        <ele>561</ele>
        <time>2021-10-03T10:01:43.966Z</time>
      </trkpt>
      <trkpt lat="45.45485" lon="5.21197">
        <ele>561</ele>
        <time>2021-10-03T10:01:47.963Z</time>
      </trkpt>
      <trkpt lat="45.45486" lon="5.21186">
        <ele>561</ele>
        <time>2021-10-03T10:01:53.028Z</time>
      </trkpt>
      <trkpt lat="45.45487" lon="5.21176">
        <ele>562</ele>
        <time>2021-10-03T10:01:57.990Z</time>
      </trkpt>
      <trkpt lat="45.45487" lon="5.21166">
        <ele>562</ele>
        <time>2021-10-03T10:02:02.995Z</time>
      </trkpt>
      <trkpt lat="45.45488" lon="5.21158">
        <ele>562</ele>
        <time>2021-10-03T10:02:07.029Z</time>
      </trkpt>
      <trkpt lat="45.4549" lon="5.21147">
        <ele>560</ele>
        <time>2021-10-03T10:02:11.987Z</time>
      </trkpt>
      <trkpt lat="45.45489" lon="5.21137">
        <ele>560</ele>
        <time>2021-10-03T10:02:15.995Z</time>
      </trkpt>
      <trkpt lat="45.45492" lon="5.21128">
        <ele>560</ele>
        <time>2021-10-03T10:02:20.987Z</time>
      </trkpt>
      <trkpt lat="45.45495" lon="5.21117">
        <ele>558</ele>
        <time>2021-10-03T10:02:25.999Z</time>
      </trkpt>
      <trkpt lat="45.45499" lon="5.21111">
        <ele>558</ele>
        <time>2021-10-03T10:02:30.009Z</time>
      </trkpt>
      <trkpt lat="45.4551" lon="5.21105">
        <ele>558</ele>
        <time>2021-10-03T10:02:34.966Z</time>
      </trkpt>
      <trkpt lat="45.45519" lon="5.21104">
        <ele>561</ele>
        <time>2021-10-03T10:02:38.988Z</time>
      </trkpt>
      <trkpt lat="45.45527" lon="5.21102">
        <ele>561</ele>
        <time>2021-10-03T10:02:43.048Z</time>
      </trkpt>
      <trkpt lat="45.45534" lon="5.21102">
        <ele>561</ele>
        <time>2021-10-03T10:02:47.986Z</time>
      </trkpt>
      <trkpt lat="45.45541" lon="5.21101">
        <ele>561</ele>
        <time>2021-10-03T10:02:53.023Z</time>
      </trkpt>
      <trkpt lat="45.4555" lon="5.21097">
        <ele>561</ele>
        <time>2021-10-03T10:02:57.991Z</time>
      </trkpt>
      <trkpt lat="45.45556" lon="5.21091">
        <ele>561</ele>
        <time>2021-10-03T10:03:02Z</time>
      </trkpt>
      <trkpt lat="45.45561" lon="5.21086">
        <ele>561</ele>
        <time>2021-10-03T10:03:06.005Z</time>
      </trkpt>
      <trkpt lat="45.45568" lon="5.21081">
        <ele>561</ele>
        <time>2021-10-03T10:03:11.001Z</time>
      </trkpt>
      <trkpt lat="45.45577" lon="5.21078">
        <ele>561</ele>
        <time>2021-10-03T10:03:15.966Z</time>
      </trkpt>
      <trkpt lat="45.45582" lon="5.21077">
        <ele>561</ele>
        <time>2021-10-03T10:03:19.971Z</time>
      </trkpt>
      <trkpt lat="45.45587" lon="5.21076">
        <ele>561</ele>
        <time>2021-10-03T10:03:24.014Z</time>
      </trkpt>
      <trkpt lat="45.45595" lon="5.21069">
        <ele>560</ele>
        <time>2021-10-03T10:03:29.033Z</time>
      </trkpt>
      <trkpt lat="45.45602" lon="5.21057">
        <ele>559</ele>
        <time>2021-10-03T10:03:34.029Z</time>
      </trkpt>
      <trkpt lat="45.45606" lon="5.21052">
        <ele>559</ele>
        <time>2021-10-03T10:03:38.030Z</time>
      </trkpt>
      <trkpt lat="45.45612" lon="5.21044">
        <ele>559</ele>
        <time>2021-10-03T10:03:42.998Z</time>
      </trkpt>
      <trkpt lat="45.45617" lon="5.21036">
        <ele>558</ele>
        <time>2021-10-03T10:03:47.990Z</time>
      </trkpt>
      <trkpt lat="45.45618" lon="5.21022">
        <ele>558</ele>
        <time>2021-10-03T10:03:53.002Z</time>
      </trkpt>
      <trkpt lat="45.45619" lon="5.21013">
        <ele>557</ele>
        <time>2021-10-03T10:03:57.986Z</time>
      </trkpt>
      <trkpt lat="45.45619" lon="5.21004">
        <ele>557</ele>
        <time>2021-10-03T10:04:02.005Z</time>
      </trkpt>
      <trkpt lat="45.45623" lon="5.20995">
        <ele>557</ele>
        <time>2021-10-03T10:04:06.957Z</time>
      </trkpt>
      <trkpt lat="45.45624" lon="5.20991">
        <ele>557</ele>
        <time>2021-10-03T10:04:10.988Z</time>
      </trkpt>
      <trkpt lat="45.45625" lon="5.20984">
        <ele>556</ele>
        <time>2021-10-03T10:04:15.983Z</time>
      </trkpt>
      <trkpt lat="45.45627" lon="5.20978">
        <ele>556</ele>
        <time>2021-10-03T10:04:20.040Z</time>
      </trkpt>
      <trkpt lat="45.45631" lon="5.2097">
        <ele>556</ele>
        <time>2021-10-03T10:04:24.992Z</time>
      </trkpt>
      <trkpt lat="45.45636" lon="5.20961">
        <ele>556</ele>
        <time>2021-10-03T10:04:30.019Z</time>
      </trkpt>
      <trkpt lat="45.45641" lon="5.20953">
        <ele>556</ele>
        <time>2021-10-03T10:04:34.989Z</time>
      </trkpt>
      <trkpt lat="45.45647" lon="5.20946">
        <ele>556</ele>
        <time>2021-10-03T10:04:39.988Z</time>
      </trkpt>
      <trkpt lat="45.45652" lon="5.20941">
        <ele>556</ele>
        <time>2021-10-03T10:04:43.999Z</time>
      </trkpt>
      <trkpt lat="45.45655" lon="5.20938">
        <ele>555</ele>
        <time>2021-10-03T10:04:48.027Z</time>
      </trkpt>
      <trkpt lat="45.45659" lon="5.20939">
        <ele>555</ele>
        <time>2021-10-03T10:33:32.055Z</time>
      </trkpt>
      <trkpt lat="45.45659" lon="5.20938">
        <ele>555</ele>
        <time>2021-10-03T10:33:36.995Z</time>
      </trkpt>
      <trkpt lat="45.45662" lon="5.20935">
        <ele>555</ele>
        <time>2021-10-03T10:33:41.960Z</time>
      </trkpt>
      <trkpt lat="45.45663" lon="5.20928">
        <ele>556</ele>
        <time>2021-10-03T10:33:45.980Z</time>
      </trkpt>
      <trkpt lat="45.45665" lon="5.20923">
        <ele>556</ele>
        <time>2021-10-03T10:33:49.984Z</time>
      </trkpt>
      <trkpt lat="45.45667" lon="5.20921">
        <ele>556</ele>
        <time>2021-10-03T10:33:54.059Z</time>
      </trkpt>
      <trkpt lat="45.4567" lon="5.20921">
        <ele>556</ele>
        <time>2021-10-03T10:33:58.987Z</time>
      </trkpt>
      <trkpt lat="45.45673" lon="5.20922">
        <ele>556</ele>
        <time>2021-10-03T10:34:03.002Z</time>
      </trkpt>
      <trkpt lat="45.45678" lon="5.20925">
        <ele>556</ele>
        <time>2021-10-03T10:34:07.985Z</time>
      </trkpt>
      <trkpt lat="45.45684" lon="5.20926">
        <ele>555</ele>
        <time>2021-10-03T10:34:12.980Z</time>
      </trkpt>
      <trkpt lat="45.45688" lon="5.20926">
        <ele>555</ele>
        <time>2021-10-03T10:34:16.983Z</time>
      </trkpt>
      <trkpt lat="45.45692" lon="5.20926">
        <ele>555</ele>
        <time>2021-10-03T10:34:20.995Z</time>
      </trkpt>
      <trkpt lat="45.45697" lon="5.20926">
        <ele>555</ele>
        <time>2021-10-03T10:34:25.006Z</time>
      </trkpt>
      <trkpt lat="45.45705" lon="5.20929">
        <ele>555</ele>
        <time>2021-10-03T10:34:29.979Z</time>
      </trkpt>
      <trkpt lat="45.4571" lon="5.20928">
        <ele>556</ele>
        <time>2021-10-03T10:34:34.004Z</time>
      </trkpt>
      <trkpt lat="45.45715" lon="5.20928">
        <ele>556</ele>
        <time>2021-10-03T10:34:38.029Z</time>
      </trkpt>
      <trkpt lat="45.45722" lon="5.20929">
        <ele>556</ele>
        <time>2021-10-03T10:34:42.953Z</time>
      </trkpt>
      <trkpt lat="45.45727" lon="5.2093">
        <ele>556</ele>
        <time>2021-10-03T10:34:46.965Z</time>
      </trkpt>
      <trkpt lat="45.45733" lon="5.20931">
        <ele>555</ele>
        <time>2021-10-03T10:34:50.997Z</time>
      </trkpt>
      <trkpt lat="45.4574" lon="5.20932">
        <ele>555</ele>
        <time>2021-10-03T10:34:55.985Z</time>
      </trkpt>
      <trkpt lat="45.45747" lon="5.20931">
        <ele>555</ele>
        <time>2021-10-03T10:35:01Z</time>
      </trkpt>
      <trkpt lat="45.45753" lon="5.20932">
        <ele>555</ele>
        <time>2021-10-03T10:35:05.960Z</time>
      </trkpt>
      <trkpt lat="45.45759" lon="5.20932">
        <ele>555</ele>
        <time>2021-10-03T10:35:11.010Z</time>
      </trkpt>
      <trkpt lat="45.45764" lon="5.20932">
        <ele>556</ele>
        <time>2021-10-03T10:35:15.013Z</time>
      </trkpt>
      <trkpt lat="45.4577" lon="5.20935">
        <ele>556</ele>
        <time>2021-10-03T10:35:19.955Z</time>
      </trkpt>
      <trkpt lat="45.45774" lon="5.20937">
        <ele>556</ele>
        <time>2021-10-03T10:35:24.022Z</time>
      </trkpt>
      <trkpt lat="45.4578" lon="5.2094">
        <ele>556</ele>
        <time>2021-10-03T10:35:28.960Z</time>
      </trkpt>
      <trkpt lat="45.45786" lon="5.20945">
        <ele>556</ele>
        <time>2021-10-03T10:35:33.996Z</time>
      </trkpt>
      <trkpt lat="45.45792" lon="5.20946">
        <ele>557</ele>
        <time>2021-10-03T10:35:39.012Z</time>
      </trkpt>
      <trkpt lat="45.45799" lon="5.20947">
        <ele>557</ele>
        <time>2021-10-03T10:35:44.002Z</time>
      </trkpt>
      <trkpt lat="45.45806" lon="5.20948">
        <ele>557</ele>
        <time>2021-10-03T10:35:49.027Z</time>
      </trkpt>
      <trkpt lat="45.45812" lon="5.20948">
        <ele>557</ele>
        <time>2021-10-03T10:35:53.030Z</time>
      </trkpt>
      <trkpt lat="45.4582" lon="5.20948">
        <ele>557</ele>
        <time>2021-10-03T10:35:58.004Z</time>
      </trkpt>
      <trkpt lat="45.45825" lon="5.20947">
        <ele>557</ele>
        <time>2021-10-03T10:36:02.011Z</time>
      </trkpt>
      <trkpt lat="45.4583" lon="5.20949">
        <ele>557</ele>
        <time>2021-10-03T10:36:06.994Z</time>
      </trkpt>
      <trkpt lat="45.45836" lon="5.20954">
        <ele>557</ele>
        <time>2021-10-03T10:36:12.001Z</time>
      </trkpt>
      <trkpt lat="45.45841" lon="5.20959">
        <ele>558</ele>
        <time>2021-10-03T10:36:16.003Z</time>
      </trkpt>
      <trkpt lat="45.45843" lon="5.20966">
        <ele>558</ele>
        <time>2021-10-03T10:36:21.002Z</time>
      </trkpt>
      <trkpt lat="45.45846" lon="5.20972">
        <ele>558</ele>
        <time>2021-10-03T10:36:25.011Z</time>
      </trkpt>
      <trkpt lat="45.45849" lon="5.20983">
        <ele>557</ele>
        <time>2021-10-03T10:36:29.999Z</time>
      </trkpt>
      <trkpt lat="45.4585" lon="5.20991">
        <ele>558</ele>
        <time>2021-10-03T10:36:34.991Z</time>
      </trkpt>
      <trkpt lat="45.45851" lon="5.20998">
        <ele>558</ele>
        <time>2021-10-03T10:36:39.995Z</time>
      </trkpt>
      <trkpt lat="45.45853" lon="5.21006">
        <ele>558</ele>
        <time>2021-10-03T10:36:44.023Z</time>
      </trkpt>
      <trkpt lat="45.45854" lon="5.21018">
        <ele>559</ele>
        <time>2021-10-03T10:36:49Z</time>
      </trkpt>
      <trkpt lat="45.45857" lon="5.21027">
        <ele>559</ele>
        <time>2021-10-03T10:36:53.013Z</time>
      </trkpt>
      <trkpt lat="45.4586" lon="5.21036">
        <ele>559</ele>
        <time>2021-10-03T10:36:58.026Z</time>
      </trkpt>
      <trkpt lat="45.45862" lon="5.21045">
        <ele>561</ele>
        <time>2021-10-03T10:37:03.019Z</time>
      </trkpt>
      <trkpt lat="45.45865" lon="5.21057">
        <ele>561</ele>
        <time>2021-10-03T10:37:07.989Z</time>
      </trkpt>
      <trkpt lat="45.45868" lon="5.21062">
        <ele>561</ele>
        <time>2021-10-03T10:37:12Z</time>
      </trkpt>
      <trkpt lat="45.45872" lon="5.21069">
        <ele>561</ele>
        <time>2021-10-03T10:37:16.991Z</time>
      </trkpt>
      <trkpt lat="45.45874" lon="5.21074">
        <ele>562</ele>
        <time>2021-10-03T10:37:20.995Z</time>
      </trkpt>
      <trkpt lat="45.45878" lon="5.21083">
        <ele>560</ele>
        <time>2021-10-03T10:37:25.955Z</time>
      </trkpt>
      <trkpt lat="45.45881" lon="5.2109">
        <ele>560</ele>
        <time>2021-10-03T10:37:29.958Z</time>
      </trkpt>
      <trkpt lat="45.45884" lon="5.21097">
        <ele>560</ele>
        <time>2021-10-03T10:37:33.994Z</time>
      </trkpt>
      <trkpt lat="45.45885" lon="5.21105">
        <ele>560</ele>
        <time>2021-10-03T10:37:38.008Z</time>
      </trkpt>
      <trkpt lat="45.45889" lon="5.21113">
        <ele>560</ele>
        <time>2021-10-03T10:37:42.961Z</time>
      </trkpt>
      <trkpt lat="45.45891" lon="5.21122">
        <ele>560</ele>
        <time>2021-10-03T10:37:46.955Z</time>
      </trkpt>
      <trkpt lat="45.45894" lon="5.21132">
        <ele>559</ele>
        <time>2021-10-03T10:37:51.951Z</time>
      </trkpt>
      <trkpt lat="45.45895" lon="5.21144">
        <ele>559</ele>
        <time>2021-10-03T10:37:56.950Z</time>
      </trkpt>
      <trkpt lat="45.45898" lon="5.21152">
        <ele>559</ele>
        <time>2021-10-03T10:38:00.947Z</time>
      </trkpt>
      <trkpt lat="45.459" lon="5.21162">
        <ele>560</ele>
        <time>2021-10-03T10:38:05.951Z</time>
      </trkpt>
      <trkpt lat="45.45904" lon="5.21171">
        <ele>559</ele>
        <time>2021-10-03T10:38:10.953Z</time>
      </trkpt>
      <trkpt lat="45.4591" lon="5.21179">
        <ele>559</ele>
        <time>2021-10-03T10:38:15.953Z</time>
      </trkpt>
      <trkpt lat="45.45914" lon="5.21185">
        <ele>559</ele>
        <time>2021-10-03T10:38:19.953Z</time>
      </trkpt>
      <trkpt lat="45.45919" lon="5.21193">
        <ele>559</ele>
        <time>2021-10-03T10:38:24.954Z</time>
      </trkpt>
      <trkpt lat="45.45922" lon="5.21199">
        <ele>559</ele>
        <time>2021-10-03T10:38:28.960Z</time>
      </trkpt>
      <trkpt lat="45.45926" lon="5.21206">
        <ele>559</ele>
        <time>2021-10-03T10:38:33.966Z</time>
      </trkpt>
      <trkpt lat="45.45931" lon="5.21213">
        <ele>560</ele>
        <time>2021-10-03T10:38:38.958Z</time>
      </trkpt>
      <trkpt lat="45.45935" lon="5.21219">
        <ele>560</ele>
        <time>2021-10-03T10:38:42.961Z</time>
      </trkpt>
      <trkpt lat="45.4594" lon="5.21224">
        <ele>560</ele>
        <time>2021-10-03T10:38:47.960Z</time>
      </trkpt>
      <trkpt lat="45.45944" lon="5.2123">
        <ele>560</ele>
        <time>2021-10-03T10:38:52.963Z</time>
      </trkpt>
      <trkpt lat="45.45948" lon="5.21237">
        <ele>560</ele>
        <time>2021-10-03T10:38:57.959Z</time>
      </trkpt>
      <trkpt lat="45.4595" lon="5.21247">
        <ele>560</ele>
        <time>2021-10-03T10:39:02.959Z</time>
      </trkpt>
      <trkpt lat="45.45954" lon="5.21255">
        <ele>560</ele>
        <time>2021-10-03T10:39:07.968Z</time>
      </trkpt>
      <trkpt lat="45.45958" lon="5.21263">
        <ele>560</ele>
        <time>2021-10-03T10:39:12.967Z</time>
      </trkpt>
      <trkpt lat="45.45962" lon="5.21269">
        <ele>560</ele>
        <time>2021-10-03T10:39:17.962Z</time>
      </trkpt>
      <trkpt lat="45.45964" lon="5.21278">
        <ele>560</ele>
        <time>2021-10-03T10:39:22.957Z</time>
      </trkpt>
      <trkpt lat="45.45967" lon="5.21287">
        <ele>560</ele>
        <time>2021-10-03T10:39:27.961Z</time>
      </trkpt>
      <trkpt lat="45.45967" lon="5.21294">
        <ele>558</ele>
        <time>2021-10-03T10:39:31.965Z</time>
      </trkpt>
      <trkpt lat="45.45967" lon="5.21304">
        <ele>558</ele>
        <time>2021-10-03T10:39:36.963Z</time>
      </trkpt>
      <trkpt lat="45.45965" lon="5.21316">
        <ele>558</ele>
        <time>2021-10-03T10:39:41.960Z</time>
      </trkpt>
      <trkpt lat="45.45965" lon="5.21328">
        <ele>557</ele>
        <time>2021-10-03T10:39:46.967Z</time>
      </trkpt>
      <trkpt lat="45.45964" lon="5.21338">
        <ele>557</ele>
        <time>2021-10-03T10:39:51.963Z</time>
      </trkpt>
      <trkpt lat="45.45964" lon="5.21349">
        <ele>557</ele>
        <time>2021-10-03T10:39:56.960Z</time>
      </trkpt>
      <trkpt lat="45.45963" lon="5.21359">
        <ele>557</ele>
        <time>2021-10-03T10:40:01.960Z</time>
      </trkpt>
      <trkpt lat="45.45972" lon="5.21374">
        <ele>557</ele>
        <time>2021-10-03T10:40:20.972Z</time>
      </trkpt>
      <trkpt lat="45.45975" lon="5.21369">
        <ele>557</ele>
        <time>2021-10-03T10:40:25.973Z</time>
      </trkpt>
      <trkpt lat="45.45979" lon="5.21364">
        <ele>557</ele>
        <time>2021-10-03T10:40:30.966Z</time>
      </trkpt>
      <trkpt lat="45.45983" lon="5.21356">
        <ele>557</ele>
        <time>2021-10-03T10:40:34.966Z</time>
      </trkpt>
      <trkpt lat="45.45988" lon="5.21351">
        <ele>558</ele>
        <time>2021-10-03T10:40:39.960Z</time>
      </trkpt>
      <trkpt lat="45.45992" lon="5.21347">
        <ele>557</ele>
        <time>2021-10-03T10:40:43.969Z</time>
      </trkpt>
      <trkpt lat="45.45995" lon="5.21342">
        <ele>557</ele>
        <time>2021-10-03T10:40:48.957Z</time>
      </trkpt>
      <trkpt lat="45.45998" lon="5.21337">
        <ele>557</ele>
        <time>2021-10-03T10:40:53.965Z</time>
      </trkpt>
      <trkpt lat="45.46004" lon="5.21333">
        <ele>557</ele>
        <time>2021-10-03T10:40:58.961Z</time>
      </trkpt>
      <trkpt lat="45.46009" lon="5.21329">
        <ele>557</ele>
        <time>2021-10-03T10:41:02.963Z</time>
      </trkpt>
      <trkpt lat="45.46015" lon="5.21325">
        <ele>558</ele>
        <time>2021-10-03T10:41:07.960Z</time>
      </trkpt>
      <trkpt lat="45.46022" lon="5.2132">
        <ele>558</ele>
        <time>2021-10-03T10:41:12.964Z</time>
      </trkpt>
      <trkpt lat="45.46028" lon="5.21315">
        <ele>557</ele>
        <time>2021-10-03T10:41:17.965Z</time>
      </trkpt>
      <trkpt lat="45.46034" lon="5.21307">
        <ele>557</ele>
        <time>2021-10-03T10:41:22.958Z</time>
      </trkpt>
      <trkpt lat="45.46038" lon="5.21299">
        <ele>557</ele>
        <time>2021-10-03T10:41:27.960Z</time>
      </trkpt>
      <trkpt lat="45.46042" lon="5.2129">
        <ele>553</ele>
        <time>2021-10-03T10:41:32.963Z</time>
      </trkpt>
      <trkpt lat="45.46047" lon="5.21281">
        <ele>553</ele>
        <time>2021-10-03T10:41:37.954Z</time>
      </trkpt>
      <trkpt lat="45.46049" lon="5.2127">
        <ele>553</ele>
        <time>2021-10-03T10:41:42.958Z</time>
      </trkpt>
      <trkpt lat="45.46052" lon="5.21258">
        <ele>552</ele>
        <time>2021-10-03T10:41:47.963Z</time>
      </trkpt>
      <trkpt lat="45.46058" lon="5.2125">
        <ele>552</ele>
        <time>2021-10-03T10:41:52.965Z</time>
      </trkpt>
      <trkpt lat="45.46062" lon="5.21244">
        <ele>552</ele>
        <time>2021-10-03T10:41:57.964Z</time>
      </trkpt>
      <trkpt lat="45.46067" lon="5.21237">
        <ele>552</ele>
        <time>2021-10-03T10:42:02.960Z</time>
      </trkpt>
      <trkpt lat="45.46072" lon="5.2123">
        <ele>548</ele>
        <time>2021-10-03T10:42:07.967Z</time>
      </trkpt>
      <trkpt lat="45.46076" lon="5.21223">
        <ele>548</ele>
        <time>2021-10-03T10:42:12.960Z</time>
      </trkpt>
      <trkpt lat="45.46079" lon="5.21217">
        <ele>548</ele>
        <time>2021-10-03T10:42:16.963Z</time>
      </trkpt>
      <trkpt lat="45.46083" lon="5.21208">
        <ele>548</ele>
        <time>2021-10-03T10:42:21.962Z</time>
      </trkpt>
      <trkpt lat="45.46089" lon="5.21199">
        <ele>548</ele>
        <time>2021-10-03T10:42:26.962Z</time>
      </trkpt>
      <trkpt lat="45.46094" lon="5.21192">
        <ele>548</ele>
        <time>2021-10-03T10:42:31.958Z</time>
      </trkpt>
      <trkpt lat="45.46098" lon="5.21181">
        <ele>546</ele>
        <time>2021-10-03T10:42:36.963Z</time>
      </trkpt>
      <trkpt lat="45.46103" lon="5.21172">
        <ele>546</ele>
        <time>2021-10-03T10:42:41.966Z</time>
      </trkpt>
      <trkpt lat="45.46107" lon="5.21164">
        <ele>546</ele>
        <time>2021-10-03T10:42:46.968Z</time>
      </trkpt>
      <trkpt lat="45.46109" lon="5.21158">
        <ele>546</ele>
        <time>2021-10-03T10:42:50.975Z</time>
      </trkpt>
      <trkpt lat="45.4611" lon="5.21147">
        <ele>548</ele>
        <time>2021-10-03T10:42:55.962Z</time>
      </trkpt>
      <trkpt lat="45.46107" lon="5.21137">
        <ele>548</ele>
        <time>2021-10-03T10:43:00.959Z</time>
      </trkpt>
      <trkpt lat="45.46107" lon="5.21131">
        <ele>548</ele>
        <time>2021-10-03T10:43:04.961Z</time>
      </trkpt>
      <trkpt lat="45.46107" lon="5.21122">
        <ele>548</ele>
        <time>2021-10-03T10:43:09.959Z</time>
      </trkpt>
      <trkpt lat="45.46109" lon="5.21115">
        <ele>548</ele>
        <time>2021-10-03T10:43:13.963Z</time>
      </trkpt>
      <trkpt lat="45.46111" lon="5.21106">
        <ele>548</ele>
        <time>2021-10-03T10:43:18.962Z</time>
      </trkpt>
      <trkpt lat="45.46114" lon="5.21096">
        <ele>549</ele>
        <time>2021-10-03T10:43:23.964Z</time>
      </trkpt>
      <trkpt lat="45.46116" lon="5.21089">
        <ele>549</ele>
        <time>2021-10-03T10:43:27.969Z</time>
      </trkpt>
      <trkpt lat="45.46118" lon="5.21082">
        <ele>549</ele>
        <time>2021-10-03T10:43:31.997Z</time>
      </trkpt>
      <trkpt lat="45.46122" lon="5.21075">
        <ele>549</ele>
        <time>2021-10-03T10:43:36.997Z</time>
      </trkpt>
      <trkpt lat="45.46126" lon="5.21068">
        <ele>546</ele>
        <time>2021-10-03T10:43:42.001Z</time>
      </trkpt>
      <trkpt lat="45.46128" lon="5.2106">
        <ele>546</ele>
        <time>2021-10-03T10:43:47.027Z</time>
      </trkpt>
      <trkpt lat="45.46133" lon="5.21054">
        <ele>546</ele>
        <time>2021-10-03T10:43:51.991Z</time>
      </trkpt>
      <trkpt lat="45.46136" lon="5.2105">
        <ele>546</ele>
        <time>2021-10-03T10:43:57.011Z</time>
      </trkpt>
      <trkpt lat="45.46139" lon="5.21042">
        <ele>546</ele>
        <time>2021-10-03T10:44:01.996Z</time>
      </trkpt>
      <trkpt lat="45.46142" lon="5.21034">
        <ele>544</ele>
        <time>2021-10-03T10:44:07.003Z</time>
      </trkpt>
      <trkpt lat="45.46144" lon="5.21026">
        <ele>544</ele>
        <time>2021-10-03T10:44:11.999Z</time>
      </trkpt>
      <trkpt lat="45.46146" lon="5.2102">
        <ele>544</ele>
        <time>2021-10-03T10:44:16.035Z</time>
      </trkpt>
      <trkpt lat="45.4615" lon="5.21011">
        <ele>541</ele>
        <time>2021-10-03T10:44:21.002Z</time>
      </trkpt>
      <trkpt lat="45.46154" lon="5.21002">
        <ele>537</ele>
        <time>2021-10-03T10:44:25.038Z</time>
      </trkpt>
      <trkpt lat="45.46157" lon="5.20996">
        <ele>537</ele>
        <time>2021-10-03T10:44:29.988Z</time>
      </trkpt>
      <trkpt lat="45.46161" lon="5.20993">
        <ele>537</ele>
        <time>2021-10-03T10:44:34.058Z</time>
      </trkpt>
      <trkpt lat="45.46167" lon="5.20988">
        <ele>537</ele>
        <time>2021-10-03T10:44:39.020Z</time>
      </trkpt>
      <trkpt lat="45.46172" lon="5.20984">
        <ele>535</ele>
        <time>2021-10-03T10:44:43.955Z</time>
      </trkpt>
      <trkpt lat="45.46176" lon="5.20982">
        <ele>535</ele>
        <time>2021-10-03T10:44:48.008Z</time>
      </trkpt>
      <trkpt lat="45.46181" lon="5.20978">
        <ele>535</ele>
        <time>2021-10-03T10:44:53.028Z</time>
      </trkpt>
      <trkpt lat="45.46186" lon="5.20975">
        <ele>535</ele>
        <time>2021-10-03T10:44:58.008Z</time>
      </trkpt>
      <trkpt lat="45.46192" lon="5.20971">
        <ele>535</ele>
        <time>2021-10-03T10:45:02.994Z</time>
      </trkpt>
      <trkpt lat="45.46196" lon="5.20969">
        <ele>535</ele>
        <time>2021-10-03T10:45:07.027Z</time>
      </trkpt>
      <trkpt lat="45.46202" lon="5.20966">
        <ele>535</ele>
        <time>2021-10-03T10:45:12Z</time>
      </trkpt>
      <trkpt lat="45.46209" lon="5.20963">
        <ele>537</ele>
        <time>2021-10-03T10:45:17.045Z</time>
      </trkpt>
      <trkpt lat="45.46218" lon="5.20963">
        <ele>537</ele>
        <time>2021-10-03T10:45:22.032Z</time>
      </trkpt>
      <trkpt lat="45.46228" lon="5.20966">
        <ele>537</ele>
        <time>2021-10-03T10:45:26.962Z</time>
      </trkpt>
      <trkpt lat="45.46236" lon="5.2097">
        <ele>537</ele>
        <time>2021-10-03T10:45:31.961Z</time>
      </trkpt>
      <trkpt lat="45.46244" lon="5.20975">
        <ele>540</ele>
        <time>2021-10-03T10:45:36.953Z</time>
      </trkpt>
      <trkpt lat="45.46249" lon="5.2098">
        <ele>540</ele>
        <time>2021-10-03T10:45:40.991Z</time>
      </trkpt>
      <trkpt lat="45.46254" lon="5.20985">
        <ele>540</ele>
        <time>2021-10-03T10:45:45.003Z</time>
      </trkpt>
      <trkpt lat="45.46261" lon="5.20991">
        <ele>540</ele>
        <time>2021-10-03T10:45:49.998Z</time>
      </trkpt>
      <trkpt lat="45.46266" lon="5.20994">
        <ele>541</ele>
        <time>2021-10-03T10:45:54.003Z</time>
      </trkpt>
      <trkpt lat="45.46271" lon="5.20998">
        <ele>541</ele>
        <time>2021-10-03T10:45:58.028Z</time>
      </trkpt>
      <trkpt lat="45.46278" lon="5.20999">
        <ele>541</ele>
        <time>2021-10-03T10:46:03.002Z</time>
      </trkpt>
      <trkpt lat="45.46283" lon="5.21">
        <ele>541</ele>
        <time>2021-10-03T10:46:07.026Z</time>
      </trkpt>
      <trkpt lat="45.46288" lon="5.21">
        <ele>541</ele>
        <time>2021-10-03T10:46:11.035Z</time>
      </trkpt>
      <trkpt lat="45.46295" lon="5.20998">
        <ele>546</ele>
        <time>2021-10-03T10:46:16.026Z</time>
      </trkpt>
      <trkpt lat="45.46302" lon="5.20994">
        <ele>546</ele>
        <time>2021-10-03T10:46:21Z</time>
      </trkpt>
      <trkpt lat="45.46304" lon="5.20987">
        <ele>546</ele>
        <time>2021-10-03T10:46:25.982Z</time>
      </trkpt>
      <trkpt lat="45.46305" lon="5.2098">
        <ele>547</ele>
        <time>2021-10-03T10:46:30.031Z</time>
      </trkpt>
      <trkpt lat="45.46304" lon="5.20973">
        <ele>547</ele>
        <time>2021-10-03T10:46:34.986Z</time>
      </trkpt>
      <trkpt lat="45.46303" lon="5.20964">
        <ele>547</ele>
        <time>2021-10-03T10:46:39.962Z</time>
      </trkpt>
      <trkpt lat="45.46303" lon="5.20958">
        <ele>547</ele>
        <time>2021-10-03T10:46:43.960Z</time>
      </trkpt>
      <trkpt lat="45.46304" lon="5.2095">
        <ele>547</ele>
        <time>2021-10-03T10:46:48.959Z</time>
      </trkpt>
      <trkpt lat="45.46308" lon="5.20942">
        <ele>547</ele>
        <time>2021-10-03T10:46:53.971Z</time>
      </trkpt>
      <trkpt lat="45.46313" lon="5.20934">
        <ele>547</ele>
        <time>2021-10-03T10:46:58.963Z</time>
      </trkpt>
      <trkpt lat="45.46318" lon="5.20929">
        <ele>546</ele>
        <time>2021-10-03T10:47:03.964Z</time>
      </trkpt>
      <trkpt lat="45.46325" lon="5.20927">
        <ele>547</ele>
        <time>2021-10-03T10:47:08.958Z</time>
      </trkpt>
      <trkpt lat="45.46331" lon="5.20926">
        <ele>547</ele>
        <time>2021-10-03T10:47:13.967Z</time>
      </trkpt>
      <trkpt lat="45.46336" lon="5.20928">
        <ele>547</ele>
        <time>2021-10-03T10:47:18.962Z</time>
      </trkpt>
      <trkpt lat="45.46341" lon="5.20931">
        <ele>548</ele>
        <time>2021-10-03T10:47:23.967Z</time>
      </trkpt>
      <trkpt lat="45.46347" lon="5.20935">
        <ele>548</ele>
        <time>2021-10-03T10:47:28.962Z</time>
      </trkpt>
      <trkpt lat="45.46352" lon="5.20939">
        <ele>548</ele>
        <time>2021-10-03T10:47:33.988Z</time>
      </trkpt>
      <trkpt lat="45.46356" lon="5.20941">
        <ele>548</ele>
        <time>2021-10-03T10:47:38.006Z</time>
      </trkpt>
      <trkpt lat="45.46361" lon="5.20946">
        <ele>548</ele>
        <time>2021-10-03T10:47:42.967Z</time>
      </trkpt>
      <trkpt lat="45.46367" lon="5.2095">
        <ele>548</ele>
        <time>2021-10-03T10:47:47.965Z</time>
      </trkpt>
      <trkpt lat="45.46371" lon="5.20953">
        <ele>548</ele>
        <time>2021-10-03T10:47:51.960Z</time>
      </trkpt>
      <trkpt lat="45.46375" lon="5.20956">
        <ele>548</ele>
        <time>2021-10-03T10:47:56.007Z</time>
      </trkpt>
      <trkpt lat="45.46381" lon="5.20961">
        <ele>548</ele>
        <time>2021-10-03T10:48:01.005Z</time>
      </trkpt>
      <trkpt lat="45.46387" lon="5.20967">
        <ele>548</ele>
        <time>2021-10-03T10:48:05.988Z</time>
      </trkpt>
      <trkpt lat="45.46392" lon="5.20971">
        <ele>548</ele>
        <time>2021-10-03T10:48:10.005Z</time>
      </trkpt>
      <trkpt lat="45.46397" lon="5.20976">
        <ele>548</ele>
        <time>2021-10-03T10:48:14.995Z</time>
      </trkpt>
      <trkpt lat="45.46403" lon="5.2098">
        <ele>548</ele>
        <time>2021-10-03T10:48:18.996Z</time>
      </trkpt>
      <trkpt lat="45.46408" lon="5.20983">
        <ele>547</ele>
        <time>2021-10-03T10:48:23.007Z</time>
      </trkpt>
      <trkpt lat="45.46415" lon="5.20986">
        <ele>548</ele>
        <time>2021-10-03T10:48:27.985Z</time>
      </trkpt>
      <trkpt lat="45.46422" lon="5.20991">
        <ele>548</ele>
        <time>2021-10-03T10:48:32.958Z</time>
      </trkpt>
      <trkpt lat="45.46429" lon="5.20994">
        <ele>548</ele>
        <time>2021-10-03T10:48:37.960Z</time>
      </trkpt>
      <trkpt lat="45.46434" lon="5.20994">
        <ele>550</ele>
        <time>2021-10-03T10:48:41.985Z</time>
      </trkpt>
      <trkpt lat="45.46441" lon="5.20995">
        <ele>550</ele>
        <time>2021-10-03T10:48:46.990Z</time>
      </trkpt>
      <trkpt lat="45.46448" lon="5.20998">
        <ele>550</ele>
        <time>2021-10-03T10:48:52.059Z</time>
      </trkpt>
      <trkpt lat="45.46454" lon="5.21001">
        <ele>550</ele>
        <time>2021-10-03T10:48:57.005Z</time>
      </trkpt>
      <trkpt lat="45.46461" lon="5.21005">
        <ele>551</ele>
        <time>2021-10-03T10:49:01.990Z</time>
      </trkpt>
      <trkpt lat="45.46468" lon="5.21008">
        <ele>551</ele>
        <time>2021-10-03T10:49:06.956Z</time>
      </trkpt>
      <trkpt lat="45.46473" lon="5.21011">
        <ele>551</ele>
        <time>2021-10-03T10:49:11.028Z</time>
      </trkpt>
      <trkpt lat="45.46479" lon="5.21014">
        <ele>553</ele>
        <time>2021-10-03T10:49:15.979Z</time>
      </trkpt>
      <trkpt lat="45.46485" lon="5.21017">
        <ele>553</ele>
        <time>2021-10-03T10:49:20.993Z</time>
      </trkpt>
      <trkpt lat="45.46491" lon="5.21018">
        <ele>553</ele>
        <time>2021-10-03T10:49:24.999Z</time>
      </trkpt>
      <trkpt lat="45.46497" lon="5.2102">
        <ele>553</ele>
        <time>2021-10-03T10:49:29.965Z</time>
      </trkpt>
      <trkpt lat="45.46504" lon="5.21021">
        <ele>553</ele>
        <time>2021-10-03T10:49:34.962Z</time>
      </trkpt>
      <trkpt lat="45.46507" lon="5.21026">
        <ele>553</ele>
        <time>2021-10-03T10:49:38.973Z</time>
      </trkpt>
      <trkpt lat="45.46502" lon="5.21032">
        <ele>553</ele>
        <time>2021-10-03T10:49:43.962Z</time>
      </trkpt>
      <trkpt lat="45.46498" lon="5.21035">
        <ele>553</ele>
        <time>2021-10-03T10:49:47.963Z</time>
      </trkpt>
      <trkpt lat="45.46493" lon="5.21038">
        <ele>553</ele>
        <time>2021-10-03T10:49:52.977Z</time>
      </trkpt>
      <trkpt lat="45.46488" lon="5.21042">
        <ele>554</ele>
        <time>2021-10-03T10:49:57.964Z</time>
      </trkpt>
      <trkpt lat="45.46485" lon="5.21048">
        <ele>553</ele>
        <time>2021-10-03T10:50:02.970Z</time>
      </trkpt>
      <trkpt lat="45.46486" lon="5.21058">
        <ele>553</ele>
        <time>2021-10-03T10:50:07.972Z</time>
      </trkpt>
      <trkpt lat="45.46491" lon="5.21064">
        <ele>554</ele>
        <time>2021-10-03T10:50:12.959Z</time>
      </trkpt>
      <trkpt lat="45.46496" lon="5.21065">
        <ele>554</ele>
        <time>2021-10-03T10:50:16.994Z</time>
      </trkpt>
      <trkpt lat="45.46505" lon="5.21069">
        <ele>554</ele>
        <time>2021-10-03T10:50:21.966Z</time>
      </trkpt>
      <trkpt lat="45.46518" lon="5.21071">
        <ele>555</ele>
        <time>2021-10-03T10:50:26.965Z</time>
      </trkpt>
      <trkpt lat="45.46527" lon="5.21074">
        <ele>555</ele>
        <time>2021-10-03T10:50:31.962Z</time>
      </trkpt>
      <trkpt lat="45.46534" lon="5.21076">
        <ele>555</ele>
        <time>2021-10-03T10:50:36.962Z</time>
      </trkpt>
      <trkpt lat="45.46541" lon="5.21079">
        <ele>555</ele>
        <time>2021-10-03T10:50:40.968Z</time>
      </trkpt>
      <trkpt lat="45.46549" lon="5.21086">
        <ele>556</ele>
        <time>2021-10-03T10:50:45.969Z</time>
      </trkpt>
      <trkpt lat="45.46555" lon="5.2109">
        <ele>556</ele>
        <time>2021-10-03T10:50:49.972Z</time>
      </trkpt>
      <trkpt lat="45.46563" lon="5.21095">
        <ele>556</ele>
        <time>2021-10-03T10:50:54.968Z</time>
      </trkpt>
      <trkpt lat="45.4657" lon="5.211">
        <ele>556</ele>
        <time>2021-10-03T10:50:58.966Z</time>
      </trkpt>
      <trkpt lat="45.46578" lon="5.21104">
        <ele>556</ele>
        <time>2021-10-03T10:51:03.965Z</time>
      </trkpt>
      <trkpt lat="45.46582" lon="5.21105">
        <ele>556</ele>
        <time>2021-10-03T10:51:07.972Z</time>
      </trkpt>
      <trkpt lat="45.46588" lon="5.2111">
        <ele>556</ele>
        <time>2021-10-03T10:51:12.961Z</time>
      </trkpt>
      <trkpt lat="45.46593" lon="5.21115">
        <ele>556</ele>
        <time>2021-10-03T10:51:17Z</time>
      </trkpt>
      <trkpt lat="45.46599" lon="5.21124">
        <ele>558</ele>
        <time>2021-10-03T10:51:21.972Z</time>
      </trkpt>
      <trkpt lat="45.46605" lon="5.21131">
        <ele>558</ele>
        <time>2021-10-03T10:51:26.962Z</time>
      </trkpt>
      <trkpt lat="45.46611" lon="5.21136">
        <ele>558</ele>
        <time>2021-10-03T10:51:31.964Z</time>
      </trkpt>
      <trkpt lat="45.46617" lon="5.21138">
        <ele>558</ele>
        <time>2021-10-03T10:51:35.973Z</time>
      </trkpt>
      <trkpt lat="45.46622" lon="5.21141">
        <ele>558</ele>
        <time>2021-10-03T10:51:39.966Z</time>
      </trkpt>
      <trkpt lat="45.46629" lon="5.21145">
        <ele>560</ele>
        <time>2021-10-03T10:51:44.967Z</time>
      </trkpt>
      <trkpt lat="45.46635" lon="5.2115">
        <ele>560</ele>
        <time>2021-10-03T10:51:49.967Z</time>
      </trkpt>
      <trkpt lat="45.46639" lon="5.21153">
        <ele>560</ele>
        <time>2021-10-03T10:51:53.965Z</time>
      </trkpt>
      <trkpt lat="45.46647" lon="5.21158">
        <ele>560</ele>
        <time>2021-10-03T10:51:58.964Z</time>
      </trkpt>
      <trkpt lat="45.46651" lon="5.21161">
        <ele>560</ele>
        <time>2021-10-03T10:52:02.996Z</time>
      </trkpt>
      <trkpt lat="45.46657" lon="5.21165">
        <ele>561</ele>
        <time>2021-10-03T10:52:07.973Z</time>
      </trkpt>
      <trkpt lat="45.46663" lon="5.21168">
        <ele>561</ele>
        <time>2021-10-03T10:52:12.972Z</time>
      </trkpt>
      <trkpt lat="45.4667" lon="5.21173">
        <ele>561</ele>
        <time>2021-10-03T10:52:17.971Z</time>
      </trkpt>
      <trkpt lat="45.46676" lon="5.21177">
        <ele>561</ele>
        <time>2021-10-03T10:52:22.977Z</time>
      </trkpt>
      <trkpt lat="45.46681" lon="5.21181">
        <ele>560</ele>
        <time>2021-10-03T10:52:26.998Z</time>
      </trkpt>
      <trkpt lat="45.46688" lon="5.21187">
        <ele>560</ele>
        <time>2021-10-03T10:52:31.977Z</time>
      </trkpt>
      <trkpt lat="45.46695" lon="5.21192">
        <ele>560</ele>
        <time>2021-10-03T10:52:36.966Z</time>
      </trkpt>
      <trkpt lat="45.46702" lon="5.21197">
        <ele>560</ele>
        <time>2021-10-03T10:52:41.974Z</time>
      </trkpt>
      <trkpt lat="45.46708" lon="5.21205">
        <ele>560</ele>
        <time>2021-10-03T10:52:46.965Z</time>
      </trkpt>
      <trkpt lat="45.46713" lon="5.21213">
        <ele>558</ele>
        <time>2021-10-03T10:52:51.963Z</time>
      </trkpt>
      <trkpt lat="45.46718" lon="5.21218">
        <ele>558</ele>
        <time>2021-10-03T10:52:55.960Z</time>
      </trkpt>
      <trkpt lat="45.46724" lon="5.21225">
        <ele>558</ele>
        <time>2021-10-03T10:53:00.974Z</time>
      </trkpt>
      <trkpt lat="45.46728" lon="5.21232">
        <ele>558</ele>
        <time>2021-10-03T10:53:05.968Z</time>
      </trkpt>
      <trkpt lat="45.46732" lon="5.21242">
        <ele>559</ele>
        <time>2021-10-03T10:53:10.966Z</time>
      </trkpt>
      <trkpt lat="45.46737" lon="5.2125">
        <ele>559</ele>
        <time>2021-10-03T10:53:14.977Z</time>
      </trkpt>
      <trkpt lat="45.46742" lon="5.21257">
        <ele>559</ele>
        <time>2021-10-03T10:53:19.972Z</time>
      </trkpt>
      <trkpt lat="45.46745" lon="5.21264">
        <ele>560</ele>
        <time>2021-10-03T10:53:24.966Z</time>
      </trkpt>
      <trkpt lat="45.46748" lon="5.21271">
        <ele>560</ele>
        <time>2021-10-03T10:53:29.981Z</time>
      </trkpt>
      <trkpt lat="45.46752" lon="5.21279">
        <ele>560</ele>
        <time>2021-10-03T10:53:34.951Z</time>
      </trkpt>
      <trkpt lat="45.46754" lon="5.21286">
        <ele>560</ele>
        <time>2021-10-03T10:53:38.958Z</time>
      </trkpt>
      <trkpt lat="45.46757" lon="5.21292">
        <ele>561</ele>
        <time>2021-10-03T10:53:42.965Z</time>
      </trkpt>
      <trkpt lat="45.4676" lon="5.21301">
        <ele>561</ele>
        <time>2021-10-03T10:53:47.963Z</time>
      </trkpt>
      <trkpt lat="45.46763" lon="5.21309">
        <ele>561</ele>
        <time>2021-10-03T10:53:52.972Z</time>
      </trkpt>
      <trkpt lat="45.46766" lon="5.21318">
        <ele>561</ele>
        <time>2021-10-03T10:53:57.964Z</time>
      </trkpt>
      <trkpt lat="45.46768" lon="5.21325">
        <ele>561</ele>
        <time>2021-10-03T10:54:01.975Z</time>
      </trkpt>
      <trkpt lat="45.46771" lon="5.21331">
        <ele>561</ele>
        <time>2021-10-03T10:54:05.971Z</time>
      </trkpt>
      <trkpt lat="45.46775" lon="5.21339">
        <ele>561</ele>
        <time>2021-10-03T10:54:10.967Z</time>
      </trkpt>
      <trkpt lat="45.46776" lon="5.21348">
        <ele>562</ele>
        <time>2021-10-03T10:54:15.974Z</time>
      </trkpt>
      <trkpt lat="45.46778" lon="5.21358">
        <ele>562</ele>
        <time>2021-10-03T10:54:20.959Z</time>
      </trkpt>
      <trkpt lat="45.46782" lon="5.2137">
        <ele>562</ele>
        <time>2021-10-03T10:54:24.969Z</time>
      </trkpt>
      <trkpt lat="45.46783" lon="5.21381">
        <ele>562</ele>
        <time>2021-10-03T10:54:29.967Z</time>
      </trkpt>
      <trkpt lat="45.46784" lon="5.2139">
        <ele>562</ele>
        <time>2021-10-03T10:54:33.988Z</time>
      </trkpt>
      <trkpt lat="45.46785" lon="5.214">
        <ele>562</ele>
        <time>2021-10-03T10:54:38.975Z</time>
      </trkpt>
      <trkpt lat="45.46786" lon="5.21409">
        <ele>563</ele>
        <time>2021-10-03T10:54:42.970Z</time>
      </trkpt>
      <trkpt lat="45.46788" lon="5.21421">
        <ele>563</ele>
        <time>2021-10-03T10:54:47.959Z</time>
      </trkpt>
      <trkpt lat="45.46788" lon="5.2143">
        <ele>563</ele>
        <time>2021-10-03T10:54:51.965Z</time>
      </trkpt>
      <trkpt lat="45.46789" lon="5.2144">
        <ele>564</ele>
        <time>2021-10-03T10:54:56.955Z</time>
      </trkpt>
      <trkpt lat="45.46789" lon="5.21448">
        <ele>564</ele>
        <time>2021-10-03T10:55:00.966Z</time>
      </trkpt>
      <trkpt lat="45.4679" lon="5.21467">
        <ele>563</ele>
        <time>2021-10-03T10:55:05.991Z</time>
      </trkpt>
      <trkpt lat="45.46792" lon="5.2148">
        <ele>563</ele>
        <time>2021-10-03T10:55:10.031Z</time>
      </trkpt>
      <trkpt lat="45.4679" lon="5.21496">
        <ele>563</ele>
        <time>2021-10-03T10:55:14.951Z</time>
      </trkpt>
      <trkpt lat="45.46789" lon="5.2151">
        <ele>563</ele>
        <time>2021-10-03T10:55:18.961Z</time>
      </trkpt>
      <trkpt lat="45.46788" lon="5.2152">
        <ele>562</ele>
        <time>2021-10-03T10:55:23.004Z</time>
      </trkpt>
      <trkpt lat="45.46788" lon="5.21531">
        <ele>562</ele>
        <time>2021-10-03T10:55:27.991Z</time>
      </trkpt>
      <trkpt lat="45.46788" lon="5.21542">
        <ele>562</ele>
        <time>2021-10-03T10:55:32.992Z</time>
      </trkpt>
      <trkpt lat="45.46789" lon="5.21554">
        <ele>562</ele>
        <time>2021-10-03T10:55:37.963Z</time>
      </trkpt>
      <trkpt lat="45.4679" lon="5.21561">
        <ele>562</ele>
        <time>2021-10-03T10:55:41.964Z</time>
      </trkpt>
      <trkpt lat="45.46793" lon="5.21571">
        <ele>560</ele>
        <time>2021-10-03T10:55:47.012Z</time>
      </trkpt>
      <trkpt lat="45.46796" lon="5.21581">
        <ele>560</ele>
        <time>2021-10-03T10:55:52.008Z</time>
      </trkpt>
      <trkpt lat="45.46799" lon="5.21591">
        <ele>560</ele>
        <time>2021-10-03T10:55:56.997Z</time>
      </trkpt>
      <trkpt lat="45.46801" lon="5.216">
        <ele>561</ele>
        <time>2021-10-03T10:56:01.954Z</time>
      </trkpt>
      <trkpt lat="45.46805" lon="5.21606">
        <ele>561</ele>
        <time>2021-10-03T10:56:05.995Z</time>
      </trkpt>
      <trkpt lat="45.46805" lon="5.21613">
        <ele>561</ele>
        <time>2021-10-03T10:56:10.004Z</time>
      </trkpt>
      <trkpt lat="45.46809" lon="5.21621">
        <ele>561</ele>
        <time>2021-10-03T10:56:14.960Z</time>
      </trkpt>
      <trkpt lat="45.4681" lon="5.21628">
        <ele>561</ele>
        <time>2021-10-03T10:56:18.995Z</time>
      </trkpt>
      <trkpt lat="45.46813" lon="5.21635">
        <ele>561</ele>
        <time>2021-10-03T10:56:23.008Z</time>
      </trkpt>
      <trkpt lat="45.46816" lon="5.21642">
        <ele>561</ele>
        <time>2021-10-03T10:56:28.004Z</time>
      </trkpt>
      <trkpt lat="45.4682" lon="5.21648">
        <ele>557</ele>
        <time>2021-10-03T10:56:32.962Z</time>
      </trkpt>
      <trkpt lat="45.46824" lon="5.21654">
        <ele>558</ele>
        <time>2021-10-03T10:56:36.991Z</time>
      </trkpt>
      <trkpt lat="45.46828" lon="5.2166">
        <ele>558</ele>
        <time>2021-10-03T10:56:41.005Z</time>
      </trkpt>
      <trkpt lat="45.46832" lon="5.21666">
        <ele>558</ele>
        <time>2021-10-03T10:56:45.997Z</time>
      </trkpt>
      <trkpt lat="45.46838" lon="5.21673">
        <ele>558</ele>
        <time>2021-10-03T10:56:50.990Z</time>
      </trkpt>
      <trkpt lat="45.46843" lon="5.2168">
        <ele>558</ele>
        <time>2021-10-03T10:56:55.959Z</time>
      </trkpt>
      <trkpt lat="45.46847" lon="5.21686">
        <ele>558</ele>
        <time>2021-10-03T10:56:59.995Z</time>
      </trkpt>
      <trkpt lat="45.4685" lon="5.21692">
        <ele>555</ele>
        <time>2021-10-03T10:57:03.997Z</time>
      </trkpt>
      <trkpt lat="45.46855" lon="5.21699">
        <ele>555</ele>
        <time>2021-10-03T10:57:08.953Z</time>
      </trkpt>
      <trkpt lat="45.46859" lon="5.21704">
        <ele>555</ele>
        <time>2021-10-03T10:57:12.993Z</time>
      </trkpt>
      <trkpt lat="45.46864" lon="5.2171">
        <ele>555</ele>
        <time>2021-10-03T10:57:17.998Z</time>
      </trkpt>
      <trkpt lat="45.46869" lon="5.21716">
        <ele>555</ele>
        <time>2021-10-03T10:57:23.008Z</time>
      </trkpt>
      <trkpt lat="45.46873" lon="5.21725">
        <ele>555</ele>
        <time>2021-10-03T10:57:27.953Z</time>
      </trkpt>
      <trkpt lat="45.46877" lon="5.21731">
        <ele>556</ele>
        <time>2021-10-03T10:57:31.959Z</time>
      </trkpt>
      <trkpt lat="45.46883" lon="5.21734">
        <ele>556</ele>
        <time>2021-10-03T10:57:36.992Z</time>
      </trkpt>
      <trkpt lat="45.46891" lon="5.21736">
        <ele>556</ele>
        <time>2021-10-03T10:57:41.989Z</time>
      </trkpt>
      <trkpt lat="45.46896" lon="5.21738">
        <ele>556</ele>
        <time>2021-10-03T10:57:45.994Z</time>
      </trkpt>
      <trkpt lat="45.46903" lon="5.21742">
        <ele>556</ele>
        <time>2021-10-03T10:57:51.003Z</time>
      </trkpt>
      <trkpt lat="45.46908" lon="5.21745">
        <ele>557</ele>
        <time>2021-10-03T10:57:56.031Z</time>
      </trkpt>
      <trkpt lat="45.46915" lon="5.21749">
        <ele>557</ele>
        <time>2021-10-03T10:58:01Z</time>
      </trkpt>
      <trkpt lat="45.4692" lon="5.21752">
        <ele>557</ele>
        <time>2021-10-03T10:58:05.005Z</time>
      </trkpt>
      <trkpt lat="45.46926" lon="5.21757">
        <ele>557</ele>
        <time>2021-10-03T10:58:10.007Z</time>
      </trkpt>
      <trkpt lat="45.46932" lon="5.21762">
        <ele>558</ele>
        <time>2021-10-03T10:58:14.994Z</time>
      </trkpt>
      <trkpt lat="45.46938" lon="5.21764">
        <ele>557</ele>
        <time>2021-10-03T10:58:19.998Z</time>
      </trkpt>
      <trkpt lat="45.46946" lon="5.21768">
        <ele>557</ele>
        <time>2021-10-03T10:58:24.995Z</time>
      </trkpt>
      <trkpt lat="45.46953" lon="5.21771">
        <ele>557</ele>
        <time>2021-10-03T10:58:29.004Z</time>
      </trkpt>
      <trkpt lat="45.46958" lon="5.21773">
        <ele>557</ele>
        <time>2021-10-03T10:58:33.218Z</time>
      </trkpt>
      <trkpt lat="45.46964" lon="5.21774">
        <ele>556</ele>
        <time>2021-10-03T10:58:37.960Z</time>
      </trkpt>
      <trkpt lat="45.46969" lon="5.21777">
        <ele>556</ele>
        <time>2021-10-03T10:58:42.012Z</time>
      </trkpt>
      <trkpt lat="45.46975" lon="5.21779">
        <ele>556</ele>
        <time>2021-10-03T10:58:46.992Z</time>
      </trkpt>
      <trkpt lat="45.46981" lon="5.2178">
        <ele>556</ele>
        <time>2021-10-03T10:58:51.007Z</time>
      </trkpt>
      <trkpt lat="45.46986" lon="5.21782">
        <ele>556</ele>
        <time>2021-10-03T10:58:55.013Z</time>
      </trkpt>
      <trkpt lat="45.46992" lon="5.21783">
        <ele>555</ele>
        <time>2021-10-03T10:58:59.961Z</time>
      </trkpt>
      <trkpt lat="45.46999" lon="5.21783">
        <ele>555</ele>
        <time>2021-10-03T10:59:04.947Z</time>
      </trkpt>
      <trkpt lat="45.4701" lon="5.21782">
        <ele>555</ele>
        <time>2021-10-03T10:59:09.005Z</time>
      </trkpt>
      <trkpt lat="45.47024" lon="5.21781">
        <ele>554</ele>
        <time>2021-10-03T10:59:13.993Z</time>
      </trkpt>
      <trkpt lat="45.47033" lon="5.21782">
        <ele>554</ele>
        <time>2021-10-03T10:59:18.016Z</time>
      </trkpt>
      <trkpt lat="45.47043" lon="5.21783">
        <ele>553</ele>
        <time>2021-10-03T10:59:22.997Z</time>
      </trkpt>
      <trkpt lat="45.47045" lon="5.21783">
        <ele>553</ele>
        <time>2021-10-03T10:59:27.437Z</time>
      </trkpt>
      <trkpt lat="45.47057" lon="5.21783">
        <ele>553</ele>
        <time>2021-10-03T10:59:31.993Z</time>
      </trkpt>
      <trkpt lat="45.47065" lon="5.21781">
        <ele>553</ele>
        <time>2021-10-03T10:59:36.962Z</time>
      </trkpt>
      <trkpt lat="45.4707" lon="5.21781">
        <ele>551</ele>
        <time>2021-10-03T10:59:41Z</time>
      </trkpt>
      <trkpt lat="45.47075" lon="5.21781">
        <ele>551</ele>
        <time>2021-10-03T10:59:45.004Z</time>
      </trkpt>
      <trkpt lat="45.4708" lon="5.2178">
        <ele>551</ele>
        <time>2021-10-03T10:59:49.028Z</time>
      </trkpt>
      <trkpt lat="45.47087" lon="5.21779">
        <ele>551</ele>
        <time>2021-10-03T10:59:54.002Z</time>
      </trkpt>
      <trkpt lat="45.47094" lon="5.21779">
        <ele>551</ele>
        <time>2021-10-03T10:59:58.987Z</time>
      </trkpt>
      <trkpt lat="45.47098" lon="5.21778">
        <ele>550</ele>
        <time>2021-10-03T11:00:03Z</time>
      </trkpt>
      <trkpt lat="45.47104" lon="5.21776">
        <ele>550</ele>
        <time>2021-10-03T11:00:07Z</time>
      </trkpt>
      <trkpt lat="45.4711" lon="5.21776">
        <ele>550</ele>
        <time>2021-10-03T11:00:11.997Z</time>
      </trkpt>
      <trkpt lat="45.47116" lon="5.21776">
        <ele>550</ele>
        <time>2021-10-03T11:00:16.006Z</time>
      </trkpt>
      <trkpt lat="45.47123" lon="5.21775">
        <ele>550</ele>
        <time>2021-10-03T11:00:20.990Z</time>
      </trkpt>
      <trkpt lat="45.47128" lon="5.21776">
        <ele>548</ele>
        <time>2021-10-03T11:00:24.997Z</time>
      </trkpt>
      <trkpt lat="45.47133" lon="5.21773">
        <ele>548</ele>
        <time>2021-10-03T11:00:29.030Z</time>
      </trkpt>
      <trkpt lat="45.47139" lon="5.21768">
        <ele>548</ele>
        <time>2021-10-03T11:00:33.956Z</time>
      </trkpt>
      <trkpt lat="45.47144" lon="5.21763">
        <ele>547</ele>
        <time>2021-10-03T11:00:37.998Z</time>
      </trkpt>
      <trkpt lat="45.47146" lon="5.21755">
        <ele>547</ele>
        <time>2021-10-03T11:00:43.002Z</time>
      </trkpt>
      <trkpt lat="45.47142" lon="5.21743">
        <ele>547</ele>
        <time>2021-10-03T11:00:48.026Z</time>
      </trkpt>
      <trkpt lat="45.47141" lon="5.21735">
        <ele>547</ele>
        <time>2021-10-03T11:00:52.958Z</time>
      </trkpt>
      <trkpt lat="45.47139" lon="5.21727">
        <ele>547</ele>
        <time>2021-10-03T11:00:56.988Z</time>
      </trkpt>
      <trkpt lat="45.47137" lon="5.21719">
        <ele>547</ele>
        <time>2021-10-03T11:01:01.005Z</time>
      </trkpt>
      <trkpt lat="45.47135" lon="5.21707">
        <ele>547</ele>
        <time>2021-10-03T11:01:05.984Z</time>
      </trkpt>
      <trkpt lat="45.47135" lon="5.21699">
        <ele>547</ele>
        <time>2021-10-03T11:01:11Z</time>
      </trkpt>
      <trkpt lat="45.47135" lon="5.21691">
        <ele>547</ele>
        <time>2021-10-03T11:01:15.997Z</time>
      </trkpt>
      <trkpt lat="45.47136" lon="5.21682">
        <ele>547</ele>
        <time>2021-10-03T11:01:20.986Z</time>
      </trkpt>
      <trkpt lat="45.47137" lon="5.21672">
        <ele>550</ele>
        <time>2021-10-03T11:01:26.007Z</time>
      </trkpt>
      <trkpt lat="45.4714" lon="5.21658">
        <ele>550</ele>
        <time>2021-10-03T11:01:30.965Z</time>
      </trkpt>
      <trkpt lat="45.4714" lon="5.21644">
        <ele>552</ele>
        <time>2021-10-03T11:01:34.957Z</time>
      </trkpt>
      <trkpt lat="45.47141" lon="5.21632">
        <ele>552</ele>
        <time>2021-10-03T11:01:39.965Z</time>
      </trkpt>
      <trkpt lat="45.47141" lon="5.2162">
        <ele>553</ele>
        <time>2021-10-03T11:01:44.964Z</time>
      </trkpt>
      <trkpt lat="45.47141" lon="5.21611">
        <ele>553</ele>
        <time>2021-10-03T11:01:49.948Z</time>
      </trkpt>
      <trkpt lat="45.47142" lon="5.21604">
        <ele>553</ele>
        <time>2021-10-03T11:01:53.956Z</time>
      </trkpt>
      <trkpt lat="45.47142" lon="5.21594">
        <ele>553</ele>
        <time>2021-10-03T11:01:58.949Z</time>
      </trkpt>
      <trkpt lat="45.47144" lon="5.21584">
        <ele>553</ele>
        <time>2021-10-03T11:02:03.960Z</time>
      </trkpt>
      <trkpt lat="45.47145" lon="5.21573">
        <ele>553</ele>
        <time>2021-10-03T11:02:08.961Z</time>
      </trkpt>
      <trkpt lat="45.47146" lon="5.21564">
        <ele>552</ele>
        <time>2021-10-03T11:02:12.982Z</time>
      </trkpt>
      <trkpt lat="45.47146" lon="5.21553">
        <ele>552</ele>
        <time>2021-10-03T11:02:17.996Z</time>
      </trkpt>
      <trkpt lat="45.47148" lon="5.21542">
        <ele>552</ele>
        <time>2021-10-03T11:02:22.991Z</time>
      </trkpt>
      <trkpt lat="45.47149" lon="5.21534">
        <ele>552</ele>
        <time>2021-10-03T11:02:28.015Z</time>
      </trkpt>
      <trkpt lat="45.47151" lon="5.21523">
        <ele>552</ele>
        <time>2021-10-03T11:02:32.955Z</time>
      </trkpt>
      <trkpt lat="45.47153" lon="5.21515">
        <ele>548</ele>
        <time>2021-10-03T11:02:36.994Z</time>
      </trkpt>
      <trkpt lat="45.47154" lon="5.21504">
        <ele>548</ele>
        <time>2021-10-03T11:02:41.978Z</time>
      </trkpt>
      <trkpt lat="45.47154" lon="5.21495">
        <ele>548</ele>
        <time>2021-10-03T11:02:45.982Z</time>
      </trkpt>
      <trkpt lat="45.47156" lon="5.21483">
        <ele>548</ele>
        <time>2021-10-03T11:02:50.981Z</time>
      </trkpt>
      <trkpt lat="45.47158" lon="5.21474">
        <ele>548</ele>
        <time>2021-10-03T11:02:54.986Z</time>
      </trkpt>
      <trkpt lat="45.47158" lon="5.21464">
        <ele>548</ele>
        <time>2021-10-03T11:02:59.974Z</time>
      </trkpt>
      <trkpt lat="45.47158" lon="5.21456">
        <ele>548</ele>
        <time>2021-10-03T11:03:03.985Z</time>
      </trkpt>
      <trkpt lat="45.47157" lon="5.21449">
        <ele>548</ele>
        <time>2021-10-03T11:03:08.947Z</time>
      </trkpt>
      <trkpt lat="45.47158" lon="5.21442">
        <ele>548</ele>
        <time>2021-10-03T11:03:12.949Z</time>
      </trkpt>
      <trkpt lat="45.47158" lon="5.21435">
        <ele>548</ele>
        <time>2021-10-03T11:03:16.953Z</time>
      </trkpt>
      <trkpt lat="45.4716" lon="5.21427">
        <ele>548</ele>
        <time>2021-10-03T11:03:20.969Z</time>
      </trkpt>
      <trkpt lat="45.47162" lon="5.21415">
        <ele>548</ele>
        <time>2021-10-03T11:03:25.992Z</time>
      </trkpt>
      <trkpt lat="45.47164" lon="5.21402">
        <ele>548</ele>
        <time>2021-10-03T11:03:30.980Z</time>
      </trkpt>
      <trkpt lat="45.47165" lon="5.21389">
        <ele>548</ele>
        <time>2021-10-03T11:03:35.956Z</time>
      </trkpt>
      <trkpt lat="45.47165" lon="5.21381">
        <ele>548</ele>
        <time>2021-10-03T11:03:40.959Z</time>
      </trkpt>
      <trkpt lat="45.47166" lon="5.21374">
        <ele>548</ele>
        <time>2021-10-03T11:03:44.993Z</time>
      </trkpt>
      <trkpt lat="45.47166" lon="5.21364">
        <ele>548</ele>
        <time>2021-10-03T11:03:49Z</time>
      </trkpt>
      <trkpt lat="45.47169" lon="5.21354">
        <ele>548</ele>
        <time>2021-10-03T11:03:54.006Z</time>
      </trkpt>
      <trkpt lat="45.4717" lon="5.21344">
        <ele>548</ele>
        <time>2021-10-03T11:03:58.951Z</time>
      </trkpt>
      <trkpt lat="45.47171" lon="5.21336">
        <ele>548</ele>
        <time>2021-10-03T11:04:03.005Z</time>
      </trkpt>
      <trkpt lat="45.47173" lon="5.21328">
        <ele>548</ele>
        <time>2021-10-03T11:04:07.952Z</time>
      </trkpt>
      <trkpt lat="45.47174" lon="5.2132">
        <ele>548</ele>
        <time>2021-10-03T11:04:11.969Z</time>
      </trkpt>
      <trkpt lat="45.47175" lon="5.21312">
        <ele>550</ele>
        <time>2021-10-03T11:04:15.990Z</time>
      </trkpt>
      <trkpt lat="45.47177" lon="5.21303">
        <ele>550</ele>
        <time>2021-10-03T11:04:20.956Z</time>
      </trkpt>
      <trkpt lat="45.47178" lon="5.21296">
        <ele>550</ele>
        <time>2021-10-03T11:04:24.999Z</time>
      </trkpt>
      <trkpt lat="45.47179" lon="5.21286">
        <ele>550</ele>
        <time>2021-10-03T11:04:30.002Z</time>
      </trkpt>
      <trkpt lat="45.47182" lon="5.21276">
        <ele>549</ele>
        <time>2021-10-03T11:04:35.013Z</time>
      </trkpt>
      <trkpt lat="45.47185" lon="5.21264">
        <ele>549</ele>
        <time>2021-10-03T11:04:39.997Z</time>
      </trkpt>
      <trkpt lat="45.47188" lon="5.21258">
        <ele>548</ele>
        <time>2021-10-03T11:04:44.001Z</time>
      </trkpt>
      <trkpt lat="45.47189" lon="5.21246">
        <ele>548</ele>
        <time>2021-10-03T11:04:48.993Z</time>
      </trkpt>
      <trkpt lat="45.47196" lon="5.21233">
        <ele>547</ele>
        <time>2021-10-03T11:04:53.988Z</time>
      </trkpt>
      <trkpt lat="45.47197" lon="5.21226">
        <ele>547</ele>
        <time>2021-10-03T11:04:57.994Z</time>
      </trkpt>
      <trkpt lat="45.472" lon="5.21218">
        <ele>547</ele>
        <time>2021-10-03T11:05:02.001Z</time>
      </trkpt>
      <trkpt lat="45.47201" lon="5.21209">
        <ele>547</ele>
        <time>2021-10-03T11:05:06.999Z</time>
      </trkpt>
      <trkpt lat="45.47204" lon="5.21202">
        <ele>545</ele>
        <time>2021-10-03T11:05:11.995Z</time>
      </trkpt>
      <trkpt lat="45.47206" lon="5.21193">
        <ele>545</ele>
        <time>2021-10-03T11:05:17.025Z</time>
      </trkpt>
      <trkpt lat="45.47208" lon="5.21186">
        <ele>545</ele>
        <time>2021-10-03T11:05:21.033Z</time>
      </trkpt>
      <trkpt lat="45.47213" lon="5.21177">
        <ele>543</ele>
        <time>2021-10-03T11:05:26.005Z</time>
      </trkpt>
      <trkpt lat="45.47216" lon="5.21169">
        <ele>543</ele>
        <time>2021-10-03T11:05:31.003Z</time>
      </trkpt>
      <trkpt lat="45.47221" lon="5.21161">
        <ele>543</ele>
        <time>2021-10-03T11:05:35.009Z</time>
      </trkpt>
      <trkpt lat="45.47227" lon="5.21156">
        <ele>543</ele>
        <time>2021-10-03T11:05:39.956Z</time>
      </trkpt>
      <trkpt lat="45.47231" lon="5.21152">
        <ele>544</ele>
        <time>2021-10-03T11:05:44.026Z</time>
      </trkpt>
      <trkpt lat="45.47235" lon="5.21148">
        <ele>544</ele>
        <time>2021-10-03T11:05:48.040Z</time>
      </trkpt>
      <trkpt lat="45.47241" lon="5.21144">
        <ele>543</ele>
        <time>2021-10-03T11:05:53.011Z</time>
      </trkpt>
      <trkpt lat="45.47243" lon="5.21143">
        <ele>543</ele>
        <time>2021-10-03T11:05:57.034Z</time>
      </trkpt>
      <trkpt lat="45.47249" lon="5.21141">
        <ele>543</ele>
        <time>2021-10-03T11:06:01.997Z</time>
      </trkpt>
      <trkpt lat="45.47253" lon="5.21138">
        <ele>543</ele>
        <time>2021-10-03T11:06:06.015Z</time>
      </trkpt>
      <trkpt lat="45.47258" lon="5.21134">
        <ele>543</ele>
        <time>2021-10-03T11:06:10.996Z</time>
      </trkpt>
      <trkpt lat="45.47263" lon="5.2113">
        <ele>543</ele>
        <time>2021-10-03T11:06:15.986Z</time>
      </trkpt>
      <trkpt lat="45.47267" lon="5.21128">
        <ele>541</ele>
        <time>2021-10-03T11:06:19.995Z</time>
      </trkpt>
      <trkpt lat="45.47272" lon="5.21126">
        <ele>541</ele>
        <time>2021-10-03T11:06:24.988Z</time>
      </trkpt>
      <trkpt lat="45.47277" lon="5.21123">
        <ele>540</ele>
        <time>2021-10-03T11:06:28.990Z</time>
      </trkpt>
      <trkpt lat="45.47283" lon="5.21119">
        <ele>540</ele>
        <time>2021-10-03T11:06:34.009Z</time>
      </trkpt>
      <trkpt lat="45.47288" lon="5.21116">
        <ele>540</ele>
        <time>2021-10-03T11:06:38.005Z</time>
      </trkpt>
      <trkpt lat="45.47295" lon="5.21111">
        <ele>536</ele>
        <time>2021-10-03T11:06:43.006Z</time>
      </trkpt>
      <trkpt lat="45.47301" lon="5.21105">
        <ele>536</ele>
        <time>2021-10-03T11:06:48.002Z</time>
      </trkpt>
      <trkpt lat="45.47307" lon="5.21096">
        <ele>536</ele>
        <time>2021-10-03T11:06:53.004Z</time>
      </trkpt>
      <trkpt lat="45.47313" lon="5.21088">
        <ele>536</ele>
        <time>2021-10-03T11:06:57.999Z</time>
      </trkpt>
      <trkpt lat="45.47318" lon="5.21081">
        <ele>536</ele>
        <time>2021-10-03T11:07:02.993Z</time>
      </trkpt>
      <trkpt lat="45.47324" lon="5.21073">
        <ele>531</ele>
        <time>2021-10-03T11:07:08.008Z</time>
      </trkpt>
      <trkpt lat="45.47329" lon="5.21067">
        <ele>530</ele>
        <time>2021-10-03T11:07:12.057Z</time>
      </trkpt>
      <trkpt lat="45.47334" lon="5.21059">
        <ele>530</ele>
        <time>2021-10-03T11:07:17.004Z</time>
      </trkpt>
      <trkpt lat="45.47338" lon="5.21052">
        <ele>530</ele>
        <time>2021-10-03T11:07:21.013Z</time>
      </trkpt>
      <trkpt lat="45.47343" lon="5.21045">
        <ele>530</ele>
        <time>2021-10-03T11:07:26.007Z</time>
      </trkpt>
      <trkpt lat="45.47348" lon="5.21038">
        <ele>530</ele>
        <time>2021-10-03T11:07:31.001Z</time>
      </trkpt>
      <trkpt lat="45.47351" lon="5.21033">
        <ele>530</ele>
        <time>2021-10-03T11:07:35.008Z</time>
      </trkpt>
      <trkpt lat="45.47356" lon="5.21026">
        <ele>530</ele>
        <time>2021-10-03T11:07:39.962Z</time>
      </trkpt>
      <trkpt lat="45.4736" lon="5.2102">
        <ele>530</ele>
        <time>2021-10-03T11:07:44.029Z</time>
      </trkpt>
      <trkpt lat="45.47365" lon="5.21013">
        <ele>531</ele>
        <time>2021-10-03T11:07:48.996Z</time>
      </trkpt>
      <trkpt lat="45.47372" lon="5.21009">
        <ele>531</ele>
        <time>2021-10-03T11:07:53.955Z</time>
      </trkpt>
      <trkpt lat="45.47378" lon="5.21003">
        <ele>533</ele>
        <time>2021-10-03T11:07:58.956Z</time>
      </trkpt>
      <trkpt lat="45.47382" lon="5.20997">
        <ele>533</ele>
        <time>2021-10-03T11:08:02.961Z</time>
      </trkpt>
      <trkpt lat="45.47386" lon="5.20988">
        <ele>533</ele>
        <time>2021-10-03T11:08:07.956Z</time>
      </trkpt>
      <trkpt lat="45.47383" lon="5.20983">
        <ele>535</ele>
        <time>2021-10-03T11:08:11.999Z</time>
      </trkpt>
      <trkpt lat="45.47379" lon="5.20977">
        <ele>535</ele>
        <time>2021-10-03T11:08:16.957Z</time>
      </trkpt>
      <trkpt lat="45.47376" lon="5.20973">
        <ele>535</ele>
        <time>2021-10-03T11:08:20.985Z</time>
      </trkpt>
      <trkpt lat="45.47371" lon="5.20966">
        <ele>532</ele>
        <time>2021-10-03T11:08:25.994Z</time>
      </trkpt>
      <trkpt lat="45.47365" lon="5.20961">
        <ele>532</ele>
        <time>2021-10-03T11:08:30.957Z</time>
      </trkpt>
      <trkpt lat="45.47361" lon="5.20958">
        <ele>533</ele>
        <time>2021-10-03T11:08:35.956Z</time>
      </trkpt>
      <trkpt lat="45.47356" lon="5.20954">
        <ele>533</ele>
        <time>2021-10-03T11:08:39.959Z</time>
      </trkpt>
      <trkpt lat="45.47349" lon="5.20952">
        <ele>533</ele>
        <time>2021-10-03T11:08:44.956Z</time>
      </trkpt>
      <trkpt lat="45.47343" lon="5.2095">
        <ele>530</ele>
        <time>2021-10-03T11:08:48.986Z</time>
      </trkpt>
      <trkpt lat="45.47336" lon="5.20948">
        <ele>530</ele>
        <time>2021-10-03T11:08:53.963Z</time>
      </trkpt>
      <trkpt lat="45.47328" lon="5.2094">
        <ele>530</ele>
        <time>2021-10-03T11:08:58.961Z</time>
      </trkpt>
      <trkpt lat="45.47321" lon="5.20932">
        <ele>530</ele>
        <time>2021-10-03T11:09:03.957Z</time>
      </trkpt>
      <trkpt lat="45.47315" lon="5.20926">
        <ele>529</ele>
        <time>2021-10-03T11:09:08.963Z</time>
      </trkpt>
      <trkpt lat="45.47309" lon="5.20919">
        <ele>529</ele>
        <time>2021-10-03T11:09:13.968Z</time>
      </trkpt>
      <trkpt lat="45.47304" lon="5.20914">
        <ele>529</ele>
        <time>2021-10-03T11:09:17.993Z</time>
      </trkpt>
      <trkpt lat="45.47298" lon="5.20908">
        <ele>529</ele>
        <time>2021-10-03T11:09:22.013Z</time>
      </trkpt>
      <trkpt lat="45.47293" lon="5.20899">
        <ele>530</ele>
        <time>2021-10-03T11:09:26.997Z</time>
      </trkpt>
      <trkpt lat="45.47287" lon="5.20893">
        <ele>531</ele>
        <time>2021-10-03T11:09:31.997Z</time>
      </trkpt>
      <trkpt lat="45.47282" lon="5.20886">
        <ele>531</ele>
        <time>2021-10-03T11:09:36.995Z</time>
      </trkpt>
      <trkpt lat="45.47277" lon="5.20878">
        <ele>531</ele>
        <time>2021-10-03T11:09:42.006Z</time>
      </trkpt>
      <trkpt lat="45.47273" lon="5.20867">
        <ele>531</ele>
        <time>2021-10-03T11:09:46.989Z</time>
      </trkpt>
      <trkpt lat="45.4727" lon="5.20857">
        <ele>531</ele>
        <time>2021-10-03T11:09:51.956Z</time>
      </trkpt>
      <trkpt lat="45.47266" lon="5.20848">
        <ele>531</ele>
        <time>2021-10-03T11:09:55.998Z</time>
      </trkpt>
      <trkpt lat="45.47263" lon="5.20836">
        <ele>531</ele>
        <time>2021-10-03T11:10:01.010Z</time>
      </trkpt>
      <trkpt lat="45.47261" lon="5.20825">
        <ele>531</ele>
        <time>2021-10-03T11:10:05.955Z</time>
      </trkpt>
      <trkpt lat="45.4726" lon="5.20817">
        <ele>532</ele>
        <time>2021-10-03T11:10:09.986Z</time>
      </trkpt>
      <trkpt lat="45.47258" lon="5.20806">
        <ele>532</ele>
        <time>2021-10-03T11:10:14.993Z</time>
      </trkpt>
      <trkpt lat="45.47257" lon="5.20796">
        <ele>532</ele>
        <time>2021-10-03T11:10:19.997Z</time>
      </trkpt>
      <trkpt lat="45.47257" lon="5.20785">
        <ele>532</ele>
        <time>2021-10-03T11:10:24.997Z</time>
      </trkpt>
      <trkpt lat="45.47255" lon="5.20774">
        <ele>532</ele>
        <time>2021-10-03T11:10:29.024Z</time>
      </trkpt>
      <trkpt lat="45.47255" lon="5.20762">
        <ele>533</ele>
        <time>2021-10-03T11:10:33.982Z</time>
      </trkpt>
      <trkpt lat="45.47255" lon="5.20754">
        <ele>533</ele>
        <time>2021-10-03T11:10:38.005Z</time>
      </trkpt>
      <trkpt lat="45.47254" lon="5.20743">
        <ele>533</ele>
        <time>2021-10-03T11:10:42.990Z</time>
      </trkpt>
      <trkpt lat="45.47253" lon="5.20733">
        <ele>533</ele>
        <time>2021-10-03T11:10:47.990Z</time>
      </trkpt>
      <trkpt lat="45.4725" lon="5.2072">
        <ele>533</ele>
        <time>2021-10-03T11:10:52.999Z</time>
      </trkpt>
      <trkpt lat="45.47247" lon="5.2071">
        <ele>533</ele>
        <time>2021-10-03T11:10:57.993Z</time>
      </trkpt>
      <trkpt lat="45.47244" lon="5.207">
        <ele>534</ele>
        <time>2021-10-03T11:11:03.003Z</time>
      </trkpt>
      <trkpt lat="45.47241" lon="5.20689">
        <ele>534</ele>
        <time>2021-10-03T11:11:08Z</time>
      </trkpt>
      <trkpt lat="45.47241" lon="5.20679">
        <ele>535</ele>
        <time>2021-10-03T11:11:13Z</time>
      </trkpt>
      <trkpt lat="45.47249" lon="5.20676">
        <ele>535</ele>
        <time>2021-10-03T11:11:17.988Z</time>
      </trkpt>
      <trkpt lat="45.47254" lon="5.20678">
        <ele>535</ele>
        <time>2021-10-03T11:11:21.989Z</time>
      </trkpt>
      <trkpt lat="45.47261" lon="5.20678">
        <ele>535</ele>
        <time>2021-10-03T11:11:27.010Z</time>
      </trkpt>
      <trkpt lat="45.47266" lon="5.20682">
        <ele>536</ele>
        <time>2021-10-03T11:11:31.019Z</time>
      </trkpt>
      <trkpt lat="45.47273" lon="5.20685">
        <ele>536</ele>
        <time>2021-10-03T11:11:36.005Z</time>
      </trkpt>
      <trkpt lat="45.47279" lon="5.20688">
        <ele>536</ele>
        <time>2021-10-03T11:11:40.986Z</time>
      </trkpt>
      <trkpt lat="45.47287" lon="5.20691">
        <ele>536</ele>
        <time>2021-10-03T11:11:45.961Z</time>
      </trkpt>
      <trkpt lat="45.47292" lon="5.20692">
        <ele>538</ele>
        <time>2021-10-03T11:11:49.963Z</time>
      </trkpt>
      <trkpt lat="45.47297" lon="5.20694">
        <ele>538</ele>
        <time>2021-10-03T11:11:54.004Z</time>
      </trkpt>
      <trkpt lat="45.47304" lon="5.20691">
        <ele>538</ele>
        <time>2021-10-03T11:11:58.991Z</time>
      </trkpt>
      <trkpt lat="45.4731" lon="5.2069">
        <ele>538</ele>
        <time>2021-10-03T11:12:04.004Z</time>
      </trkpt>
      <trkpt lat="45.47316" lon="5.20686">
        <ele>538</ele>
        <time>2021-10-03T11:12:08.992Z</time>
      </trkpt>
      <trkpt lat="45.47322" lon="5.20684">
        <ele>541</ele>
        <time>2021-10-03T11:12:13.993Z</time>
      </trkpt>
      <trkpt lat="45.47328" lon="5.20681">
        <ele>541</ele>
        <time>2021-10-03T11:12:17.998Z</time>
      </trkpt>
      <trkpt lat="45.47334" lon="5.20678">
        <ele>543</ele>
        <time>2021-10-03T11:12:22.995Z</time>
      </trkpt>
      <trkpt lat="45.47341" lon="5.20676">
        <ele>543</ele>
        <time>2021-10-03T11:12:28.005Z</time>
      </trkpt>
      <trkpt lat="45.47348" lon="5.20676">
        <ele>543</ele>
        <time>2021-10-03T11:12:32.988Z</time>
      </trkpt>
      <trkpt lat="45.47352" lon="5.20675">
        <ele>543</ele>
        <time>2021-10-03T11:12:36.998Z</time>
      </trkpt>
      <trkpt lat="45.4736" lon="5.20673">
        <ele>543</ele>
        <time>2021-10-03T11:12:41.990Z</time>
      </trkpt>
      <trkpt lat="45.47365" lon="5.20672">
        <ele>543</ele>
        <time>2021-10-03T11:12:46.004Z</time>
      </trkpt>
      <trkpt lat="45.47372" lon="5.2067">
        <ele>543</ele>
        <time>2021-10-03T11:12:51.010Z</time>
      </trkpt>
      <trkpt lat="45.4738" lon="5.20669">
        <ele>543</ele>
        <time>2021-10-03T11:12:56.002Z</time>
      </trkpt>
      <trkpt lat="45.47387" lon="5.20668">
        <ele>543</ele>
        <time>2021-10-03T11:13:00.007Z</time>
      </trkpt>
      <trkpt lat="45.47397" lon="5.20666">
        <ele>543</ele>
        <time>2021-10-03T11:13:04.991Z</time>
      </trkpt>
      <trkpt lat="45.47403" lon="5.20664">
        <ele>545</ele>
        <time>2021-10-03T11:13:09.007Z</time>
      </trkpt>
      <trkpt lat="45.47413" lon="5.20665">
        <ele>545</ele>
        <time>2021-10-03T11:13:13.020Z</time>
      </trkpt>
      <trkpt lat="45.47423" lon="5.20666">
        <ele>545</ele>
        <time>2021-10-03T11:13:18.005Z</time>
      </trkpt>
      <trkpt lat="45.47432" lon="5.20666">
        <ele>545</ele>
        <time>2021-10-03T11:13:23.002Z</time>
      </trkpt>
      <trkpt lat="45.47441" lon="5.20664">
        <ele>545</ele>
        <time>2021-10-03T11:13:28.015Z</time>
      </trkpt>
      <trkpt lat="45.47448" lon="5.20663">
        <ele>545</ele>
        <time>2021-10-03T11:13:32.992Z</time>
      </trkpt>
      <trkpt lat="45.47455" lon="5.20661">
        <ele>545</ele>
        <time>2021-10-03T11:13:37.004Z</time>
      </trkpt>
      <trkpt lat="45.47461" lon="5.20659">
        <ele>545</ele>
        <time>2021-10-03T11:13:41.005Z</time>
      </trkpt>
      <trkpt lat="45.47467" lon="5.20657">
        <ele>545</ele>
        <time>2021-10-03T11:13:45.029Z</time>
      </trkpt>
      <trkpt lat="45.47473" lon="5.20655">
        <ele>545</ele>
        <time>2021-10-03T11:13:50.002Z</time>
      </trkpt>
      <trkpt lat="45.47478" lon="5.20652">
        <ele>546</ele>
        <time>2021-10-03T11:13:54.031Z</time>
      </trkpt>
      <trkpt lat="45.47484" lon="5.20647">
        <ele>546</ele>
        <time>2021-10-03T11:13:58.958Z</time>
      </trkpt>
      <trkpt lat="45.47489" lon="5.20644">
        <ele>546</ele>
        <time>2021-10-03T11:14:02.978Z</time>
      </trkpt>
      <trkpt lat="45.47497" lon="5.20641">
        <ele>546</ele>
        <time>2021-10-03T11:14:07.998Z</time>
      </trkpt>
      <trkpt lat="45.47503" lon="5.20636">
        <ele>546</ele>
        <time>2021-10-03T11:14:12.012Z</time>
      </trkpt>
      <trkpt lat="45.47511" lon="5.20631">
        <ele>546</ele>
        <time>2021-10-03T11:14:16.994Z</time>
      </trkpt>
      <trkpt lat="45.47516" lon="5.20626">
        <ele>546</ele>
        <time>2021-10-03T11:14:21.014Z</time>
      </trkpt>
      <trkpt lat="45.47523" lon="5.20619">
        <ele>546</ele>
        <time>2021-10-03T11:14:25.995Z</time>
      </trkpt>
      <trkpt lat="45.47529" lon="5.20614">
        <ele>546</ele>
        <time>2021-10-03T11:14:30.034Z</time>
      </trkpt>
      <trkpt lat="45.47534" lon="5.20609">
        <ele>546</ele>
        <time>2021-10-03T11:14:34.992Z</time>
      </trkpt>
      <trkpt lat="45.47539" lon="5.20604">
        <ele>546</ele>
        <time>2021-10-03T11:14:38.995Z</time>
      </trkpt>
      <trkpt lat="45.47547" lon="5.20598">
        <ele>546</ele>
        <time>2021-10-03T11:14:44.002Z</time>
      </trkpt>
      <trkpt lat="45.47554" lon="5.20594">
        <ele>545</ele>
        <time>2021-10-03T11:14:49.006Z</time>
      </trkpt>
      <trkpt lat="45.47562" lon="5.20591">
        <ele>545</ele>
        <time>2021-10-03T11:14:53.988Z</time>
      </trkpt>
      <trkpt lat="45.4757" lon="5.20587">
        <ele>545</ele>
        <time>2021-10-03T11:14:58.995Z</time>
      </trkpt>
      <trkpt lat="45.47579" lon="5.20586">
        <ele>545</ele>
        <time>2021-10-03T11:15:02.999Z</time>
      </trkpt>
      <trkpt lat="45.47587" lon="5.20585">
        <ele>545</ele>
        <time>2021-10-03T11:15:07.989Z</time>
      </trkpt>
      <trkpt lat="45.47594" lon="5.20584">
        <ele>545</ele>
        <time>2021-10-03T11:15:13.002Z</time>
      </trkpt>
      <trkpt lat="45.47602" lon="5.20584">
        <ele>543</ele>
        <time>2021-10-03T11:15:17.995Z</time>
      </trkpt>
      <trkpt lat="45.47611" lon="5.20581">
        <ele>543</ele>
        <time>2021-10-03T11:15:22.993Z</time>
      </trkpt>
      <trkpt lat="45.47618" lon="5.20577">
        <ele>543</ele>
        <time>2021-10-03T11:15:27.986Z</time>
      </trkpt>
      <trkpt lat="45.47626" lon="5.20573">
        <ele>541</ele>
        <time>2021-10-03T11:15:31.999Z</time>
      </trkpt>
      <trkpt lat="45.47631" lon="5.20572">
        <ele>541</ele>
        <time>2021-10-03T11:15:36.007Z</time>
      </trkpt>
      <trkpt lat="45.47637" lon="5.20567">
        <ele>542</ele>
        <time>2021-10-03T11:15:40.994Z</time>
      </trkpt>
      <trkpt lat="45.47645" lon="5.20562">
        <ele>542</ele>
        <time>2021-10-03T11:15:46.002Z</time>
      </trkpt>
      <trkpt lat="45.4765" lon="5.20555">
        <ele>542</ele>
        <time>2021-10-03T11:15:50.006Z</time>
      </trkpt>
      <trkpt lat="45.4766" lon="5.20545">
        <ele>541</ele>
        <time>2021-10-03T11:15:54.993Z</time>
      </trkpt>
      <trkpt lat="45.47668" lon="5.20538">
        <ele>544</ele>
        <time>2021-10-03T11:15:59.984Z</time>
      </trkpt>
      <trkpt lat="45.47678" lon="5.20534">
        <ele>544</ele>
        <time>2021-10-03T11:16:05.007Z</time>
      </trkpt>
      <trkpt lat="45.47685" lon="5.2053">
        <ele>545</ele>
        <time>2021-10-03T11:16:09.991Z</time>
      </trkpt>
      <trkpt lat="45.47691" lon="5.20529">
        <ele>545</ele>
        <time>2021-10-03T11:16:15.012Z</time>
      </trkpt>
      <trkpt lat="45.47699" lon="5.20528">
        <ele>545</ele>
        <time>2021-10-03T11:16:19.998Z</time>
      </trkpt>
      <trkpt lat="45.47706" lon="5.20524">
        <ele>545</ele>
        <time>2021-10-03T11:16:24.957Z</time>
      </trkpt>
      <trkpt lat="45.47713" lon="5.2052">
        <ele>543</ele>
        <time>2021-10-03T11:16:29.990Z</time>
      </trkpt>
      <trkpt lat="45.47721" lon="5.20517">
        <ele>543</ele>
        <time>2021-10-03T11:16:34.989Z</time>
      </trkpt>
      <trkpt lat="45.47726" lon="5.20514">
        <ele>544</ele>
        <time>2021-10-03T11:16:38.993Z</time>
      </trkpt>
      <trkpt lat="45.47732" lon="5.2051">
        <ele>544</ele>
        <time>2021-10-03T11:16:44.001Z</time>
      </trkpt>
      <trkpt lat="45.47736" lon="5.20503">
        <ele>544</ele>
        <time>2021-10-03T11:16:48.986Z</time>
      </trkpt>
      <trkpt lat="45.47741" lon="5.20497">
        <ele>542</ele>
        <time>2021-10-03T11:16:54.006Z</time>
      </trkpt>
      <trkpt lat="45.47745" lon="5.20491">
        <ele>542</ele>
        <time>2021-10-03T11:16:59.002Z</time>
      </trkpt>
      <trkpt lat="45.47749" lon="5.20486">
        <ele>542</ele>
        <time>2021-10-03T11:17:03.025Z</time>
      </trkpt>
      <trkpt lat="45.47755" lon="5.2048">
        <ele>542</ele>
        <time>2021-10-03T11:17:07.998Z</time>
      </trkpt>
      <trkpt lat="45.47761" lon="5.20476">
        <ele>542</ele>
        <time>2021-10-03T11:17:13.003Z</time>
      </trkpt>
      <trkpt lat="45.47767" lon="5.20475">
        <ele>541</ele>
        <time>2021-10-03T11:17:17.995Z</time>
      </trkpt>
      <trkpt lat="45.47773" lon="5.20472">
        <ele>541</ele>
        <time>2021-10-03T11:17:23.008Z</time>
      </trkpt>
      <trkpt lat="45.47778" lon="5.20468">
        <ele>541</ele>
        <time>2021-10-03T11:17:27.992Z</time>
      </trkpt>
      <trkpt lat="45.47782" lon="5.20464">
        <ele>541</ele>
        <time>2021-10-03T11:17:32.030Z</time>
      </trkpt>
      <trkpt lat="45.47788" lon="5.20459">
        <ele>541</ele>
        <time>2021-10-03T11:17:37.006Z</time>
      </trkpt>
      <trkpt lat="45.47793" lon="5.20456">
        <ele>540</ele>
        <time>2021-10-03T11:17:41.029Z</time>
      </trkpt>
      <trkpt lat="45.47799" lon="5.20453">
        <ele>540</ele>
        <time>2021-10-03T11:17:45.999Z</time>
      </trkpt>
      <trkpt lat="45.47805" lon="5.2045">
        <ele>540</ele>
        <time>2021-10-03T11:17:50.953Z</time>
      </trkpt>
      <trkpt lat="45.4781" lon="5.20448">
        <ele>540</ele>
        <time>2021-10-03T11:17:55.001Z</time>
      </trkpt>
      <trkpt lat="45.47817" lon="5.20444">
        <ele>540</ele>
        <time>2021-10-03T11:18:00.007Z</time>
      </trkpt>
      <trkpt lat="45.47822" lon="5.20439">
        <ele>537</ele>
        <time>2021-10-03T11:18:04.989Z</time>
      </trkpt>
      <trkpt lat="45.47826" lon="5.20435">
        <ele>537</ele>
        <time>2021-10-03T11:18:09.006Z</time>
      </trkpt>
      <trkpt lat="45.4783" lon="5.20431">
        <ele>537</ele>
        <time>2021-10-03T11:18:13.023Z</time>
      </trkpt>
      <trkpt lat="45.47835" lon="5.20426">
        <ele>538</ele>
        <time>2021-10-03T11:18:18.002Z</time>
      </trkpt>
      <trkpt lat="45.47839" lon="5.20418">
        <ele>538</ele>
        <time>2021-10-03T11:18:22.964Z</time>
      </trkpt>
      <trkpt lat="45.47843" lon="5.20411">
        <ele>538</ele>
        <time>2021-10-03T11:18:26.998Z</time>
      </trkpt>
      <trkpt lat="45.47846" lon="5.20402">
        <ele>539</ele>
        <time>2021-10-03T11:18:31.036Z</time>
      </trkpt>
      <trkpt lat="45.4785" lon="5.20392">
        <ele>535</ele>
        <time>2021-10-03T11:18:36.032Z</time>
      </trkpt>
      <trkpt lat="45.47851" lon="5.20385">
        <ele>535</ele>
        <time>2021-10-03T11:18:40.039Z</time>
      </trkpt>
      <trkpt lat="45.47854" lon="5.20377">
        <ele>535</ele>
        <time>2021-10-03T11:18:45.009Z</time>
      </trkpt>
      <trkpt lat="45.47856" lon="5.20369">
        <ele>534</ele>
        <time>2021-10-03T11:18:49.981Z</time>
      </trkpt>
      <trkpt lat="45.47859" lon="5.20362">
        <ele>534</ele>
        <time>2021-10-03T11:18:53.995Z</time>
      </trkpt>
      <trkpt lat="45.47864" lon="5.20353">
        <ele>534</ele>
        <time>2021-10-03T11:18:59.032Z</time>
      </trkpt>
      <trkpt lat="45.47869" lon="5.20346">
        <ele>534</ele>
        <time>2021-10-03T11:19:04.026Z</time>
      </trkpt>
      <trkpt lat="45.47874" lon="5.2034">
        <ele>534</ele>
        <time>2021-10-03T11:19:09.002Z</time>
      </trkpt>
      <trkpt lat="45.47878" lon="5.20336">
        <ele>531</ele>
        <time>2021-10-03T11:19:13.025Z</time>
      </trkpt>
      <trkpt lat="45.47883" lon="5.20328">
        <ele>531</ele>
        <time>2021-10-03T11:19:17.995Z</time>
      </trkpt>
      <trkpt lat="45.47888" lon="5.20321">
        <ele>531</ele>
        <time>2021-10-03T11:19:21.999Z</time>
      </trkpt>
      <trkpt lat="45.47892" lon="5.20315">
        <ele>532</ele>
        <time>2021-10-03T11:19:26.027Z</time>
      </trkpt>
      <trkpt lat="45.47897" lon="5.20308">
        <ele>532</ele>
        <time>2021-10-03T11:19:30.977Z</time>
      </trkpt>
      <trkpt lat="45.47905" lon="5.20301">
        <ele>529</ele>
        <time>2021-10-03T11:19:35.999Z</time>
      </trkpt>
      <trkpt lat="45.4791" lon="5.20293">
        <ele>529</ele>
        <time>2021-10-03T11:19:41.009Z</time>
      </trkpt>
      <trkpt lat="45.47913" lon="5.20285">
        <ele>528</ele>
        <time>2021-10-03T11:19:45.041Z</time>
      </trkpt>
      <trkpt lat="45.47919" lon="5.20278">
        <ele>528</ele>
        <time>2021-10-03T11:19:50.007Z</time>
      </trkpt>
      <trkpt lat="45.47923" lon="5.20285">
        <ele>528</ele>
        <time>2021-10-03T11:19:55.006Z</time>
      </trkpt>
      <trkpt lat="45.47924" lon="5.20296">
        <ele>529</ele>
        <time>2021-10-03T11:19:59.955Z</time>
      </trkpt>
      <trkpt lat="45.47925" lon="5.20304">
        <ele>529</ele>
        <time>2021-10-03T11:20:03.995Z</time>
      </trkpt>
      <trkpt lat="45.47926" lon="5.20311">
        <ele>529</ele>
        <time>2021-10-03T11:20:08.001Z</time>
      </trkpt>
      <trkpt lat="45.47927" lon="5.20321">
        <ele>530</ele>
        <time>2021-10-03T11:20:12.993Z</time>
      </trkpt>
      <trkpt lat="45.47927" lon="5.2033">
        <ele>530</ele>
        <time>2021-10-03T11:20:17.004Z</time>
      </trkpt>
      <trkpt lat="45.47931" lon="5.20342">
        <ele>527</ele>
        <time>2021-10-03T11:20:22.026Z</time>
      </trkpt>
      <trkpt lat="45.47932" lon="5.20355">
        <ele>529</ele>
        <time>2021-10-03T11:20:26.992Z</time>
      </trkpt>
      <trkpt lat="45.4793" lon="5.20362">
        <ele>530</ele>
        <time>2021-10-03T11:20:31.051Z</time>
      </trkpt>
      <trkpt lat="45.47933" lon="5.20374">
        <ele>529</ele>
        <time>2021-10-03T11:20:36.034Z</time>
      </trkpt>
      <trkpt lat="45.47937" lon="5.2039">
        <ele>530</ele>
        <time>2021-10-03T11:20:40.995Z</time>
      </trkpt>
      <trkpt lat="45.47939" lon="5.20408">
        <ele>530</ele>
        <time>2021-10-03T11:20:45.986Z</time>
      </trkpt>
      <trkpt lat="45.47941" lon="5.20431">
        <ele>530</ele>
        <time>2021-10-03T11:20:49.992Z</time>
      </trkpt>
      <trkpt lat="45.47944" lon="5.20458">
        <ele>530</ele>
        <time>2021-10-03T11:20:54.992Z</time>
      </trkpt>
      <trkpt lat="45.47946" lon="5.20469">
        <ele>530</ele>
        <time>2021-10-03T11:20:59.950Z</time>
      </trkpt>
      <trkpt lat="45.47947" lon="5.20478">
        <ele>530</ele>
        <time>2021-10-03T11:21:03.996Z</time>
      </trkpt>
      <trkpt lat="45.47948" lon="5.2049">
        <ele>530</ele>
        <time>2021-10-03T11:21:08.995Z</time>
      </trkpt>
      <trkpt lat="45.47948" lon="5.20501">
        <ele>530</ele>
        <time>2021-10-03T11:21:13.996Z</time>
      </trkpt>
      <trkpt lat="45.47948" lon="5.20511">
        <ele>530</ele>
        <time>2021-10-03T11:21:18.974Z</time>
      </trkpt>
      <trkpt lat="45.47949" lon="5.20519">
        <ele>530</ele>
        <time>2021-10-03T11:21:22.984Z</time>
      </trkpt>
      <trkpt lat="45.4795" lon="5.20528">
        <ele>530</ele>
        <time>2021-10-03T11:21:26.979Z</time>
      </trkpt>
      <trkpt lat="45.4795" lon="5.20539">
        <ele>530</ele>
        <time>2021-10-03T11:21:32.002Z</time>
      </trkpt>
      <trkpt lat="45.47953" lon="5.20549">
        <ele>530</ele>
        <time>2021-10-03T11:21:36.979Z</time>
      </trkpt>
      <trkpt lat="45.47954" lon="5.20559">
        <ele>530</ele>
        <time>2021-10-03T11:21:41.975Z</time>
      </trkpt>
      <trkpt lat="45.47956" lon="5.20566">
        <ele>530</ele>
        <time>2021-10-03T11:21:45.987Z</time>
      </trkpt>
      <trkpt lat="45.47958" lon="5.20573">
        <ele>530</ele>
        <time>2021-10-03T11:21:49.992Z</time>
      </trkpt>
      <trkpt lat="45.4796" lon="5.20583">
        <ele>531</ele>
        <time>2021-10-03T11:21:55.003Z</time>
      </trkpt>
      <trkpt lat="45.47962" lon="5.20593">
        <ele>531</ele>
        <time>2021-10-03T11:21:59.965Z</time>
      </trkpt>
      <trkpt lat="45.47963" lon="5.20602">
        <ele>532</ele>
        <time>2021-10-03T11:22:04.982Z</time>
      </trkpt>
      <trkpt lat="45.47966" lon="5.20611">
        <ele>532</ele>
        <time>2021-10-03T11:22:10.008Z</time>
      </trkpt>
      <trkpt lat="45.47968" lon="5.2062">
        <ele>532</ele>
        <time>2021-10-03T11:22:14.990Z</time>
      </trkpt>
      <trkpt lat="45.4797" lon="5.20629">
        <ele>533</ele>
        <time>2021-10-03T11:22:19.996Z</time>
      </trkpt>
      <trkpt lat="45.47972" lon="5.20642">
        <ele>533</ele>
        <time>2021-10-03T11:22:24.993Z</time>
      </trkpt>
      <trkpt lat="45.47975" lon="5.20653">
        <ele>533</ele>
        <time>2021-10-03T11:22:29.994Z</time>
      </trkpt>
      <trkpt lat="45.47978" lon="5.20663">
        <ele>533</ele>
        <time>2021-10-03T11:22:34.971Z</time>
      </trkpt>
      <trkpt lat="45.47981" lon="5.20677">
        <ele>533</ele>
        <time>2021-10-03T11:22:39.986Z</time>
      </trkpt>
      <trkpt lat="45.47988" lon="5.2069">
        <ele>532</ele>
        <time>2021-10-03T11:22:43.989Z</time>
      </trkpt>
      <trkpt lat="45.47998" lon="5.20706">
        <ele>532</ele>
        <time>2021-10-03T11:22:48.977Z</time>
      </trkpt>
      <trkpt lat="45.48005" lon="5.20713">
        <ele>533</ele>
        <time>2021-10-03T11:22:52.986Z</time>
      </trkpt>
      <trkpt lat="45.48014" lon="5.20719">
        <ele>531</ele>
        <time>2021-10-03T11:22:56.995Z</time>
      </trkpt>
      <trkpt lat="45.48022" lon="5.20725">
        <ele>531</ele>
        <time>2021-10-03T11:23:01.004Z</time>
      </trkpt>
      <trkpt lat="45.48032" lon="5.20732">
        <ele>531</ele>
        <time>2021-10-03T11:23:05.981Z</time>
      </trkpt>
      <trkpt lat="45.48041" lon="5.20745">
        <ele>532</ele>
        <time>2021-10-03T11:23:09.994Z</time>
      </trkpt>
      <trkpt lat="45.48046" lon="5.2076">
        <ele>531</ele>
        <time>2021-10-03T11:23:14.008Z</time>
      </trkpt>
      <trkpt lat="45.48054" lon="5.20774">
        <ele>532</ele>
        <time>2021-10-03T11:23:18.951Z</time>
      </trkpt>
      <trkpt lat="45.48062" lon="5.20785">
        <ele>532</ele>
        <time>2021-10-03T11:23:23Z</time>
      </trkpt>
      <trkpt lat="45.48067" lon="5.20794">
        <ele>532</ele>
        <time>2021-10-03T11:23:27.042Z</time>
      </trkpt>
      <trkpt lat="45.48075" lon="5.20805">
        <ele>533</ele>
        <time>2021-10-03T11:23:31.997Z</time>
      </trkpt>
      <trkpt lat="45.48083" lon="5.20815">
        <ele>533</ele>
        <time>2021-10-03T11:23:37.001Z</time>
      </trkpt>
      <trkpt lat="45.48091" lon="5.20828">
        <ele>535</ele>
        <time>2021-10-03T11:23:41.991Z</time>
      </trkpt>
      <trkpt lat="45.48095" lon="5.20838">
        <ele>535</ele>
        <time>2021-10-03T11:23:46Z</time>
      </trkpt>
      <trkpt lat="45.48098" lon="5.20848">
        <ele>535</ele>
        <time>2021-10-03T11:23:50.024Z</time>
      </trkpt>
      <trkpt lat="45.48102" lon="5.20858">
        <ele>535</ele>
        <time>2021-10-03T11:23:55.035Z</time>
      </trkpt>
      <trkpt lat="45.48105" lon="5.20868">
        <ele>535</ele>
        <time>2021-10-03T11:23:59.964Z</time>
      </trkpt>
      <trkpt lat="45.48105" lon="5.20877">
        <ele>534</ele>
        <time>2021-10-03T11:24:03.982Z</time>
      </trkpt>
      <trkpt lat="45.48107" lon="5.20885">
        <ele>534</ele>
        <time>2021-10-03T11:24:08.010Z</time>
      </trkpt>
      <trkpt lat="45.48109" lon="5.20895">
        <ele>534</ele>
        <time>2021-10-03T11:24:13.031Z</time>
      </trkpt>
      <trkpt lat="45.48112" lon="5.20905">
        <ele>533</ele>
        <time>2021-10-03T11:24:18.002Z</time>
      </trkpt>
      <trkpt lat="45.48112" lon="5.20914">
        <ele>533</ele>
        <time>2021-10-03T11:24:22.987Z</time>
      </trkpt>
      <trkpt lat="45.48112" lon="5.20921">
        <ele>533</ele>
        <time>2021-10-03T11:24:27.005Z</time>
      </trkpt>
      <trkpt lat="45.48112" lon="5.20928">
        <ele>533</ele>
        <time>2021-10-03T11:24:31.023Z</time>
      </trkpt>
      <trkpt lat="45.48112" lon="5.20938">
        <ele>532</ele>
        <time>2021-10-03T11:24:36.006Z</time>
      </trkpt>
      <trkpt lat="45.48115" lon="5.20948">
        <ele>532</ele>
        <time>2021-10-03T11:24:40.994Z</time>
      </trkpt>
      <trkpt lat="45.48113" lon="5.20956">
        <ele>532</ele>
        <time>2021-10-03T11:24:44.999Z</time>
      </trkpt>
      <trkpt lat="45.48113" lon="5.20966">
        <ele>531</ele>
        <time>2021-10-03T11:24:49.951Z</time>
      </trkpt>
      <trkpt lat="45.48114" lon="5.20974">
        <ele>531</ele>
        <time>2021-10-03T11:24:53.995Z</time>
      </trkpt>
      <trkpt lat="45.48114" lon="5.20983">
        <ele>531</ele>
        <time>2021-10-03T11:24:58.033Z</time>
      </trkpt>
      <trkpt lat="45.48116" lon="5.20994">
        <ele>530</ele>
        <time>2021-10-03T11:25:03.010Z</time>
      </trkpt>
      <trkpt lat="45.48117" lon="5.21004">
        <ele>530</ele>
        <time>2021-10-03T11:25:07.024Z</time>
      </trkpt>
      <trkpt lat="45.48116" lon="5.21012">
        <ele>530</ele>
        <time>2021-10-03T11:25:12.007Z</time>
      </trkpt>
      <trkpt lat="45.48116" lon="5.21024">
        <ele>528</ele>
        <time>2021-10-03T11:25:17.013Z</time>
      </trkpt>
      <trkpt lat="45.48116" lon="5.21036">
        <ele>528</ele>
        <time>2021-10-03T11:25:22.006Z</time>
      </trkpt>
      <trkpt lat="45.48117" lon="5.21046">
        <ele>528</ele>
        <time>2021-10-03T11:25:26.994Z</time>
      </trkpt>
      <trkpt lat="45.48118" lon="5.21054">
        <ele>528</ele>
        <time>2021-10-03T11:25:31.998Z</time>
      </trkpt>
      <trkpt lat="45.4812" lon="5.21064">
        <ele>528</ele>
        <time>2021-10-03T11:25:36.023Z</time>
      </trkpt>
      <trkpt lat="45.4812" lon="5.21074">
        <ele>526</ele>
        <time>2021-10-03T11:25:40.997Z</time>
      </trkpt>
      <trkpt lat="45.48121" lon="5.21083">
        <ele>526</ele>
        <time>2021-10-03T11:25:45.997Z</time>
      </trkpt>
      <trkpt lat="45.48121" lon="5.2109">
        <ele>526</ele>
        <time>2021-10-03T11:25:49.994Z</time>
      </trkpt>
      <trkpt lat="45.4812" lon="5.21093">
        <ele>526</ele>
        <time>2021-10-03T11:25:53.995Z</time>
      </trkpt>
      <trkpt lat="45.4812" lon="5.21095">
        <ele>526</ele>
        <time>2021-10-03T11:25:58.014Z</time>
      </trkpt>
      <trkpt lat="45.4812" lon="5.21104">
        <ele>524</ele>
        <time>2021-10-03T11:26:02.950Z</time>
      </trkpt>
      <trkpt lat="45.4812" lon="5.21116">
        <ele>524</ele>
        <time>2021-10-03T11:26:07Z</time>
      </trkpt>
      <trkpt lat="45.48122" lon="5.21123">
        <ele>524</ele>
        <time>2021-10-03T11:26:11.986Z</time>
      </trkpt>
      <trkpt lat="45.48122" lon="5.21132">
        <ele>519</ele>
        <time>2021-10-03T11:26:16.995Z</time>
      </trkpt>
      <trkpt lat="45.48119" lon="5.2114">
        <ele>519</ele>
        <time>2021-10-03T11:26:21.949Z</time>
      </trkpt>
      <trkpt lat="45.48119" lon="5.21144">
        <ele>519</ele>
        <time>2021-10-03T11:26:25.998Z</time>
      </trkpt>
      <trkpt lat="45.48118" lon="5.2115">
        <ele>519</ele>
        <time>2021-10-03T11:26:30.995Z</time>
      </trkpt>
      <trkpt lat="45.48118" lon="5.21155">
        <ele>514</ele>
        <time>2021-10-03T11:26:35.019Z</time>
      </trkpt>
      <trkpt lat="45.48116" lon="5.21165">
        <ele>514</ele>
        <time>2021-10-03T11:26:39.991Z</time>
      </trkpt>
      <trkpt lat="45.48115" lon="5.21172">
        <ele>514</ele>
        <time>2021-10-03T11:26:44.992Z</time>
      </trkpt>
      <trkpt lat="45.48113" lon="5.21181">
        <ele>506</ele>
        <time>2021-10-03T11:26:49.998Z</time>
      </trkpt>
      <trkpt lat="45.48112" lon="5.21188">
        <ele>506</ele>
        <time>2021-10-03T11:26:54.003Z</time>
      </trkpt>
      <trkpt lat="45.4811" lon="5.21196">
        <ele>506</ele>
        <time>2021-10-03T11:26:58.987Z</time>
      </trkpt>
      <trkpt lat="45.48108" lon="5.21203">
        <ele>506</ele>
        <time>2021-10-03T11:27:02.989Z</time>
      </trkpt>
      <trkpt lat="45.48107" lon="5.21209">
        <ele>499</ele>
        <time>2021-10-03T11:27:07.001Z</time>
      </trkpt>
      <trkpt lat="45.48107" lon="5.21219">
        <ele>499</ele>
        <time>2021-10-03T11:27:11.984Z</time>
      </trkpt>
      <trkpt lat="45.48106" lon="5.21228">
        <ele>499</ele>
        <time>2021-10-03T11:27:16.978Z</time>
      </trkpt>
      <trkpt lat="45.48104" lon="5.21235">
        <ele>499</ele>
        <time>2021-10-03T11:27:21.032Z</time>
      </trkpt>
      <trkpt lat="45.48102" lon="5.21245">
        <ele>491</ele>
        <time>2021-10-03T11:27:25.999Z</time>
      </trkpt>
      <trkpt lat="45.48099" lon="5.21254">
        <ele>491</ele>
        <time>2021-10-03T11:27:30.987Z</time>
      </trkpt>
      <trkpt lat="45.48098" lon="5.2126">
        <ele>491</ele>
        <time>2021-10-03T11:27:35.003Z</time>
      </trkpt>
      <trkpt lat="45.48097" lon="5.21266">
        <ele>489</ele>
        <time>2021-10-03T11:27:39.035Z</time>
      </trkpt>
      <trkpt lat="45.48097" lon="5.21275">
        <ele>489</ele>
        <time>2021-10-03T11:27:44.005Z</time>
      </trkpt>
      <trkpt lat="45.48096" lon="5.21284">
        <ele>489</ele>
        <time>2021-10-03T11:27:48.953Z</time>
      </trkpt>
      <trkpt lat="45.48097" lon="5.21292">
        <ele>488</ele>
        <time>2021-10-03T11:27:52.977Z</time>
      </trkpt>
      <trkpt lat="45.48098" lon="5.21301">
        <ele>482</ele>
        <time>2021-10-03T11:27:57.985Z</time>
      </trkpt>
      <trkpt lat="45.48099" lon="5.2131">
        <ele>482</ele>
        <time>2021-10-03T11:28:02.950Z</time>
      </trkpt>
      <trkpt lat="45.48101" lon="5.21316">
        <ele>482</ele>
        <time>2021-10-03T11:28:06.988Z</time>
      </trkpt>
      <trkpt lat="45.48105" lon="5.2132">
        <ele>482</ele>
        <time>2021-10-03T11:28:11.004Z</time>
      </trkpt>
      <trkpt lat="45.48112" lon="5.21319">
        <ele>482</ele>
        <time>2021-10-03T11:28:15.995Z</time>
      </trkpt>
      <trkpt lat="45.48118" lon="5.21321">
        <ele>482</ele>
        <time>2021-10-03T11:28:20.980Z</time>
      </trkpt>
      <trkpt lat="45.48122" lon="5.21325">
        <ele>482</ele>
        <time>2021-10-03T11:28:24.998Z</time>
      </trkpt>
      <trkpt lat="45.48128" lon="5.2133">
        <ele>478</ele>
        <time>2021-10-03T11:28:29.006Z</time>
      </trkpt>
      <trkpt lat="45.48135" lon="5.21334">
        <ele>478</ele>
        <time>2021-10-03T11:28:33.988Z</time>
      </trkpt>
      <trkpt lat="45.4814" lon="5.21338">
        <ele>478</ele>
        <time>2021-10-03T11:28:37.998Z</time>
      </trkpt>
      <trkpt lat="45.48144" lon="5.21342">
        <ele>478</ele>
        <time>2021-10-03T11:28:42.025Z</time>
      </trkpt>
      <trkpt lat="45.48149" lon="5.21349">
        <ele>478</ele>
        <time>2021-10-03T11:28:46.996Z</time>
      </trkpt>
      <trkpt lat="45.48155" lon="5.21352">
        <ele>474</ele>
        <time>2021-10-03T11:28:51.947Z</time>
      </trkpt>
      <trkpt lat="45.4816" lon="5.21355">
        <ele>474</ele>
        <time>2021-10-03T11:28:55.950Z</time>
      </trkpt>
      <trkpt lat="45.48165" lon="5.21357">
        <ele>474</ele>
        <time>2021-10-03T11:28:59.977Z</time>
      </trkpt>
      <trkpt lat="45.48172" lon="5.21365">
        <ele>474</ele>
        <time>2021-10-03T11:29:04.978Z</time>
      </trkpt>
      <trkpt lat="45.48177" lon="5.21371">
        <ele>474</ele>
        <time>2021-10-03T11:29:09.966Z</time>
      </trkpt>
      <trkpt lat="45.48181" lon="5.21376">
        <ele>473</ele>
        <time>2021-10-03T11:29:13.979Z</time>
      </trkpt>
      <trkpt lat="45.48185" lon="5.2138">
        <ele>473</ele>
        <time>2021-10-03T11:29:17.989Z</time>
      </trkpt>
      <trkpt lat="45.48191" lon="5.21387">
        <ele>473</ele>
        <time>2021-10-03T11:29:22.975Z</time>
      </trkpt>
      <trkpt lat="45.48195" lon="5.21396">
        <ele>473</ele>
        <time>2021-10-03T11:29:26.990Z</time>
      </trkpt>
      <trkpt lat="45.48198" lon="5.21399">
        <ele>473</ele>
        <time>2021-10-03T11:29:30.988Z</time>
      </trkpt>
      <trkpt lat="45.48203" lon="5.21405">
        <ele>472</ele>
        <time>2021-10-03T11:29:36.004Z</time>
      </trkpt>
      <trkpt lat="45.48206" lon="5.2141">
        <ele>472</ele>
        <time>2021-10-03T11:29:40.004Z</time>
      </trkpt>
      <trkpt lat="45.4821" lon="5.21417">
        <ele>474</ele>
        <time>2021-10-03T11:29:45.009Z</time>
      </trkpt>
      <trkpt lat="45.48213" lon="5.21424">
        <ele>474</ele>
        <time>2021-10-03T11:29:50.002Z</time>
      </trkpt>
      <trkpt lat="45.48217" lon="5.2143">
        <ele>474</ele>
        <time>2021-10-03T11:29:54Z</time>
      </trkpt>
      <trkpt lat="45.48219" lon="5.21443">
        <ele>474</ele>
        <time>2021-10-03T11:29:58.997Z</time>
      </trkpt>
      <trkpt lat="45.48223" lon="5.21451">
        <ele>474</ele>
        <time>2021-10-03T11:30:04.041Z</time>
      </trkpt>
      <trkpt lat="45.48226" lon="5.2146">
        <ele>475</ele>
        <time>2021-10-03T11:30:08.956Z</time>
      </trkpt>
      <trkpt lat="45.48229" lon="5.21468">
        <ele>475</ele>
        <time>2021-10-03T11:30:12.989Z</time>
      </trkpt>
      <trkpt lat="45.48231" lon="5.21478">
        <ele>475</ele>
        <time>2021-10-03T11:30:17.948Z</time>
      </trkpt>
      <trkpt lat="45.48233" lon="5.21486">
        <ele>475</ele>
        <time>2021-10-03T11:30:21.985Z</time>
      </trkpt>
      <trkpt lat="45.48235" lon="5.21495">
        <ele>476</ele>
        <time>2021-10-03T11:30:26.989Z</time>
      </trkpt>
      <trkpt lat="45.48236" lon="5.21505">
        <ele>476</ele>
        <time>2021-10-03T11:30:31.993Z</time>
      </trkpt>
      <trkpt lat="45.48238" lon="5.21516">
        <ele>478</ele>
        <time>2021-10-03T11:30:36.987Z</time>
      </trkpt>
      <trkpt lat="45.48238" lon="5.21524">
        <ele>478</ele>
        <time>2021-10-03T11:30:41.014Z</time>
      </trkpt>
      <trkpt lat="45.48239" lon="5.21535">
        <ele>478</ele>
        <time>2021-10-03T11:30:46.003Z</time>
      </trkpt>
      <trkpt lat="45.48239" lon="5.21545">
        <ele>477</ele>
        <time>2021-10-03T11:30:50.988Z</time>
      </trkpt>
      <trkpt lat="45.48238" lon="5.21554">
        <ele>477</ele>
        <time>2021-10-03T11:30:56.020Z</time>
      </trkpt>
      <trkpt lat="45.48238" lon="5.21563">
        <ele>477</ele>
        <time>2021-10-03T11:31:00.990Z</time>
      </trkpt>
      <trkpt lat="45.48239" lon="5.2157">
        <ele>477</ele>
        <time>2021-10-03T11:31:05.019Z</time>
      </trkpt>
      <trkpt lat="45.48242" lon="5.21581">
        <ele>477</ele>
        <time>2021-10-03T11:31:10.005Z</time>
      </trkpt>
      <trkpt lat="45.48247" lon="5.2159">
        <ele>477</ele>
        <time>2021-10-03T11:31:14.988Z</time>
      </trkpt>
      <trkpt lat="45.48249" lon="5.21597">
        <ele>476</ele>
        <time>2021-10-03T11:31:18.999Z</time>
      </trkpt>
      <trkpt lat="45.4825" lon="5.21607">
        <ele>476</ele>
        <time>2021-10-03T11:31:23.989Z</time>
      </trkpt>
      <trkpt lat="45.48251" lon="5.21616">
        <ele>476</ele>
        <time>2021-10-03T11:31:29Z</time>
      </trkpt>
      <trkpt lat="45.48252" lon="5.21625">
        <ele>476</ele>
        <time>2021-10-03T11:31:34.003Z</time>
      </trkpt>
      <trkpt lat="45.48253" lon="5.21634">
        <ele>476</ele>
        <time>2021-10-03T11:31:38.033Z</time>
      </trkpt>
      <trkpt lat="45.48253" lon="5.21644">
        <ele>476</ele>
        <time>2021-10-03T11:31:42.988Z</time>
      </trkpt>
      <trkpt lat="45.48254" lon="5.21654">
        <ele>477</ele>
        <time>2021-10-03T11:31:47Z</time>
      </trkpt>
      <trkpt lat="45.48255" lon="5.21665">
        <ele>477</ele>
        <time>2021-10-03T11:31:51.952Z</time>
      </trkpt>
      <trkpt lat="45.48257" lon="5.21673">
        <ele>477</ele>
        <time>2021-10-03T11:31:55.998Z</time>
      </trkpt>
      <trkpt lat="45.48257" lon="5.21684">
        <ele>478</ele>
        <time>2021-10-03T11:32:01.013Z</time>
      </trkpt>
      <trkpt lat="45.48257" lon="5.21697">
        <ele>478</ele>
        <time>2021-10-03T11:32:06Z</time>
      </trkpt>
      <trkpt lat="45.48259" lon="5.21708">
        <ele>478</ele>
        <time>2021-10-03T11:32:10.956Z</time>
      </trkpt>
      <trkpt lat="45.4826" lon="5.21715">
        <ele>479</ele>
        <time>2021-10-03T11:32:14.985Z</time>
      </trkpt>
      <trkpt lat="45.48263" lon="5.21721">
        <ele>479</ele>
        <time>2021-10-03T11:32:19.011Z</time>
      </trkpt>
      <trkpt lat="45.4827" lon="5.21727">
        <ele>479</ele>
        <time>2021-10-03T11:32:24.005Z</time>
      </trkpt>
      <trkpt lat="45.48277" lon="5.21727">
        <ele>479</ele>
        <time>2021-10-03T11:32:28.995Z</time>
      </trkpt>
      <trkpt lat="45.48283" lon="5.21721">
        <ele>479</ele>
        <time>2021-10-03T11:32:33.995Z</time>
      </trkpt>
      <trkpt lat="45.48288" lon="5.21713">
        <ele>479</ele>
        <time>2021-10-03T11:32:38.999Z</time>
      </trkpt>
      <trkpt lat="45.48293" lon="5.21705">
        <ele>479</ele>
        <time>2021-10-03T11:32:43.982Z</time>
      </trkpt>
      <trkpt lat="45.48297" lon="5.21698">
        <ele>479</ele>
        <time>2021-10-03T11:32:47.992Z</time>
      </trkpt>
      <trkpt lat="45.48302" lon="5.21691">
        <ele>479</ele>
        <time>2021-10-03T11:32:52.970Z</time>
      </trkpt>
      <trkpt lat="45.48308" lon="5.21684">
        <ele>479</ele>
        <time>2021-10-03T11:32:57.960Z</time>
      </trkpt>
      <trkpt lat="45.48314" lon="5.21676">
        <ele>479</ele>
        <time>2021-10-03T11:33:02.959Z</time>
      </trkpt>
      <trkpt lat="45.48319" lon="5.2167">
        <ele>479</ele>
        <time>2021-10-03T11:33:07.951Z</time>
      </trkpt>
      <trkpt lat="45.48323" lon="5.21665">
        <ele>481</ele>
        <time>2021-10-03T11:33:11.990Z</time>
      </trkpt>
      <trkpt lat="45.48329" lon="5.21658">
        <ele>481</ele>
        <time>2021-10-03T11:33:16.985Z</time>
      </trkpt>
      <trkpt lat="45.48335" lon="5.21651">
        <ele>482</ele>
        <time>2021-10-03T11:33:21.957Z</time>
      </trkpt>
      <trkpt lat="45.4834" lon="5.21646">
        <ele>482</ele>
        <time>2021-10-03T11:33:25.985Z</time>
      </trkpt>
      <trkpt lat="45.48347" lon="5.2164">
        <ele>482</ele>
        <time>2021-10-03T11:33:30.989Z</time>
      </trkpt>
      <trkpt lat="45.48353" lon="5.21633">
        <ele>483</ele>
        <time>2021-10-03T11:33:35.977Z</time>
      </trkpt>
      <trkpt lat="45.48359" lon="5.21628">
        <ele>483</ele>
        <time>2021-10-03T11:33:41.019Z</time>
      </trkpt>
      <trkpt lat="45.48366" lon="5.21622">
        <ele>483</ele>
        <time>2021-10-03T11:33:45.962Z</time>
      </trkpt>
      <trkpt lat="45.48372" lon="5.21618">
        <ele>483</ele>
        <time>2021-10-03T11:33:49.995Z</time>
      </trkpt>
      <trkpt lat="45.48378" lon="5.21612">
        <ele>483</ele>
        <time>2021-10-03T11:33:54.994Z</time>
      </trkpt>
      <trkpt lat="45.48385" lon="5.21607">
        <ele>483</ele>
        <time>2021-10-03T11:33:59.991Z</time>
      </trkpt>
      <trkpt lat="45.48391" lon="5.21603">
        <ele>483</ele>
        <time>2021-10-03T11:34:05Z</time>
      </trkpt>
      <trkpt lat="45.48397" lon="5.21599">
        <ele>483</ele>
        <time>2021-10-03T11:34:09.955Z</time>
      </trkpt>
      <trkpt lat="45.48403" lon="5.21592">
        <ele>482</ele>
        <time>2021-10-03T11:34:14.948Z</time>
      </trkpt>
      <trkpt lat="45.48411" lon="5.21586">
        <ele>482</ele>
        <time>2021-10-03T11:34:19.947Z</time>
      </trkpt>
      <trkpt lat="45.48418" lon="5.2158">
        <ele>482</ele>
        <time>2021-10-03T11:34:24.953Z</time>
      </trkpt>
      <trkpt lat="45.48423" lon="5.21576">
        <ele>482</ele>
        <time>2021-10-03T11:34:28.959Z</time>
      </trkpt>
      <trkpt lat="45.48429" lon="5.2157">
        <ele>482</ele>
        <time>2021-10-03T11:34:33.954Z</time>
      </trkpt>
      <trkpt lat="45.48435" lon="5.21563">
        <ele>483</ele>
        <time>2021-10-03T11:34:38.957Z</time>
      </trkpt>
      <trkpt lat="45.4844" lon="5.21558">
        <ele>483</ele>
        <time>2021-10-03T11:34:42.975Z</time>
      </trkpt>
      <trkpt lat="45.48445" lon="5.21553">
        <ele>483</ele>
        <time>2021-10-03T11:34:47.959Z</time>
      </trkpt>
      <trkpt lat="45.48447" lon="5.21548">
        <ele>483</ele>
        <time>2021-10-03T11:34:52.956Z</time>
      </trkpt>
      <trkpt lat="45.48451" lon="5.21542">
        <ele>483</ele>
        <time>2021-10-03T11:34:57.953Z</time>
      </trkpt>
      <trkpt lat="45.48455" lon="5.21537">
        <ele>483</ele>
        <time>2021-10-03T11:35:01.981Z</time>
      </trkpt>
      <trkpt lat="45.48458" lon="5.21532">
        <ele>483</ele>
        <time>2021-10-03T11:35:05.999Z</time>
      </trkpt>
      <trkpt lat="45.48463" lon="5.21528">
        <ele>483</ele>
        <time>2021-10-03T11:35:10.992Z</time>
      </trkpt>
      <trkpt lat="45.48468" lon="5.21524">
        <ele>483</ele>
        <time>2021-10-03T11:35:15.994Z</time>
      </trkpt>
      <trkpt lat="45.48472" lon="5.21521">
        <ele>483</ele>
        <time>2021-10-03T11:35:21.001Z</time>
      </trkpt>
      <trkpt lat="45.48477" lon="5.21516">
        <ele>483</ele>
        <time>2021-10-03T11:35:25.995Z</time>
      </trkpt>
      <trkpt lat="45.48482" lon="5.2151">
        <ele>484</ele>
        <time>2021-10-03T11:35:30.030Z</time>
      </trkpt>
      <trkpt lat="45.48489" lon="5.21503">
        <ele>482</ele>
        <time>2021-10-03T11:35:34.990Z</time>
      </trkpt>
      <trkpt lat="45.48494" lon="5.21498">
        <ele>482</ele>
        <time>2021-10-03T11:35:38.995Z</time>
      </trkpt>
      <trkpt lat="45.485" lon="5.2149">
        <ele>482</ele>
        <time>2021-10-03T11:35:43.989Z</time>
      </trkpt>
      <trkpt lat="45.48504" lon="5.21483">
        <ele>482</ele>
        <time>2021-10-03T11:35:48.986Z</time>
      </trkpt>
      <trkpt lat="45.48509" lon="5.21477">
        <ele>482</ele>
        <time>2021-10-03T11:35:53.002Z</time>
      </trkpt>
      <trkpt lat="45.48513" lon="5.2147">
        <ele>482</ele>
        <time>2021-10-03T11:35:57.980Z</time>
      </trkpt>
      <trkpt lat="45.48517" lon="5.21462">
        <ele>480</ele>
        <time>2021-10-03T11:36:02.962Z</time>
      </trkpt>
      <trkpt lat="45.48521" lon="5.21456">
        <ele>480</ele>
        <time>2021-10-03T11:36:06.991Z</time>
      </trkpt>
      <trkpt lat="45.48525" lon="5.21447">
        <ele>480</ele>
        <time>2021-10-03T11:36:10.994Z</time>
      </trkpt>
      <trkpt lat="45.48529" lon="5.21438">
        <ele>480</ele>
        <time>2021-10-03T11:36:15.994Z</time>
      </trkpt>
      <trkpt lat="45.48531" lon="5.21432">
        <ele>480</ele>
        <time>2021-10-03T11:36:20.959Z</time>
      </trkpt>
      <trkpt lat="45.48534" lon="5.21426">
        <ele>479</ele>
        <time>2021-10-03T11:36:24.984Z</time>
      </trkpt>
      <trkpt lat="45.48536" lon="5.21419">
        <ele>479</ele>
        <time>2021-10-03T11:36:28.996Z</time>
      </trkpt>
      <trkpt lat="45.48538" lon="5.21412">
        <ele>479</ele>
        <time>2021-10-03T11:36:33.990Z</time>
      </trkpt>
      <trkpt lat="45.48541" lon="5.21406">
        <ele>479</ele>
        <time>2021-10-03T11:36:38.052Z</time>
      </trkpt>
      <trkpt lat="45.48544" lon="5.21395">
        <ele>471</ele>
        <time>2021-10-03T11:36:42.992Z</time>
      </trkpt>
      <trkpt lat="45.48548" lon="5.21386">
        <ele>471</ele>
        <time>2021-10-03T11:36:47.985Z</time>
      </trkpt>
      <trkpt lat="45.48549" lon="5.21377">
        <ele>471</ele>
        <time>2021-10-03T11:36:51.998Z</time>
      </trkpt>
      <trkpt lat="45.48549" lon="5.2137">
        <ele>472</ele>
        <time>2021-10-03T11:36:56.043Z</time>
      </trkpt>
      <trkpt lat="45.4855" lon="5.21359">
        <ele>472</ele>
        <time>2021-10-03T11:37:00.993Z</time>
      </trkpt>
      <trkpt lat="45.48551" lon="5.21351">
        <ele>472</ele>
        <time>2021-10-03T11:37:04.998Z</time>
      </trkpt>
      <trkpt lat="45.48552" lon="5.21341">
        <ele>470</ele>
        <time>2021-10-03T11:37:09.995Z</time>
      </trkpt>
      <trkpt lat="45.48553" lon="5.2133">
        <ele>470</ele>
        <time>2021-10-03T11:37:14.955Z</time>
      </trkpt>
      <trkpt lat="45.48554" lon="5.21323">
        <ele>470</ele>
        <time>2021-10-03T11:37:18.980Z</time>
      </trkpt>
      <trkpt lat="45.48556" lon="5.21312">
        <ele>469</ele>
        <time>2021-10-03T11:37:23.999Z</time>
      </trkpt>
      <trkpt lat="45.48557" lon="5.21302">
        <ele>469</ele>
        <time>2021-10-03T11:37:28.994Z</time>
      </trkpt>
      <trkpt lat="45.48559" lon="5.21292">
        <ele>469</ele>
        <time>2021-10-03T11:37:32.998Z</time>
      </trkpt>
      <trkpt lat="45.48563" lon="5.21281">
        <ele>467</ele>
        <time>2021-10-03T11:37:37.994Z</time>
      </trkpt>
      <trkpt lat="45.48564" lon="5.21276">
        <ele>467</ele>
        <time>2021-10-03T11:37:42Z</time>
      </trkpt>
      <trkpt lat="45.48566" lon="5.21269">
        <ele>467</ele>
        <time>2021-10-03T11:37:46.965Z</time>
      </trkpt>
      <trkpt lat="45.48569" lon="5.21264">
        <ele>467</ele>
        <time>2021-10-03T11:37:50.981Z</time>
      </trkpt>
      <trkpt lat="45.48575" lon="5.21259">
        <ele>465</ele>
        <time>2021-10-03T11:37:55.973Z</time>
      </trkpt>
      <trkpt lat="45.4858" lon="5.21255">
        <ele>465</ele>
        <time>2021-10-03T11:38:00.973Z</time>
      </trkpt>
      <trkpt lat="45.48583" lon="5.21253">
        <ele>465</ele>
        <time>2021-10-03T11:38:04.990Z</time>
      </trkpt>
      <trkpt lat="45.48588" lon="5.21252">
        <ele>465</ele>
        <time>2021-10-03T11:38:09.005Z</time>
      </trkpt>
      <trkpt lat="45.48594" lon="5.21251">
        <ele>465</ele>
        <time>2021-10-03T11:38:13.996Z</time>
      </trkpt>
      <trkpt lat="45.486" lon="5.2125">
        <ele>465</ele>
        <time>2021-10-03T11:38:18.953Z</time>
      </trkpt>
      <trkpt lat="45.48605" lon="5.21249">
        <ele>465</ele>
        <time>2021-10-03T11:38:23.020Z</time>
      </trkpt>
      <trkpt lat="45.48613" lon="5.21248">
        <ele>465</ele>
        <time>2021-10-03T11:38:27.991Z</time>
      </trkpt>
      <trkpt lat="45.48619" lon="5.21245">
        <ele>465</ele>
        <time>2021-10-03T11:38:32.991Z</time>
      </trkpt>
      <trkpt lat="45.48626" lon="5.21243">
        <ele>464</ele>
        <time>2021-10-03T11:38:38.001Z</time>
      </trkpt>
      <trkpt lat="45.48633" lon="5.21242">
        <ele>464</ele>
        <time>2021-10-03T11:38:42.004Z</time>
      </trkpt>
      <trkpt lat="45.48639" lon="5.2124">
        <ele>464</ele>
        <time>2021-10-03T11:38:46.027Z</time>
      </trkpt>
      <trkpt lat="45.48646" lon="5.21239">
        <ele>464</ele>
        <time>2021-10-03T11:38:50.990Z</time>
      </trkpt>
      <trkpt lat="45.48654" lon="5.21239">
        <ele>465</ele>
        <time>2021-10-03T11:38:55.972Z</time>
      </trkpt>
      <trkpt lat="45.4866" lon="5.2124">
        <ele>465</ele>
        <time>2021-10-03T11:38:59.983Z</time>
      </trkpt>
      <trkpt lat="45.48668" lon="5.21239">
        <ele>465</ele>
        <time>2021-10-03T11:39:04.972Z</time>
      </trkpt>
      <trkpt lat="45.48673" lon="5.21239">
        <ele>465</ele>
        <time>2021-10-03T11:39:09.015Z</time>
      </trkpt>
      <trkpt lat="45.48678" lon="5.2124">
        <ele>465</ele>
        <time>2021-10-03T11:39:14.027Z</time>
      </trkpt>
      <trkpt lat="45.48684" lon="5.21243">
        <ele>468</ele>
        <time>2021-10-03T11:39:18.989Z</time>
      </trkpt>
      <trkpt lat="45.4869" lon="5.21244">
        <ele>468</ele>
        <time>2021-10-03T11:39:24.021Z</time>
      </trkpt>
      <trkpt lat="45.48696" lon="5.21246">
        <ele>468</ele>
        <time>2021-10-03T11:39:28.989Z</time>
      </trkpt>
      <trkpt lat="45.48702" lon="5.21249">
        <ele>468</ele>
        <time>2021-10-03T11:39:32.994Z</time>
      </trkpt>
      <trkpt lat="45.48707" lon="5.21252">
        <ele>468</ele>
        <time>2021-10-03T11:39:36.999Z</time>
      </trkpt>
      <trkpt lat="45.48714" lon="5.21254">
        <ele>469</ele>
        <time>2021-10-03T11:39:41.990Z</time>
      </trkpt>
      <trkpt lat="45.48721" lon="5.21257">
        <ele>469</ele>
        <time>2021-10-03T11:39:47.004Z</time>
      </trkpt>
      <trkpt lat="45.48727" lon="5.2126">
        <ele>469</ele>
        <time>2021-10-03T11:39:51.992Z</time>
      </trkpt>
      <trkpt lat="45.48734" lon="5.21261">
        <ele>469</ele>
        <time>2021-10-03T11:39:56.994Z</time>
      </trkpt>
      <trkpt lat="45.48741" lon="5.21263">
        <ele>469</ele>
        <time>2021-10-03T11:40:01.994Z</time>
      </trkpt>
      <trkpt lat="45.48748" lon="5.21265">
        <ele>470</ele>
        <time>2021-10-03T11:40:06.993Z</time>
      </trkpt>
      <trkpt lat="45.48756" lon="5.21268">
        <ele>470</ele>
        <time>2021-10-03T11:40:11.986Z</time>
      </trkpt>
      <trkpt lat="45.48761" lon="5.21271">
        <ele>470</ele>
        <time>2021-10-03T11:40:15.995Z</time>
      </trkpt>
      <trkpt lat="45.48768" lon="5.21274">
        <ele>471</ele>
        <time>2021-10-03T11:40:20.950Z</time>
      </trkpt>
      <trkpt lat="45.48773" lon="5.21277">
        <ele>471</ele>
        <time>2021-10-03T11:40:24.984Z</time>
      </trkpt>
      <trkpt lat="45.4878" lon="5.21282">
        <ele>471</ele>
        <time>2021-10-03T11:40:29.982Z</time>
      </trkpt>
      <trkpt lat="45.48785" lon="5.21285">
        <ele>471</ele>
        <time>2021-10-03T11:40:33.996Z</time>
      </trkpt>
      <trkpt lat="45.48791" lon="5.21286">
        <ele>471</ele>
        <time>2021-10-03T11:40:38.006Z</time>
      </trkpt>
      <trkpt lat="45.48798" lon="5.21288">
        <ele>473</ele>
        <time>2021-10-03T11:40:42.989Z</time>
      </trkpt>
      <trkpt lat="45.48805" lon="5.21291">
        <ele>473</ele>
        <time>2021-10-03T11:40:47.992Z</time>
      </trkpt>
      <trkpt lat="45.48813" lon="5.21292">
        <ele>473</ele>
        <time>2021-10-03T11:40:52.999Z</time>
      </trkpt>
      <trkpt lat="45.4882" lon="5.21294">
        <ele>474</ele>
        <time>2021-10-03T11:40:57.969Z</time>
      </trkpt>
      <trkpt lat="45.48825" lon="5.21296">
        <ele>474</ele>
        <time>2021-10-03T11:41:01.973Z</time>
      </trkpt>
      <trkpt lat="45.48831" lon="5.21297">
        <ele>474</ele>
        <time>2021-10-03T11:41:05.970Z</time>
      </trkpt>
      <trkpt lat="45.48837" lon="5.213">
        <ele>474</ele>
        <time>2021-10-03T11:41:10.974Z</time>
      </trkpt>
      <trkpt lat="45.48844" lon="5.21302">
        <ele>474</ele>
        <time>2021-10-03T11:41:15.999Z</time>
      </trkpt>
      <trkpt lat="45.48849" lon="5.21304">
        <ele>474</ele>
        <time>2021-10-03T11:41:20.012Z</time>
      </trkpt>
      <trkpt lat="45.48856" lon="5.2131">
        <ele>474</ele>
        <time>2021-10-03T11:41:24.996Z</time>
      </trkpt>
      <trkpt lat="45.48862" lon="5.21315">
        <ele>474</ele>
        <time>2021-10-03T11:41:29.031Z</time>
      </trkpt>
      <trkpt lat="45.48869" lon="5.21322">
        <ele>474</ele>
        <time>2021-10-03T11:41:34.004Z</time>
      </trkpt>
      <trkpt lat="45.48876" lon="5.21328">
        <ele>474</ele>
        <time>2021-10-03T11:41:38.993Z</time>
      </trkpt>
      <trkpt lat="45.48881" lon="5.21333">
        <ele>474</ele>
        <time>2021-10-03T11:41:42.999Z</time>
      </trkpt>
      <trkpt lat="45.48887" lon="5.21339">
        <ele>474</ele>
        <time>2021-10-03T11:41:48.027Z</time>
      </trkpt>
      <trkpt lat="45.48894" lon="5.21346">
        <ele>474</ele>
        <time>2021-10-03T11:41:52.985Z</time>
      </trkpt>
      <trkpt lat="45.48901" lon="5.21352">
        <ele>473</ele>
        <time>2021-10-03T11:41:58.021Z</time>
      </trkpt>
      <trkpt lat="45.48907" lon="5.21357">
        <ele>475</ele>
        <time>2021-10-03T11:42:02.989Z</time>
      </trkpt>
      <trkpt lat="45.48914" lon="5.21362">
        <ele>475</ele>
        <time>2021-10-03T11:42:06.994Z</time>
      </trkpt>
      <trkpt lat="45.48917" lon="5.21365">
        <ele>475</ele>
        <time>2021-10-03T11:42:11.032Z</time>
      </trkpt>
      <trkpt lat="45.48923" lon="5.21369">
        <ele>475</ele>
        <time>2021-10-03T11:42:15.952Z</time>
      </trkpt>
      <trkpt lat="45.48927" lon="5.21373">
        <ele>475</ele>
        <time>2021-10-03T11:42:19.952Z</time>
      </trkpt>
      <trkpt lat="45.48932" lon="5.21377">
        <ele>476</ele>
        <time>2021-10-03T11:42:23.957Z</time>
      </trkpt>
      <trkpt lat="45.48936" lon="5.21379">
        <ele>476</ele>
        <time>2021-10-03T11:42:27.986Z</time>
      </trkpt>
      <trkpt lat="45.48942" lon="5.21384">
        <ele>476</ele>
        <time>2021-10-03T11:42:33.026Z</time>
      </trkpt>
      <trkpt lat="45.48949" lon="5.2139">
        <ele>476</ele>
        <time>2021-10-03T11:42:37.983Z</time>
      </trkpt>
      <trkpt lat="45.48954" lon="5.21394">
        <ele>476</ele>
        <time>2021-10-03T11:42:43.003Z</time>
      </trkpt>
      <trkpt lat="45.48959" lon="5.21398">
        <ele>475</ele>
        <time>2021-10-03T11:42:48.008Z</time>
      </trkpt>
      <trkpt lat="45.48965" lon="5.21402">
        <ele>475</ele>
        <time>2021-10-03T11:42:53.003Z</time>
      </trkpt>
      <trkpt lat="45.48971" lon="5.21406">
        <ele>476</ele>
        <time>2021-10-03T11:42:57.991Z</time>
      </trkpt>
      <trkpt lat="45.48976" lon="5.21411">
        <ele>476</ele>
        <time>2021-10-03T11:43:02.994Z</time>
      </trkpt>
      <trkpt lat="45.48981" lon="5.21414">
        <ele>476</ele>
        <time>2021-10-03T11:43:06.999Z</time>
      </trkpt>
      <trkpt lat="45.48986" lon="5.21417">
        <ele>476</ele>
        <time>2021-10-03T11:43:11.976Z</time>
      </trkpt>
      <trkpt lat="45.48991" lon="5.21421">
        <ele>476</ele>
        <time>2021-10-03T11:43:15.992Z</time>
      </trkpt>
      <trkpt lat="45.48998" lon="5.21423">
        <ele>476</ele>
        <time>2021-10-03T11:43:20.973Z</time>
      </trkpt>
      <trkpt lat="45.49003" lon="5.21424">
        <ele>476</ele>
        <time>2021-10-03T11:43:24.991Z</time>
      </trkpt>
      <trkpt lat="45.49009" lon="5.21428">
        <ele>476</ele>
        <time>2021-10-03T11:43:28.996Z</time>
      </trkpt>
      <trkpt lat="45.49016" lon="5.21431">
        <ele>477</ele>
        <time>2021-10-03T11:43:33.985Z</time>
      </trkpt>
      <trkpt lat="45.49021" lon="5.21431">
        <ele>477</ele>
        <time>2021-10-03T11:43:37.994Z</time>
      </trkpt>
      <trkpt lat="45.49025" lon="5.21428">
        <ele>476</ele>
        <time>2021-10-03T11:43:42.002Z</time>
      </trkpt>
      <trkpt lat="45.49028" lon="5.21419">
        <ele>476</ele>
        <time>2021-10-03T11:43:46.991Z</time>
      </trkpt>
      <trkpt lat="45.49029" lon="5.21411">
        <ele>476</ele>
        <time>2021-10-03T11:43:51.003Z</time>
      </trkpt>
      <trkpt lat="45.49031" lon="5.21402">
        <ele>476</ele>
        <time>2021-10-03T11:43:56.023Z</time>
      </trkpt>
      <trkpt lat="45.49035" lon="5.2139">
        <ele>476</ele>
        <time>2021-10-03T11:44:01.001Z</time>
      </trkpt>
      <trkpt lat="45.49038" lon="5.2138">
        <ele>476</ele>
        <time>2021-10-03T11:44:05.990Z</time>
      </trkpt>
      <trkpt lat="45.49039" lon="5.2137">
        <ele>476</ele>
        <time>2021-10-03T11:44:09.987Z</time>
      </trkpt>
      <trkpt lat="45.49041" lon="5.21362">
        <ele>476</ele>
        <time>2021-10-03T11:44:13.993Z</time>
      </trkpt>
      <trkpt lat="45.49043" lon="5.21353">
        <ele>477</ele>
        <time>2021-10-03T11:44:18.014Z</time>
      </trkpt>
      <trkpt lat="45.49048" lon="5.21346">
        <ele>476</ele>
        <time>2021-10-03T11:44:22.956Z</time>
      </trkpt>
      <trkpt lat="45.49054" lon="5.21341">
        <ele>476</ele>
        <time>2021-10-03T11:44:27Z</time>
      </trkpt>
      <trkpt lat="45.49063" lon="5.21337">
        <ele>476</ele>
        <time>2021-10-03T11:44:31.990Z</time>
      </trkpt>
      <trkpt lat="45.49073" lon="5.21337">
        <ele>476</ele>
        <time>2021-10-03T11:44:36.995Z</time>
      </trkpt>
      <trkpt lat="45.4908" lon="5.21335">
        <ele>476</ele>
        <time>2021-10-03T11:44:41.018Z</time>
      </trkpt>
      <trkpt lat="45.49088" lon="5.21333">
        <ele>476</ele>
        <time>2021-10-03T11:44:45.990Z</time>
      </trkpt>
      <trkpt lat="45.49094" lon="5.2133">
        <ele>476</ele>
        <time>2021-10-03T11:44:49.998Z</time>
      </trkpt>
      <trkpt lat="45.49186" lon="5.21311">
        <ele>478</ele>
        <time>2021-10-03T11:44:55.014Z</time>
      </trkpt>
      <trkpt lat="45.49217" lon="5.21306">
        <ele>480</ele>
        <time>2021-10-03T11:45:00.022Z</time>
      </trkpt>
      <trkpt lat="45.49248" lon="5.21306">
        <ele>482</ele>
        <time>2021-10-03T11:45:04.990Z</time>
      </trkpt>
      <trkpt lat="45.49279" lon="5.21303">
        <ele>484</ele>
        <time>2021-10-03T11:45:09.978Z</time>
      </trkpt>
      <trkpt lat="45.49301" lon="5.213">
        <ele>485</ele>
        <time>2021-10-03T11:45:13.993Z</time>
      </trkpt>
      <trkpt lat="45.49323" lon="5.21306">
        <ele>485</ele>
        <time>2021-10-03T11:45:18.001Z</time>
      </trkpt>
      <trkpt lat="45.4934" lon="5.21312">
        <ele>485</ele>
        <time>2021-10-03T11:45:22.024Z</time>
      </trkpt>
      <trkpt lat="45.49353" lon="5.21316">
        <ele>486</ele>
        <time>2021-10-03T11:45:26.988Z</time>
      </trkpt>
      <trkpt lat="45.4936" lon="5.21319">
        <ele>486</ele>
        <time>2021-10-03T11:45:30.992Z</time>
      </trkpt>
      <trkpt lat="45.49368" lon="5.21322">
        <ele>486</ele>
        <time>2021-10-03T11:45:35.987Z</time>
      </trkpt>
      <trkpt lat="45.49374" lon="5.21323">
        <ele>486</ele>
        <time>2021-10-03T11:45:40.001Z</time>
      </trkpt>
      <trkpt lat="45.49381" lon="5.21324">
        <ele>486</ele>
        <time>2021-10-03T11:45:44.993Z</time>
      </trkpt>
      <trkpt lat="45.49388" lon="5.21327">
        <ele>486</ele>
        <time>2021-10-03T11:45:50.032Z</time>
      </trkpt>
      <trkpt lat="45.49395" lon="5.21329">
        <ele>486</ele>
        <time>2021-10-03T11:45:55.028Z</time>
      </trkpt>
      <trkpt lat="45.49403" lon="5.2133">
        <ele>485</ele>
        <time>2021-10-03T11:45:59.989Z</time>
      </trkpt>
      <trkpt lat="45.49409" lon="5.21332">
        <ele>485</ele>
        <time>2021-10-03T11:46:04Z</time>
      </trkpt>
      <trkpt lat="45.49416" lon="5.21334">
        <ele>485</ele>
        <time>2021-10-03T11:46:08.995Z</time>
      </trkpt>
      <trkpt lat="45.49424" lon="5.21337">
        <ele>485</ele>
        <time>2021-10-03T11:46:14.002Z</time>
      </trkpt>
      <trkpt lat="45.49431" lon="5.21339">
        <ele>486</ele>
        <time>2021-10-03T11:46:18.990Z</time>
      </trkpt>
      <trkpt lat="45.49438" lon="5.21341">
        <ele>486</ele>
        <time>2021-10-03T11:46:23.955Z</time>
      </trkpt>
      <trkpt lat="45.49444" lon="5.21343">
        <ele>486</ele>
        <time>2021-10-03T11:46:28.004Z</time>
      </trkpt>
      <trkpt lat="45.49451" lon="5.21345">
        <ele>486</ele>
        <time>2021-10-03T11:46:32.995Z</time>
      </trkpt>
      <trkpt lat="45.49457" lon="5.21347">
        <ele>486</ele>
        <time>2021-10-03T11:46:37Z</time>
      </trkpt>
      <trkpt lat="45.49466" lon="5.21347">
        <ele>487</ele>
        <time>2021-10-03T11:46:41.991Z</time>
      </trkpt>
      <trkpt lat="45.49475" lon="5.21344">
        <ele>486</ele>
        <time>2021-10-03T11:46:45.990Z</time>
      </trkpt>
      <trkpt lat="45.49492" lon="5.21347">
        <ele>487</ele>
        <time>2021-10-03T11:46:50.993Z</time>
      </trkpt>
      <trkpt lat="45.49502" lon="5.21347">
        <ele>487</ele>
        <time>2021-10-03T11:46:54.999Z</time>
      </trkpt>
      <trkpt lat="45.49514" lon="5.21344">
        <ele>488</ele>
        <time>2021-10-03T11:46:59.988Z</time>
      </trkpt>
      <trkpt lat="45.49589" lon="5.21356">
        <ele>490</ele>
        <time>2021-10-03T11:47:03.989Z</time>
      </trkpt>
      <trkpt lat="45.4962" lon="5.21352">
        <ele>493</ele>
        <time>2021-10-03T11:47:08.987Z</time>
      </trkpt>
      <trkpt lat="45.49645" lon="5.21349">
        <ele>495</ele>
        <time>2021-10-03T11:47:13.022Z</time>
      </trkpt>
      <trkpt lat="45.49675" lon="5.21348">
        <ele>497</ele>
        <time>2021-10-03T11:47:17.994Z</time>
      </trkpt>
      <trkpt lat="45.49704" lon="5.21348">
        <ele>499</ele>
        <time>2021-10-03T11:47:23.047Z</time>
      </trkpt>
      <trkpt lat="45.49718" lon="5.21346">
        <ele>500</ele>
        <time>2021-10-03T11:47:27.990Z</time>
      </trkpt>
      <trkpt lat="45.49726" lon="5.21344">
        <ele>500</ele>
        <time>2021-10-03T11:47:33.025Z</time>
      </trkpt>
      <trkpt lat="45.49732" lon="5.21342">
        <ele>500</ele>
        <time>2021-10-03T11:47:37.027Z</time>
      </trkpt>
      <trkpt lat="45.49739" lon="5.21338">
        <ele>500</ele>
        <time>2021-10-03T11:47:41.991Z</time>
      </trkpt>
      <trkpt lat="45.49745" lon="5.21335">
        <ele>500</ele>
        <time>2021-10-03T11:47:45.996Z</time>
      </trkpt>
      <trkpt lat="45.49749" lon="5.21334">
        <ele>500</ele>
        <time>2021-10-03T11:47:50.986Z</time>
      </trkpt>
      <trkpt lat="45.49754" lon="5.21332">
        <ele>500</ele>
        <time>2021-10-03T11:47:55.004Z</time>
      </trkpt>
      <trkpt lat="45.49762" lon="5.21326">
        <ele>500</ele>
        <time>2021-10-03T11:47:59.994Z</time>
      </trkpt>
      <trkpt lat="45.49772" lon="5.21318">
        <ele>499</ele>
        <time>2021-10-03T11:48:03.990Z</time>
      </trkpt>
      <trkpt lat="45.49785" lon="5.21305">
        <ele>499</ele>
        <time>2021-10-03T11:48:08.985Z</time>
      </trkpt>
      <trkpt lat="45.49801" lon="5.21291">
        <ele>500</ele>
        <time>2021-10-03T11:48:12.998Z</time>
      </trkpt>
      <trkpt lat="45.49807" lon="5.21282">
        <ele>500</ele>
        <time>2021-10-03T11:48:17.987Z</time>
      </trkpt>
      <trkpt lat="45.49815" lon="5.21275">
        <ele>500</ele>
        <time>2021-10-03T11:48:22.949Z</time>
      </trkpt>
      <trkpt lat="45.49822" lon="5.2127">
        <ele>501</ele>
        <time>2021-10-03T11:48:26.986Z</time>
      </trkpt>
      <trkpt lat="45.49867" lon="5.21235">
        <ele>503</ele>
        <time>2021-10-03T11:48:31.997Z</time>
      </trkpt>
      <trkpt lat="45.49874" lon="5.21231">
        <ele>503</ele>
        <time>2021-10-03T11:48:36.997Z</time>
      </trkpt>
      <trkpt lat="45.49881" lon="5.21229">
        <ele>503</ele>
        <time>2021-10-03T11:48:41.997Z</time>
      </trkpt>
      <trkpt lat="45.49887" lon="5.21226">
        <ele>503</ele>
        <time>2021-10-03T11:48:45.997Z</time>
      </trkpt>
      <trkpt lat="45.49894" lon="5.21223">
        <ele>503</ele>
        <time>2021-10-03T11:48:50.991Z</time>
      </trkpt>
      <trkpt lat="45.49904" lon="5.2122">
        <ele>499</ele>
        <time>2021-10-03T11:48:55.989Z</time>
      </trkpt>
      <trkpt lat="45.4991" lon="5.21217">
        <ele>499</ele>
        <time>2021-10-03T11:48:59.997Z</time>
      </trkpt>
      <trkpt lat="45.49915" lon="5.21214">
        <ele>499</ele>
        <time>2021-10-03T11:49:04.012Z</time>
      </trkpt>
      <trkpt lat="45.49922" lon="5.2121">
        <ele>499</ele>
        <time>2021-10-03T11:49:08.986Z</time>
      </trkpt>
      <trkpt lat="45.49928" lon="5.21205">
        <ele>501</ele>
        <time>2021-10-03T11:49:13.988Z</time>
      </trkpt>
      <trkpt lat="45.49936" lon="5.21201">
        <ele>499</ele>
        <time>2021-10-03T11:49:18.976Z</time>
      </trkpt>
      <trkpt lat="45.49943" lon="5.21199">
        <ele>499</ele>
        <time>2021-10-03T11:49:22.992Z</time>
      </trkpt>
      <trkpt lat="45.49949" lon="5.21195">
        <ele>499</ele>
        <time>2021-10-03T11:49:27.991Z</time>
      </trkpt>
      <trkpt lat="45.49956" lon="5.21191">
        <ele>499</ele>
        <time>2021-10-03T11:49:33.003Z</time>
      </trkpt>
      <trkpt lat="45.49963" lon="5.21187">
        <ele>496</ele>
        <time>2021-10-03T11:49:38.020Z</time>
      </trkpt>
      <trkpt lat="45.4997" lon="5.21186">
        <ele>496</ele>
        <time>2021-10-03T11:49:42.984Z</time>
      </trkpt>
      <trkpt lat="45.49975" lon="5.21185">
        <ele>496</ele>
        <time>2021-10-03T11:49:47Z</time>
      </trkpt>
      <trkpt lat="45.49983" lon="5.21186">
        <ele>496</ele>
        <time>2021-10-03T11:49:51.998Z</time>
      </trkpt>
      <trkpt lat="45.49989" lon="5.21189">
        <ele>491</ele>
        <time>2021-10-03T11:49:57.006Z</time>
      </trkpt>
      <trkpt lat="45.49996" lon="5.2119">
        <ele>491</ele>
        <time>2021-10-03T11:50:01.993Z</time>
      </trkpt>
      <trkpt lat="45.50003" lon="5.21191">
        <ele>491</ele>
        <time>2021-10-03T11:50:06.982Z</time>
      </trkpt>
      <trkpt lat="45.50009" lon="5.21191">
        <ele>491</ele>
        <time>2021-10-03T11:50:10.997Z</time>
      </trkpt>
      <trkpt lat="45.50016" lon="5.21191">
        <ele>487</ele>
        <time>2021-10-03T11:50:15.989Z</time>
      </trkpt>
      <trkpt lat="45.50023" lon="5.21192">
        <ele>487</ele>
        <time>2021-10-03T11:50:20.996Z</time>
      </trkpt>
      <trkpt lat="45.50031" lon="5.21193">
        <ele>487</ele>
        <time>2021-10-03T11:50:25.989Z</time>
      </trkpt>
      <trkpt lat="45.50038" lon="5.21193">
        <ele>487</ele>
        <time>2021-10-03T11:50:30.948Z</time>
      </trkpt>
      <trkpt lat="45.50046" lon="5.21195">
        <ele>486</ele>
        <time>2021-10-03T11:50:34.985Z</time>
      </trkpt>
      <trkpt lat="45.50053" lon="5.21193">
        <ele>486</ele>
        <time>2021-10-03T11:50:39.942Z</time>
      </trkpt>
      <trkpt lat="45.50058" lon="5.21193">
        <ele>486</ele>
        <time>2021-10-03T11:50:43.994Z</time>
      </trkpt>
      <trkpt lat="45.50066" lon="5.21195">
        <ele>486</ele>
        <time>2021-10-03T11:50:48.992Z</time>
      </trkpt>
      <trkpt lat="45.50075" lon="5.21195">
        <ele>487</ele>
        <time>2021-10-03T11:50:53.975Z</time>
      </trkpt>
      <trkpt lat="45.50081" lon="5.21197">
        <ele>487</ele>
        <time>2021-10-03T11:50:57.981Z</time>
      </trkpt>
      <trkpt lat="45.50086" lon="5.21199">
        <ele>487</ele>
        <time>2021-10-03T11:51:02.019Z</time>
      </trkpt>
      <trkpt lat="45.50092" lon="5.21199">
        <ele>487</ele>
        <time>2021-10-03T11:51:07Z</time>
      </trkpt>
      <trkpt lat="45.501" lon="5.21199">
        <ele>485</ele>
        <time>2021-10-03T11:51:11.998Z</time>
      </trkpt>
      <trkpt lat="45.50108" lon="5.212">
        <ele>485</ele>
        <time>2021-10-03T11:51:16.985Z</time>
      </trkpt>
      <trkpt lat="45.50114" lon="5.212">
        <ele>485</ele>
        <time>2021-10-03T11:51:21.002Z</time>
      </trkpt>
      <trkpt lat="45.5012" lon="5.21201">
        <ele>485</ele>
        <time>2021-10-03T11:51:25.992Z</time>
      </trkpt>
      <trkpt lat="45.50128" lon="5.21202">
        <ele>481</ele>
        <time>2021-10-03T11:51:30.990Z</time>
      </trkpt>
      <trkpt lat="45.50137" lon="5.21201">
        <ele>481</ele>
        <time>2021-10-03T11:51:36.042Z</time>
      </trkpt>
      <trkpt lat="45.50143" lon="5.21201">
        <ele>481</ele>
        <time>2021-10-03T11:51:40.992Z</time>
      </trkpt>
      <trkpt lat="45.50148" lon="5.21201">
        <ele>481</ele>
        <time>2021-10-03T11:51:44.993Z</time>
      </trkpt>
      <trkpt lat="45.50154" lon="5.21202">
        <ele>479</ele>
        <time>2021-10-03T11:51:50.029Z</time>
      </trkpt>
      <trkpt lat="45.5016" lon="5.21202">
        <ele>479</ele>
        <time>2021-10-03T11:51:54.978Z</time>
      </trkpt>
      <trkpt lat="45.50167" lon="5.21202">
        <ele>479</ele>
        <time>2021-10-03T11:51:59.978Z</time>
      </trkpt>
      <trkpt lat="45.50172" lon="5.21203">
        <ele>479</ele>
        <time>2021-10-03T11:52:04.003Z</time>
      </trkpt>
      <trkpt lat="45.50179" lon="5.21203">
        <ele>479</ele>
        <time>2021-10-03T11:52:08.983Z</time>
      </trkpt>
      <trkpt lat="45.50187" lon="5.21204">
        <ele>479</ele>
        <time>2021-10-03T11:52:13.984Z</time>
      </trkpt>
      <trkpt lat="45.50193" lon="5.21204">
        <ele>479</ele>
        <time>2021-10-03T11:52:19.001Z</time>
      </trkpt>
      <trkpt lat="45.50197" lon="5.21205">
        <ele>479</ele>
        <time>2021-10-03T11:52:23.004Z</time>
      </trkpt>
      <trkpt lat="45.50205" lon="5.21205">
        <ele>479</ele>
        <time>2021-10-03T11:52:27.998Z</time>
      </trkpt>
      <trkpt lat="45.50216" lon="5.21205">
        <ele>475</ele>
        <time>2021-10-03T11:52:33.006Z</time>
      </trkpt>
      <trkpt lat="45.50223" lon="5.21204">
        <ele>475</ele>
        <time>2021-10-03T11:52:37.017Z</time>
      </trkpt>
      <trkpt lat="45.50231" lon="5.21202">
        <ele>475</ele>
        <time>2021-10-03T11:52:41.987Z</time>
      </trkpt>
      <trkpt lat="45.50238" lon="5.212">
        <ele>467</ele>
        <time>2021-10-03T11:52:46.993Z</time>
      </trkpt>
      <trkpt lat="45.50243" lon="5.21199">
        <ele>467</ele>
        <time>2021-10-03T11:52:51.006Z</time>
      </trkpt>
      <trkpt lat="45.50249" lon="5.21198">
        <ele>467</ele>
        <time>2021-10-03T11:52:55.988Z</time>
      </trkpt>
      <trkpt lat="45.50256" lon="5.21196">
        <ele>467</ele>
        <time>2021-10-03T11:53:00.991Z</time>
      </trkpt>
      <trkpt lat="45.50261" lon="5.21195">
        <ele>467</ele>
        <time>2021-10-03T11:53:04.997Z</time>
      </trkpt>
      <trkpt lat="45.50267" lon="5.21194">
        <ele>464</ele>
        <time>2021-10-03T11:53:09.964Z</time>
      </trkpt>
      <trkpt lat="45.50272" lon="5.21193">
        <ele>464</ele>
        <time>2021-10-03T11:53:13.985Z</time>
      </trkpt>
      <trkpt lat="45.50277" lon="5.21192">
        <ele>464</ele>
        <time>2021-10-03T11:53:18.002Z</time>
      </trkpt>
      <trkpt lat="45.50284" lon="5.21192">
        <ele>464</ele>
        <time>2021-10-03T11:53:22.992Z</time>
      </trkpt>
      <trkpt lat="45.50289" lon="5.21192">
        <ele>464</ele>
        <time>2021-10-03T11:53:28Z</time>
      </trkpt>
      <trkpt lat="45.5029" lon="5.21192">
        <ele>464</ele>
        <time>2021-10-03T11:53:32.998Z</time>
      </trkpt>
      <trkpt lat="45.50293" lon="5.21193">
        <ele>463</ele>
        <time>2021-10-03T11:53:42.985Z</time>
      </trkpt>
      <trkpt lat="45.50293" lon="5.21193">
        <ele>463</ele>
        <time>2021-10-03T11:53:47.036Z</time>
      </trkpt>
      <trkpt lat="45.50293" lon="5.21193">
        <ele>463</ele>
        <time>2021-10-03T11:53:51.968Z</time>
      </trkpt>
      <trkpt lat="45.50298" lon="5.21193">
        <ele>463</ele>
        <time>2021-10-03T11:53:55.986Z</time>
      </trkpt>
      <trkpt lat="45.50303" lon="5.21191">
        <ele>463</ele>
        <time>2021-10-03T11:54:00.002Z</time>
      </trkpt>
      <trkpt lat="45.50311" lon="5.2119">
        <ele>463</ele>
        <time>2021-10-03T11:54:04.979Z</time>
      </trkpt>
      <trkpt lat="45.50319" lon="5.21188">
        <ele>463</ele>
        <time>2021-10-03T11:54:09.983Z</time>
      </trkpt>
      <trkpt lat="45.50326" lon="5.21187">
        <ele>461</ele>
        <time>2021-10-03T11:54:14.040Z</time>
      </trkpt>
      <trkpt lat="45.50333" lon="5.21184">
        <ele>461</ele>
        <time>2021-10-03T11:54:18.987Z</time>
      </trkpt>
      <trkpt lat="45.50341" lon="5.21181">
        <ele>461</ele>
        <time>2021-10-03T11:54:24.012Z</time>
      </trkpt>
      <trkpt lat="45.50348" lon="5.21179">
        <ele>459</ele>
        <time>2021-10-03T11:54:28.991Z</time>
      </trkpt>
      <trkpt lat="45.50356" lon="5.21178">
        <ele>459</ele>
        <time>2021-10-03T11:54:33.980Z</time>
      </trkpt>
      <trkpt lat="45.50363" lon="5.21174">
        <ele>459</ele>
        <time>2021-10-03T11:54:38.983Z</time>
      </trkpt>
      <trkpt lat="45.50369" lon="5.21172">
        <ele>459</ele>
        <time>2021-10-03T11:54:43.003Z</time>
      </trkpt>
      <trkpt lat="45.50375" lon="5.21169">
        <ele>459</ele>
        <time>2021-10-03T11:54:48.003Z</time>
      </trkpt>
      <trkpt lat="45.50382" lon="5.21167">
        <ele>453</ele>
        <time>2021-10-03T11:54:52.990Z</time>
      </trkpt>
      <trkpt lat="45.50387" lon="5.21164">
        <ele>453</ele>
        <time>2021-10-03T11:54:56.989Z</time>
      </trkpt>
      <trkpt lat="45.50394" lon="5.21161">
        <ele>453</ele>
        <time>2021-10-03T11:55:01.994Z</time>
      </trkpt>
      <trkpt lat="45.50399" lon="5.21158">
        <ele>453</ele>
        <time>2021-10-03T11:55:06.014Z</time>
      </trkpt>
      <trkpt lat="45.50407" lon="5.21156">
        <ele>448</ele>
        <time>2021-10-03T11:55:10.998Z</time>
      </trkpt>
      <trkpt lat="45.50414" lon="5.21151">
        <ele>450</ele>
        <time>2021-10-03T11:55:16.026Z</time>
      </trkpt>
      <trkpt lat="45.50422" lon="5.21149">
        <ele>450</ele>
        <time>2021-10-03T11:55:21.055Z</time>
      </trkpt>
      <trkpt lat="45.50428" lon="5.21146">
        <ele>450</ele>
        <time>2021-10-03T11:55:25.992Z</time>
      </trkpt>
      <trkpt lat="45.50435" lon="5.21144">
        <ele>447</ele>
        <time>2021-10-03T11:55:30.984Z</time>
      </trkpt>
      <trkpt lat="45.50442" lon="5.21141">
        <ele>447</ele>
        <time>2021-10-03T11:55:35.969Z</time>
      </trkpt>
      <trkpt lat="45.50449" lon="5.2114">
        <ele>447</ele>
        <time>2021-10-03T11:55:40.994Z</time>
      </trkpt>
      <trkpt lat="45.50455" lon="5.21138">
        <ele>447</ele>
        <time>2021-10-03T11:55:45.990Z</time>
      </trkpt>
      <trkpt lat="45.50462" lon="5.21143">
        <ele>444</ele>
        <time>2021-10-03T11:55:50.999Z</time>
      </trkpt>
      <trkpt lat="45.50466" lon="5.21148">
        <ele>444</ele>
        <time>2021-10-03T11:55:54.997Z</time>
      </trkpt>
      <trkpt lat="45.50472" lon="5.21155">
        <ele>442</ele>
        <time>2021-10-03T11:55:59.988Z</time>
      </trkpt>
      <trkpt lat="45.5048" lon="5.21163">
        <ele>442</ele>
        <time>2021-10-03T11:56:05.019Z</time>
      </trkpt>
      <trkpt lat="45.50486" lon="5.21171">
        <ele>442</ele>
        <time>2021-10-03T11:56:09.988Z</time>
      </trkpt>
      <trkpt lat="45.50492" lon="5.21177">
        <ele>441</ele>
        <time>2021-10-03T11:56:14.947Z</time>
      </trkpt>
      <trkpt lat="45.50496" lon="5.21182">
        <ele>440</ele>
        <time>2021-10-03T11:56:18.985Z</time>
      </trkpt>
      <trkpt lat="45.50499" lon="5.21186">
        <ele>440</ele>
        <time>2021-10-03T11:56:22.988Z</time>
      </trkpt>
      <trkpt lat="45.50505" lon="5.21193">
        <ele>440</ele>
        <time>2021-10-03T11:56:28.011Z</time>
      </trkpt>
      <trkpt lat="45.50511" lon="5.21201">
        <ele>440</ele>
        <time>2021-10-03T11:56:32.954Z</time>
      </trkpt>
      <trkpt lat="45.50515" lon="5.21207">
        <ele>441</ele>
        <time>2021-10-03T11:56:36.973Z</time>
      </trkpt>
      <trkpt lat="45.5052" lon="5.21215">
        <ele>440</ele>
        <time>2021-10-03T11:56:42.011Z</time>
      </trkpt>
      <trkpt lat="45.50524" lon="5.21222">
        <ele>440</ele>
        <time>2021-10-03T11:56:47.001Z</time>
      </trkpt>
      <trkpt lat="45.50527" lon="5.21228">
        <ele>440</ele>
        <time>2021-10-03T11:56:51.985Z</time>
      </trkpt>
      <trkpt lat="45.50529" lon="5.21235">
        <ele>440</ele>
        <time>2021-10-03T11:56:56.022Z</time>
      </trkpt>
      <trkpt lat="45.50532" lon="5.21244">
        <ele>441</ele>
        <time>2021-10-03T11:57:00.988Z</time>
      </trkpt>
      <trkpt lat="45.50535" lon="5.21252">
        <ele>441</ele>
        <time>2021-10-03T11:57:05.985Z</time>
      </trkpt>
      <trkpt lat="45.50536" lon="5.2126">
        <ele>441</ele>
        <time>2021-10-03T11:57:09.996Z</time>
      </trkpt>
      <trkpt lat="45.50539" lon="5.21267">
        <ele>440</ele>
        <time>2021-10-03T11:57:14.985Z</time>
      </trkpt>
      <trkpt lat="45.50542" lon="5.21274">
        <ele>440</ele>
        <time>2021-10-03T11:57:18.990Z</time>
      </trkpt>
      <trkpt lat="45.50544" lon="5.21282">
        <ele>438</ele>
        <time>2021-10-03T11:57:23.972Z</time>
      </trkpt>
      <trkpt lat="45.50547" lon="5.21288">
        <ele>438</ele>
        <time>2021-10-03T11:57:28.001Z</time>
      </trkpt>
      <trkpt lat="45.5055" lon="5.21296">
        <ele>437</ele>
        <time>2021-10-03T11:57:32.998Z</time>
      </trkpt>
      <trkpt lat="45.50552" lon="5.21304">
        <ele>437</ele>
        <time>2021-10-03T11:57:37.994Z</time>
      </trkpt>
      <trkpt lat="45.50553" lon="5.21312">
        <ele>437</ele>
        <time>2021-10-03T11:57:42.986Z</time>
      </trkpt>
      <trkpt lat="45.50552" lon="5.21321">
        <ele>436</ele>
        <time>2021-10-03T11:57:47.959Z</time>
      </trkpt>
      <trkpt lat="45.5055" lon="5.21329">
        <ele>436</ele>
        <time>2021-10-03T11:57:51.971Z</time>
      </trkpt>
      <trkpt lat="45.50548" lon="5.21337">
        <ele>436</ele>
        <time>2021-10-03T11:57:55.984Z</time>
      </trkpt>
      <trkpt lat="45.50545" lon="5.21345">
        <ele>436</ele>
        <time>2021-10-03T11:57:59.986Z</time>
      </trkpt>
      <trkpt lat="45.50541" lon="5.21354">
        <ele>435</ele>
        <time>2021-10-03T11:58:04.999Z</time>
      </trkpt>
      <trkpt lat="45.50537" lon="5.21364">
        <ele>435</ele>
        <time>2021-10-03T11:58:09.993Z</time>
      </trkpt>
      <trkpt lat="45.50535" lon="5.21371">
        <ele>435</ele>
        <time>2021-10-03T11:58:14.990Z</time>
      </trkpt>
      <trkpt lat="45.50532" lon="5.21379">
        <ele>433</ele>
        <time>2021-10-03T11:58:19.998Z</time>
      </trkpt>
      <trkpt lat="45.50529" lon="5.21388">
        <ele>433</ele>
        <time>2021-10-03T11:58:24.995Z</time>
      </trkpt>
      <trkpt lat="45.50526" lon="5.21397">
        <ele>433</ele>
        <time>2021-10-03T11:58:29.988Z</time>
      </trkpt>
      <trkpt lat="45.50523" lon="5.21405">
        <ele>431</ele>
        <time>2021-10-03T11:58:34.978Z</time>
      </trkpt>
      <trkpt lat="45.50521" lon="5.21412">
        <ele>431</ele>
        <time>2021-10-03T11:58:38.996Z</time>
      </trkpt>
      <trkpt lat="45.50518" lon="5.21421">
        <ele>431</ele>
        <time>2021-10-03T11:58:43.999Z</time>
      </trkpt>
      <trkpt lat="45.50515" lon="5.21431">
        <ele>431</ele>
        <time>2021-10-03T11:58:48.997Z</time>
      </trkpt>
      <trkpt lat="45.50513" lon="5.2144">
        <ele>433</ele>
        <time>2021-10-03T11:58:53.009Z</time>
      </trkpt>
      <trkpt lat="45.5051" lon="5.2145">
        <ele>433</ele>
        <time>2021-10-03T11:58:57.987Z</time>
      </trkpt>
      <trkpt lat="45.50508" lon="5.2146">
        <ele>434</ele>
        <time>2021-10-03T11:59:02.996Z</time>
      </trkpt>
      <trkpt lat="45.50507" lon="5.2147">
        <ele>434</ele>
        <time>2021-10-03T11:59:08.018Z</time>
      </trkpt>
      <trkpt lat="45.50507" lon="5.2148">
        <ele>434</ele>
        <time>2021-10-03T11:59:12.988Z</time>
      </trkpt>
      <trkpt lat="45.50506" lon="5.21488">
        <ele>436</ele>
        <time>2021-10-03T11:59:16.993Z</time>
      </trkpt>
      <trkpt lat="45.50507" lon="5.215">
        <ele>436</ele>
        <time>2021-10-03T11:59:21.991Z</time>
      </trkpt>
      <trkpt lat="45.50507" lon="5.21511">
        <ele>436</ele>
        <time>2021-10-03T11:59:26.996Z</time>
      </trkpt>
      <trkpt lat="45.50507" lon="5.21519">
        <ele>439</ele>
        <time>2021-10-03T11:59:31.019Z</time>
      </trkpt>
      <trkpt lat="45.50507" lon="5.2153">
        <ele>439</ele>
        <time>2021-10-03T11:59:35.990Z</time>
      </trkpt>
      <trkpt lat="45.50507" lon="5.21541">
        <ele>439</ele>
        <time>2021-10-03T11:59:40.981Z</time>
      </trkpt>
      <trkpt lat="45.50507" lon="5.21552">
        <ele>443</ele>
        <time>2021-10-03T11:59:45.988Z</time>
      </trkpt>
      <trkpt lat="45.50507" lon="5.21563">
        <ele>443</ele>
        <time>2021-10-03T11:59:50.992Z</time>
      </trkpt>
      <trkpt lat="45.50506" lon="5.21574">
        <ele>447</ele>
        <time>2021-10-03T11:59:55.984Z</time>
      </trkpt>
      <trkpt lat="45.50505" lon="5.21582">
        <ele>447</ele>
        <time>2021-10-03T11:59:59.990Z</time>
      </trkpt>
      <trkpt lat="45.50504" lon="5.21591">
        <ele>447</ele>
        <time>2021-10-03T12:00:05.034Z</time>
      </trkpt>
      <trkpt lat="45.50503" lon="5.21599">
        <ele>447</ele>
        <time>2021-10-03T12:00:09.043Z</time>
      </trkpt>
      <trkpt lat="45.50503" lon="5.21606">
        <ele>447</ele>
        <time>2021-10-03T12:00:13.053Z</time>
      </trkpt>
      <trkpt lat="45.50503" lon="5.21616">
        <ele>447</ele>
        <time>2021-10-03T12:00:17.957Z</time>
      </trkpt>
      <trkpt lat="45.50504" lon="5.21624">
        <ele>447</ele>
        <time>2021-10-03T12:00:21.982Z</time>
      </trkpt>
      <trkpt lat="45.50505" lon="5.21635">
        <ele>448</ele>
        <time>2021-10-03T12:00:26.985Z</time>
      </trkpt>
      <trkpt lat="45.50507" lon="5.21646">
        <ele>448</ele>
        <time>2021-10-03T12:00:31.980Z</time>
      </trkpt>
      <trkpt lat="45.50509" lon="5.21657">
        <ele>447</ele>
        <time>2021-10-03T12:00:36.986Z</time>
      </trkpt>
      <trkpt lat="45.50511" lon="5.21667">
        <ele>447</ele>
        <time>2021-10-03T12:00:41.960Z</time>
      </trkpt>
      <trkpt lat="45.50513" lon="5.21675">
        <ele>447</ele>
        <time>2021-10-03T12:00:45.992Z</time>
      </trkpt>
      <trkpt lat="45.50515" lon="5.21686">
        <ele>444</ele>
        <time>2021-10-03T12:00:50.987Z</time>
      </trkpt>
      <trkpt lat="45.50517" lon="5.21695">
        <ele>444</ele>
        <time>2021-10-03T12:00:56.007Z</time>
      </trkpt>
      <trkpt lat="45.50519" lon="5.2171">
        <ele>443</ele>
        <time>2021-10-03T12:01:00.970Z</time>
      </trkpt>
      <trkpt lat="45.50521" lon="5.21716">
        <ele>443</ele>
        <time>2021-10-03T12:01:04.985Z</time>
      </trkpt>
      <trkpt lat="45.50523" lon="5.21728">
        <ele>443</ele>
        <time>2021-10-03T12:01:09.993Z</time>
      </trkpt>
      <trkpt lat="45.50527" lon="5.21739">
        <ele>443</ele>
        <time>2021-10-03T12:01:14.991Z</time>
      </trkpt>
      <trkpt lat="45.50529" lon="5.21746">
        <ele>443</ele>
        <time>2021-10-03T12:01:19.979Z</time>
      </trkpt>
      <trkpt lat="45.50531" lon="5.21752">
        <ele>443</ele>
        <time>2021-10-03T12:01:24.030Z</time>
      </trkpt>
      <trkpt lat="45.50534" lon="5.21762">
        <ele>443</ele>
        <time>2021-10-03T12:01:28.998Z</time>
      </trkpt>
      <trkpt lat="45.50537" lon="5.21771">
        <ele>443</ele>
        <time>2021-10-03T12:01:33.026Z</time>
      </trkpt>
      <trkpt lat="45.50541" lon="5.21781">
        <ele>443</ele>
        <time>2021-10-03T12:01:38.001Z</time>
      </trkpt>
      <trkpt lat="45.50543" lon="5.2179">
        <ele>442</ele>
        <time>2021-10-03T12:01:42.031Z</time>
      </trkpt>
      <trkpt lat="45.50545" lon="5.218">
        <ele>441</ele>
        <time>2021-10-03T12:01:46.995Z</time>
      </trkpt>
      <trkpt lat="45.50547" lon="5.21808">
        <ele>441</ele>
        <time>2021-10-03T12:01:51.996Z</time>
      </trkpt>
      <trkpt lat="45.50549" lon="5.21817">
        <ele>441</ele>
        <time>2021-10-03T12:01:56.025Z</time>
      </trkpt>
      <trkpt lat="45.5055" lon="5.21827">
        <ele>439</ele>
        <time>2021-10-03T12:02:00.997Z</time>
      </trkpt>
      <trkpt lat="45.50552" lon="5.21836">
        <ele>439</ele>
        <time>2021-10-03T12:02:05.990Z</time>
      </trkpt>
      <trkpt lat="45.50553" lon="5.21844">
        <ele>439</ele>
        <time>2021-10-03T12:02:09.994Z</time>
      </trkpt>
      <trkpt lat="45.50556" lon="5.21851">
        <ele>438</ele>
        <time>2021-10-03T12:02:15.039Z</time>
      </trkpt>
      <trkpt lat="45.50564" lon="5.21855">
        <ele>438</ele>
        <time>2021-10-03T12:02:20.002Z</time>
      </trkpt>
      <trkpt lat="45.50571" lon="5.21857">
        <ele>436</ele>
        <time>2021-10-03T12:02:24.997Z</time>
      </trkpt>
      <trkpt lat="45.50578" lon="5.21861">
        <ele>436</ele>
        <time>2021-10-03T12:02:29.997Z</time>
      </trkpt>
      <trkpt lat="45.50585" lon="5.21865">
        <ele>436</ele>
        <time>2021-10-03T12:02:34.986Z</time>
      </trkpt>
      <trkpt lat="45.50591" lon="5.21869">
        <ele>436</ele>
        <time>2021-10-03T12:02:38.990Z</time>
      </trkpt>
      <trkpt lat="45.50598" lon="5.21873">
        <ele>436</ele>
        <time>2021-10-03T12:02:43.990Z</time>
      </trkpt>
      <trkpt lat="45.50602" lon="5.21875">
        <ele>438</ele>
        <time>2021-10-03T12:02:47.997Z</time>
      </trkpt>
      <trkpt lat="45.50607" lon="5.21877">
        <ele>438</ele>
        <time>2021-10-03T12:02:52.992Z</time>
      </trkpt>
      <trkpt lat="45.50611" lon="5.2188">
        <ele>438</ele>
        <time>2021-10-03T12:02:57.989Z</time>
      </trkpt>
      <trkpt lat="45.50614" lon="5.21889">
        <ele>438</ele>
        <time>2021-10-03T12:03:02.943Z</time>
      </trkpt>
      <trkpt lat="45.50616" lon="5.21895">
        <ele>438</ele>
        <time>2021-10-03T12:03:06.955Z</time>
      </trkpt>
      <trkpt lat="45.50617" lon="5.21906">
        <ele>438</ele>
        <time>2021-10-03T12:03:11.950Z</time>
      </trkpt>
      <trkpt lat="45.50617" lon="5.21915">
        <ele>438</ele>
        <time>2021-10-03T12:03:15.984Z</time>
      </trkpt>
      <trkpt lat="45.50616" lon="5.21925">
        <ele>438</ele>
        <time>2021-10-03T12:03:21.007Z</time>
      </trkpt>
      <trkpt lat="45.50614" lon="5.21932">
        <ele>438</ele>
        <time>2021-10-03T12:03:25.034Z</time>
      </trkpt>
      <trkpt lat="45.50612" lon="5.21942">
        <ele>438</ele>
        <time>2021-10-03T12:03:30.023Z</time>
      </trkpt>
      <trkpt lat="45.5061" lon="5.2195">
        <ele>438</ele>
        <time>2021-10-03T12:03:34.035Z</time>
      </trkpt>
      <trkpt lat="45.50607" lon="5.21961">
        <ele>439</ele>
        <time>2021-10-03T12:03:39.023Z</time>
      </trkpt>
      <trkpt lat="45.50606" lon="5.21972">
        <ele>439</ele>
        <time>2021-10-03T12:03:43.993Z</time>
      </trkpt>
      <trkpt lat="45.50605" lon="5.21983">
        <ele>439</ele>
        <time>2021-10-03T12:03:49.042Z</time>
      </trkpt>
      <trkpt lat="45.50605" lon="5.21992">
        <ele>439</ele>
        <time>2021-10-03T12:03:53.044Z</time>
      </trkpt>
      <trkpt lat="45.50605" lon="5.22002">
        <ele>439</ele>
        <time>2021-10-03T12:03:57.992Z</time>
      </trkpt>
      <trkpt lat="45.50606" lon="5.22012">
        <ele>439</ele>
        <time>2021-10-03T12:04:02Z</time>
      </trkpt>
      <trkpt lat="45.50607" lon="5.22021">
        <ele>440</ele>
        <time>2021-10-03T12:04:06.019Z</time>
      </trkpt>
      <trkpt lat="45.5061" lon="5.22031">
        <ele>440</ele>
        <time>2021-10-03T12:04:10.995Z</time>
      </trkpt>
      <trkpt lat="45.50612" lon="5.22039">
        <ele>440</ele>
        <time>2021-10-03T12:04:14.995Z</time>
      </trkpt>
      <trkpt lat="45.50614" lon="5.22049">
        <ele>440</ele>
        <time>2021-10-03T12:04:19.991Z</time>
      </trkpt>
      <trkpt lat="45.50617" lon="5.22058">
        <ele>440</ele>
        <time>2021-10-03T12:04:25.034Z</time>
      </trkpt>
      <trkpt lat="45.50621" lon="5.22067">
        <ele>440</ele>
        <time>2021-10-03T12:04:29.988Z</time>
      </trkpt>
      <trkpt lat="45.50625" lon="5.22075">
        <ele>449</ele>
        <time>2021-10-03T12:04:35.004Z</time>
      </trkpt>
      <trkpt lat="45.50631" lon="5.22083">
        <ele>449</ele>
        <time>2021-10-03T12:04:39.995Z</time>
      </trkpt>
      <trkpt lat="45.50636" lon="5.22089">
        <ele>449</ele>
        <time>2021-10-03T12:04:45.032Z</time>
      </trkpt>
      <trkpt lat="45.50642" lon="5.22094">
        <ele>449</ele>
        <time>2021-10-03T12:04:49.956Z</time>
      </trkpt>
      <trkpt lat="45.50646" lon="5.22102">
        <ele>446</ele>
        <time>2021-10-03T12:04:54.942Z</time>
      </trkpt>
      <trkpt lat="45.50651" lon="5.22111">
        <ele>446</ele>
        <time>2021-10-03T12:04:59.988Z</time>
      </trkpt>
      <trkpt lat="45.50658" lon="5.22116">
        <ele>454</ele>
        <time>2021-10-03T12:05:04.996Z</time>
      </trkpt>
      <trkpt lat="45.50663" lon="5.22123">
        <ele>454</ele>
        <time>2021-10-03T12:05:09.977Z</time>
      </trkpt>
      <trkpt lat="45.50668" lon="5.2213">
        <ele>451</ele>
        <time>2021-10-03T12:05:15.014Z</time>
      </trkpt>
      <trkpt lat="45.50674" lon="5.22136">
        <ele>451</ele>
        <time>2021-10-03T12:05:19.957Z</time>
      </trkpt>
      <trkpt lat="45.50678" lon="5.22141">
        <ele>451</ele>
        <time>2021-10-03T12:05:23.999Z</time>
      </trkpt>
      <trkpt lat="45.50683" lon="5.22148">
        <ele>458</ele>
        <time>2021-10-03T12:05:28.999Z</time>
      </trkpt>
      <trkpt lat="45.50689" lon="5.22153">
        <ele>455</ele>
        <time>2021-10-03T12:05:33.989Z</time>
      </trkpt>
      <trkpt lat="45.50694" lon="5.22161">
        <ele>455</ele>
        <time>2021-10-03T12:05:37.999Z</time>
      </trkpt>
      <trkpt lat="45.50701" lon="5.22169">
        <ele>455</ele>
        <time>2021-10-03T12:05:43.031Z</time>
      </trkpt>
      <trkpt lat="45.50706" lon="5.22176">
        <ele>455</ele>
        <time>2021-10-03T12:05:47.973Z</time>
      </trkpt>
      <trkpt lat="45.5071" lon="5.22181">
        <ele>463</ele>
        <time>2021-10-03T12:05:51.977Z</time>
      </trkpt>
      <trkpt lat="45.50715" lon="5.22185">
        <ele>461</ele>
        <time>2021-10-03T12:05:56.988Z</time>
      </trkpt>
      <trkpt lat="45.50716" lon="5.22185">
        <ele>461</ele>
        <time>2021-10-03T12:06:01.963Z</time>
      </trkpt>
      <trkpt lat="45.50719" lon="5.22189">
        <ele>461</ele>
        <time>2021-10-03T12:06:05.985Z</time>
      </trkpt>
      <trkpt lat="45.50723" lon="5.22194">
        <ele>461</ele>
        <time>2021-10-03T12:06:09.987Z</time>
      </trkpt>
      <trkpt lat="45.50727" lon="5.22202">
        <ele>461</ele>
        <time>2021-10-03T12:06:15.039Z</time>
      </trkpt>
      <trkpt lat="45.50731" lon="5.22209">
        <ele>458</ele>
        <time>2021-10-03T12:06:19.993Z</time>
      </trkpt>
      <trkpt lat="45.50734" lon="5.22215">
        <ele>458</ele>
        <time>2021-10-03T12:06:23.998Z</time>
      </trkpt>
      <trkpt lat="45.50738" lon="5.22223">
        <ele>461</ele>
        <time>2021-10-03T12:06:28.991Z</time>
      </trkpt>
      <trkpt lat="45.50741" lon="5.22228">
        <ele>461</ele>
        <time>2021-10-03T12:06:32.993Z</time>
      </trkpt>
      <trkpt lat="45.50745" lon="5.22235">
        <ele>461</ele>
        <time>2021-10-03T12:06:37.060Z</time>
      </trkpt>
      <trkpt lat="45.50748" lon="5.22244">
        <ele>459</ele>
        <time>2021-10-03T12:06:41.995Z</time>
      </trkpt>
      <trkpt lat="45.50752" lon="5.22252">
        <ele>459</ele>
        <time>2021-10-03T12:06:47.030Z</time>
      </trkpt>
      <trkpt lat="45.50756" lon="5.2226">
        <ele>459</ele>
        <time>2021-10-03T12:06:51.953Z</time>
      </trkpt>
      <trkpt lat="45.50759" lon="5.22266">
        <ele>457</ele>
        <time>2021-10-03T12:06:55.972Z</time>
      </trkpt>
      <trkpt lat="45.50762" lon="5.22271">
        <ele>457</ele>
        <time>2021-10-03T12:06:59.988Z</time>
      </trkpt>
      <trkpt lat="45.50766" lon="5.22277">
        <ele>463</ele>
        <time>2021-10-03T12:07:03.987Z</time>
      </trkpt>
      <trkpt lat="45.50769" lon="5.22284">
        <ele>463</ele>
        <time>2021-10-03T12:07:08.001Z</time>
      </trkpt>
      <trkpt lat="45.50773" lon="5.22292">
        <ele>462</ele>
        <time>2021-10-03T12:07:12.988Z</time>
      </trkpt>
      <trkpt lat="45.50777" lon="5.223">
        <ele>462</ele>
        <time>2021-10-03T12:07:17.989Z</time>
      </trkpt>
      <trkpt lat="45.50782" lon="5.22308">
        <ele>462</ele>
        <time>2021-10-03T12:07:23.020Z</time>
      </trkpt>
      <trkpt lat="45.50786" lon="5.22315">
        <ele>462</ele>
        <time>2021-10-03T12:07:27.988Z</time>
      </trkpt>
      <trkpt lat="45.5079" lon="5.22323">
        <ele>461</ele>
        <time>2021-10-03T12:07:32.985Z</time>
      </trkpt>
      <trkpt lat="45.50795" lon="5.22331">
        <ele>468</ele>
        <time>2021-10-03T12:07:37.984Z</time>
      </trkpt>
      <trkpt lat="45.50798" lon="5.22337">
        <ele>468</ele>
        <time>2021-10-03T12:07:41.999Z</time>
      </trkpt>
      <trkpt lat="45.50802" lon="5.22345">
        <ele>468</ele>
        <time>2021-10-03T12:07:46.955Z</time>
      </trkpt>
      <trkpt lat="45.50804" lon="5.22352">
        <ele>469</ele>
        <time>2021-10-03T12:07:50.971Z</time>
      </trkpt>
      <trkpt lat="45.50803" lon="5.2236">
        <ele>469</ele>
        <time>2021-10-03T12:07:54.977Z</time>
      </trkpt>
      <trkpt lat="45.50803" lon="5.22368">
        <ele>469</ele>
        <time>2021-10-03T12:07:58.988Z</time>
      </trkpt>
      <trkpt lat="45.50803" lon="5.22378">
        <ele>469</ele>
        <time>2021-10-03T12:08:03.980Z</time>
      </trkpt>
      <trkpt lat="45.50802" lon="5.22386">
        <ele>469</ele>
        <time>2021-10-03T12:08:07.986Z</time>
      </trkpt>
      <trkpt lat="45.50803" lon="5.22394">
        <ele>469</ele>
        <time>2021-10-03T12:08:11.985Z</time>
      </trkpt>
      <trkpt lat="45.50803" lon="5.22403">
        <ele>469</ele>
        <time>2021-10-03T12:08:17.015Z</time>
      </trkpt>
      <trkpt lat="45.50803" lon="5.22413">
        <ele>469</ele>
        <time>2021-10-03T12:08:21.993Z</time>
      </trkpt>
      <trkpt lat="45.50803" lon="5.2242">
        <ele>469</ele>
        <time>2021-10-03T12:08:26.020Z</time>
      </trkpt>
      <trkpt lat="45.50803" lon="5.22428">
        <ele>469</ele>
        <time>2021-10-03T12:08:30.992Z</time>
      </trkpt>
      <trkpt lat="45.50802" lon="5.22438">
        <ele>470</ele>
        <time>2021-10-03T12:08:35.987Z</time>
      </trkpt>
      <trkpt lat="45.50802" lon="5.22448">
        <ele>470</ele>
        <time>2021-10-03T12:08:40.993Z</time>
      </trkpt>
      <trkpt lat="45.50802" lon="5.22458">
        <ele>470</ele>
        <time>2021-10-03T12:08:45.992Z</time>
      </trkpt>
      <trkpt lat="45.50803" lon="5.22465">
        <ele>471</ele>
        <time>2021-10-03T12:08:50.018Z</time>
      </trkpt>
      <trkpt lat="45.50804" lon="5.22475">
        <ele>471</ele>
        <time>2021-10-03T12:08:54.989Z</time>
      </trkpt>
      <trkpt lat="45.50805" lon="5.22482">
        <ele>471</ele>
        <time>2021-10-03T12:08:59.019Z</time>
      </trkpt>
      <trkpt lat="45.50806" lon="5.22489">
        <ele>472</ele>
        <time>2021-10-03T12:09:03.029Z</time>
      </trkpt>
      <trkpt lat="45.50806" lon="5.22498">
        <ele>472</ele>
        <time>2021-10-03T12:09:08.003Z</time>
      </trkpt>
      <trkpt lat="45.50807" lon="5.22505">
        <ele>472</ele>
        <time>2021-10-03T12:09:12.024Z</time>
      </trkpt>
      <trkpt lat="45.50808" lon="5.22516">
        <ele>472</ele>
        <time>2021-10-03T12:09:17.017Z</time>
      </trkpt>
      <trkpt lat="45.5081" lon="5.22524">
        <ele>472</ele>
        <time>2021-10-03T12:09:21.025Z</time>
      </trkpt>
      <trkpt lat="45.50809" lon="5.22534">
        <ele>472</ele>
        <time>2021-10-03T12:09:26.020Z</time>
      </trkpt>
      <trkpt lat="45.50809" lon="5.2254">
        <ele>472</ele>
        <time>2021-10-03T12:09:30.028Z</time>
      </trkpt>
      <trkpt lat="45.50808" lon="5.22548">
        <ele>473</ele>
        <time>2021-10-03T12:09:35.016Z</time>
      </trkpt>
      <trkpt lat="45.50806" lon="5.22556">
        <ele>473</ele>
        <time>2021-10-03T12:09:40.052Z</time>
      </trkpt>
      <trkpt lat="45.50803" lon="5.22564">
        <ele>473</ele>
        <time>2021-10-03T12:09:44.990Z</time>
      </trkpt>
      <trkpt lat="45.508" lon="5.2257">
        <ele>473</ele>
        <time>2021-10-03T12:09:48.990Z</time>
      </trkpt>
      <trkpt lat="45.50795" lon="5.22578">
        <ele>473</ele>
        <time>2021-10-03T12:09:54.010Z</time>
      </trkpt>
      <trkpt lat="45.50787" lon="5.22588">
        <ele>468</ele>
        <time>2021-10-03T12:09:58.992Z</time>
      </trkpt>
      <trkpt lat="45.50782" lon="5.22598">
        <ele>469</ele>
        <time>2021-10-03T12:10:04Z</time>
      </trkpt>
      <trkpt lat="45.50778" lon="5.22606">
        <ele>469</ele>
        <time>2021-10-03T12:10:08.009Z</time>
      </trkpt>
      <trkpt lat="45.50775" lon="5.22621">
        <ele>469</ele>
        <time>2021-10-03T12:10:13.025Z</time>
      </trkpt>
      <trkpt lat="45.50769" lon="5.22652">
        <ele>472</ele>
        <time>2021-10-03T12:10:18.021Z</time>
      </trkpt>
      <trkpt lat="45.5077" lon="5.22668">
        <ele>473</ele>
        <time>2021-10-03T12:10:22.995Z</time>
      </trkpt>
      <trkpt lat="45.50771" lon="5.22683">
        <ele>474</ele>
        <time>2021-10-03T12:10:27.993Z</time>
      </trkpt>
      <trkpt lat="45.50772" lon="5.22696">
        <ele>474</ele>
        <time>2021-10-03T12:10:31.998Z</time>
      </trkpt>
      <trkpt lat="45.50772" lon="5.2271">
        <ele>475</ele>
        <time>2021-10-03T12:10:36.998Z</time>
      </trkpt>
      <trkpt lat="45.50772" lon="5.22726">
        <ele>475</ele>
        <time>2021-10-03T12:10:41.985Z</time>
      </trkpt>
      <trkpt lat="45.50771" lon="5.22738">
        <ele>477</ele>
        <time>2021-10-03T12:10:45.993Z</time>
      </trkpt>
      <trkpt lat="45.50726" lon="5.23024">
        <ele>480</ele>
        <time>2021-10-03T12:12:30.005Z</time>
      </trkpt>
      <trkpt lat="45.50729" lon="5.23042">
        <ele>481</ele>
        <time>2021-10-03T12:12:34.996Z</time>
      </trkpt>
      <trkpt lat="45.50733" lon="5.23058">
        <ele>481</ele>
        <time>2021-10-03T12:12:39.987Z</time>
      </trkpt>
      <trkpt lat="45.50735" lon="5.23073">
        <ele>482</ele>
        <time>2021-10-03T12:12:45.032Z</time>
      </trkpt>
      <trkpt lat="45.50741" lon="5.2309">
        <ele>485</ele>
        <time>2021-10-03T12:12:49.984Z</time>
      </trkpt>
      <trkpt lat="45.50743" lon="5.23105">
        <ele>486</ele>
        <time>2021-10-03T12:12:54.959Z</time>
      </trkpt>
      <trkpt lat="45.50745" lon="5.23126">
        <ele>486</ele>
        <time>2021-10-03T12:12:59.979Z</time>
      </trkpt>
      <trkpt lat="45.50747" lon="5.23142">
        <ele>486</ele>
        <time>2021-10-03T12:13:04.980Z</time>
      </trkpt>
      <trkpt lat="45.5075" lon="5.23155">
        <ele>486</ele>
        <time>2021-10-03T12:13:08.991Z</time>
      </trkpt>
      <trkpt lat="45.50751" lon="5.23169">
        <ele>486</ele>
        <time>2021-10-03T12:13:13.948Z</time>
      </trkpt>
      <trkpt lat="45.50753" lon="5.23183">
        <ele>483</ele>
        <time>2021-10-03T12:13:19.007Z</time>
      </trkpt>
      <trkpt lat="45.50754" lon="5.23196">
        <ele>483</ele>
        <time>2021-10-03T12:13:23.993Z</time>
      </trkpt>
      <trkpt lat="45.50756" lon="5.23207">
        <ele>483</ele>
        <time>2021-10-03T12:13:29.015Z</time>
      </trkpt>
      <trkpt lat="45.50759" lon="5.23219">
        <ele>481</ele>
        <time>2021-10-03T12:13:33.985Z</time>
      </trkpt>
      <trkpt lat="45.50761" lon="5.23231">
        <ele>481</ele>
        <time>2021-10-03T12:13:38.997Z</time>
      </trkpt>
      <trkpt lat="45.50763" lon="5.23241">
        <ele>478</ele>
        <time>2021-10-03T12:13:43.990Z</time>
      </trkpt>
      <trkpt lat="45.50766" lon="5.23251">
        <ele>483</ele>
        <time>2021-10-03T12:13:48.990Z</time>
      </trkpt>
      <trkpt lat="45.50768" lon="5.2326">
        <ele>483</ele>
        <time>2021-10-03T12:13:53.984Z</time>
      </trkpt>
      <trkpt lat="45.50771" lon="5.23269">
        <ele>479</ele>
        <time>2021-10-03T12:13:58.998Z</time>
      </trkpt>
      <trkpt lat="45.50772" lon="5.23279">
        <ele>479</ele>
        <time>2021-10-03T12:14:03.987Z</time>
      </trkpt>
      <trkpt lat="45.50775" lon="5.23288">
        <ele>479</ele>
        <time>2021-10-03T12:14:08.010Z</time>
      </trkpt>
      <trkpt lat="45.50777" lon="5.23298">
        <ele>472</ele>
        <time>2021-10-03T12:14:12.978Z</time>
      </trkpt>
      <trkpt lat="45.50778" lon="5.23308">
        <ele>472</ele>
        <time>2021-10-03T12:14:17.996Z</time>
      </trkpt>
      <trkpt lat="45.50778" lon="5.23318">
        <ele>472</ele>
        <time>2021-10-03T12:14:22.035Z</time>
      </trkpt>
      <trkpt lat="45.50777" lon="5.23328">
        <ele>466</ele>
        <time>2021-10-03T12:14:26.994Z</time>
      </trkpt>
      <trkpt lat="45.50776" lon="5.23336">
        <ele>466</ele>
        <time>2021-10-03T12:14:31.023Z</time>
      </trkpt>
      <trkpt lat="45.50777" lon="5.23345">
        <ele>466</ele>
        <time>2021-10-03T12:14:36.026Z</time>
      </trkpt>
      <trkpt lat="45.50778" lon="5.23355">
        <ele>464</ele>
        <time>2021-10-03T12:14:41Z</time>
      </trkpt>
      <trkpt lat="45.50779" lon="5.23364">
        <ele>464</ele>
        <time>2021-10-03T12:14:45.982Z</time>
      </trkpt>
      <trkpt lat="45.50779" lon="5.23371">
        <ele>464</ele>
        <time>2021-10-03T12:14:49.989Z</time>
      </trkpt>
      <trkpt lat="45.50782" lon="5.23379">
        <ele>464</ele>
        <time>2021-10-03T12:14:54.956Z</time>
      </trkpt>
      <trkpt lat="45.50785" lon="5.23384">
        <ele>464</ele>
        <time>2021-10-03T12:14:58.983Z</time>
      </trkpt>
      <trkpt lat="45.50788" lon="5.23389">
        <ele>464</ele>
        <time>2021-10-03T12:15:02.995Z</time>
      </trkpt>
      <trkpt lat="45.50793" lon="5.23396">
        <ele>469</ele>
        <time>2021-10-03T12:15:07.981Z</time>
      </trkpt>
      <trkpt lat="45.50794" lon="5.23404">
        <ele>465</ele>
        <time>2021-10-03T12:15:11.999Z</time>
      </trkpt>
      <trkpt lat="45.50796" lon="5.23414">
        <ele>465</ele>
        <time>2021-10-03T12:15:16.987Z</time>
      </trkpt>
      <trkpt lat="45.50799" lon="5.23423">
        <ele>465</ele>
        <time>2021-10-03T12:15:21.982Z</time>
      </trkpt>
      <trkpt lat="45.508" lon="5.23431">
        <ele>463</ele>
        <time>2021-10-03T12:15:26.022Z</time>
      </trkpt>
      <trkpt lat="45.50801" lon="5.23442">
        <ele>463</ele>
        <time>2021-10-03T12:15:30.999Z</time>
      </trkpt>
      <trkpt lat="45.50804" lon="5.23449">
        <ele>463</ele>
        <time>2021-10-03T12:15:35.023Z</time>
      </trkpt>
      <trkpt lat="45.50806" lon="5.23459">
        <ele>460</ele>
        <time>2021-10-03T12:15:39.991Z</time>
      </trkpt>
      <trkpt lat="45.50809" lon="5.23468">
        <ele>460</ele>
        <time>2021-10-03T12:15:44.988Z</time>
      </trkpt>
      <trkpt lat="45.50812" lon="5.23475">
        <ele>460</ele>
        <time>2021-10-03T12:15:49.022Z</time>
      </trkpt>
      <trkpt lat="45.50816" lon="5.23484">
        <ele>460</ele>
        <time>2021-10-03T12:15:53.981Z</time>
      </trkpt>
      <trkpt lat="45.50818" lon="5.23492">
        <ele>458</ele>
        <time>2021-10-03T12:15:57.994Z</time>
      </trkpt>
      <trkpt lat="45.5082" lon="5.23502">
        <ele>464</ele>
        <time>2021-10-03T12:16:02.995Z</time>
      </trkpt>
      <trkpt lat="45.50822" lon="5.2351">
        <ele>464</ele>
        <time>2021-10-03T12:16:07.002Z</time>
      </trkpt>
      <trkpt lat="45.50822" lon="5.2352">
        <ele>463</ele>
        <time>2021-10-03T12:16:11.982Z</time>
      </trkpt>
      <trkpt lat="45.50822" lon="5.23529">
        <ele>463</ele>
        <time>2021-10-03T12:16:15.991Z</time>
      </trkpt>
      <trkpt lat="45.50822" lon="5.23539">
        <ele>463</ele>
        <time>2021-10-03T12:16:20.974Z</time>
      </trkpt>
      <trkpt lat="45.50821" lon="5.23548">
        <ele>465</ele>
        <time>2021-10-03T12:16:24.995Z</time>
      </trkpt>
      <trkpt lat="45.50821" lon="5.23555">
        <ele>465</ele>
        <time>2021-10-03T12:16:28.992Z</time>
      </trkpt>
      <trkpt lat="45.50819" lon="5.23566">
        <ele>461</ele>
        <time>2021-10-03T12:16:33.978Z</time>
      </trkpt>
      <trkpt lat="45.50815" lon="5.23575">
        <ele>463</ele>
        <time>2021-10-03T12:16:37.986Z</time>
      </trkpt>
      <trkpt lat="45.5081" lon="5.23592">
        <ele>463</ele>
        <time>2021-10-03T12:16:42.944Z</time>
      </trkpt>
      <trkpt lat="45.50805" lon="5.23601">
        <ele>464</ele>
        <time>2021-10-03T12:16:46.981Z</time>
      </trkpt>
      <trkpt lat="45.50803" lon="5.23611">
        <ele>464</ele>
        <time>2021-10-03T12:16:50.993Z</time>
      </trkpt>
      <trkpt lat="45.50799" lon="5.23623">
        <ele>464</ele>
        <time>2021-10-03T12:16:55.954Z</time>
      </trkpt>
      <trkpt lat="45.50797" lon="5.23633">
        <ele>468</ele>
        <time>2021-10-03T12:16:59.979Z</time>
      </trkpt>
      <trkpt lat="45.50794" lon="5.2364">
        <ele>468</ele>
        <time>2021-10-03T12:17:03.992Z</time>
      </trkpt>
      <trkpt lat="45.50792" lon="5.23647">
        <ele>468</ele>
        <time>2021-10-03T12:17:07.993Z</time>
      </trkpt>
      <trkpt lat="45.50788" lon="5.23654">
        <ele>463</ele>
        <time>2021-10-03T12:17:11.991Z</time>
      </trkpt>
      <trkpt lat="45.50784" lon="5.23661">
        <ele>463</ele>
        <time>2021-10-03T12:17:16.982Z</time>
      </trkpt>
      <trkpt lat="45.50781" lon="5.23668">
        <ele>463</ele>
        <time>2021-10-03T12:17:20.996Z</time>
      </trkpt>
      <trkpt lat="45.50776" lon="5.23674">
        <ele>463</ele>
        <time>2021-10-03T12:17:26.013Z</time>
      </trkpt>
      <trkpt lat="45.50772" lon="5.23682">
        <ele>469</ele>
        <time>2021-10-03T12:17:30.994Z</time>
      </trkpt>
      <trkpt lat="45.50767" lon="5.23693">
        <ele>469</ele>
        <time>2021-10-03T12:17:35.964Z</time>
      </trkpt>
      <trkpt lat="45.50762" lon="5.23701">
        <ele>462</ele>
        <time>2021-10-03T12:17:39.979Z</time>
      </trkpt>
      <trkpt lat="45.50758" lon="5.23707">
        <ele>462</ele>
        <time>2021-10-03T12:17:44.019Z</time>
      </trkpt>
      <trkpt lat="45.50753" lon="5.23714">
        <ele>466</ele>
        <time>2021-10-03T12:17:48.999Z</time>
      </trkpt>
      <trkpt lat="45.50746" lon="5.23722">
        <ele>466</ele>
        <time>2021-10-03T12:17:53.980Z</time>
      </trkpt>
      <trkpt lat="45.50742" lon="5.2373">
        <ele>466</ele>
        <time>2021-10-03T12:17:58.946Z</time>
      </trkpt>
      <trkpt lat="45.5074" lon="5.23736">
        <ele>470</ele>
        <time>2021-10-03T12:18:02.988Z</time>
      </trkpt>
      <trkpt lat="45.50735" lon="5.23744">
        <ele>460</ele>
        <time>2021-10-03T12:18:08.038Z</time>
      </trkpt>
      <trkpt lat="45.50731" lon="5.23752">
        <ele>460</ele>
        <time>2021-10-03T12:18:13.023Z</time>
      </trkpt>
      <trkpt lat="45.50727" lon="5.23759">
        <ele>460</ele>
        <time>2021-10-03T12:18:17.992Z</time>
      </trkpt>
      <trkpt lat="45.50725" lon="5.23767">
        <ele>462</ele>
        <time>2021-10-03T12:18:22.990Z</time>
      </trkpt>
      <trkpt lat="45.50723" lon="5.23774">
        <ele>462</ele>
        <time>2021-10-03T12:18:27.016Z</time>
      </trkpt>
      <trkpt lat="45.50722" lon="5.23784">
        <ele>462</ele>
        <time>2021-10-03T12:18:31.984Z</time>
      </trkpt>
      <trkpt lat="45.50721" lon="5.23793">
        <ele>464</ele>
        <time>2021-10-03T12:18:36.016Z</time>
      </trkpt>
      <trkpt lat="45.50721" lon="5.238">
        <ele>464</ele>
        <time>2021-10-03T12:18:40.025Z</time>
      </trkpt>
      <trkpt lat="45.50721" lon="5.23811">
        <ele>464</ele>
        <time>2021-10-03T12:18:45.020Z</time>
      </trkpt>
      <trkpt lat="45.50722" lon="5.23821">
        <ele>465</ele>
        <time>2021-10-03T12:18:49.998Z</time>
      </trkpt>
      <trkpt lat="45.5072" lon="5.23832">
        <ele>465</ele>
        <time>2021-10-03T12:18:54.949Z</time>
      </trkpt>
      <trkpt lat="45.5072" lon="5.2384">
        <ele>465</ele>
        <time>2021-10-03T12:18:58.993Z</time>
      </trkpt>
      <trkpt lat="45.50719" lon="5.23851">
        <ele>466</ele>
        <time>2021-10-03T12:19:03.949Z</time>
      </trkpt>
      <trkpt lat="45.50719" lon="5.2386">
        <ele>466</ele>
        <time>2021-10-03T12:19:07.998Z</time>
      </trkpt>
      <trkpt lat="45.50719" lon="5.2387">
        <ele>466</ele>
        <time>2021-10-03T12:19:12.999Z</time>
      </trkpt>
      <trkpt lat="45.50719" lon="5.2388">
        <ele>466</ele>
        <time>2021-10-03T12:19:17.986Z</time>
      </trkpt>
      <trkpt lat="45.50721" lon="5.23888">
        <ele>466</ele>
        <time>2021-10-03T12:19:22.979Z</time>
      </trkpt>
      <trkpt lat="45.50722" lon="5.23898">
        <ele>466</ele>
        <time>2021-10-03T12:19:28.015Z</time>
      </trkpt>
      <trkpt lat="45.50722" lon="5.23906">
        <ele>465</ele>
        <time>2021-10-03T12:19:32.987Z</time>
      </trkpt>
      <trkpt lat="45.50724" lon="5.23915">
        <ele>465</ele>
        <time>2021-10-03T12:19:37.984Z</time>
      </trkpt>
      <trkpt lat="45.50728" lon="5.2393">
        <ele>465</ele>
        <time>2021-10-03T12:19:42.994Z</time>
      </trkpt>
      <trkpt lat="45.50727" lon="5.23944">
        <ele>465</ele>
        <time>2021-10-03T12:19:47.988Z</time>
      </trkpt>
      <trkpt lat="45.50726" lon="5.23957">
        <ele>465</ele>
        <time>2021-10-03T12:19:52.992Z</time>
      </trkpt>
      <trkpt lat="45.50728" lon="5.23965">
        <ele>464</ele>
        <time>2021-10-03T12:19:57.026Z</time>
      </trkpt>
      <trkpt lat="45.50732" lon="5.2397">
        <ele>464</ele>
        <time>2021-10-03T12:20:01.033Z</time>
      </trkpt>
      <trkpt lat="45.50742" lon="5.23974">
        <ele>472</ele>
        <time>2021-10-03T12:20:05.975Z</time>
      </trkpt>
      <trkpt lat="45.50747" lon="5.2398">
        <ele>472</ele>
        <time>2021-10-03T12:20:10.993Z</time>
      </trkpt>
      <trkpt lat="45.50752" lon="5.2398">
        <ele>472</ele>
        <time>2021-10-03T12:20:15.003Z</time>
      </trkpt>
      <trkpt lat="45.50758" lon="5.23981">
        <ele>472</ele>
        <time>2021-10-03T12:20:19.020Z</time>
      </trkpt>
      <trkpt lat="45.50764" lon="5.23984">
        <ele>478</ele>
        <time>2021-10-03T12:20:23.975Z</time>
      </trkpt>
      <trkpt lat="45.5077" lon="5.23984">
        <ele>478</ele>
        <time>2021-10-03T12:20:27.985Z</time>
      </trkpt>
      <trkpt lat="45.50777" lon="5.23985">
        <ele>478</ele>
        <time>2021-10-03T12:20:32.992Z</time>
      </trkpt>
      <trkpt lat="45.50784" lon="5.23986">
        <ele>478</ele>
        <time>2021-10-03T12:20:37.991Z</time>
      </trkpt>
      <trkpt lat="45.5079" lon="5.23987">
        <ele>474</ele>
        <time>2021-10-03T12:20:42.984Z</time>
      </trkpt>
      <trkpt lat="45.50796" lon="5.2399">
        <ele>478</ele>
        <time>2021-10-03T12:20:48.013Z</time>
      </trkpt>
      <trkpt lat="45.50802" lon="5.23993">
        <ele>478</ele>
        <time>2021-10-03T12:20:52.030Z</time>
      </trkpt>
      <trkpt lat="45.50808" lon="5.24">
        <ele>478</ele>
        <time>2021-10-03T12:20:56.948Z</time>
      </trkpt>
      <trkpt lat="45.50815" lon="5.24008">
        <ele>478</ele>
        <time>2021-10-03T12:21:01.954Z</time>
      </trkpt>
      <trkpt lat="45.50822" lon="5.24014">
        <ele>483</ele>
        <time>2021-10-03T12:21:06.018Z</time>
      </trkpt>
      <trkpt lat="45.50828" lon="5.2402">
        <ele>478</ele>
        <time>2021-10-03T12:21:10.992Z</time>
      </trkpt>
      <trkpt lat="45.50833" lon="5.24025">
        <ele>478</ele>
        <time>2021-10-03T12:21:15.028Z</time>
      </trkpt>
      <trkpt lat="45.50842" lon="5.24032">
        <ele>478</ele>
        <time>2021-10-03T12:21:19.956Z</time>
      </trkpt>
      <trkpt lat="45.50849" lon="5.24039">
        <ele>481</ele>
        <time>2021-10-03T12:21:23.998Z</time>
      </trkpt>
      <trkpt lat="45.50853" lon="5.24047">
        <ele>474</ele>
        <time>2021-10-03T12:21:29.013Z</time>
      </trkpt>
      <trkpt lat="45.50858" lon="5.24056">
        <ele>474</ele>
        <time>2021-10-03T12:21:33.977Z</time>
      </trkpt>
      <trkpt lat="45.50862" lon="5.24064">
        <ele>474</ele>
        <time>2021-10-03T12:21:37.988Z</time>
      </trkpt>
      <trkpt lat="45.50872" lon="5.24075">
        <ele>468</ele>
        <time>2021-10-03T12:21:42.983Z</time>
      </trkpt>
      <trkpt lat="45.50882" lon="5.24097">
        <ele>471</ele>
        <time>2021-10-03T12:21:46.996Z</time>
      </trkpt>
      <trkpt lat="45.50884" lon="5.24111">
        <ele>467</ele>
        <time>2021-10-03T12:21:52Z</time>
      </trkpt>
      <trkpt lat="45.50886" lon="5.24124">
        <ele>467</ele>
        <time>2021-10-03T12:21:56.946Z</time>
      </trkpt>
      <trkpt lat="45.50888" lon="5.24133">
        <ele>466</ele>
        <time>2021-10-03T12:22:00.954Z</time>
      </trkpt>
      <trkpt lat="45.50893" lon="5.24138">
        <ele>466</ele>
        <time>2021-10-03T12:22:04.990Z</time>
      </trkpt>
      <trkpt lat="45.509" lon="5.24143">
        <ele>466</ele>
        <time>2021-10-03T12:22:09.992Z</time>
      </trkpt>
      <trkpt lat="45.5091" lon="5.24147">
        <ele>471</ele>
        <time>2021-10-03T12:22:15.004Z</time>
      </trkpt>
      <trkpt lat="45.50915" lon="5.2415">
        <ele>471</ele>
        <time>2021-10-03T12:22:19.943Z</time>
      </trkpt>
      <trkpt lat="45.50928" lon="5.24154">
        <ele>469</ele>
        <time>2021-10-03T12:22:23.984Z</time>
      </trkpt>
      <trkpt lat="45.50936" lon="5.24157">
        <ele>476</ele>
        <time>2021-10-03T12:22:28.972Z</time>
      </trkpt>
      <trkpt lat="45.50941" lon="5.24161">
        <ele>476</ele>
        <time>2021-10-03T12:22:32.989Z</time>
      </trkpt>
      <trkpt lat="45.5095" lon="5.24169">
        <ele>476</ele>
        <time>2021-10-03T12:22:37.996Z</time>
      </trkpt>
      <trkpt lat="45.50961" lon="5.24178">
        <ele>483</ele>
        <time>2021-10-03T12:22:42.991Z</time>
      </trkpt>
      <trkpt lat="45.50972" lon="5.2419">
        <ele>479</ele>
        <time>2021-10-03T12:22:48Z</time>
      </trkpt>
      <trkpt lat="45.50977" lon="5.24199">
        <ele>479</ele>
        <time>2021-10-03T12:22:52.993Z</time>
      </trkpt>
      <trkpt lat="45.50983" lon="5.2421">
        <ele>476</ele>
        <time>2021-10-03T12:22:57.995Z</time>
      </trkpt>
      <trkpt lat="45.50989" lon="5.24223">
        <ele>480</ele>
        <time>2021-10-03T12:23:02.954Z</time>
      </trkpt>
      <trkpt lat="45.50994" lon="5.24234">
        <ele>480</ele>
        <time>2021-10-03T12:23:06.985Z</time>
      </trkpt>
      <trkpt lat="45.51001" lon="5.24249">
        <ele>477</ele>
        <time>2021-10-03T12:23:11.983Z</time>
      </trkpt>
      <trkpt lat="45.51007" lon="5.24259">
        <ele>477</ele>
        <time>2021-10-03T12:23:16.032Z</time>
      </trkpt>
      <trkpt lat="45.51016" lon="5.24269">
        <ele>478</ele>
        <time>2021-10-03T12:23:20.983Z</time>
      </trkpt>
      <trkpt lat="45.51025" lon="5.2428">
        <ele>478</ele>
        <time>2021-10-03T12:23:25.999Z</time>
      </trkpt>
      <trkpt lat="45.51033" lon="5.24288">
        <ele>478</ele>
        <time>2021-10-03T12:23:30.947Z</time>
      </trkpt>
      <trkpt lat="45.5104" lon="5.24295">
        <ele>475</ele>
        <time>2021-10-03T12:23:34.960Z</time>
      </trkpt>
      <trkpt lat="45.51046" lon="5.24299">
        <ele>479</ele>
        <time>2021-10-03T12:23:38.974Z</time>
      </trkpt>
      <trkpt lat="45.51052" lon="5.24306">
        <ele>479</ele>
        <time>2021-10-03T12:23:42.988Z</time>
      </trkpt>
      <trkpt lat="45.51059" lon="5.24314">
        <ele>479</ele>
        <time>2021-10-03T12:23:47.978Z</time>
      </trkpt>
      <trkpt lat="45.51065" lon="5.24318">
        <ele>479</ele>
        <time>2021-10-03T12:23:51.980Z</time>
      </trkpt>
      <trkpt lat="45.51072" lon="5.24323">
        <ele>479</ele>
        <time>2021-10-03T12:23:56.980Z</time>
      </trkpt>
      <trkpt lat="45.51078" lon="5.24324">
        <ele>479</ele>
        <time>2021-10-03T12:24:00.987Z</time>
      </trkpt>
      <trkpt lat="45.51086" lon="5.24326">
        <ele>479</ele>
        <time>2021-10-03T12:24:04.997Z</time>
      </trkpt>
      <trkpt lat="45.51094" lon="5.24327">
        <ele>479</ele>
        <time>2021-10-03T12:24:10.002Z</time>
      </trkpt>
      <trkpt lat="45.51102" lon="5.2433">
        <ele>480</ele>
        <time>2021-10-03T12:24:14.943Z</time>
      </trkpt>
      <trkpt lat="45.51109" lon="5.24332">
        <ele>480</ele>
        <time>2021-10-03T12:24:18.985Z</time>
      </trkpt>
      <trkpt lat="45.51116" lon="5.24334">
        <ele>480</ele>
        <time>2021-10-03T12:24:23Z</time>
      </trkpt>
      <trkpt lat="45.51121" lon="5.24331">
        <ele>480</ele>
        <time>2021-10-03T12:24:27.970Z</time>
      </trkpt>
      <trkpt lat="45.51125" lon="5.2433">
        <ele>480</ele>
        <time>2021-10-03T12:24:31.995Z</time>
      </trkpt>
      <trkpt lat="45.51129" lon="5.24331">
        <ele>483</ele>
        <time>2021-10-03T12:24:40.999Z</time>
      </trkpt>
      <trkpt lat="45.51132" lon="5.2433">
        <ele>483</ele>
        <time>2021-10-03T12:24:45.992Z</time>
      </trkpt>
      <trkpt lat="45.51133" lon="5.2433">
        <ele>483</ele>
        <time>2021-10-03T12:24:50.983Z</time>
      </trkpt>
      <trkpt lat="45.51135" lon="5.24333">
        <ele>483</ele>
        <time>2021-10-03T12:24:55.001Z</time>
      </trkpt>
      <trkpt lat="45.51138" lon="5.24337">
        <ele>483</ele>
        <time>2021-10-03T12:24:59.008Z</time>
      </trkpt>
      <trkpt lat="45.51142" lon="5.24342">
        <ele>483</ele>
        <time>2021-10-03T12:25:03.950Z</time>
      </trkpt>
      <trkpt lat="45.51144" lon="5.24345">
        <ele>483</ele>
        <time>2021-10-03T12:25:07.973Z</time>
      </trkpt>
      <trkpt lat="45.51148" lon="5.24351">
        <ele>478</ele>
        <time>2021-10-03T12:25:11.985Z</time>
      </trkpt>
      <trkpt lat="45.51152" lon="5.24358">
        <ele>478</ele>
        <time>2021-10-03T12:25:16.984Z</time>
      </trkpt>
      <trkpt lat="45.51156" lon="5.24366">
        <ele>479</ele>
        <time>2021-10-03T12:25:21.015Z</time>
      </trkpt>
      <trkpt lat="45.51161" lon="5.24373">
        <ele>479</ele>
        <time>2021-10-03T12:25:25.992Z</time>
      </trkpt>
      <trkpt lat="45.51166" lon="5.2438">
        <ele>478</ele>
        <time>2021-10-03T12:25:30.982Z</time>
      </trkpt>
      <trkpt lat="45.5117" lon="5.24386">
        <ele>478</ele>
        <time>2021-10-03T12:25:34.986Z</time>
      </trkpt>
      <trkpt lat="45.51178" lon="5.24399">
        <ele>478</ele>
        <time>2021-10-03T12:25:53.984Z</time>
      </trkpt>
      <trkpt lat="45.51172" lon="5.24402">
        <ele>478</ele>
        <time>2021-10-03T12:25:58.990Z</time>
      </trkpt>
      <trkpt lat="45.5117" lon="5.24406">
        <ele>478</ele>
        <time>2021-10-03T12:26:03.012Z</time>
      </trkpt>
      <trkpt lat="45.51177" lon="5.2441">
        <ele>478</ele>
        <time>2021-10-03T12:26:07.990Z</time>
      </trkpt>
      <trkpt lat="45.51183" lon="5.24414">
        <ele>478</ele>
        <time>2021-10-03T12:26:11.993Z</time>
      </trkpt>
      <trkpt lat="45.51187" lon="5.24418">
        <ele>478</ele>
        <time>2021-10-03T12:26:15.997Z</time>
      </trkpt>
      <trkpt lat="45.51193" lon="5.24421">
        <ele>478</ele>
        <time>2021-10-03T12:26:20.989Z</time>
      </trkpt>
      <trkpt lat="45.51198" lon="5.24423">
        <ele>478</ele>
        <time>2021-10-03T12:26:25.005Z</time>
      </trkpt>
      <trkpt lat="45.51205" lon="5.24427">
        <ele>478</ele>
        <time>2021-10-03T12:26:29.987Z</time>
      </trkpt>
      <trkpt lat="45.51212" lon="5.24428">
        <ele>480</ele>
        <time>2021-10-03T12:26:33.989Z</time>
      </trkpt>
      <trkpt lat="45.5122" lon="5.24426">
        <ele>480</ele>
        <time>2021-10-03T12:26:38.975Z</time>
      </trkpt>
      <trkpt lat="45.51227" lon="5.24426">
        <ele>480</ele>
        <time>2021-10-03T12:26:42.983Z</time>
      </trkpt>
      <trkpt lat="45.51234" lon="5.24426">
        <ele>480</ele>
        <time>2021-10-03T12:26:48.029Z</time>
      </trkpt>
      <trkpt lat="45.51241" lon="5.24426">
        <ele>483</ele>
        <time>2021-10-03T12:26:52.981Z</time>
      </trkpt>
      <trkpt lat="45.51247" lon="5.24427">
        <ele>483</ele>
        <time>2021-10-03T12:26:57.024Z</time>
      </trkpt>
      <trkpt lat="45.51254" lon="5.24427">
        <ele>483</ele>
        <time>2021-10-03T12:27:01.997Z</time>
      </trkpt>
      <trkpt lat="45.51264" lon="5.24432">
        <ele>479</ele>
        <time>2021-10-03T12:27:06.944Z</time>
      </trkpt>
      <trkpt lat="45.51272" lon="5.24435">
        <ele>479</ele>
        <time>2021-10-03T12:27:10.964Z</time>
      </trkpt>
      <trkpt lat="45.5128" lon="5.24436">
        <ele>479</ele>
        <time>2021-10-03T12:27:15.962Z</time>
      </trkpt>
      <trkpt lat="45.51288" lon="5.24437">
        <ele>479</ele>
        <time>2021-10-03T12:27:19.969Z</time>
      </trkpt>
      <trkpt lat="45.51295" lon="5.24435">
        <ele>477</ele>
        <time>2021-10-03T12:27:24.986Z</time>
      </trkpt>
      <trkpt lat="45.51304" lon="5.24436">
        <ele>477</ele>
        <time>2021-10-03T12:27:29.986Z</time>
      </trkpt>
      <trkpt lat="45.5131" lon="5.24436">
        <ele>477</ele>
        <time>2021-10-03T12:27:33.998Z</time>
      </trkpt>
      <trkpt lat="45.51315" lon="5.24436">
        <ele>477</ele>
        <time>2021-10-03T12:27:38.020Z</time>
      </trkpt>
      <trkpt lat="45.51323" lon="5.24434">
        <ele>476</ele>
        <time>2021-10-03T12:27:42.993Z</time>
      </trkpt>
      <trkpt lat="45.5133" lon="5.24432">
        <ele>476</ele>
        <time>2021-10-03T12:27:47.960Z</time>
      </trkpt>
      <trkpt lat="45.51336" lon="5.24432">
        <ele>476</ele>
        <time>2021-10-03T12:27:52.007Z</time>
      </trkpt>
      <trkpt lat="45.51343" lon="5.24432">
        <ele>476</ele>
        <time>2021-10-03T12:27:56.984Z</time>
      </trkpt>
      <trkpt lat="45.51349" lon="5.24431">
        <ele>476</ele>
        <time>2021-10-03T12:28:00.987Z</time>
      </trkpt>
      <trkpt lat="45.51357" lon="5.24429">
        <ele>478</ele>
        <time>2021-10-03T12:28:05.992Z</time>
      </trkpt>
      <trkpt lat="45.51363" lon="5.24429">
        <ele>478</ele>
        <time>2021-10-03T12:28:10.026Z</time>
      </trkpt>
      <trkpt lat="45.51369" lon="5.24428">
        <ele>478</ele>
        <time>2021-10-03T12:28:14.993Z</time>
      </trkpt>
      <trkpt lat="45.51376" lon="5.24426">
        <ele>478</ele>
        <time>2021-10-03T12:28:19.998Z</time>
      </trkpt>
      <trkpt lat="45.51384" lon="5.24425">
        <ele>478</ele>
        <time>2021-10-03T12:28:24.980Z</time>
      </trkpt>
      <trkpt lat="45.5139" lon="5.24425">
        <ele>478</ele>
        <time>2021-10-03T12:28:28.996Z</time>
      </trkpt>
      <trkpt lat="45.51396" lon="5.24425">
        <ele>478</ele>
        <time>2021-10-03T12:28:33.026Z</time>
      </trkpt>
      <trkpt lat="45.51404" lon="5.24427">
        <ele>477</ele>
        <time>2021-10-03T12:28:37.997Z</time>
      </trkpt>
      <trkpt lat="45.51411" lon="5.24428">
        <ele>477</ele>
        <time>2021-10-03T12:28:42.022Z</time>
      </trkpt>
      <trkpt lat="45.51418" lon="5.24429">
        <ele>477</ele>
        <time>2021-10-03T12:28:47.017Z</time>
      </trkpt>
      <trkpt lat="45.51423" lon="5.24429">
        <ele>477</ele>
        <time>2021-10-03T12:28:51.032Z</time>
      </trkpt>
      <trkpt lat="45.5143" lon="5.2443">
        <ele>477</ele>
        <time>2021-10-03T12:28:55.994Z</time>
      </trkpt>
      <trkpt lat="45.51436" lon="5.24432">
        <ele>477</ele>
        <time>2021-10-03T12:29:00.025Z</time>
      </trkpt>
      <trkpt lat="45.51445" lon="5.24435">
        <ele>477</ele>
        <time>2021-10-03T12:29:04.947Z</time>
      </trkpt>
      <trkpt lat="45.5145" lon="5.24437">
        <ele>477</ele>
        <time>2021-10-03T12:29:08.983Z</time>
      </trkpt>
      <trkpt lat="45.51456" lon="5.24438">
        <ele>477</ele>
        <time>2021-10-03T12:29:13.028Z</time>
      </trkpt>
      <trkpt lat="45.51463" lon="5.24441">
        <ele>476</ele>
        <time>2021-10-03T12:29:17.997Z</time>
      </trkpt>
      <trkpt lat="45.51463" lon="5.24447">
        <ele>476</ele>
        <time>2021-10-03T12:29:22.998Z</time>
      </trkpt>
      <trkpt lat="45.51461" lon="5.24456">
        <ele>476</ele>
        <time>2021-10-03T12:29:27.987Z</time>
      </trkpt>
      <trkpt lat="45.51458" lon="5.24466">
        <ele>479</ele>
        <time>2021-10-03T12:29:32.994Z</time>
      </trkpt>
      <trkpt lat="45.51455" lon="5.24473">
        <ele>479</ele>
        <time>2021-10-03T12:29:37.023Z</time>
      </trkpt>
      <trkpt lat="45.51451" lon="5.24482">
        <ele>479</ele>
        <time>2021-10-03T12:29:42.029Z</time>
      </trkpt>
      <trkpt lat="45.51447" lon="5.24491">
        <ele>480</ele>
        <time>2021-10-03T12:29:46.960Z</time>
      </trkpt>
      <trkpt lat="45.51443" lon="5.24499">
        <ele>480</ele>
        <time>2021-10-03T12:29:51.961Z</time>
      </trkpt>
      <trkpt lat="45.5144" lon="5.24507">
        <ele>480</ele>
        <time>2021-10-03T12:29:56.969Z</time>
      </trkpt>
      <trkpt lat="45.51436" lon="5.24516">
        <ele>481</ele>
        <time>2021-10-03T12:30:01.971Z</time>
      </trkpt>
      <trkpt lat="45.51433" lon="5.24524">
        <ele>481</ele>
        <time>2021-10-03T12:30:06.984Z</time>
      </trkpt>
      <trkpt lat="45.51429" lon="5.24532">
        <ele>483</ele>
        <time>2021-10-03T12:30:11.970Z</time>
      </trkpt>
      <trkpt lat="45.51427" lon="5.24539">
        <ele>483</ele>
        <time>2021-10-03T12:30:15.991Z</time>
      </trkpt>
      <trkpt lat="45.51424" lon="5.24549">
        <ele>482</ele>
        <time>2021-10-03T12:30:20.981Z</time>
      </trkpt>
      <trkpt lat="45.51421" lon="5.24559">
        <ele>482</ele>
        <time>2021-10-03T12:30:25.991Z</time>
      </trkpt>
      <trkpt lat="45.51419" lon="5.24568">
        <ele>482</ele>
        <time>2021-10-03T12:30:30.940Z</time>
      </trkpt>
      <trkpt lat="45.51417" lon="5.24576">
        <ele>484</ele>
        <time>2021-10-03T12:30:34.981Z</time>
      </trkpt>
      <trkpt lat="45.51414" lon="5.24585">
        <ele>484</ele>
        <time>2021-10-03T12:30:39.982Z</time>
      </trkpt>
      <trkpt lat="45.51411" lon="5.24594">
        <ele>484</ele>
        <time>2021-10-03T12:30:44.971Z</time>
      </trkpt>
      <trkpt lat="45.51408" lon="5.24604">
        <ele>485</ele>
        <time>2021-10-03T12:30:49.989Z</time>
      </trkpt>
      <trkpt lat="45.51404" lon="5.24614">
        <ele>485</ele>
        <time>2021-10-03T12:30:54.995Z</time>
      </trkpt>
      <trkpt lat="45.51401" lon="5.24624">
        <ele>484</ele>
        <time>2021-10-03T12:31:00.020Z</time>
      </trkpt>
      <trkpt lat="45.51398" lon="5.24634">
        <ele>485</ele>
        <time>2021-10-03T12:31:04.995Z</time>
      </trkpt>
      <trkpt lat="45.51396" lon="5.24644">
        <ele>485</ele>
        <time>2021-10-03T12:31:09.968Z</time>
      </trkpt>
      <trkpt lat="45.51393" lon="5.24653">
        <ele>484</ele>
        <time>2021-10-03T12:31:14.958Z</time>
      </trkpt>
      <trkpt lat="45.5139" lon="5.24665">
        <ele>484</ele>
        <time>2021-10-03T12:31:19.946Z</time>
      </trkpt>
      <trkpt lat="45.51388" lon="5.24673">
        <ele>484</ele>
        <time>2021-10-03T12:31:23.974Z</time>
      </trkpt>
      <trkpt lat="45.51386" lon="5.2468">
        <ele>484</ele>
        <time>2021-10-03T12:31:27.975Z</time>
      </trkpt>
      <trkpt lat="45.51384" lon="5.24688">
        <ele>485</ele>
        <time>2021-10-03T12:31:31.987Z</time>
      </trkpt>
      <trkpt lat="45.51382" lon="5.24697">
        <ele>485</ele>
        <time>2021-10-03T12:31:36.963Z</time>
      </trkpt>
      <trkpt lat="45.5138" lon="5.24705">
        <ele>485</ele>
        <time>2021-10-03T12:31:40.975Z</time>
      </trkpt>
      <trkpt lat="45.51377" lon="5.24713">
        <ele>487</ele>
        <time>2021-10-03T12:31:44.989Z</time>
      </trkpt>
      <trkpt lat="45.51374" lon="5.24723">
        <ele>488</ele>
        <time>2021-10-03T12:31:49.979Z</time>
      </trkpt>
      <trkpt lat="45.51372" lon="5.24732">
        <ele>488</ele>
        <time>2021-10-03T12:31:54.985Z</time>
      </trkpt>
      <trkpt lat="45.5137" lon="5.24739">
        <ele>490</ele>
        <time>2021-10-03T12:31:58.998Z</time>
      </trkpt>
      <trkpt lat="45.51367" lon="5.24747">
        <ele>490</ele>
        <time>2021-10-03T12:32:03.959Z</time>
      </trkpt>
      <trkpt lat="45.51365" lon="5.24755">
        <ele>490</ele>
        <time>2021-10-03T12:32:07.970Z</time>
      </trkpt>
      <trkpt lat="45.51361" lon="5.24762">
        <ele>490</ele>
        <time>2021-10-03T12:32:12.988Z</time>
      </trkpt>
      <trkpt lat="45.51356" lon="5.24769">
        <ele>492</ele>
        <time>2021-10-03T12:32:17.966Z</time>
      </trkpt>
      <trkpt lat="45.51354" lon="5.24776">
        <ele>492</ele>
        <time>2021-10-03T12:32:21.981Z</time>
      </trkpt>
      <trkpt lat="45.51352" lon="5.24783">
        <ele>492</ele>
        <time>2021-10-03T12:32:25.993Z</time>
      </trkpt>
      <trkpt lat="45.51349" lon="5.24792">
        <ele>494</ele>
        <time>2021-10-03T12:32:30.994Z</time>
      </trkpt>
      <trkpt lat="45.51351" lon="5.24804">
        <ele>494</ele>
        <time>2021-10-03T12:32:35.977Z</time>
      </trkpt>
      <trkpt lat="45.51351" lon="5.24819">
        <ele>494</ele>
        <time>2021-10-03T12:32:40.967Z</time>
      </trkpt>
      <trkpt lat="45.5135" lon="5.24833">
        <ele>495</ele>
        <time>2021-10-03T12:32:45.961Z</time>
      </trkpt>
      <trkpt lat="45.51348" lon="5.24844">
        <ele>495</ele>
        <time>2021-10-03T12:32:49.977Z</time>
      </trkpt>
      <trkpt lat="45.51347" lon="5.24855">
        <ele>498</ele>
        <time>2021-10-03T12:32:53.995Z</time>
      </trkpt>
      <trkpt lat="45.51346" lon="5.24867">
        <ele>498</ele>
        <time>2021-10-03T12:32:59.037Z</time>
      </trkpt>
      <trkpt lat="45.51345" lon="5.24879">
        <ele>498</ele>
        <time>2021-10-03T12:33:03.994Z</time>
      </trkpt>
      <trkpt lat="45.51345" lon="5.24888">
        <ele>498</ele>
        <time>2021-10-03T12:33:08.024Z</time>
      </trkpt>
      <trkpt lat="45.51344" lon="5.24899">
        <ele>498</ele>
        <time>2021-10-03T12:33:12.999Z</time>
      </trkpt>
      <trkpt lat="45.51344" lon="5.24907">
        <ele>500</ele>
        <time>2021-10-03T12:33:17.020Z</time>
      </trkpt>
      <trkpt lat="45.51345" lon="5.24918">
        <ele>500</ele>
        <time>2021-10-03T12:33:21.989Z</time>
      </trkpt>
      <trkpt lat="45.51344" lon="5.24927">
        <ele>500</ele>
        <time>2021-10-03T12:33:25.987Z</time>
      </trkpt>
      <trkpt lat="45.51344" lon="5.24937">
        <ele>501</ele>
        <time>2021-10-03T12:33:30.991Z</time>
      </trkpt>
      <trkpt lat="45.51344" lon="5.24945">
        <ele>501</ele>
        <time>2021-10-03T12:33:34.996Z</time>
      </trkpt>
      <trkpt lat="45.51346" lon="5.24955">
        <ele>501</ele>
        <time>2021-10-03T12:33:39.971Z</time>
      </trkpt>
      <trkpt lat="45.51347" lon="5.24965">
        <ele>503</ele>
        <time>2021-10-03T12:33:44.990Z</time>
      </trkpt>
      <trkpt lat="45.51348" lon="5.24976">
        <ele>506</ele>
        <time>2021-10-03T12:33:49.970Z</time>
      </trkpt>
      <trkpt lat="45.51349" lon="5.24986">
        <ele>506</ele>
        <time>2021-10-03T12:33:54.965Z</time>
      </trkpt>
      <trkpt lat="45.51352" lon="5.24994">
        <ele>508</ele>
        <time>2021-10-03T12:33:59.970Z</time>
      </trkpt>
      <trkpt lat="45.51356" lon="5.25002">
        <ele>508</ele>
        <time>2021-10-03T12:34:04.967Z</time>
      </trkpt>
      <trkpt lat="45.5136" lon="5.25008">
        <ele>508</ele>
        <time>2021-10-03T12:34:09.983Z</time>
      </trkpt>
      <trkpt lat="45.51365" lon="5.25017">
        <ele>510</ele>
        <time>2021-10-03T12:34:14.976Z</time>
      </trkpt>
      <trkpt lat="45.5137" lon="5.25024">
        <ele>510</ele>
        <time>2021-10-03T12:34:19.964Z</time>
      </trkpt>
      <trkpt lat="45.51376" lon="5.25032">
        <ele>510</ele>
        <time>2021-10-03T12:34:24.979Z</time>
      </trkpt>
      <trkpt lat="45.51383" lon="5.25044">
        <ele>511</ele>
        <time>2021-10-03T12:34:30.002Z</time>
      </trkpt>
      <trkpt lat="45.51387" lon="5.2505">
        <ele>511</ele>
        <time>2021-10-03T12:34:34.989Z</time>
      </trkpt>
      <trkpt lat="45.51388" lon="5.25051">
        <ele>511</ele>
        <time>2021-10-03T12:34:39.979Z</time>
      </trkpt>
      <trkpt lat="45.51389" lon="5.25054">
        <ele>511</ele>
        <time>2021-10-03T12:34:43.990Z</time>
      </trkpt>
      <trkpt lat="45.51398" lon="5.25068">
        <ele>511</ele>
        <time>2021-10-03T12:34:48.973Z</time>
      </trkpt>
      <trkpt lat="45.51403" lon="5.2508">
        <ele>510</ele>
        <time>2021-10-03T12:34:53.015Z</time>
      </trkpt>
      <trkpt lat="45.51405" lon="5.25092">
        <ele>510</ele>
        <time>2021-10-03T12:34:57.974Z</time>
      </trkpt>
      <trkpt lat="45.51407" lon="5.25101">
        <ele>510</ele>
        <time>2021-10-03T12:35:01.988Z</time>
      </trkpt>
      <trkpt lat="45.5141" lon="5.25109">
        <ele>510</ele>
        <time>2021-10-03T12:35:06.007Z</time>
      </trkpt>
      <trkpt lat="45.51412" lon="5.25117">
        <ele>510</ele>
        <time>2021-10-03T12:35:10.972Z</time>
      </trkpt>
      <trkpt lat="45.51414" lon="5.25124">
        <ele>510</ele>
        <time>2021-10-03T12:35:14.996Z</time>
      </trkpt>
      <trkpt lat="45.51418" lon="5.25131">
        <ele>510</ele>
        <time>2021-10-03T12:35:19.952Z</time>
      </trkpt>
      <trkpt lat="45.51422" lon="5.25137">
        <ele>510</ele>
        <time>2021-10-03T12:35:24.944Z</time>
      </trkpt>
      <trkpt lat="45.51426" lon="5.25144">
        <ele>510</ele>
        <time>2021-10-03T12:35:29.948Z</time>
      </trkpt>
      <trkpt lat="45.5143" lon="5.25149">
        <ele>510</ele>
        <time>2021-10-03T12:35:33.985Z</time>
      </trkpt>
      <trkpt lat="45.51434" lon="5.25158">
        <ele>510</ele>
        <time>2021-10-03T12:35:38.989Z</time>
      </trkpt>
      <trkpt lat="45.51438" lon="5.25164">
        <ele>510</ele>
        <time>2021-10-03T12:35:42.994Z</time>
      </trkpt>
      <trkpt lat="45.51444" lon="5.25169">
        <ele>510</ele>
        <time>2021-10-03T12:35:47.990Z</time>
      </trkpt>
      <trkpt lat="45.51448" lon="5.25178">
        <ele>510</ele>
        <time>2021-10-03T12:35:52.991Z</time>
      </trkpt>
      <trkpt lat="45.51451" lon="5.25186">
        <ele>509</ele>
        <time>2021-10-03T12:35:57.003Z</time>
      </trkpt>
      <trkpt lat="45.51455" lon="5.25196">
        <ele>509</ele>
        <time>2021-10-03T12:36:01.983Z</time>
      </trkpt>
      <trkpt lat="45.51458" lon="5.25205">
        <ele>509</ele>
        <time>2021-10-03T12:36:06.974Z</time>
      </trkpt>
      <trkpt lat="45.51462" lon="5.25215">
        <ele>508</ele>
        <time>2021-10-03T12:36:11.987Z</time>
      </trkpt>
      <trkpt lat="45.51465" lon="5.25224">
        <ele>508</ele>
        <time>2021-10-03T12:36:16.949Z</time>
      </trkpt>
      <trkpt lat="45.51468" lon="5.25232">
        <ele>508</ele>
        <time>2021-10-03T12:36:21.979Z</time>
      </trkpt>
      <trkpt lat="45.5147" lon="5.2524">
        <ele>505</ele>
        <time>2021-10-03T12:36:25.990Z</time>
      </trkpt>
      <trkpt lat="45.51473" lon="5.25247">
        <ele>505</ele>
        <time>2021-10-03T12:36:30.015Z</time>
      </trkpt>
      <trkpt lat="45.51475" lon="5.25255">
        <ele>505</ele>
        <time>2021-10-03T12:36:34.987Z</time>
      </trkpt>
      <trkpt lat="45.51478" lon="5.25263">
        <ele>505</ele>
        <time>2021-10-03T12:36:39.984Z</time>
      </trkpt>
      <trkpt lat="45.51481" lon="5.2527">
        <ele>503</ele>
        <time>2021-10-03T12:36:43.991Z</time>
      </trkpt>
      <trkpt lat="45.51484" lon="5.25278">
        <ele>503</ele>
        <time>2021-10-03T12:36:49.014Z</time>
      </trkpt>
      <trkpt lat="45.51487" lon="5.25287">
        <ele>503</ele>
        <time>2021-10-03T12:36:53.945Z</time>
      </trkpt>
      <trkpt lat="45.51489" lon="5.25294">
        <ele>503</ele>
        <time>2021-10-03T12:36:57.994Z</time>
      </trkpt>
      <trkpt lat="45.51491" lon="5.253">
        <ele>503</ele>
        <time>2021-10-03T12:37:02.022Z</time>
      </trkpt>
      <trkpt lat="45.51494" lon="5.25309">
        <ele>503</ele>
        <time>2021-10-03T12:37:07.014Z</time>
      </trkpt>
      <trkpt lat="45.51497" lon="5.25318">
        <ele>503</ele>
        <time>2021-10-03T12:37:11.997Z</time>
      </trkpt>
      <trkpt lat="45.51499" lon="5.25325">
        <ele>503</ele>
        <time>2021-10-03T12:37:16.020Z</time>
      </trkpt>
      <trkpt lat="45.51502" lon="5.25335">
        <ele>503</ele>
        <time>2021-10-03T12:37:20.946Z</time>
      </trkpt>
      <trkpt lat="45.51505" lon="5.25342">
        <ele>503</ele>
        <time>2021-10-03T12:37:24.969Z</time>
      </trkpt>
      <trkpt lat="45.51507" lon="5.2535">
        <ele>503</ele>
        <time>2021-10-03T12:37:28.983Z</time>
      </trkpt>
      <trkpt lat="45.51511" lon="5.25359">
        <ele>503</ele>
        <time>2021-10-03T12:37:33.994Z</time>
      </trkpt>
      <trkpt lat="45.51513" lon="5.25365">
        <ele>503</ele>
        <time>2021-10-03T12:37:37.992Z</time>
      </trkpt>
      <trkpt lat="45.51516" lon="5.25374">
        <ele>502</ele>
        <time>2021-10-03T12:37:43.007Z</time>
      </trkpt>
      <trkpt lat="45.5152" lon="5.25382">
        <ele>502</ele>
        <time>2021-10-03T12:37:47.950Z</time>
      </trkpt>
      <trkpt lat="45.51523" lon="5.2539">
        <ele>502</ele>
        <time>2021-10-03T12:37:51.972Z</time>
      </trkpt>
      <trkpt lat="45.51527" lon="5.25398">
        <ele>502</ele>
        <time>2021-10-03T12:37:56.972Z</time>
      </trkpt>
      <trkpt lat="45.51529" lon="5.25405">
        <ele>503</ele>
        <time>2021-10-03T12:38:00.988Z</time>
      </trkpt>
      <trkpt lat="45.51531" lon="5.25413">
        <ele>503</ele>
        <time>2021-10-03T12:38:05.971Z</time>
      </trkpt>
      <trkpt lat="45.51532" lon="5.25422">
        <ele>503</ele>
        <time>2021-10-03T12:38:10.987Z</time>
      </trkpt>
      <trkpt lat="45.51532" lon="5.2543">
        <ele>503</ele>
        <time>2021-10-03T12:38:14.961Z</time>
      </trkpt>
      <trkpt lat="45.51533" lon="5.2544">
        <ele>504</ele>
        <time>2021-10-03T12:38:19.998Z</time>
      </trkpt>
      <trkpt lat="45.51533" lon="5.25449">
        <ele>504</ele>
        <time>2021-10-03T12:38:24.965Z</time>
      </trkpt>
      <trkpt lat="45.51533" lon="5.25457">
        <ele>504</ele>
        <time>2021-10-03T12:38:29.018Z</time>
      </trkpt>
      <trkpt lat="45.51533" lon="5.25467">
        <ele>505</ele>
        <time>2021-10-03T12:38:33.991Z</time>
      </trkpt>
      <trkpt lat="45.51533" lon="5.25474">
        <ele>505</ele>
        <time>2021-10-03T12:38:38.028Z</time>
      </trkpt>
      <trkpt lat="45.51533" lon="5.25483">
        <ele>505</ele>
        <time>2021-10-03T12:38:42.034Z</time>
      </trkpt>
      <trkpt lat="45.51533" lon="5.25493">
        <ele>505</ele>
        <time>2021-10-03T12:38:47.020Z</time>
      </trkpt>
      <trkpt lat="45.51533" lon="5.25502">
        <ele>505</ele>
        <time>2021-10-03T12:38:51.970Z</time>
      </trkpt>
      <trkpt lat="45.51532" lon="5.2551">
        <ele>505</ele>
        <time>2021-10-03T12:38:56.980Z</time>
      </trkpt>
      <trkpt lat="45.51532" lon="5.2552">
        <ele>506</ele>
        <time>2021-10-03T12:39:01.965Z</time>
      </trkpt>
      <trkpt lat="45.51532" lon="5.25529">
        <ele>506</ele>
        <time>2021-10-03T12:39:06.950Z</time>
      </trkpt>
      <trkpt lat="45.51534" lon="5.25537">
        <ele>506</ele>
        <time>2021-10-03T12:39:10.971Z</time>
      </trkpt>
      <trkpt lat="45.5153" lon="5.25563">
        <ele>507</ele>
        <time>2021-10-03T12:41:06.995Z</time>
      </trkpt>
      <trkpt lat="45.51531" lon="5.2557">
        <ele>506</ele>
        <time>2021-10-03T12:41:11.978Z</time>
      </trkpt>
      <trkpt lat="45.51531" lon="5.25574">
        <ele>506</ele>
        <time>2021-10-03T12:41:16.990Z</time>
      </trkpt>
      <trkpt lat="45.51531" lon="5.25576">
        <ele>506</ele>
        <time>2021-10-03T12:41:20.992Z</time>
      </trkpt>
      <trkpt lat="45.51529" lon="5.25582">
        <ele>506</ele>
        <time>2021-10-03T12:41:25.974Z</time>
      </trkpt>
      <trkpt lat="45.51529" lon="5.25587">
        <ele>506</ele>
        <time>2021-10-03T12:41:30.949Z</time>
      </trkpt>
      <trkpt lat="45.51528" lon="5.25592">
        <ele>506</ele>
        <time>2021-10-03T12:41:34.989Z</time>
      </trkpt>
      <trkpt lat="45.51528" lon="5.25598">
        <ele>505</ele>
        <time>2021-10-03T12:41:39.994Z</time>
      </trkpt>
      <trkpt lat="45.51528" lon="5.25604">
        <ele>505</ele>
        <time>2021-10-03T12:41:44.980Z</time>
      </trkpt>
      <trkpt lat="45.51528" lon="5.25613">
        <ele>505</ele>
        <time>2021-10-03T12:41:49.991Z</time>
      </trkpt>
      <trkpt lat="45.51529" lon="5.25621">
        <ele>505</ele>
        <time>2021-10-03T12:41:54.982Z</time>
      </trkpt>
      <trkpt lat="45.51529" lon="5.25628">
        <ele>506</ele>
        <time>2021-10-03T12:41:58.989Z</time>
      </trkpt>
      <trkpt lat="45.5153" lon="5.25635">
        <ele>506</ele>
        <time>2021-10-03T12:42:03.044Z</time>
      </trkpt>
      <trkpt lat="45.51531" lon="5.25643">
        <ele>506</ele>
        <time>2021-10-03T12:42:07.943Z</time>
      </trkpt>
      <trkpt lat="45.51532" lon="5.25651">
        <ele>506</ele>
        <time>2021-10-03T12:42:11.978Z</time>
      </trkpt>
      <trkpt lat="45.51533" lon="5.25659">
        <ele>507</ele>
        <time>2021-10-03T12:42:15.995Z</time>
      </trkpt>
      <trkpt lat="45.51535" lon="5.25668">
        <ele>507</ele>
        <time>2021-10-03T12:42:20.987Z</time>
      </trkpt>
      <trkpt lat="45.51537" lon="5.25675">
        <ele>507</ele>
        <time>2021-10-03T12:42:25.022Z</time>
      </trkpt>
      <trkpt lat="45.51538" lon="5.25684">
        <ele>506</ele>
        <time>2021-10-03T12:42:29.988Z</time>
      </trkpt>
      <trkpt lat="45.5154" lon="5.25694">
        <ele>506</ele>
        <time>2021-10-03T12:42:34.985Z</time>
      </trkpt>
      <trkpt lat="45.5154" lon="5.25704">
        <ele>506</ele>
        <time>2021-10-03T12:42:39.993Z</time>
      </trkpt>
      <trkpt lat="45.51541" lon="5.25714">
        <ele>505</ele>
        <time>2021-10-03T12:42:44.992Z</time>
      </trkpt>
      <trkpt lat="45.51542" lon="5.25724">
        <ele>506</ele>
        <time>2021-10-03T12:42:49.989Z</time>
      </trkpt>
      <trkpt lat="45.51543" lon="5.25732">
        <ele>506</ele>
        <time>2021-10-03T12:42:53.989Z</time>
      </trkpt>
      <trkpt lat="45.51544" lon="5.25743">
        <ele>505</ele>
        <time>2021-10-03T12:42:58.960Z</time>
      </trkpt>
      <trkpt lat="45.51544" lon="5.25751">
        <ele>505</ele>
        <time>2021-10-03T12:43:02.980Z</time>
      </trkpt>
      <trkpt lat="45.51545" lon="5.25761">
        <ele>505</ele>
        <time>2021-10-03T12:43:07.948Z</time>
      </trkpt>
      <trkpt lat="45.51544" lon="5.25768">
        <ele>505</ele>
        <time>2021-10-03T12:43:11.976Z</time>
      </trkpt>
      <trkpt lat="45.51544" lon="5.25778">
        <ele>505</ele>
        <time>2021-10-03T12:43:16.987Z</time>
      </trkpt>
      <trkpt lat="45.51543" lon="5.25787">
        <ele>505</ele>
        <time>2021-10-03T12:43:21.956Z</time>
      </trkpt>
      <trkpt lat="45.51542" lon="5.25794">
        <ele>504</ele>
        <time>2021-10-03T12:43:25.982Z</time>
      </trkpt>
      <trkpt lat="45.51541" lon="5.25803">
        <ele>504</ele>
        <time>2021-10-03T12:43:30.941Z</time>
      </trkpt>
      <trkpt lat="45.5154" lon="5.2581">
        <ele>504</ele>
        <time>2021-10-03T12:43:34.986Z</time>
      </trkpt>
      <trkpt lat="45.51538" lon="5.2582">
        <ele>503</ele>
        <time>2021-10-03T12:43:40.011Z</time>
      </trkpt>
      <trkpt lat="45.51536" lon="5.25831">
        <ele>503</ele>
        <time>2021-10-03T12:43:44.977Z</time>
      </trkpt>
      <trkpt lat="45.51535" lon="5.25839">
        <ele>503</ele>
        <time>2021-10-03T12:43:48.991Z</time>
      </trkpt>
      <trkpt lat="45.51533" lon="5.2585">
        <ele>502</ele>
        <time>2021-10-03T12:43:53.983Z</time>
      </trkpt>
      <trkpt lat="45.51532" lon="5.25857">
        <ele>502</ele>
        <time>2021-10-03T12:43:57.986Z</time>
      </trkpt>
      <trkpt lat="45.51531" lon="5.25867">
        <ele>502</ele>
        <time>2021-10-03T12:44:02.991Z</time>
      </trkpt>
      <trkpt lat="45.51529" lon="5.25875">
        <ele>501</ele>
        <time>2021-10-03T12:44:07.984Z</time>
      </trkpt>
      <trkpt lat="45.51528" lon="5.25885">
        <ele>501</ele>
        <time>2021-10-03T12:44:12.980Z</time>
      </trkpt>
      <trkpt lat="45.51527" lon="5.25909">
        <ele>499</ele>
        <time>2021-10-03T12:45:15.977Z</time>
      </trkpt>
      <trkpt lat="45.51527" lon="5.2591">
        <ele>499</ele>
        <time>2021-10-03T12:45:20.984Z</time>
      </trkpt>
      <trkpt lat="45.51526" lon="5.25912">
        <ele>499</ele>
        <time>2021-10-03T12:45:24.990Z</time>
      </trkpt>
      <trkpt lat="45.51525" lon="5.25914">
        <ele>499</ele>
        <time>2021-10-03T12:45:29.939Z</time>
      </trkpt>
      <trkpt lat="45.51524" lon="5.25921">
        <ele>499</ele>
        <time>2021-10-03T12:45:33.989Z</time>
      </trkpt>
      <trkpt lat="45.51522" lon="5.2593">
        <ele>499</ele>
        <time>2021-10-03T12:45:38.980Z</time>
      </trkpt>
      <trkpt lat="45.51519" lon="5.25937">
        <ele>497</ele>
        <time>2021-10-03T12:45:42.982Z</time>
      </trkpt>
      <trkpt lat="45.51516" lon="5.25946">
        <ele>497</ele>
        <time>2021-10-03T12:45:47.986Z</time>
      </trkpt>
      <trkpt lat="45.51514" lon="5.25955">
        <ele>497</ele>
        <time>2021-10-03T12:45:53.008Z</time>
      </trkpt>
      <trkpt lat="45.51511" lon="5.25964">
        <ele>494</ele>
        <time>2021-10-03T12:45:58.021Z</time>
      </trkpt>
      <trkpt lat="45.51509" lon="5.25972">
        <ele>494</ele>
        <time>2021-10-03T12:46:02.980Z</time>
      </trkpt>
      <trkpt lat="45.51506" lon="5.25978">
        <ele>494</ele>
        <time>2021-10-03T12:46:07.026Z</time>
      </trkpt>
      <trkpt lat="45.515" lon="5.25984">
        <ele>494</ele>
        <time>2021-10-03T12:46:11.993Z</time>
      </trkpt>
      <trkpt lat="45.51496" lon="5.25987">
        <ele>495</ele>
        <time>2021-10-03T12:46:16.020Z</time>
      </trkpt>
      <trkpt lat="45.51491" lon="5.25982">
        <ele>494</ele>
        <time>2021-10-03T12:46:20.946Z</time>
      </trkpt>
      <trkpt lat="45.51487" lon="5.25976">
        <ele>494</ele>
        <time>2021-10-03T12:46:24.966Z</time>
      </trkpt>
      <trkpt lat="45.51482" lon="5.2597">
        <ele>493</ele>
        <time>2021-10-03T12:46:29.972Z</time>
      </trkpt>
      <trkpt lat="45.51478" lon="5.25967">
        <ele>493</ele>
        <time>2021-10-03T12:46:34.022Z</time>
      </trkpt>
      <trkpt lat="45.51472" lon="5.25963">
        <ele>493</ele>
        <time>2021-10-03T12:46:38.991Z</time>
      </trkpt>
      <trkpt lat="45.51466" lon="5.2596">
        <ele>493</ele>
        <time>2021-10-03T12:46:43.992Z</time>
      </trkpt>
      <trkpt lat="45.51462" lon="5.25957">
        <ele>494</ele>
        <time>2021-10-03T12:46:48.015Z</time>
      </trkpt>
      <trkpt lat="45.51457" lon="5.25952">
        <ele>492</ele>
        <time>2021-10-03T12:46:52.988Z</time>
      </trkpt>
      <trkpt lat="45.51452" lon="5.25947">
        <ele>492</ele>
        <time>2021-10-03T12:46:57.996Z</time>
      </trkpt>
      <trkpt lat="45.51447" lon="5.25942">
        <ele>492</ele>
        <time>2021-10-03T12:47:02.986Z</time>
      </trkpt>
      <trkpt lat="45.51441" lon="5.25938">
        <ele>492</ele>
        <time>2021-10-03T12:47:07.949Z</time>
      </trkpt>
      <trkpt lat="45.51437" lon="5.25934">
        <ele>492</ele>
        <time>2021-10-03T12:47:11.984Z</time>
      </trkpt>
      <trkpt lat="45.51433" lon="5.2593">
        <ele>493</ele>
        <time>2021-10-03T12:47:15.989Z</time>
      </trkpt>
      <trkpt lat="45.51428" lon="5.25924">
        <ele>491</ele>
        <time>2021-10-03T12:47:20.974Z</time>
      </trkpt>
      <trkpt lat="45.51423" lon="5.25917">
        <ele>491</ele>
        <time>2021-10-03T12:47:25.974Z</time>
      </trkpt>
      <trkpt lat="45.5142" lon="5.25913">
        <ele>491</ele>
        <time>2021-10-03T12:47:30.945Z</time>
      </trkpt>
      <trkpt lat="45.51416" lon="5.2591">
        <ele>491</ele>
        <time>2021-10-03T12:47:34.991Z</time>
      </trkpt>
      <trkpt lat="45.51412" lon="5.25905">
        <ele>491</ele>
        <time>2021-10-03T12:47:39.947Z</time>
      </trkpt>
      <trkpt lat="45.51409" lon="5.259">
        <ele>492</ele>
        <time>2021-10-03T12:47:43.993Z</time>
      </trkpt>
      <trkpt lat="45.51405" lon="5.25895">
        <ele>492</ele>
        <time>2021-10-03T12:47:48.977Z</time>
      </trkpt>
      <trkpt lat="45.514" lon="5.2589">
        <ele>490</ele>
        <time>2021-10-03T12:47:53.970Z</time>
      </trkpt>
      <trkpt lat="45.51396" lon="5.25886">
        <ele>490</ele>
        <time>2021-10-03T12:47:58.007Z</time>
      </trkpt>
      <trkpt lat="45.5139" lon="5.2588">
        <ele>490</ele>
        <time>2021-10-03T12:48:02.991Z</time>
      </trkpt>
      <trkpt lat="45.51386" lon="5.25875">
        <ele>490</ele>
        <time>2021-10-03T12:48:07.014Z</time>
      </trkpt>
      <trkpt lat="45.51381" lon="5.2587">
        <ele>489</ele>
        <time>2021-10-03T12:48:11.986Z</time>
      </trkpt>
      <trkpt lat="45.51381" lon="5.25867">
        <ele>489</ele>
        <time>2021-10-03T12:48:15.996Z</time>
      </trkpt>
      <trkpt lat="45.51376" lon="5.25861">
        <ele>489</ele>
        <time>2021-10-03T12:48:20.943Z</time>
      </trkpt>
      <trkpt lat="45.51374" lon="5.25857">
        <ele>488</ele>
        <time>2021-10-03T12:48:24.983Z</time>
      </trkpt>
      <trkpt lat="45.51375" lon="5.25849">
        <ele>489</ele>
        <time>2021-10-03T12:48:30.983Z</time>
      </trkpt>
      <trkpt lat="45.51377" lon="5.25841">
        <ele>489</ele>
        <time>2021-10-03T12:48:35.015Z</time>
      </trkpt>
      <trkpt lat="45.51379" lon="5.25833">
        <ele>489</ele>
        <time>2021-10-03T12:48:39.995Z</time>
      </trkpt>
      <trkpt lat="45.51381" lon="5.25828">
        <ele>489</ele>
        <time>2021-10-03T12:48:44.976Z</time>
      </trkpt>
      <trkpt lat="45.51383" lon="5.25823">
        <ele>489</ele>
        <time>2021-10-03T12:48:48.979Z</time>
      </trkpt>
      <trkpt lat="45.51384" lon="5.25815">
        <ele>489</ele>
        <time>2021-10-03T12:48:53.978Z</time>
      </trkpt>
      <trkpt lat="45.51384" lon="5.25808">
        <ele>489</ele>
        <time>2021-10-03T12:48:58.973Z</time>
      </trkpt>
    </trkseg>
  </trk>
</gpx>